<?xml version="1.0" encoding="UTF-8" standalone="no" ?>
<gpx xmlns="http://www.topografix.com/GPX/1/1" xmlns:xsi="http://www.w3.org/2001/XMLSchema-instance" xsi:schemaLocation="http://www.topografix.com/GPX/1/1 http://www.topografix.com/GPX/1/1/gpx.xsd" version="1.1" creator="VisuGPX - https://www.visugpx.com">
  <metadata>
    <name>18 km carquefou</name>
  </metadata>
  <trk>
    <name><![CDATA[18 km carquefou_1]]></name>
    <trkseg>
      <trkpt lat="47.30773" lon="-1.52124">
        <ele>15.7</ele>
        <time>2020-08-09T06:32:23Z</time>
      </trkpt>
      <trkpt lat="47.30773" lon="-1.52124">
        <ele>79.3784</ele>
        <time>2020-08-09T06:32:24Z</time>
      </trkpt>
      <trkpt lat="47.30769" lon="-1.52117">
        <ele>79.0827</ele>
        <time>2020-08-09T06:32:31Z</time>
      </trkpt>
      <trkpt lat="47.30766" lon="-1.5211">
        <ele>78.8305</ele>
        <time>2020-08-09T06:32:34Z</time>
      </trkpt>
      <trkpt lat="47.30766" lon="-1.52103">
        <ele>78.6073</ele>
        <time>2020-08-09T06:32:36Z</time>
      </trkpt>
      <trkpt lat="47.30766" lon="-1.52094">
        <ele>78.0818</ele>
        <time>2020-08-09T06:32:40Z</time>
      </trkpt>
      <trkpt lat="47.30764" lon="-1.52085">
        <ele>77.6378</ele>
        <time>2020-08-09T06:32:43Z</time>
      </trkpt>
      <trkpt lat="47.30764" lon="-1.52075">
        <ele>77.1707</ele>
        <time>2020-08-09T06:32:46Z</time>
      </trkpt>
      <trkpt lat="47.30763" lon="-1.52064">
        <ele>76.7244</ele>
        <time>2020-08-09T06:32:49Z</time>
      </trkpt>
      <trkpt lat="47.30762" lon="-1.5206">
        <ele>76.5789</ele>
        <time>2020-08-09T06:32:50Z</time>
      </trkpt>
      <trkpt lat="47.3076" lon="-1.52053">
        <ele>76.2811</ele>
        <time>2020-08-09T06:32:52Z</time>
      </trkpt>
      <trkpt lat="47.3076" lon="-1.52046">
        <ele>75.9917</ele>
        <time>2020-08-09T06:32:54Z</time>
      </trkpt>
      <trkpt lat="47.3076" lon="-1.52039">
        <ele>75.7181</ele>
        <time>2020-08-09T06:32:56Z</time>
      </trkpt>
      <trkpt lat="47.3076" lon="-1.52034">
        <ele>75.5845</ele>
        <time>2020-08-09T06:32:57Z</time>
      </trkpt>
      <trkpt lat="47.30758" lon="-1.52026">
        <ele>75.177</ele>
        <time>2020-08-09T06:33:00Z</time>
      </trkpt>
      <trkpt lat="47.30758" lon="-1.52016">
        <ele>74.7514</ele>
        <time>2020-08-09T06:33:03Z</time>
      </trkpt>
      <trkpt lat="47.30758" lon="-1.52012">
        <ele>74.6129</ele>
        <time>2020-08-09T06:33:04Z</time>
      </trkpt>
      <trkpt lat="47.30758" lon="-1.52006">
        <ele>74.3425</ele>
        <time>2020-08-09T06:33:06Z</time>
      </trkpt>
      <trkpt lat="47.30753" lon="-1.51993">
        <ele>73.9391</ele>
        <time>2020-08-09T06:33:09Z</time>
      </trkpt>
      <trkpt lat="47.30752" lon="-1.51983">
        <ele>73.6802</ele>
        <time>2020-08-09T06:33:11Z</time>
      </trkpt>
      <trkpt lat="47.30747" lon="-1.51976">
        <ele>73.4378</ele>
        <time>2020-08-09T06:33:13Z</time>
      </trkpt>
      <trkpt lat="47.30742" lon="-1.51974">
        <ele>73.2035</ele>
        <time>2020-08-09T06:33:15Z</time>
      </trkpt>
      <trkpt lat="47.30736" lon="-1.51979">
        <ele>72.9739</ele>
        <time>2020-08-09T06:33:17Z</time>
      </trkpt>
      <trkpt lat="47.30732" lon="-1.5198">
        <ele>72.7553</ele>
        <time>2020-08-09T06:33:19Z</time>
      </trkpt>
      <trkpt lat="47.30728" lon="-1.51984">
        <ele>72.5418</ele>
        <time>2020-08-09T06:33:21Z</time>
      </trkpt>
      <trkpt lat="47.30725" lon="-1.51987">
        <ele>72.3327</ele>
        <time>2020-08-09T06:33:23Z</time>
      </trkpt>
      <trkpt lat="47.30721" lon="-1.5199">
        <ele>72.128</ele>
        <time>2020-08-09T06:33:25Z</time>
      </trkpt>
      <trkpt lat="47.30718" lon="-1.51992">
        <ele>71.9237</ele>
        <time>2020-08-09T06:33:27Z</time>
      </trkpt>
      <trkpt lat="47.30714" lon="-1.51998">
        <ele>71.7262</ele>
        <time>2020-08-09T06:33:29Z</time>
      </trkpt>
      <trkpt lat="47.30713" lon="-1.52001">
        <ele>71.6316</ele>
        <time>2020-08-09T06:33:30Z</time>
      </trkpt>
      <trkpt lat="47.30708" lon="-1.52008">
        <ele>71.3559</ele>
        <time>2020-08-09T06:33:33Z</time>
      </trkpt>
      <trkpt lat="47.30703" lon="-1.52015">
        <ele>71.0857</ele>
        <time>2020-08-09T06:33:36Z</time>
      </trkpt>
      <trkpt lat="47.30701" lon="-1.52023">
        <ele>70.8208</ele>
        <time>2020-08-09T06:33:39Z</time>
      </trkpt>
      <trkpt lat="47.30696" lon="-1.5203">
        <ele>70.5626</ele>
        <time>2020-08-09T06:33:42Z</time>
      </trkpt>
      <trkpt lat="47.30692" lon="-1.52036">
        <ele>70.3962</ele>
        <time>2020-08-09T06:33:44Z</time>
      </trkpt>
      <trkpt lat="47.30688" lon="-1.52041">
        <ele>70.2365</ele>
        <time>2020-08-09T06:33:46Z</time>
      </trkpt>
      <trkpt lat="47.30684" lon="-1.52044">
        <ele>70.0785</ele>
        <time>2020-08-09T06:33:48Z</time>
      </trkpt>
      <trkpt lat="47.3068" lon="-1.52049">
        <ele>69.9257</ele>
        <time>2020-08-09T06:33:50Z</time>
      </trkpt>
      <trkpt lat="47.30677" lon="-1.52052">
        <ele>69.8517</ele>
        <time>2020-08-09T06:33:51Z</time>
      </trkpt>
      <trkpt lat="47.30673" lon="-1.52057">
        <ele>69.7071</ele>
        <time>2020-08-09T06:33:53Z</time>
      </trkpt>
      <trkpt lat="47.30667" lon="-1.52061">
        <ele>69.5692</ele>
        <time>2020-08-09T06:33:55Z</time>
      </trkpt>
      <trkpt lat="47.30661" lon="-1.52064">
        <ele>69.3624</ele>
        <time>2020-08-09T06:33:58Z</time>
      </trkpt>
      <trkpt lat="47.30658" lon="-1.52066">
        <ele>69.2939</ele>
        <time>2020-08-09T06:33:59Z</time>
      </trkpt>
      <trkpt lat="47.30653" lon="-1.52067">
        <ele>69.1573</ele>
        <time>2020-08-09T06:34:01Z</time>
      </trkpt>
      <trkpt lat="47.30649" lon="-1.5207">
        <ele>69.0226</ele>
        <time>2020-08-09T06:34:03Z</time>
      </trkpt>
      <trkpt lat="47.30643" lon="-1.5207">
        <ele>68.8917</ele>
        <time>2020-08-09T06:34:05Z</time>
      </trkpt>
      <trkpt lat="47.30638" lon="-1.52072">
        <ele>68.7633</ele>
        <time>2020-08-09T06:34:07Z</time>
      </trkpt>
      <trkpt lat="47.30631" lon="-1.52076">
        <ele>68.5833</ele>
        <time>2020-08-09T06:34:10Z</time>
      </trkpt>
      <trkpt lat="47.30626" lon="-1.52077">
        <ele>68.4718</ele>
        <time>2020-08-09T06:34:12Z</time>
      </trkpt>
      <trkpt lat="47.30621" lon="-1.52078">
        <ele>68.3645</ele>
        <time>2020-08-09T06:34:14Z</time>
      </trkpt>
      <trkpt lat="47.30616" lon="-1.52078">
        <ele>68.1993</ele>
        <time>2020-08-09T06:34:17Z</time>
      </trkpt>
      <trkpt lat="47.30612" lon="-1.5208">
        <ele>68.0409</ele>
        <time>2020-08-09T06:34:20Z</time>
      </trkpt>
      <trkpt lat="47.30606" lon="-1.52084">
        <ele>67.9401</ele>
        <time>2020-08-09T06:34:22Z</time>
      </trkpt>
      <trkpt lat="47.30601" lon="-1.52086">
        <ele>67.8423</ele>
        <time>2020-08-09T06:34:24Z</time>
      </trkpt>
      <trkpt lat="47.30598" lon="-1.52087">
        <ele>67.7932</ele>
        <time>2020-08-09T06:34:25Z</time>
      </trkpt>
      <trkpt lat="47.30591" lon="-1.52088">
        <ele>67.6962</ele>
        <time>2020-08-09T06:34:27Z</time>
      </trkpt>
      <trkpt lat="47.30583" lon="-1.52093">
        <ele>67.5548</ele>
        <time>2020-08-09T06:34:30Z</time>
      </trkpt>
      <trkpt lat="47.30579" lon="-1.52095">
        <ele>67.4623</ele>
        <time>2020-08-09T06:34:32Z</time>
      </trkpt>
      <trkpt lat="47.30573" lon="-1.52098">
        <ele>67.3252</ele>
        <time>2020-08-09T06:34:35Z</time>
      </trkpt>
      <trkpt lat="47.30566" lon="-1.52101">
        <ele>67.1843</ele>
        <time>2020-08-09T06:34:38Z</time>
      </trkpt>
      <trkpt lat="47.30564" lon="-1.52102">
        <ele>67.1397</ele>
        <time>2020-08-09T06:34:39Z</time>
      </trkpt>
      <trkpt lat="47.30558" lon="-1.52105">
        <ele>67.0082</ele>
        <time>2020-08-09T06:34:42Z</time>
      </trkpt>
      <trkpt lat="47.30556" lon="-1.52107">
        <ele>66.9657</ele>
        <time>2020-08-09T06:34:43Z</time>
      </trkpt>
      <trkpt lat="47.30552" lon="-1.52109">
        <ele>66.8833</ele>
        <time>2020-08-09T06:34:45Z</time>
      </trkpt>
      <trkpt lat="47.30548" lon="-1.52111">
        <ele>66.8011</ele>
        <time>2020-08-09T06:34:47Z</time>
      </trkpt>
      <trkpt lat="47.30545" lon="-1.52112">
        <ele>66.7611</ele>
        <time>2020-08-09T06:34:48Z</time>
      </trkpt>
      <trkpt lat="47.30541" lon="-1.52114">
        <ele>66.6808</ele>
        <time>2020-08-09T06:34:50Z</time>
      </trkpt>
      <trkpt lat="47.30539" lon="-1.52115">
        <ele>66.6416</ele>
        <time>2020-08-09T06:34:51Z</time>
      </trkpt>
      <trkpt lat="47.30533" lon="-1.52117">
        <ele>66.566</ele>
        <time>2020-08-09T06:34:53Z</time>
      </trkpt>
      <trkpt lat="47.30528" lon="-1.52119">
        <ele>66.4888</ele>
        <time>2020-08-09T06:34:55Z</time>
      </trkpt>
      <trkpt lat="47.3052" lon="-1.52122">
        <ele>66.3761</ele>
        <time>2020-08-09T06:34:58Z</time>
      </trkpt>
      <trkpt lat="47.30516" lon="-1.52124">
        <ele>66.3035</ele>
        <time>2020-08-09T06:35:00Z</time>
      </trkpt>
      <trkpt lat="47.30512" lon="-1.52125">
        <ele>66.2347</ele>
        <time>2020-08-09T06:35:02Z</time>
      </trkpt>
      <trkpt lat="47.30506" lon="-1.52126">
        <ele>66.1273</ele>
        <time>2020-08-09T06:35:05Z</time>
      </trkpt>
      <trkpt lat="47.30501" lon="-1.52129">
        <ele>66.0539</ele>
        <time>2020-08-09T06:35:07Z</time>
      </trkpt>
      <trkpt lat="47.30498" lon="-1.5213">
        <ele>66.0187</ele>
        <time>2020-08-09T06:35:08Z</time>
      </trkpt>
      <trkpt lat="47.30494" lon="-1.52131">
        <ele>65.9463</ele>
        <time>2020-08-09T06:35:10Z</time>
      </trkpt>
      <trkpt lat="47.30492" lon="-1.52131">
        <ele>65.9095</ele>
        <time>2020-08-09T06:35:11Z</time>
      </trkpt>
      <trkpt lat="47.30487" lon="-1.52132">
        <ele>65.8321</ele>
        <time>2020-08-09T06:35:13Z</time>
      </trkpt>
      <trkpt lat="47.30481" lon="-1.52134">
        <ele>65.7549</ele>
        <time>2020-08-09T06:35:15Z</time>
      </trkpt>
      <trkpt lat="47.30475" lon="-1.52135">
        <ele>65.678</ele>
        <time>2020-08-09T06:35:17Z</time>
      </trkpt>
      <trkpt lat="47.30472" lon="-1.52136">
        <ele>65.6396</ele>
        <time>2020-08-09T06:35:18Z</time>
      </trkpt>
      <trkpt lat="47.30465" lon="-1.52135">
        <ele>65.5623</ele>
        <time>2020-08-09T06:35:20Z</time>
      </trkpt>
      <trkpt lat="47.30459" lon="-1.52137">
        <ele>65.4874</ele>
        <time>2020-08-09T06:35:22Z</time>
      </trkpt>
      <trkpt lat="47.30456" lon="-1.52138">
        <ele>65.4505</ele>
        <time>2020-08-09T06:35:23Z</time>
      </trkpt>
      <trkpt lat="47.30453" lon="-1.52139">
        <ele>65.4127</ele>
        <time>2020-08-09T06:35:24Z</time>
      </trkpt>
      <trkpt lat="47.30451" lon="-1.5214">
        <ele>65.3752</ele>
        <time>2020-08-09T06:35:25Z</time>
      </trkpt>
      <trkpt lat="47.30448" lon="-1.5214">
        <ele>65.3382</ele>
        <time>2020-08-09T06:35:26Z</time>
      </trkpt>
      <trkpt lat="47.30443" lon="-1.52142">
        <ele>65.2661</ele>
        <time>2020-08-09T06:35:28Z</time>
      </trkpt>
      <trkpt lat="47.30439" lon="-1.52144">
        <ele>65.1973</ele>
        <time>2020-08-09T06:35:30Z</time>
      </trkpt>
      <trkpt lat="47.30434" lon="-1.52146">
        <ele>65.1327</ele>
        <time>2020-08-09T06:35:32Z</time>
      </trkpt>
      <trkpt lat="47.30427" lon="-1.52147">
        <ele>65.0731</ele>
        <time>2020-08-09T06:35:34Z</time>
      </trkpt>
      <trkpt lat="47.30419" lon="-1.52148">
        <ele>64.9877</ele>
        <time>2020-08-09T06:35:37Z</time>
      </trkpt>
      <trkpt lat="47.30415" lon="-1.52149">
        <ele>64.9302</ele>
        <time>2020-08-09T06:35:39Z</time>
      </trkpt>
      <trkpt lat="47.30412" lon="-1.52149">
        <ele>64.9019</ele>
        <time>2020-08-09T06:35:40Z</time>
      </trkpt>
      <trkpt lat="47.30405" lon="-1.52151">
        <ele>64.8183</ele>
        <time>2020-08-09T06:35:43Z</time>
      </trkpt>
      <trkpt lat="47.30403" lon="-1.52152">
        <ele>64.7915</ele>
        <time>2020-08-09T06:35:44Z</time>
      </trkpt>
      <trkpt lat="47.30397" lon="-1.52153">
        <ele>64.7384</ele>
        <time>2020-08-09T06:35:46Z</time>
      </trkpt>
      <trkpt lat="47.30386" lon="-1.52155">
        <ele>64.6632</ele>
        <time>2020-08-09T06:35:49Z</time>
      </trkpt>
      <trkpt lat="47.3038" lon="-1.52158">
        <ele>64.5881</ele>
        <time>2020-08-09T06:35:52Z</time>
      </trkpt>
      <trkpt lat="47.30373" lon="-1.52159">
        <ele>64.5149</ele>
        <time>2020-08-09T06:35:55Z</time>
      </trkpt>
      <trkpt lat="47.3037" lon="-1.52161">
        <ele>64.4923</ele>
        <time>2020-08-09T06:35:56Z</time>
      </trkpt>
      <trkpt lat="47.30364" lon="-1.52163">
        <ele>64.4459</ele>
        <time>2020-08-09T06:35:58Z</time>
      </trkpt>
      <trkpt lat="47.30362" lon="-1.52164">
        <ele>64.4215</ele>
        <time>2020-08-09T06:35:59Z</time>
      </trkpt>
      <trkpt lat="47.30356" lon="-1.52167">
        <ele>64.3729</ele>
        <time>2020-08-09T06:36:01Z</time>
      </trkpt>
      <trkpt lat="47.3035" lon="-1.52168">
        <ele>64.3251</ele>
        <time>2020-08-09T06:36:03Z</time>
      </trkpt>
      <trkpt lat="47.30346" lon="-1.5217">
        <ele>64.0938</ele>
        <time>2020-08-09T06:36:04Z</time>
      </trkpt>
      <trkpt lat="47.30342" lon="-1.52171">
        <ele>64.0753</ele>
        <time>2020-08-09T06:36:05Z</time>
      </trkpt>
      <trkpt lat="47.3034" lon="-1.52172">
        <ele>64.0576</ele>
        <time>2020-08-09T06:36:06Z</time>
      </trkpt>
      <trkpt lat="47.30333" lon="-1.52175">
        <ele>64.0012</ele>
        <time>2020-08-09T06:36:09Z</time>
      </trkpt>
      <trkpt lat="47.30328" lon="-1.52177">
        <ele>63.9637</ele>
        <time>2020-08-09T06:36:11Z</time>
      </trkpt>
      <trkpt lat="47.30325" lon="-1.52178">
        <ele>63.9435</ele>
        <time>2020-08-09T06:36:12Z</time>
      </trkpt>
      <trkpt lat="47.3032" lon="-1.5218">
        <ele>63.9003</ele>
        <time>2020-08-09T06:36:14Z</time>
      </trkpt>
      <trkpt lat="47.30315" lon="-1.52182">
        <ele>63.8578</ele>
        <time>2020-08-09T06:36:16Z</time>
      </trkpt>
      <trkpt lat="47.30302" lon="-1.52186">
        <ele>63.7619</ele>
        <time>2020-08-09T06:36:21Z</time>
      </trkpt>
      <trkpt lat="47.30297" lon="-1.52187">
        <ele>63.7029</ele>
        <time>2020-08-09T06:36:24Z</time>
      </trkpt>
      <trkpt lat="47.30295" lon="-1.52195">
        <ele>63.6458</ele>
        <time>2020-08-09T06:36:27Z</time>
      </trkpt>
      <trkpt lat="47.30295" lon="-1.52205">
        <ele>63.5842</ele>
        <time>2020-08-09T06:36:30Z</time>
      </trkpt>
      <trkpt lat="47.30294" lon="-1.52214">
        <ele>63.5372</ele>
        <time>2020-08-09T06:36:32Z</time>
      </trkpt>
      <trkpt lat="47.30293" lon="-1.52225">
        <ele>63.4851</ele>
        <time>2020-08-09T06:36:34Z</time>
      </trkpt>
      <trkpt lat="47.30292" lon="-1.52231">
        <ele>63.458</ele>
        <time>2020-08-09T06:36:35Z</time>
      </trkpt>
      <trkpt lat="47.30291" lon="-1.52234">
        <ele>63.4295</ele>
        <time>2020-08-09T06:36:36Z</time>
      </trkpt>
      <trkpt lat="47.3029" lon="-1.52239">
        <ele>63.3699</ele>
        <time>2020-08-09T06:36:38Z</time>
      </trkpt>
      <trkpt lat="47.30288" lon="-1.52247">
        <ele>63.2817</ele>
        <time>2020-08-09T06:36:41Z</time>
      </trkpt>
      <trkpt lat="47.30287" lon="-1.52253">
        <ele>63.2215</ele>
        <time>2020-08-09T06:36:43Z</time>
      </trkpt>
      <trkpt lat="47.30285" lon="-1.5226">
        <ele>63.1213</ele>
        <time>2020-08-09T06:36:46Z</time>
      </trkpt>
      <trkpt lat="47.30283" lon="-1.52265">
        <ele>63.0505</ele>
        <time>2020-08-09T06:36:48Z</time>
      </trkpt>
      <trkpt lat="47.3028" lon="-1.52276">
        <ele>62.9418</ele>
        <time>2020-08-09T06:36:51Z</time>
      </trkpt>
      <trkpt lat="47.30278" lon="-1.5229">
        <ele>62.8674</ele>
        <time>2020-08-09T06:36:53Z</time>
      </trkpt>
      <trkpt lat="47.30277" lon="-1.52298">
        <ele>62.8327</ele>
        <time>2020-08-09T06:36:54Z</time>
      </trkpt>
      <trkpt lat="47.30277" lon="-1.52303">
        <ele>62.7984</ele>
        <time>2020-08-09T06:36:55Z</time>
      </trkpt>
      <trkpt lat="47.30274" lon="-1.5231">
        <ele>62.6897</ele>
        <time>2020-08-09T06:36:58Z</time>
      </trkpt>
      <trkpt lat="47.30269" lon="-1.52319">
        <ele>62.5876</ele>
        <time>2020-08-09T06:37:01Z</time>
      </trkpt>
      <trkpt lat="47.30265" lon="-1.52326">
        <ele>62.4893</ele>
        <time>2020-08-09T06:37:04Z</time>
      </trkpt>
      <trkpt lat="47.30264" lon="-1.52328">
        <ele>62.4583</ele>
        <time>2020-08-09T06:37:05Z</time>
      </trkpt>
      <trkpt lat="47.30262" lon="-1.52331">
        <ele>62.3092</ele>
        <time>2020-08-09T06:37:10Z</time>
      </trkpt>
      <trkpt lat="47.30258" lon="-1.52337">
        <ele>62.1958</ele>
        <time>2020-08-09T06:37:14Z</time>
      </trkpt>
      <trkpt lat="47.30252" lon="-1.52339">
        <ele>62.1056</ele>
        <time>2020-08-09T06:37:17Z</time>
      </trkpt>
      <trkpt lat="47.30245" lon="-1.52344">
        <ele>62.042</ele>
        <time>2020-08-09T06:37:19Z</time>
      </trkpt>
      <trkpt lat="47.30242" lon="-1.52346">
        <ele>62.0097</ele>
        <time>2020-08-09T06:37:20Z</time>
      </trkpt>
      <trkpt lat="47.30238" lon="-1.52353">
        <ele>61.9439</ele>
        <time>2020-08-09T06:37:22Z</time>
      </trkpt>
      <trkpt lat="47.30231" lon="-1.52357">
        <ele>61.8745</ele>
        <time>2020-08-09T06:37:24Z</time>
      </trkpt>
      <trkpt lat="47.30227" lon="-1.5236">
        <ele>61.8386</ele>
        <time>2020-08-09T06:37:25Z</time>
      </trkpt>
      <trkpt lat="47.30219" lon="-1.52365">
        <ele>61.7657</ele>
        <time>2020-08-09T06:37:27Z</time>
      </trkpt>
      <trkpt lat="47.30212" lon="-1.52371">
        <ele>61.6911</ele>
        <time>2020-08-09T06:37:29Z</time>
      </trkpt>
      <trkpt lat="47.30209" lon="-1.52376">
        <ele>61.6147</ele>
        <time>2020-08-09T06:37:31Z</time>
      </trkpt>
      <trkpt lat="47.30211" lon="-1.52386">
        <ele>61.5089</ele>
        <time>2020-08-09T06:37:34Z</time>
      </trkpt>
      <trkpt lat="47.30215" lon="-1.52398">
        <ele>61.4155</ele>
        <time>2020-08-09T06:37:37Z</time>
      </trkpt>
      <trkpt lat="47.30216" lon="-1.52405">
        <ele>61.3244</ele>
        <time>2020-08-09T06:37:40Z</time>
      </trkpt>
      <trkpt lat="47.30218" lon="-1.52412">
        <ele>61.264</ele>
        <time>2020-08-09T06:37:42Z</time>
      </trkpt>
      <trkpt lat="47.30222" lon="-1.52419">
        <ele>61.2069</ele>
        <time>2020-08-09T06:37:44Z</time>
      </trkpt>
      <trkpt lat="47.30224" lon="-1.52422">
        <ele>61.1523</ele>
        <time>2020-08-09T06:37:46Z</time>
      </trkpt>
      <trkpt lat="47.30228" lon="-1.52425">
        <ele>61.0984</ele>
        <time>2020-08-09T06:37:48Z</time>
      </trkpt>
      <trkpt lat="47.30233" lon="-1.52433">
        <ele>61.0144</ele>
        <time>2020-08-09T06:37:51Z</time>
      </trkpt>
      <trkpt lat="47.30235" lon="-1.52436">
        <ele>60.9851</ele>
        <time>2020-08-09T06:37:52Z</time>
      </trkpt>
      <trkpt lat="47.30238" lon="-1.52441">
        <ele>60.921</ele>
        <time>2020-08-09T06:37:54Z</time>
      </trkpt>
      <trkpt lat="47.3024" lon="-1.52449">
        <ele>60.8515</ele>
        <time>2020-08-09T06:37:56Z</time>
      </trkpt>
      <trkpt lat="47.30242" lon="-1.52457">
        <ele>60.7735</ele>
        <time>2020-08-09T06:37:58Z</time>
      </trkpt>
      <trkpt lat="47.30243" lon="-1.5247">
        <ele>60.6513</ele>
        <time>2020-08-09T06:38:01Z</time>
      </trkpt>
      <trkpt lat="47.30241" lon="-1.52477">
        <ele>60.5314</ele>
        <time>2020-08-09T06:38:04Z</time>
      </trkpt>
      <trkpt lat="47.30238" lon="-1.52487">
        <ele>60.4515</ele>
        <time>2020-08-09T06:38:06Z</time>
      </trkpt>
      <trkpt lat="47.30237" lon="-1.52497">
        <ele>60.374</ele>
        <time>2020-08-09T06:38:08Z</time>
      </trkpt>
      <trkpt lat="47.30236" lon="-1.52502">
        <ele>60.3354</ele>
        <time>2020-08-09T06:38:09Z</time>
      </trkpt>
      <trkpt lat="47.30235" lon="-1.52507">
        <ele>60.2964</ele>
        <time>2020-08-09T06:38:10Z</time>
      </trkpt>
      <trkpt lat="47.30235" lon="-1.52513">
        <ele>60.2574</ele>
        <time>2020-08-09T06:38:11Z</time>
      </trkpt>
      <trkpt lat="47.30234" lon="-1.52521">
        <ele>60.1809</ele>
        <time>2020-08-09T06:38:13Z</time>
      </trkpt>
      <trkpt lat="47.30234" lon="-1.52531">
        <ele>60.0708</ele>
        <time>2020-08-09T06:38:16Z</time>
      </trkpt>
      <trkpt lat="47.30228" lon="-1.52533">
        <ele>59.8518</ele>
        <time>2020-08-09T06:38:22Z</time>
      </trkpt>
      <trkpt lat="47.3022" lon="-1.52538">
        <ele>59.4365</ele>
        <time>2020-08-09T06:38:24Z</time>
      </trkpt>
      <trkpt lat="47.30215" lon="-1.5254">
        <ele>59.3171</ele>
        <time>2020-08-09T06:38:28Z</time>
      </trkpt>
      <trkpt lat="47.30208" lon="-1.5254">
        <ele>59.2098</ele>
        <time>2020-08-09T06:38:32Z</time>
      </trkpt>
      <trkpt lat="47.30201" lon="-1.52544">
        <ele>59.1384</ele>
        <time>2020-08-09T06:38:35Z</time>
      </trkpt>
      <trkpt lat="47.30195" lon="-1.52541">
        <ele>59.009</ele>
        <time>2020-08-09T06:38:41Z</time>
      </trkpt>
      <trkpt lat="47.30192" lon="-1.52539">
        <ele>58.9889</ele>
        <time>2020-08-09T06:38:42Z</time>
      </trkpt>
      <trkpt lat="47.30188" lon="-1.52537">
        <ele>58.9108</ele>
        <time>2020-08-09T06:38:46Z</time>
      </trkpt>
      <trkpt lat="47.3018" lon="-1.52537">
        <ele>58.8704</ele>
        <time>2020-08-09T06:38:48Z</time>
      </trkpt>
      <trkpt lat="47.30176" lon="-1.52537">
        <ele>58.8316</ele>
        <time>2020-08-09T06:38:50Z</time>
      </trkpt>
      <trkpt lat="47.30171" lon="-1.52537">
        <ele>58.7748</ele>
        <time>2020-08-09T06:38:53Z</time>
      </trkpt>
      <trkpt lat="47.30166" lon="-1.52537">
        <ele>58.7382</ele>
        <time>2020-08-09T06:38:55Z</time>
      </trkpt>
      <trkpt lat="47.30161" lon="-1.52538">
        <ele>58.7017</ele>
        <time>2020-08-09T06:38:57Z</time>
      </trkpt>
      <trkpt lat="47.30153" lon="-1.52535">
        <ele>58.6466</ele>
        <time>2020-08-09T06:39:00Z</time>
      </trkpt>
      <trkpt lat="47.30144" lon="-1.52541">
        <ele>58.5932</ele>
        <time>2020-08-09T06:39:03Z</time>
      </trkpt>
      <trkpt lat="47.30138" lon="-1.5254">
        <ele>58.5576</ele>
        <time>2020-08-09T06:39:05Z</time>
      </trkpt>
      <trkpt lat="47.30133" lon="-1.5254">
        <ele>58.5066</ele>
        <time>2020-08-09T06:39:08Z</time>
      </trkpt>
      <trkpt lat="47.30128" lon="-1.5254">
        <ele>58.4584</ele>
        <time>2020-08-09T06:39:11Z</time>
      </trkpt>
      <trkpt lat="47.30124" lon="-1.5254">
        <ele>58.4266</ele>
        <time>2020-08-09T06:39:13Z</time>
      </trkpt>
      <trkpt lat="47.30118" lon="-1.52541">
        <ele>58.3956</ele>
        <time>2020-08-09T06:39:15Z</time>
      </trkpt>
      <trkpt lat="47.30112" lon="-1.52545">
        <ele>58.3647</ele>
        <time>2020-08-09T06:39:17Z</time>
      </trkpt>
      <trkpt lat="47.30105" lon="-1.52548">
        <ele>58.3161</ele>
        <time>2020-08-09T06:39:20Z</time>
      </trkpt>
      <trkpt lat="47.301" lon="-1.52554">
        <ele>58.2817</ele>
        <time>2020-08-09T06:39:22Z</time>
      </trkpt>
      <trkpt lat="47.30097" lon="-1.5256">
        <ele>58.2461</ele>
        <time>2020-08-09T06:39:24Z</time>
      </trkpt>
      <trkpt lat="47.30093" lon="-1.52566">
        <ele>58.2081</ele>
        <time>2020-08-09T06:39:26Z</time>
      </trkpt>
      <trkpt lat="47.3009" lon="-1.52572">
        <ele>58.1684</ele>
        <time>2020-08-09T06:39:28Z</time>
      </trkpt>
      <trkpt lat="47.30086" lon="-1.52577">
        <ele>58.1091</ele>
        <time>2020-08-09T06:39:31Z</time>
      </trkpt>
      <trkpt lat="47.30082" lon="-1.52582">
        <ele>58.0727</ele>
        <time>2020-08-09T06:39:33Z</time>
      </trkpt>
      <trkpt lat="47.30079" lon="-1.52584">
        <ele>58.0545</ele>
        <time>2020-08-09T06:39:34Z</time>
      </trkpt>
      <trkpt lat="47.30074" lon="-1.52589">
        <ele>57.9837</ele>
        <time>2020-08-09T06:39:38Z</time>
      </trkpt>
      <trkpt lat="47.3007" lon="-1.52593">
        <ele>57.8756</ele>
        <time>2020-08-09T06:39:44Z</time>
      </trkpt>
      <trkpt lat="47.30068" lon="-1.52601">
        <ele>57.8179</ele>
        <time>2020-08-09T06:39:47Z</time>
      </trkpt>
      <trkpt lat="47.30063" lon="-1.52607">
        <ele>57.7786</ele>
        <time>2020-08-09T06:39:49Z</time>
      </trkpt>
      <trkpt lat="47.3006" lon="-1.52614">
        <ele>57.7204</ele>
        <time>2020-08-09T06:39:52Z</time>
      </trkpt>
      <trkpt lat="47.30064" lon="-1.52622">
        <ele>57.6816</ele>
        <time>2020-08-09T06:39:54Z</time>
      </trkpt>
      <trkpt lat="47.30066" lon="-1.52629">
        <ele>57.6429</ele>
        <time>2020-08-09T06:39:56Z</time>
      </trkpt>
      <trkpt lat="47.30066" lon="-1.52639">
        <ele>57.6044</ele>
        <time>2020-08-09T06:39:58Z</time>
      </trkpt>
      <trkpt lat="47.3007" lon="-1.52648">
        <ele>57.5656</ele>
        <time>2020-08-09T06:40:00Z</time>
      </trkpt>
      <trkpt lat="47.30071" lon="-1.52652">
        <ele>57.5466</ele>
        <time>2020-08-09T06:40:01Z</time>
      </trkpt>
      <trkpt lat="47.30073" lon="-1.52655">
        <ele>57.5266</ele>
        <time>2020-08-09T06:40:02Z</time>
      </trkpt>
      <trkpt lat="47.30075" lon="-1.52665">
        <ele>57.489</ele>
        <time>2020-08-09T06:40:04Z</time>
      </trkpt>
      <trkpt lat="47.30076" lon="-1.5267">
        <ele>57.4517</ele>
        <time>2020-08-09T06:40:06Z</time>
      </trkpt>
      <trkpt lat="47.30078" lon="-1.52676">
        <ele>57.4157</ele>
        <time>2020-08-09T06:40:08Z</time>
      </trkpt>
      <trkpt lat="47.3008" lon="-1.52681">
        <ele>57.3604</ele>
        <time>2020-08-09T06:40:11Z</time>
      </trkpt>
      <trkpt lat="47.30084" lon="-1.52688">
        <ele>57.3048</ele>
        <time>2020-08-09T06:40:14Z</time>
      </trkpt>
      <trkpt lat="47.30085" lon="-1.52696">
        <ele>57.2516</ele>
        <time>2020-08-09T06:40:17Z</time>
      </trkpt>
      <trkpt lat="47.30086" lon="-1.52702">
        <ele>57.1972</ele>
        <time>2020-08-09T06:40:20Z</time>
      </trkpt>
      <trkpt lat="47.30087" lon="-1.52709">
        <ele>57.1605</ele>
        <time>2020-08-09T06:40:22Z</time>
      </trkpt>
      <trkpt lat="47.30086" lon="-1.52718">
        <ele>57.1082</ele>
        <time>2020-08-09T06:40:25Z</time>
      </trkpt>
      <trkpt lat="47.30086" lon="-1.52723">
        <ele>57.0746</ele>
        <time>2020-08-09T06:40:27Z</time>
      </trkpt>
      <trkpt lat="47.30088" lon="-1.52734">
        <ele>57.0203</ele>
        <time>2020-08-09T06:40:30Z</time>
      </trkpt>
      <trkpt lat="47.30088" lon="-1.52738">
        <ele>57.0012</ele>
        <time>2020-08-09T06:40:31Z</time>
      </trkpt>
      <trkpt lat="47.30089" lon="-1.52744">
        <ele>56.9619</ele>
        <time>2020-08-09T06:40:33Z</time>
      </trkpt>
      <trkpt lat="47.30093" lon="-1.52752">
        <ele>56.9213</ele>
        <time>2020-08-09T06:40:35Z</time>
      </trkpt>
      <trkpt lat="47.30098" lon="-1.52755">
        <ele>56.8809</ele>
        <time>2020-08-09T06:40:37Z</time>
      </trkpt>
      <trkpt lat="47.301" lon="-1.52757">
        <ele>56.8616</ele>
        <time>2020-08-09T06:40:38Z</time>
      </trkpt>
      <trkpt lat="47.30105" lon="-1.5276">
        <ele>56.8217</ele>
        <time>2020-08-09T06:40:40Z</time>
      </trkpt>
      <trkpt lat="47.30109" lon="-1.52762">
        <ele>56.7038</ele>
        <time>2020-08-09T06:40:45Z</time>
      </trkpt>
      <trkpt lat="47.30107" lon="-1.52774">
        <ele>56.6295</ele>
        <time>2020-08-09T06:40:48Z</time>
      </trkpt>
      <trkpt lat="47.30107" lon="-1.52778">
        <ele>56.5046</ele>
        <time>2020-08-09T06:40:53Z</time>
      </trkpt>
      <trkpt lat="47.30103" lon="-1.52783">
        <ele>56.4085</ele>
        <time>2020-08-09T06:40:57Z</time>
      </trkpt>
      <trkpt lat="47.301" lon="-1.52789">
        <ele>56.3604</ele>
        <time>2020-08-09T06:40:59Z</time>
      </trkpt>
      <trkpt lat="47.30097" lon="-1.52795">
        <ele>56.3099</ele>
        <time>2020-08-09T06:41:01Z</time>
      </trkpt>
      <trkpt lat="47.30093" lon="-1.52804">
        <ele>56.2587</ele>
        <time>2020-08-09T06:41:03Z</time>
      </trkpt>
      <trkpt lat="47.30091" lon="-1.52809">
        <ele>56.2324</ele>
        <time>2020-08-09T06:41:04Z</time>
      </trkpt>
      <trkpt lat="47.30089" lon="-1.52814">
        <ele>56.206</ele>
        <time>2020-08-09T06:41:05Z</time>
      </trkpt>
      <trkpt lat="47.30087" lon="-1.52818">
        <ele>56.1787</ele>
        <time>2020-08-09T06:41:06Z</time>
      </trkpt>
      <trkpt lat="47.30084" lon="-1.52822">
        <ele>56.1506</ele>
        <time>2020-08-09T06:41:07Z</time>
      </trkpt>
      <trkpt lat="47.30079" lon="-1.52826">
        <ele>56.0915</ele>
        <time>2020-08-09T06:41:09Z</time>
      </trkpt>
      <trkpt lat="47.30072" lon="-1.52836">
        <ele>55.9994</ele>
        <time>2020-08-09T06:41:12Z</time>
      </trkpt>
      <trkpt lat="47.30068" lon="-1.52843">
        <ele>55.9387</ele>
        <time>2020-08-09T06:41:14Z</time>
      </trkpt>
      <trkpt lat="47.30066" lon="-1.52847">
        <ele>55.9084</ele>
        <time>2020-08-09T06:41:15Z</time>
      </trkpt>
      <trkpt lat="47.30065" lon="-1.52851">
        <ele>55.8782</ele>
        <time>2020-08-09T06:41:16Z</time>
      </trkpt>
      <trkpt lat="47.3006" lon="-1.52856">
        <ele>55.8186</ele>
        <time>2020-08-09T06:41:18Z</time>
      </trkpt>
      <trkpt lat="47.30059" lon="-1.52859">
        <ele>55.7901</ele>
        <time>2020-08-09T06:41:19Z</time>
      </trkpt>
      <trkpt lat="47.30055" lon="-1.52863">
        <ele>55.7356</ele>
        <time>2020-08-09T06:41:21Z</time>
      </trkpt>
      <trkpt lat="47.3005" lon="-1.5287">
        <ele>55.6636</ele>
        <time>2020-08-09T06:41:24Z</time>
      </trkpt>
      <trkpt lat="47.30045" lon="-1.52873">
        <ele>55.5933</ele>
        <time>2020-08-09T06:41:27Z</time>
      </trkpt>
      <trkpt lat="47.30041" lon="-1.52877">
        <ele>55.508</ele>
        <time>2020-08-09T06:41:31Z</time>
      </trkpt>
      <trkpt lat="47.30039" lon="-1.52879">
        <ele>55.487</ele>
        <time>2020-08-09T06:41:32Z</time>
      </trkpt>
      <trkpt lat="47.30034" lon="-1.52881">
        <ele>55.4236</ele>
        <time>2020-08-09T06:41:35Z</time>
      </trkpt>
      <trkpt lat="47.30029" lon="-1.52886">
        <ele>55.3807</ele>
        <time>2020-08-09T06:41:37Z</time>
      </trkpt>
      <trkpt lat="47.30026" lon="-1.52879">
        <ele>55.207</ele>
        <time>2020-08-09T06:41:46Z</time>
      </trkpt>
      <trkpt lat="47.30029" lon="-1.52884">
        <ele>55.059</ele>
        <time>2020-08-09T06:41:56Z</time>
      </trkpt>
      <trkpt lat="47.30035" lon="-1.52882">
        <ele>55.0345</ele>
        <time>2020-08-09T06:41:58Z</time>
      </trkpt>
      <trkpt lat="47.30038" lon="-1.52875">
        <ele>54.9983</ele>
        <time>2020-08-09T06:42:01Z</time>
      </trkpt>
      <trkpt lat="47.30046" lon="-1.52868">
        <ele>54.9632</ele>
        <time>2020-08-09T06:42:04Z</time>
      </trkpt>
      <trkpt lat="47.30049" lon="-1.52863">
        <ele>54.9407</ele>
        <time>2020-08-09T06:42:06Z</time>
      </trkpt>
      <trkpt lat="47.30055" lon="-1.52855">
        <ele>54.9192</ele>
        <time>2020-08-09T06:42:08Z</time>
      </trkpt>
      <trkpt lat="47.30061" lon="-1.52849">
        <ele>54.8992</ele>
        <time>2020-08-09T06:42:11Z</time>
      </trkpt>
      <trkpt lat="47.30064" lon="-1.5284">
        <ele>54.8571</ele>
        <time>2020-08-09T06:42:15Z</time>
      </trkpt>
      <trkpt lat="47.30068" lon="-1.52833">
        <ele>54.8418</ele>
        <time>2020-08-09T06:42:17Z</time>
      </trkpt>
      <trkpt lat="47.30074" lon="-1.52834">
        <ele>54.8346</ele>
        <time>2020-08-09T06:42:18Z</time>
      </trkpt>
      <trkpt lat="47.30078" lon="-1.52828">
        <ele>54.7951</ele>
        <time>2020-08-09T06:42:24Z</time>
      </trkpt>
      <trkpt lat="47.30081" lon="-1.52823">
        <ele>54.7822</ele>
        <time>2020-08-09T06:42:26Z</time>
      </trkpt>
      <trkpt lat="47.30077" lon="-1.52811">
        <ele>54.7635</ele>
        <time>2020-08-09T06:42:29Z</time>
      </trkpt>
      <trkpt lat="47.30081" lon="-1.52803">
        <ele>54.7453</ele>
        <time>2020-08-09T06:42:32Z</time>
      </trkpt>
      <trkpt lat="47.30085" lon="-1.52797">
        <ele>54.7336</ele>
        <time>2020-08-09T06:42:34Z</time>
      </trkpt>
      <trkpt lat="47.30093" lon="-1.52794">
        <ele>54.7226</ele>
        <time>2020-08-09T06:42:36Z</time>
      </trkpt>
      <trkpt lat="47.30099" lon="-1.52796">
        <ele>54.7132</ele>
        <time>2020-08-09T06:42:38Z</time>
      </trkpt>
      <trkpt lat="47.30109" lon="-1.52803">
        <ele>54.7081</ele>
        <time>2020-08-09T06:42:39Z</time>
      </trkpt>
      <trkpt lat="47.30115" lon="-1.52805">
        <ele>54.7021</ele>
        <time>2020-08-09T06:42:40Z</time>
      </trkpt>
      <trkpt lat="47.30119" lon="-1.52806">
        <ele>54.684</ele>
        <time>2020-08-09T06:42:43Z</time>
      </trkpt>
      <trkpt lat="47.30112" lon="-1.52789">
        <ele>54.6567</ele>
        <time>2020-08-09T06:42:48Z</time>
      </trkpt>
      <trkpt lat="47.30112" lon="-1.52776">
        <ele>54.6367</ele>
        <time>2020-08-09T06:42:52Z</time>
      </trkpt>
      <trkpt lat="47.30119" lon="-1.52768">
        <ele>54.6213</ele>
        <time>2020-08-09T06:42:55Z</time>
      </trkpt>
      <trkpt lat="47.30108" lon="-1.52739">
        <ele>54.6006</ele>
        <time>2020-08-09T06:42:59Z</time>
      </trkpt>
      <trkpt lat="47.30101" lon="-1.52735">
        <ele>54.5868</ele>
        <time>2020-08-09T06:43:01Z</time>
      </trkpt>
      <trkpt lat="47.30096" lon="-1.52731">
        <ele>54.5719</ele>
        <time>2020-08-09T06:43:03Z</time>
      </trkpt>
      <trkpt lat="47.30091" lon="-1.5273">
        <ele>54.5642</ele>
        <time>2020-08-09T06:43:04Z</time>
      </trkpt>
      <trkpt lat="47.30087" lon="-1.52725">
        <ele>54.5444</ele>
        <time>2020-08-09T06:43:07Z</time>
      </trkpt>
      <trkpt lat="47.30086" lon="-1.52712">
        <ele>54.5318</ele>
        <time>2020-08-09T06:43:09Z</time>
      </trkpt>
      <trkpt lat="47.30083" lon="-1.52703">
        <ele>54.5189</ele>
        <time>2020-08-09T06:43:11Z</time>
      </trkpt>
      <trkpt lat="47.30082" lon="-1.52693">
        <ele>54.5077</ele>
        <time>2020-08-09T06:43:13Z</time>
      </trkpt>
      <trkpt lat="47.30078" lon="-1.52685">
        <ele>54.4931</ele>
        <time>2020-08-09T06:43:16Z</time>
      </trkpt>
      <trkpt lat="47.30074" lon="-1.52671">
        <ele>54.4837</ele>
        <time>2020-08-09T06:43:19Z</time>
      </trkpt>
      <trkpt lat="47.3007" lon="-1.52664">
        <ele>54.4807</ele>
        <time>2020-08-09T06:43:21Z</time>
      </trkpt>
      <trkpt lat="47.30066" lon="-1.52659">
        <ele>54.4775</ele>
        <time>2020-08-09T06:43:23Z</time>
      </trkpt>
      <trkpt lat="47.30064" lon="-1.52652">
        <ele>54.4735</ele>
        <time>2020-08-09T06:43:25Z</time>
      </trkpt>
      <trkpt lat="47.30061" lon="-1.52646">
        <ele>54.4664</ele>
        <time>2020-08-09T06:43:28Z</time>
      </trkpt>
      <trkpt lat="47.30059" lon="-1.52642">
        <ele>54.462</ele>
        <time>2020-08-09T06:43:30Z</time>
      </trkpt>
      <trkpt lat="47.30057" lon="-1.52636">
        <ele>54.4546</ele>
        <time>2020-08-09T06:43:33Z</time>
      </trkpt>
      <trkpt lat="47.30068" lon="-1.52635">
        <ele>54.4364</ele>
        <time>2020-08-09T06:43:40Z</time>
      </trkpt>
      <trkpt lat="47.30071" lon="-1.52634">
        <ele>54.4342</ele>
        <time>2020-08-09T06:43:41Z</time>
      </trkpt>
      <trkpt lat="47.30076" lon="-1.52636">
        <ele>54.4311</ele>
        <time>2020-08-09T06:43:43Z</time>
      </trkpt>
      <trkpt lat="47.30079" lon="-1.52631">
        <ele>54.4293</ele>
        <time>2020-08-09T06:43:45Z</time>
      </trkpt>
      <trkpt lat="47.30082" lon="-1.52628">
        <ele>54.4287</ele>
        <time>2020-08-09T06:43:46Z</time>
      </trkpt>
      <trkpt lat="47.30088" lon="-1.52629">
        <ele>54.4288</ele>
        <time>2020-08-09T06:43:47Z</time>
      </trkpt>
      <trkpt lat="47.30095" lon="-1.52619">
        <ele>54.4312</ele>
        <time>2020-08-09T06:43:51Z</time>
      </trkpt>
      <trkpt lat="47.30097" lon="-1.52616">
        <ele>54.431</ele>
        <time>2020-08-09T06:43:52Z</time>
      </trkpt>
      <trkpt lat="47.30096" lon="-1.52609">
        <ele>54.431</ele>
        <time>2020-08-09T06:43:54Z</time>
      </trkpt>
      <trkpt lat="47.30092" lon="-1.52596">
        <ele>54.4291</ele>
        <time>2020-08-09T06:43:56Z</time>
      </trkpt>
      <trkpt lat="47.30094" lon="-1.5259">
        <ele>54.4277</ele>
        <time>2020-08-09T06:43:57Z</time>
      </trkpt>
      <trkpt lat="47.30099" lon="-1.52584">
        <ele>54.4226</ele>
        <time>2020-08-09T06:44:00Z</time>
      </trkpt>
      <trkpt lat="47.30097" lon="-1.52565">
        <ele>54.4143</ele>
        <time>2020-08-09T06:44:03Z</time>
      </trkpt>
      <trkpt lat="47.3009" lon="-1.5256">
        <ele>54.4011</ele>
        <time>2020-08-09T06:44:06Z</time>
      </trkpt>
      <trkpt lat="47.30087" lon="-1.52557">
        <ele>54.3829</ele>
        <time>2020-08-09T06:44:09Z</time>
      </trkpt>
      <trkpt lat="47.30095" lon="-1.52542">
        <ele>54.3493</ele>
        <time>2020-08-09T06:44:14Z</time>
      </trkpt>
      <trkpt lat="47.30097" lon="-1.52531">
        <ele>54.3405</ele>
        <time>2020-08-09T06:44:15Z</time>
      </trkpt>
      <trkpt lat="47.30094" lon="-1.52518">
        <ele>54.3303</ele>
        <time>2020-08-09T06:44:16Z</time>
      </trkpt>
      <trkpt lat="47.30086" lon="-1.52514">
        <ele>54.3187</ele>
        <time>2020-08-09T06:44:17Z</time>
      </trkpt>
      <trkpt lat="47.30085" lon="-1.52507">
        <ele>54.3052</ele>
        <time>2020-08-09T06:44:18Z</time>
      </trkpt>
      <trkpt lat="47.30079" lon="-1.525">
        <ele>54.2907</ele>
        <time>2020-08-09T06:44:19Z</time>
      </trkpt>
      <trkpt lat="47.30075" lon="-1.52482">
        <ele>54.2576</ele>
        <time>2020-08-09T06:44:21Z</time>
      </trkpt>
      <trkpt lat="47.30077" lon="-1.52473">
        <ele>54.24</ele>
        <time>2020-08-09T06:44:22Z</time>
      </trkpt>
      <trkpt lat="47.30079" lon="-1.52463">
        <ele>54.2227</ele>
        <time>2020-08-09T06:44:23Z</time>
      </trkpt>
      <trkpt lat="47.30079" lon="-1.52439">
        <ele>54.1734</ele>
        <time>2020-08-09T06:44:26Z</time>
      </trkpt>
      <trkpt lat="47.30072" lon="-1.52433">
        <ele>54.1232</ele>
        <time>2020-08-09T06:44:29Z</time>
      </trkpt>
      <trkpt lat="47.3007" lon="-1.52421">
        <ele>54.0899</ele>
        <time>2020-08-09T06:44:31Z</time>
      </trkpt>
      <trkpt lat="47.30071" lon="-1.5241">
        <ele>54.0368</ele>
        <time>2020-08-09T06:44:34Z</time>
      </trkpt>
      <trkpt lat="47.30071" lon="-1.52396">
        <ele>54.0013</ele>
        <time>2020-08-09T06:44:36Z</time>
      </trkpt>
      <trkpt lat="47.30066" lon="-1.52388">
        <ele>53.9559</ele>
        <time>2020-08-09T06:44:38Z</time>
      </trkpt>
      <trkpt lat="47.30065" lon="-1.52377">
        <ele>53.8516</ele>
        <time>2020-08-09T06:44:41Z</time>
      </trkpt>
      <trkpt lat="47.30065" lon="-1.52365">
        <ele>53.7772</ele>
        <time>2020-08-09T06:44:43Z</time>
      </trkpt>
      <trkpt lat="47.30062" lon="-1.52355">
        <ele>53.7389</ele>
        <time>2020-08-09T06:44:44Z</time>
      </trkpt>
      <trkpt lat="47.30057" lon="-1.52345">
        <ele>53.6192</ele>
        <time>2020-08-09T06:44:47Z</time>
      </trkpt>
      <trkpt lat="47.30056" lon="-1.52334">
        <ele>53.5403</ele>
        <time>2020-08-09T06:44:49Z</time>
      </trkpt>
      <trkpt lat="47.30052" lon="-1.52328">
        <ele>53.4246</ele>
        <time>2020-08-09T06:44:52Z</time>
      </trkpt>
      <trkpt lat="47.30052" lon="-1.5232">
        <ele>53.312</ele>
        <time>2020-08-09T06:44:55Z</time>
      </trkpt>
      <trkpt lat="47.30052" lon="-1.52314">
        <ele>53.2712</ele>
        <time>2020-08-09T06:44:56Z</time>
      </trkpt>
      <trkpt lat="47.30051" lon="-1.52307">
        <ele>53.1918</ele>
        <time>2020-08-09T06:44:58Z</time>
      </trkpt>
      <trkpt lat="47.30054" lon="-1.52299">
        <ele>53.1144</ele>
        <time>2020-08-09T06:45:00Z</time>
      </trkpt>
      <trkpt lat="47.30055" lon="-1.52296">
        <ele>53.0772</ele>
        <time>2020-08-09T06:45:01Z</time>
      </trkpt>
      <trkpt lat="47.30056" lon="-1.52289">
        <ele>53.0408</ele>
        <time>2020-08-09T06:45:02Z</time>
      </trkpt>
      <trkpt lat="47.30054" lon="-1.52281">
        <ele>52.968</ele>
        <time>2020-08-09T06:45:04Z</time>
      </trkpt>
      <trkpt lat="47.30055" lon="-1.52273">
        <ele>52.8616</ele>
        <time>2020-08-09T06:45:07Z</time>
      </trkpt>
      <trkpt lat="47.30059" lon="-1.52264">
        <ele>52.7601</ele>
        <time>2020-08-09T06:45:10Z</time>
      </trkpt>
      <trkpt lat="47.30064" lon="-1.5226">
        <ele>52.6624</ele>
        <time>2020-08-09T06:45:13Z</time>
      </trkpt>
      <trkpt lat="47.30063" lon="-1.5225">
        <ele>52.5986</ele>
        <time>2020-08-09T06:45:15Z</time>
      </trkpt>
      <trkpt lat="47.30066" lon="-1.52244">
        <ele>52.5015</ele>
        <time>2020-08-09T06:45:18Z</time>
      </trkpt>
      <trkpt lat="47.3007" lon="-1.5224">
        <ele>52.4027</ele>
        <time>2020-08-09T06:45:21Z</time>
      </trkpt>
      <trkpt lat="47.30063" lon="-1.52229">
        <ele>52.3012</ele>
        <time>2020-08-09T06:45:24Z</time>
      </trkpt>
      <trkpt lat="47.30071" lon="-1.52221">
        <ele>52.0949</ele>
        <time>2020-08-09T06:45:30Z</time>
      </trkpt>
      <trkpt lat="47.30074" lon="-1.52215">
        <ele>52.0616</ele>
        <time>2020-08-09T06:45:31Z</time>
      </trkpt>
      <trkpt lat="47.30086" lon="-1.52209">
        <ele>51.9653</ele>
        <time>2020-08-09T06:45:34Z</time>
      </trkpt>
      <trkpt lat="47.30091" lon="-1.52212">
        <ele>51.9024</ele>
        <time>2020-08-09T06:45:36Z</time>
      </trkpt>
      <trkpt lat="47.30101" lon="-1.52197">
        <ele>51.6828</ele>
        <time>2020-08-09T06:45:43Z</time>
      </trkpt>
      <trkpt lat="47.30104" lon="-1.52178">
        <ele>51.59</ele>
        <time>2020-08-09T06:45:46Z</time>
      </trkpt>
      <trkpt lat="47.30115" lon="-1.52183">
        <ele>51.3808</ele>
        <time>2020-08-09T06:45:53Z</time>
      </trkpt>
      <trkpt lat="47.30115" lon="-1.52168">
        <ele>51.2678</ele>
        <time>2020-08-09T06:45:57Z</time>
      </trkpt>
      <trkpt lat="47.30106" lon="-1.52148">
        <ele>51.1782</ele>
        <time>2020-08-09T06:46:00Z</time>
      </trkpt>
      <trkpt lat="47.30125" lon="-1.52157">
        <ele>51.1157</ele>
        <time>2020-08-09T06:46:02Z</time>
      </trkpt>
      <trkpt lat="47.30133" lon="-1.52157">
        <ele>51.0853</ele>
        <time>2020-08-09T06:46:03Z</time>
      </trkpt>
      <trkpt lat="47.3014" lon="-1.52157">
        <ele>51.0277</ele>
        <time>2020-08-09T06:46:05Z</time>
      </trkpt>
      <trkpt lat="47.30134" lon="-1.52143">
        <ele>50.9976</ele>
        <time>2020-08-09T06:46:06Z</time>
      </trkpt>
      <trkpt lat="47.30135" lon="-1.52136">
        <ele>50.9662</ele>
        <time>2020-08-09T06:46:07Z</time>
      </trkpt>
      <trkpt lat="47.3014" lon="-1.52111">
        <ele>50.8365</ele>
        <time>2020-08-09T06:46:11Z</time>
      </trkpt>
      <trkpt lat="47.30131" lon="-1.52094">
        <ele>50.7423</ele>
        <time>2020-08-09T06:46:14Z</time>
      </trkpt>
      <trkpt lat="47.30133" lon="-1.52087">
        <ele>50.711</ele>
        <time>2020-08-09T06:46:15Z</time>
      </trkpt>
      <trkpt lat="47.30132" lon="-1.5207">
        <ele>50.6186</ele>
        <time>2020-08-09T06:46:18Z</time>
      </trkpt>
      <trkpt lat="47.30131" lon="-1.52063">
        <ele>50.531</ele>
        <time>2020-08-09T06:46:21Z</time>
      </trkpt>
      <trkpt lat="47.30137" lon="-1.52056">
        <ele>50.4748</ele>
        <time>2020-08-09T06:46:23Z</time>
      </trkpt>
      <trkpt lat="47.30142" lon="-1.52055">
        <ele>50.3637</ele>
        <time>2020-08-09T06:46:27Z</time>
      </trkpt>
      <trkpt lat="47.30147" lon="-1.52057">
        <ele>50.3362</ele>
        <time>2020-08-09T06:46:28Z</time>
      </trkpt>
      <trkpt lat="47.30151" lon="-1.52026">
        <ele>50.0859</ele>
        <time>2020-08-09T06:46:36Z</time>
      </trkpt>
      <trkpt lat="47.30143" lon="-1.52016">
        <ele>50.0194</ele>
        <time>2020-08-09T06:46:38Z</time>
      </trkpt>
      <trkpt lat="47.30138" lon="-1.52005">
        <ele>49.9842</ele>
        <time>2020-08-09T06:46:39Z</time>
      </trkpt>
      <trkpt lat="47.30138" lon="-1.5199">
        <ele>49.915</ele>
        <time>2020-08-09T06:46:41Z</time>
      </trkpt>
      <trkpt lat="47.30152" lon="-1.51988">
        <ele>49.8462</ele>
        <time>2020-08-09T06:46:43Z</time>
      </trkpt>
      <trkpt lat="47.30147" lon="-1.51973">
        <ele>49.7442</ele>
        <time>2020-08-09T06:46:46Z</time>
      </trkpt>
      <trkpt lat="47.30146" lon="-1.51965">
        <ele>49.712</ele>
        <time>2020-08-09T06:46:47Z</time>
      </trkpt>
      <trkpt lat="47.30147" lon="-1.51958">
        <ele>49.6805</ele>
        <time>2020-08-09T06:46:48Z</time>
      </trkpt>
      <trkpt lat="47.30145" lon="-1.51945">
        <ele>49.6182</ele>
        <time>2020-08-09T06:46:50Z</time>
      </trkpt>
      <trkpt lat="47.30143" lon="-1.51933">
        <ele>49.5877</ele>
        <time>2020-08-09T06:46:51Z</time>
      </trkpt>
      <trkpt lat="47.30139" lon="-1.5192">
        <ele>49.5562</ele>
        <time>2020-08-09T06:46:52Z</time>
      </trkpt>
      <trkpt lat="47.30138" lon="-1.51909">
        <ele>49.5259</ele>
        <time>2020-08-09T06:46:53Z</time>
      </trkpt>
      <trkpt lat="47.30136" lon="-1.51903">
        <ele>49.4954</ele>
        <time>2020-08-09T06:46:54Z</time>
      </trkpt>
      <trkpt lat="47.30134" lon="-1.51893">
        <ele>49.4381</ele>
        <time>2020-08-09T06:46:56Z</time>
      </trkpt>
      <trkpt lat="47.30131" lon="-1.51886">
        <ele>49.4111</ele>
        <time>2020-08-09T06:46:57Z</time>
      </trkpt>
      <trkpt lat="47.30127" lon="-1.51878">
        <ele>49.3571</ele>
        <time>2020-08-09T06:46:59Z</time>
      </trkpt>
      <trkpt lat="47.30125" lon="-1.51872">
        <ele>49.3301</ele>
        <time>2020-08-09T06:47:00Z</time>
      </trkpt>
      <trkpt lat="47.30122" lon="-1.51863">
        <ele>49.2809</ele>
        <time>2020-08-09T06:47:02Z</time>
      </trkpt>
      <trkpt lat="47.3012" lon="-1.51859">
        <ele>49.2581</ele>
        <time>2020-08-09T06:47:03Z</time>
      </trkpt>
      <trkpt lat="47.30118" lon="-1.51854">
        <ele>49.2371</ele>
        <time>2020-08-09T06:47:04Z</time>
      </trkpt>
      <trkpt lat="47.3012" lon="-1.51848">
        <ele>49.2185</ele>
        <time>2020-08-09T06:47:05Z</time>
      </trkpt>
      <trkpt lat="47.30115" lon="-1.51842">
        <ele>49.165</ele>
        <time>2020-08-09T06:47:08Z</time>
      </trkpt>
      <trkpt lat="47.30111" lon="-1.51827">
        <ele>49.1232</ele>
        <time>2020-08-09T06:47:11Z</time>
      </trkpt>
      <trkpt lat="47.30112" lon="-1.5182">
        <ele>49.1014</ele>
        <time>2020-08-09T06:47:13Z</time>
      </trkpt>
      <trkpt lat="47.30112" lon="-1.51811">
        <ele>49.0784</ele>
        <time>2020-08-09T06:47:16Z</time>
      </trkpt>
      <trkpt lat="47.30106" lon="-1.51806">
        <ele>49.066</ele>
        <time>2020-08-09T06:47:19Z</time>
      </trkpt>
      <trkpt lat="47.30106" lon="-1.51796">
        <ele>49.0586</ele>
        <time>2020-08-09T06:47:21Z</time>
      </trkpt>
      <trkpt lat="47.30101" lon="-1.51788">
        <ele>49.0529</ele>
        <time>2020-08-09T06:47:24Z</time>
      </trkpt>
      <trkpt lat="47.30102" lon="-1.51778">
        <ele>49.0391</ele>
        <time>2020-08-09T06:47:29Z</time>
      </trkpt>
      <trkpt lat="47.30099" lon="-1.51758">
        <ele>49.0333</ele>
        <time>2020-08-09T06:47:32Z</time>
      </trkpt>
      <trkpt lat="47.30098" lon="-1.51751">
        <ele>49.0285</ele>
        <time>2020-08-09T06:47:33Z</time>
      </trkpt>
      <trkpt lat="47.30089" lon="-1.51753">
        <ele>49.0124</ele>
        <time>2020-08-09T06:47:36Z</time>
      </trkpt>
      <trkpt lat="47.30083" lon="-1.51752">
        <ele>49.0016</ele>
        <time>2020-08-09T06:47:38Z</time>
      </trkpt>
      <trkpt lat="47.30078" lon="-1.51748">
        <ele>48.9917</ele>
        <time>2020-08-09T06:47:40Z</time>
      </trkpt>
      <trkpt lat="47.30073" lon="-1.51747">
        <ele>48.9793</ele>
        <time>2020-08-09T06:47:43Z</time>
      </trkpt>
      <trkpt lat="47.30072" lon="-1.5174">
        <ele>48.9731</ele>
        <time>2020-08-09T06:47:45Z</time>
      </trkpt>
      <trkpt lat="47.30067" lon="-1.51736">
        <ele>48.9681</ele>
        <time>2020-08-09T06:47:48Z</time>
      </trkpt>
      <trkpt lat="47.30065" lon="-1.5173">
        <ele>48.9671</ele>
        <time>2020-08-09T06:47:51Z</time>
      </trkpt>
      <trkpt lat="47.30055" lon="-1.51718">
        <ele>48.9574</ele>
        <time>2020-08-09T06:47:55Z</time>
      </trkpt>
      <trkpt lat="47.3006" lon="-1.51708">
        <ele>48.9517</ele>
        <time>2020-08-09T06:47:57Z</time>
      </trkpt>
      <trkpt lat="47.30063" lon="-1.51703">
        <ele>48.9421</ele>
        <time>2020-08-09T06:48:03Z</time>
      </trkpt>
      <trkpt lat="47.30065" lon="-1.51698">
        <ele>48.9274</ele>
        <time>2020-08-09T06:48:09Z</time>
      </trkpt>
      <trkpt lat="47.30067" lon="-1.51691">
        <ele>48.9193</ele>
        <time>2020-08-09T06:48:12Z</time>
      </trkpt>
      <trkpt lat="47.30071" lon="-1.51673">
        <ele>48.9058</ele>
        <time>2020-08-09T06:48:17Z</time>
      </trkpt>
      <trkpt lat="47.30067" lon="-1.51665">
        <ele>48.8992</ele>
        <time>2020-08-09T06:48:19Z</time>
      </trkpt>
      <trkpt lat="47.30057" lon="-1.51652">
        <ele>48.8986</ele>
        <time>2020-08-09T06:48:20Z</time>
      </trkpt>
      <trkpt lat="47.30052" lon="-1.51648">
        <ele>48.8932</ele>
        <time>2020-08-09T06:48:21Z</time>
      </trkpt>
      <trkpt lat="47.30049" lon="-1.51638">
        <ele>48.8786</ele>
        <time>2020-08-09T06:48:24Z</time>
      </trkpt>
      <trkpt lat="47.3005" lon="-1.51625">
        <ele>48.8626</ele>
        <time>2020-08-09T06:48:27Z</time>
      </trkpt>
      <trkpt lat="47.30047" lon="-1.51573">
        <ele>48.8172</ele>
        <time>2020-08-09T06:48:32Z</time>
      </trkpt>
      <trkpt lat="47.30042" lon="-1.51565">
        <ele>48.8078</ele>
        <time>2020-08-09T06:48:33Z</time>
      </trkpt>
      <trkpt lat="47.30035" lon="-1.5156">
        <ele>48.7981</ele>
        <time>2020-08-09T06:48:34Z</time>
      </trkpt>
      <trkpt lat="47.30031" lon="-1.5155">
        <ele>48.7908</ele>
        <time>2020-08-09T06:48:35Z</time>
      </trkpt>
      <trkpt lat="47.30028" lon="-1.5154">
        <ele>48.7793</ele>
        <time>2020-08-09T06:48:37Z</time>
      </trkpt>
      <trkpt lat="47.30027" lon="-1.51533">
        <ele>48.7752</ele>
        <time>2020-08-09T06:48:38Z</time>
      </trkpt>
      <trkpt lat="47.30026" lon="-1.51525">
        <ele>48.7704</ele>
        <time>2020-08-09T06:48:39Z</time>
      </trkpt>
      <trkpt lat="47.30023" lon="-1.51512">
        <ele>48.7653</ele>
        <time>2020-08-09T06:48:42Z</time>
      </trkpt>
      <trkpt lat="47.30022" lon="-1.515">
        <ele>48.7692</ele>
        <time>2020-08-09T06:48:44Z</time>
      </trkpt>
      <trkpt lat="47.30021" lon="-1.51494">
        <ele>48.7736</ele>
        <time>2020-08-09T06:48:45Z</time>
      </trkpt>
      <trkpt lat="47.3002" lon="-1.51489">
        <ele>48.7791</ele>
        <time>2020-08-09T06:48:46Z</time>
      </trkpt>
      <trkpt lat="47.30019" lon="-1.51479">
        <ele>48.7976</ele>
        <time>2020-08-09T06:48:48Z</time>
      </trkpt>
      <trkpt lat="47.30018" lon="-1.51465">
        <ele>48.8189</ele>
        <time>2020-08-09T06:48:50Z</time>
      </trkpt>
      <trkpt lat="47.30017" lon="-1.51456">
        <ele>48.8431</ele>
        <time>2020-08-09T06:48:52Z</time>
      </trkpt>
      <trkpt lat="47.30017" lon="-1.51452">
        <ele>48.8614</ele>
        <time>2020-08-09T06:48:53Z</time>
      </trkpt>
      <trkpt lat="47.30016" lon="-1.51442">
        <ele>49.0089</ele>
        <time>2020-08-09T06:48:57Z</time>
      </trkpt>
      <trkpt lat="47.30016" lon="-1.51442">
        <ele>49.0089</ele>
        <time>2020-08-09T06:49:04Z</time>
      </trkpt>
      <trkpt lat="47.30016" lon="-1.51442">
        <ele>49.0089</ele>
        <time>2020-08-09T06:49:05Z</time>
      </trkpt>
      <trkpt lat="47.30016" lon="-1.51423">
        <ele>49.4376</ele>
        <time>2020-08-09T06:49:08Z</time>
      </trkpt>
      <trkpt lat="47.30016" lon="-1.51407">
        <ele>49.5654</ele>
        <time>2020-08-09T06:49:12Z</time>
      </trkpt>
      <trkpt lat="47.30015" lon="-1.51396">
        <ele>49.6323</ele>
        <time>2020-08-09T06:49:14Z</time>
      </trkpt>
      <trkpt lat="47.30015" lon="-1.51385">
        <ele>49.6967</ele>
        <time>2020-08-09T06:49:16Z</time>
      </trkpt>
      <trkpt lat="47.30015" lon="-1.51377">
        <ele>49.7526</ele>
        <time>2020-08-09T06:49:18Z</time>
      </trkpt>
      <trkpt lat="47.30015" lon="-1.51372">
        <ele>49.7754</ele>
        <time>2020-08-09T06:49:19Z</time>
      </trkpt>
      <trkpt lat="47.30013" lon="-1.51361">
        <ele>49.82</ele>
        <time>2020-08-09T06:49:21Z</time>
      </trkpt>
      <trkpt lat="47.30014" lon="-1.51354">
        <ele>49.8603</ele>
        <time>2020-08-09T06:49:23Z</time>
      </trkpt>
      <trkpt lat="47.30017" lon="-1.51345">
        <ele>49.9153</ele>
        <time>2020-08-09T06:49:26Z</time>
      </trkpt>
      <trkpt lat="47.30014" lon="-1.51336">
        <ele>49.9459</ele>
        <time>2020-08-09T06:49:28Z</time>
      </trkpt>
      <trkpt lat="47.30013" lon="-1.51327">
        <ele>49.9833</ele>
        <time>2020-08-09T06:49:30Z</time>
      </trkpt>
      <trkpt lat="47.30012" lon="-1.51318">
        <ele>50.026</ele>
        <time>2020-08-09T06:49:32Z</time>
      </trkpt>
      <trkpt lat="47.30013" lon="-1.51311">
        <ele>50.0939</ele>
        <time>2020-08-09T06:49:35Z</time>
      </trkpt>
      <trkpt lat="47.30013" lon="-1.51302">
        <ele>50.1399</ele>
        <time>2020-08-09T06:49:37Z</time>
      </trkpt>
      <trkpt lat="47.30012" lon="-1.51287">
        <ele>50.2148</ele>
        <time>2020-08-09T06:49:40Z</time>
      </trkpt>
      <trkpt lat="47.30009" lon="-1.51275">
        <ele>50.2518</ele>
        <time>2020-08-09T06:49:41Z</time>
      </trkpt>
      <trkpt lat="47.30008" lon="-1.51258">
        <ele>50.3431</ele>
        <time>2020-08-09T06:49:43Z</time>
      </trkpt>
      <trkpt lat="47.30005" lon="-1.51249">
        <ele>50.4578</ele>
        <time>2020-08-09T06:49:45Z</time>
      </trkpt>
      <trkpt lat="47.30006" lon="-1.51241">
        <ele>50.5974</ele>
        <time>2020-08-09T06:49:47Z</time>
      </trkpt>
      <trkpt lat="47.30005" lon="-1.51228">
        <ele>51.0302</ele>
        <time>2020-08-09T06:49:53Z</time>
      </trkpt>
      <trkpt lat="47.30008" lon="-1.51221">
        <ele>51.388</ele>
        <time>2020-08-09T06:49:59Z</time>
      </trkpt>
      <trkpt lat="47.30008" lon="-1.51214">
        <ele>51.5195</ele>
        <time>2020-08-09T06:50:01Z</time>
      </trkpt>
      <trkpt lat="47.30001" lon="-1.51204">
        <ele>51.7091</ele>
        <time>2020-08-09T06:50:04Z</time>
      </trkpt>
      <trkpt lat="47.29995" lon="-1.51198">
        <ele>51.8776</ele>
        <time>2020-08-09T06:50:07Z</time>
      </trkpt>
      <trkpt lat="47.30011" lon="-1.51212">
        <ele>52.0778</ele>
        <time>2020-08-09T06:50:11Z</time>
      </trkpt>
      <trkpt lat="47.30011" lon="-1.51212">
        <ele>52.0778</ele>
        <time>2020-08-09T06:50:17Z</time>
      </trkpt>
      <trkpt lat="47.30011" lon="-1.51212">
        <ele>52.0778</ele>
        <time>2020-08-09T06:50:18Z</time>
      </trkpt>
      <trkpt lat="47.30023" lon="-1.51209">
        <ele>52.681</ele>
        <time>2020-08-09T06:50:28Z</time>
      </trkpt>
      <trkpt lat="47.30026" lon="-1.51197">
        <ele>52.6767</ele>
        <time>2020-08-09T06:50:29Z</time>
      </trkpt>
      <trkpt lat="47.30017" lon="-1.5118">
        <ele>52.518</ele>
        <time>2020-08-09T06:50:32Z</time>
      </trkpt>
      <trkpt lat="47.29992" lon="-1.51139">
        <ele>52.2702</ele>
        <time>2020-08-09T06:50:33Z</time>
      </trkpt>
      <trkpt lat="47.29999" lon="-1.51131">
        <ele>51.9037</ele>
        <time>2020-08-09T06:50:34Z</time>
      </trkpt>
      <trkpt lat="47.3" lon="-1.5112">
        <ele>51.4727</ele>
        <time>2020-08-09T06:50:35Z</time>
      </trkpt>
      <trkpt lat="47.30001" lon="-1.51104">
        <ele>51.0089</ele>
        <time>2020-08-09T06:50:36Z</time>
      </trkpt>
      <trkpt lat="47.29993" lon="-1.51092">
        <ele>50.5322</ele>
        <time>2020-08-09T06:50:37Z</time>
      </trkpt>
      <trkpt lat="47.29993" lon="-1.51082">
        <ele>50.0158</ele>
        <time>2020-08-09T06:50:38Z</time>
      </trkpt>
      <trkpt lat="47.29991" lon="-1.51069">
        <ele>48.9883</ele>
        <time>2020-08-09T06:50:40Z</time>
      </trkpt>
      <trkpt lat="47.29988" lon="-1.51057">
        <ele>47.9242</ele>
        <time>2020-08-09T06:50:42Z</time>
      </trkpt>
      <trkpt lat="47.29992" lon="-1.5105">
        <ele>46.9084</ele>
        <time>2020-08-09T06:50:44Z</time>
      </trkpt>
      <trkpt lat="47.29993" lon="-1.51031">
        <ele>45.1336</ele>
        <time>2020-08-09T06:50:47Z</time>
      </trkpt>
      <trkpt lat="47.29993" lon="-1.51024">
        <ele>43.9849</ele>
        <time>2020-08-09T06:50:49Z</time>
      </trkpt>
      <trkpt lat="47.29992" lon="-1.51017">
        <ele>43.441</ele>
        <time>2020-08-09T06:50:50Z</time>
      </trkpt>
      <trkpt lat="47.29987" lon="-1.51014">
        <ele>42.5028</ele>
        <time>2020-08-09T06:50:52Z</time>
      </trkpt>
      <trkpt lat="47.29987" lon="-1.51006">
        <ele>42.0671</ele>
        <time>2020-08-09T06:50:53Z</time>
      </trkpt>
      <trkpt lat="47.29984" lon="-1.50996">
        <ele>41.6657</ele>
        <time>2020-08-09T06:50:54Z</time>
      </trkpt>
      <trkpt lat="47.29982" lon="-1.5099">
        <ele>41.2426</ele>
        <time>2020-08-09T06:50:55Z</time>
      </trkpt>
      <trkpt lat="47.2998" lon="-1.50982">
        <ele>39.6092</ele>
        <time>2020-08-09T06:50:59Z</time>
      </trkpt>
      <trkpt lat="47.29984" lon="-1.5097">
        <ele>38.5026</ele>
        <time>2020-08-09T06:51:02Z</time>
      </trkpt>
      <trkpt lat="47.29984" lon="-1.50963">
        <ele>37.4695</ele>
        <time>2020-08-09T06:51:05Z</time>
      </trkpt>
      <trkpt lat="47.29981" lon="-1.50953">
        <ele>36.8842</ele>
        <time>2020-08-09T06:51:07Z</time>
      </trkpt>
      <trkpt lat="47.29981" lon="-1.50943">
        <ele>36.3221</ele>
        <time>2020-08-09T06:51:09Z</time>
      </trkpt>
      <trkpt lat="47.29981" lon="-1.50933">
        <ele>35.7099</ele>
        <time>2020-08-09T06:51:12Z</time>
      </trkpt>
      <trkpt lat="47.29978" lon="-1.50916">
        <ele>35.0465</ele>
        <time>2020-08-09T06:51:16Z</time>
      </trkpt>
      <trkpt lat="47.29976" lon="-1.50904">
        <ele>34.7188</ele>
        <time>2020-08-09T06:51:18Z</time>
      </trkpt>
      <trkpt lat="47.29975" lon="-1.50896">
        <ele>34.2761</ele>
        <time>2020-08-09T06:51:21Z</time>
      </trkpt>
      <trkpt lat="47.29969" lon="-1.50883">
        <ele>33.8691</ele>
        <time>2020-08-09T06:51:25Z</time>
      </trkpt>
      <trkpt lat="47.29968" lon="-1.50875">
        <ele>33.6517</ele>
        <time>2020-08-09T06:51:26Z</time>
      </trkpt>
      <trkpt lat="47.29968" lon="-1.50869">
        <ele>33.5112</ele>
        <time>2020-08-09T06:51:27Z</time>
      </trkpt>
      <trkpt lat="47.29966" lon="-1.50862">
        <ele>33.2779</ele>
        <time>2020-08-09T06:51:29Z</time>
      </trkpt>
      <trkpt lat="47.29972" lon="-1.50855">
        <ele>33.0584</ele>
        <time>2020-08-09T06:51:31Z</time>
      </trkpt>
      <trkpt lat="47.29971" lon="-1.50848">
        <ele>32.8398</ele>
        <time>2020-08-09T06:51:33Z</time>
      </trkpt>
      <trkpt lat="47.29973" lon="-1.50835">
        <ele>32.5706</ele>
        <time>2020-08-09T06:51:36Z</time>
      </trkpt>
      <trkpt lat="47.29971" lon="-1.50823">
        <ele>32.4488</ele>
        <time>2020-08-09T06:51:39Z</time>
      </trkpt>
      <trkpt lat="47.29975" lon="-1.50817">
        <ele>32.2177</ele>
        <time>2020-08-09T06:51:40Z</time>
      </trkpt>
      <trkpt lat="47.29975" lon="-1.50805">
        <ele>32.1401</ele>
        <time>2020-08-09T06:51:43Z</time>
      </trkpt>
      <trkpt lat="47.29971" lon="-1.50794">
        <ele>32.0862</ele>
        <time>2020-08-09T06:51:46Z</time>
      </trkpt>
      <trkpt lat="47.29968" lon="-1.50788">
        <ele>32.0677</ele>
        <time>2020-08-09T06:51:47Z</time>
      </trkpt>
      <trkpt lat="47.29968" lon="-1.50778">
        <ele>32.0695</ele>
        <time>2020-08-09T06:51:50Z</time>
      </trkpt>
      <trkpt lat="47.2997" lon="-1.50771">
        <ele>32.0854</ele>
        <time>2020-08-09T06:51:52Z</time>
      </trkpt>
      <trkpt lat="47.29971" lon="-1.50759">
        <ele>32.0915</ele>
        <time>2020-08-09T06:51:55Z</time>
      </trkpt>
      <trkpt lat="47.29972" lon="-1.50752">
        <ele>32.1161</ele>
        <time>2020-08-09T06:51:56Z</time>
      </trkpt>
      <trkpt lat="47.29973" lon="-1.50747">
        <ele>32.1372</ele>
        <time>2020-08-09T06:51:57Z</time>
      </trkpt>
      <trkpt lat="47.29969" lon="-1.50732">
        <ele>32.2286</ele>
        <time>2020-08-09T06:52:00Z</time>
      </trkpt>
      <trkpt lat="47.29969" lon="-1.50725">
        <ele>32.2454</ele>
        <time>2020-08-09T06:52:02Z</time>
      </trkpt>
      <trkpt lat="47.29969" lon="-1.50716">
        <ele>32.3663</ele>
        <time>2020-08-09T06:52:06Z</time>
      </trkpt>
      <trkpt lat="47.29964" lon="-1.50708">
        <ele>32.4543</ele>
        <time>2020-08-09T06:52:08Z</time>
      </trkpt>
      <trkpt lat="47.29963" lon="-1.50698">
        <ele>32.526</ele>
        <time>2020-08-09T06:52:11Z</time>
      </trkpt>
      <trkpt lat="47.29967" lon="-1.5069">
        <ele>32.5744</ele>
        <time>2020-08-09T06:52:13Z</time>
      </trkpt>
      <trkpt lat="47.29965" lon="-1.50682">
        <ele>32.6643</ele>
        <time>2020-08-09T06:52:16Z</time>
      </trkpt>
      <trkpt lat="47.29967" lon="-1.50667">
        <ele>32.7031</ele>
        <time>2020-08-09T06:52:19Z</time>
      </trkpt>
      <trkpt lat="47.29963" lon="-1.50658">
        <ele>32.732</ele>
        <time>2020-08-09T06:52:21Z</time>
      </trkpt>
      <trkpt lat="47.29959" lon="-1.50654">
        <ele>32.7405</ele>
        <time>2020-08-09T06:52:24Z</time>
      </trkpt>
      <trkpt lat="47.29961" lon="-1.50641">
        <ele>32.7101</ele>
        <time>2020-08-09T06:52:27Z</time>
      </trkpt>
      <trkpt lat="47.29959" lon="-1.50634">
        <ele>32.674</ele>
        <time>2020-08-09T06:52:29Z</time>
      </trkpt>
      <trkpt lat="47.29961" lon="-1.50625">
        <ele>32.648</ele>
        <time>2020-08-09T06:52:32Z</time>
      </trkpt>
      <trkpt lat="47.29958" lon="-1.50613">
        <ele>32.654</ele>
        <time>2020-08-09T06:52:35Z</time>
      </trkpt>
      <trkpt lat="47.29962" lon="-1.50607">
        <ele>32.6505</ele>
        <time>2020-08-09T06:52:37Z</time>
      </trkpt>
      <trkpt lat="47.29963" lon="-1.50599">
        <ele>32.6177</ele>
        <time>2020-08-09T06:52:39Z</time>
      </trkpt>
      <trkpt lat="47.29957" lon="-1.50583">
        <ele>32.3974</ele>
        <time>2020-08-09T06:52:42Z</time>
      </trkpt>
      <trkpt lat="47.29958" lon="-1.50573">
        <ele>32.3489</ele>
        <time>2020-08-09T06:52:43Z</time>
      </trkpt>
      <trkpt lat="47.29954" lon="-1.50567">
        <ele>32.3243</ele>
        <time>2020-08-09T06:52:45Z</time>
      </trkpt>
      <trkpt lat="47.29954" lon="-1.5056">
        <ele>32.3304</ele>
        <time>2020-08-09T06:52:46Z</time>
      </trkpt>
      <trkpt lat="47.29956" lon="-1.50553">
        <ele>32.2965</ele>
        <time>2020-08-09T06:52:49Z</time>
      </trkpt>
      <trkpt lat="47.29957" lon="-1.50545">
        <ele>32.2513</ele>
        <time>2020-08-09T06:52:51Z</time>
      </trkpt>
      <trkpt lat="47.29958" lon="-1.50536">
        <ele>32.2218</ele>
        <time>2020-08-09T06:52:53Z</time>
      </trkpt>
      <trkpt lat="47.29955" lon="-1.5053">
        <ele>32.2328</ele>
        <time>2020-08-09T06:52:54Z</time>
      </trkpt>
      <trkpt lat="47.29954" lon="-1.50521">
        <ele>32.1658</ele>
        <time>2020-08-09T06:52:58Z</time>
      </trkpt>
      <trkpt lat="47.29954" lon="-1.50514">
        <ele>32.07</ele>
        <time>2020-08-09T06:53:00Z</time>
      </trkpt>
      <trkpt lat="47.29949" lon="-1.5051">
        <ele>31.9283</ele>
        <time>2020-08-09T06:53:02Z</time>
      </trkpt>
      <trkpt lat="47.2995" lon="-1.50501">
        <ele>31.7851</ele>
        <time>2020-08-09T06:53:04Z</time>
      </trkpt>
      <trkpt lat="47.29945" lon="-1.50488">
        <ele>31.6296</ele>
        <time>2020-08-09T06:53:07Z</time>
      </trkpt>
      <trkpt lat="47.29943" lon="-1.50483">
        <ele>31.5659</ele>
        <time>2020-08-09T06:53:08Z</time>
      </trkpt>
      <trkpt lat="47.29943" lon="-1.50476">
        <ele>31.4357</ele>
        <time>2020-08-09T06:53:10Z</time>
      </trkpt>
      <trkpt lat="47.29948" lon="-1.50462">
        <ele>31.309</ele>
        <time>2020-08-09T06:53:12Z</time>
      </trkpt>
      <trkpt lat="47.29948" lon="-1.50455">
        <ele>31.256</ele>
        <time>2020-08-09T06:53:13Z</time>
      </trkpt>
      <trkpt lat="47.29948" lon="-1.50451">
        <ele>31.194</ele>
        <time>2020-08-09T06:53:14Z</time>
      </trkpt>
      <trkpt lat="47.29951" lon="-1.50445">
        <ele>31.1047</ele>
        <time>2020-08-09T06:53:15Z</time>
      </trkpt>
      <trkpt lat="47.29952" lon="-1.50434">
        <ele>30.7837</ele>
        <time>2020-08-09T06:53:18Z</time>
      </trkpt>
      <trkpt lat="47.29948" lon="-1.50429">
        <ele>30.6437</ele>
        <time>2020-08-09T06:53:19Z</time>
      </trkpt>
      <trkpt lat="47.29944" lon="-1.50409">
        <ele>30.5022</ele>
        <time>2020-08-09T06:53:22Z</time>
      </trkpt>
      <trkpt lat="47.29943" lon="-1.50401">
        <ele>30.4504</ele>
        <time>2020-08-09T06:53:25Z</time>
      </trkpt>
      <trkpt lat="47.29944" lon="-1.50392">
        <ele>30.2919</ele>
        <time>2020-08-09T06:53:27Z</time>
      </trkpt>
      <trkpt lat="47.29945" lon="-1.50382">
        <ele>30.1696</ele>
        <time>2020-08-09T06:53:29Z</time>
      </trkpt>
      <trkpt lat="47.29941" lon="-1.50377">
        <ele>30.1174</ele>
        <time>2020-08-09T06:53:30Z</time>
      </trkpt>
      <trkpt lat="47.29939" lon="-1.50367">
        <ele>30.0094</ele>
        <time>2020-08-09T06:53:32Z</time>
      </trkpt>
      <trkpt lat="47.2994" lon="-1.50357">
        <ele>29.9466</ele>
        <time>2020-08-09T06:53:34Z</time>
      </trkpt>
      <trkpt lat="47.29942" lon="-1.5035">
        <ele>29.8757</ele>
        <time>2020-08-09T06:53:36Z</time>
      </trkpt>
      <trkpt lat="47.2994" lon="-1.50344">
        <ele>29.8923</ele>
        <time>2020-08-09T06:53:37Z</time>
      </trkpt>
      <trkpt lat="47.29938" lon="-1.50339">
        <ele>29.9101</ele>
        <time>2020-08-09T06:53:38Z</time>
      </trkpt>
      <trkpt lat="47.29939" lon="-1.50332">
        <ele>29.9981</ele>
        <time>2020-08-09T06:53:41Z</time>
      </trkpt>
      <trkpt lat="47.29936" lon="-1.5032">
        <ele>30.2717</ele>
        <time>2020-08-09T06:53:45Z</time>
      </trkpt>
      <trkpt lat="47.29934" lon="-1.50306">
        <ele>30.4927</ele>
        <time>2020-08-09T06:53:48Z</time>
      </trkpt>
      <trkpt lat="47.29935" lon="-1.50298">
        <ele>30.9384</ele>
        <time>2020-08-09T06:53:53Z</time>
      </trkpt>
      <trkpt lat="47.29936" lon="-1.50286">
        <ele>31.2742</ele>
        <time>2020-08-09T06:53:56Z</time>
      </trkpt>
      <trkpt lat="47.29938" lon="-1.50277">
        <ele>31.6164</ele>
        <time>2020-08-09T06:53:59Z</time>
      </trkpt>
      <trkpt lat="47.29936" lon="-1.50266">
        <ele>31.8843</ele>
        <time>2020-08-09T06:54:01Z</time>
      </trkpt>
      <trkpt lat="47.29938" lon="-1.5026">
        <ele>32.2691</ele>
        <time>2020-08-09T06:54:04Z</time>
      </trkpt>
      <trkpt lat="47.29934" lon="-1.50249">
        <ele>32.4792</ele>
        <time>2020-08-09T06:54:06Z</time>
      </trkpt>
      <trkpt lat="47.29933" lon="-1.50242">
        <ele>32.5832</ele>
        <time>2020-08-09T06:54:07Z</time>
      </trkpt>
      <trkpt lat="47.29938" lon="-1.50235">
        <ele>32.7445</ele>
        <time>2020-08-09T06:54:09Z</time>
      </trkpt>
      <trkpt lat="47.29938" lon="-1.50221">
        <ele>32.9191</ele>
        <time>2020-08-09T06:54:12Z</time>
      </trkpt>
      <trkpt lat="47.29936" lon="-1.50213">
        <ele>32.9576</ele>
        <time>2020-08-09T06:54:13Z</time>
      </trkpt>
      <trkpt lat="47.29932" lon="-1.50203">
        <ele>33.1345</ele>
        <time>2020-08-09T06:54:17Z</time>
      </trkpt>
      <trkpt lat="47.29928" lon="-1.5018">
        <ele>33.3492</ele>
        <time>2020-08-09T06:54:21Z</time>
      </trkpt>
      <trkpt lat="47.29927" lon="-1.50173">
        <ele>33.3886</ele>
        <time>2020-08-09T06:54:22Z</time>
      </trkpt>
      <trkpt lat="47.29928" lon="-1.50165">
        <ele>33.4889</ele>
        <time>2020-08-09T06:54:25Z</time>
      </trkpt>
      <trkpt lat="47.29927" lon="-1.50155">
        <ele>33.598</ele>
        <time>2020-08-09T06:54:28Z</time>
      </trkpt>
      <trkpt lat="47.29926" lon="-1.50149">
        <ele>33.6402</ele>
        <time>2020-08-09T06:54:29Z</time>
      </trkpt>
      <trkpt lat="47.29925" lon="-1.50138">
        <ele>33.7243</ele>
        <time>2020-08-09T06:54:31Z</time>
      </trkpt>
      <trkpt lat="47.29928" lon="-1.50128">
        <ele>34.0155</ele>
        <time>2020-08-09T06:54:36Z</time>
      </trkpt>
      <trkpt lat="47.29929" lon="-1.50121">
        <ele>34.0851</ele>
        <time>2020-08-09T06:54:37Z</time>
      </trkpt>
      <trkpt lat="47.29927" lon="-1.50112">
        <ele>34.1506</ele>
        <time>2020-08-09T06:54:38Z</time>
      </trkpt>
      <trkpt lat="47.29927" lon="-1.50101">
        <ele>34.2673</ele>
        <time>2020-08-09T06:54:40Z</time>
      </trkpt>
      <trkpt lat="47.29926" lon="-1.50092">
        <ele>34.3246</ele>
        <time>2020-08-09T06:54:41Z</time>
      </trkpt>
      <trkpt lat="47.29921" lon="-1.50085">
        <ele>34.4593</ele>
        <time>2020-08-09T06:54:44Z</time>
      </trkpt>
      <trkpt lat="47.29921" lon="-1.50072">
        <ele>34.5775</ele>
        <time>2020-08-09T06:54:47Z</time>
      </trkpt>
      <trkpt lat="47.29924" lon="-1.50065">
        <ele>34.6361</ele>
        <time>2020-08-09T06:54:49Z</time>
      </trkpt>
      <trkpt lat="47.29921" lon="-1.50056">
        <ele>34.7296</ele>
        <time>2020-08-09T06:54:51Z</time>
      </trkpt>
      <trkpt lat="47.29919" lon="-1.5005">
        <ele>34.8038</ele>
        <time>2020-08-09T06:54:52Z</time>
      </trkpt>
      <trkpt lat="47.29917" lon="-1.50039">
        <ele>34.9817</ele>
        <time>2020-08-09T06:54:54Z</time>
      </trkpt>
      <trkpt lat="47.29921" lon="-1.50032">
        <ele>35.5526</ele>
        <time>2020-08-09T06:55:00Z</time>
      </trkpt>
      <trkpt lat="47.29922" lon="-1.50017">
        <ele>35.8947</ele>
        <time>2020-08-09T06:55:03Z</time>
      </trkpt>
      <trkpt lat="47.29925" lon="-1.50012">
        <ele>36.0146</ele>
        <time>2020-08-09T06:55:04Z</time>
      </trkpt>
      <trkpt lat="47.29923" lon="-1.50003">
        <ele>36.2621</ele>
        <time>2020-08-09T06:55:06Z</time>
      </trkpt>
      <trkpt lat="47.29919" lon="-1.49991">
        <ele>36.5279</ele>
        <time>2020-08-09T06:55:08Z</time>
      </trkpt>
      <trkpt lat="47.29919" lon="-1.49982">
        <ele>36.8162</ele>
        <time>2020-08-09T06:55:10Z</time>
      </trkpt>
      <trkpt lat="47.29923" lon="-1.49976">
        <ele>37.0732</ele>
        <time>2020-08-09T06:55:12Z</time>
      </trkpt>
      <trkpt lat="47.2993" lon="-1.49962">
        <ele>37.4636</ele>
        <time>2020-08-09T06:55:15Z</time>
      </trkpt>
      <trkpt lat="47.29935" lon="-1.49955">
        <ele>37.7226</ele>
        <time>2020-08-09T06:55:17Z</time>
      </trkpt>
      <trkpt lat="47.29938" lon="-1.49951">
        <ele>37.8419</ele>
        <time>2020-08-09T06:55:18Z</time>
      </trkpt>
      <trkpt lat="47.29941" lon="-1.4994">
        <ele>38.1914</ele>
        <time>2020-08-09T06:55:21Z</time>
      </trkpt>
      <trkpt lat="47.29943" lon="-1.4993">
        <ele>38.4321</ele>
        <time>2020-08-09T06:55:23Z</time>
      </trkpt>
      <trkpt lat="47.29944" lon="-1.49923">
        <ele>38.6699</ele>
        <time>2020-08-09T06:55:25Z</time>
      </trkpt>
      <trkpt lat="47.29947" lon="-1.49916">
        <ele>38.9458</ele>
        <time>2020-08-09T06:55:27Z</time>
      </trkpt>
      <trkpt lat="47.29949" lon="-1.49905">
        <ele>39.3974</ele>
        <time>2020-08-09T06:55:30Z</time>
      </trkpt>
      <trkpt lat="47.29947" lon="-1.49892">
        <ele>39.8955</ele>
        <time>2020-08-09T06:55:33Z</time>
      </trkpt>
      <trkpt lat="47.29945" lon="-1.49885">
        <ele>40.2436</ele>
        <time>2020-08-09T06:55:35Z</time>
      </trkpt>
      <trkpt lat="47.29944" lon="-1.49881">
        <ele>40.4181</ele>
        <time>2020-08-09T06:55:36Z</time>
      </trkpt>
      <trkpt lat="47.29937" lon="-1.49867">
        <ele>41.5004</ele>
        <time>2020-08-09T06:55:41Z</time>
      </trkpt>
      <trkpt lat="47.29934" lon="-1.49862">
        <ele>41.9726</ele>
        <time>2020-08-09T06:55:43Z</time>
      </trkpt>
      <trkpt lat="47.29929" lon="-1.49856">
        <ele>42.4658</ele>
        <time>2020-08-09T06:55:45Z</time>
      </trkpt>
      <trkpt lat="47.29924" lon="-1.49849">
        <ele>43.238</ele>
        <time>2020-08-09T06:55:48Z</time>
      </trkpt>
      <trkpt lat="47.2992" lon="-1.49844">
        <ele>43.7619</ele>
        <time>2020-08-09T06:55:50Z</time>
      </trkpt>
      <trkpt lat="47.29913" lon="-1.4984">
        <ele>44.5585</ele>
        <time>2020-08-09T06:55:53Z</time>
      </trkpt>
      <trkpt lat="47.29911" lon="-1.49832">
        <ele>45.0876</ele>
        <time>2020-08-09T06:55:55Z</time>
      </trkpt>
      <trkpt lat="47.29912" lon="-1.49821">
        <ele>45.6113</ele>
        <time>2020-08-09T06:55:57Z</time>
      </trkpt>
      <trkpt lat="47.29915" lon="-1.49812">
        <ele>46.1195</ele>
        <time>2020-08-09T06:55:59Z</time>
      </trkpt>
      <trkpt lat="47.29917" lon="-1.49805">
        <ele>46.8274</ele>
        <time>2020-08-09T06:56:02Z</time>
      </trkpt>
      <trkpt lat="47.29921" lon="-1.49797">
        <ele>47.269</ele>
        <time>2020-08-09T06:56:04Z</time>
      </trkpt>
      <trkpt lat="47.29924" lon="-1.49791">
        <ele>48.4948</ele>
        <time>2020-08-09T06:56:10Z</time>
      </trkpt>
      <trkpt lat="47.29929" lon="-1.49787">
        <ele>49.0574</ele>
        <time>2020-08-09T06:56:13Z</time>
      </trkpt>
      <trkpt lat="47.29934" lon="-1.49783">
        <ele>49.5776</ele>
        <time>2020-08-09T06:56:16Z</time>
      </trkpt>
      <trkpt lat="47.29938" lon="-1.49776">
        <ele>49.903</ele>
        <time>2020-08-09T06:56:18Z</time>
      </trkpt>
      <trkpt lat="47.29952" lon="-1.49775">
        <ele>50.3492</ele>
        <time>2020-08-09T06:56:21Z</time>
      </trkpt>
      <trkpt lat="47.29957" lon="-1.49772">
        <ele>50.6236</ele>
        <time>2020-08-09T06:56:23Z</time>
      </trkpt>
      <trkpt lat="47.2996" lon="-1.4977">
        <ele>50.7558</ele>
        <time>2020-08-09T06:56:24Z</time>
      </trkpt>
      <trkpt lat="47.29966" lon="-1.49772">
        <ele>50.8831</ele>
        <time>2020-08-09T06:56:25Z</time>
      </trkpt>
      <trkpt lat="47.29972" lon="-1.49772">
        <ele>51.0069</ele>
        <time>2020-08-09T06:56:26Z</time>
      </trkpt>
      <trkpt lat="47.29978" lon="-1.49767">
        <ele>51.25</ele>
        <time>2020-08-09T06:56:28Z</time>
      </trkpt>
      <trkpt lat="47.29984" lon="-1.49761">
        <ele>51.5906</ele>
        <time>2020-08-09T06:56:31Z</time>
      </trkpt>
      <trkpt lat="47.29986" lon="-1.49749">
        <ele>51.9041</ele>
        <time>2020-08-09T06:56:34Z</time>
      </trkpt>
      <trkpt lat="47.29987" lon="-1.49744">
        <ele>52.0053</ele>
        <time>2020-08-09T06:56:35Z</time>
      </trkpt>
      <trkpt lat="47.29988" lon="-1.49741">
        <ele>52.1029</ele>
        <time>2020-08-09T06:56:36Z</time>
      </trkpt>
      <trkpt lat="47.29988" lon="-1.49733">
        <ele>52.2861</ele>
        <time>2020-08-09T06:56:38Z</time>
      </trkpt>
      <trkpt lat="47.29993" lon="-1.49728">
        <ele>52.4583</ele>
        <time>2020-08-09T06:56:40Z</time>
      </trkpt>
      <trkpt lat="47.29997" lon="-1.49722">
        <ele>52.6222</ele>
        <time>2020-08-09T06:56:42Z</time>
      </trkpt>
      <trkpt lat="47.30001" lon="-1.49711">
        <ele>52.8435</ele>
        <time>2020-08-09T06:56:45Z</time>
      </trkpt>
      <trkpt lat="47.30006" lon="-1.4971">
        <ele>52.9712</ele>
        <time>2020-08-09T06:56:47Z</time>
      </trkpt>
      <trkpt lat="47.30011" lon="-1.49712">
        <ele>53.0835</ele>
        <time>2020-08-09T06:56:49Z</time>
      </trkpt>
      <trkpt lat="47.30014" lon="-1.49717">
        <ele>53.2272</ele>
        <time>2020-08-09T06:56:52Z</time>
      </trkpt>
      <trkpt lat="47.30022" lon="-1.49707">
        <ele>53.341</ele>
        <time>2020-08-09T06:56:55Z</time>
      </trkpt>
      <trkpt lat="47.30027" lon="-1.49716">
        <ele>53.4679</ele>
        <time>2020-08-09T06:56:59Z</time>
      </trkpt>
      <trkpt lat="47.30032" lon="-1.49722">
        <ele>53.5211</ele>
        <time>2020-08-09T06:57:01Z</time>
      </trkpt>
      <trkpt lat="47.30045" lon="-1.49723">
        <ele>53.5777</ele>
        <time>2020-08-09T06:57:04Z</time>
      </trkpt>
      <trkpt lat="47.30054" lon="-1.49719">
        <ele>53.6122</ele>
        <time>2020-08-09T06:57:06Z</time>
      </trkpt>
      <trkpt lat="47.30063" lon="-1.49717">
        <ele>53.7091</ele>
        <time>2020-08-09T06:57:11Z</time>
      </trkpt>
      <trkpt lat="47.30067" lon="-1.49711">
        <ele>53.7687</ele>
        <time>2020-08-09T06:57:14Z</time>
      </trkpt>
      <trkpt lat="47.30068" lon="-1.49705">
        <ele>53.8291</ele>
        <time>2020-08-09T06:57:17Z</time>
      </trkpt>
      <trkpt lat="47.30073" lon="-1.49699">
        <ele>53.8686</ele>
        <time>2020-08-09T06:57:19Z</time>
      </trkpt>
      <trkpt lat="47.30077" lon="-1.49696">
        <ele>53.9052</ele>
        <time>2020-08-09T06:57:21Z</time>
      </trkpt>
      <trkpt lat="47.30084" lon="-1.4969">
        <ele>53.938</ele>
        <time>2020-08-09T06:57:23Z</time>
      </trkpt>
      <trkpt lat="47.30089" lon="-1.49684">
        <ele>53.9645</ele>
        <time>2020-08-09T06:57:25Z</time>
      </trkpt>
      <trkpt lat="47.30088" lon="-1.49677">
        <ele>53.9787</ele>
        <time>2020-08-09T06:57:26Z</time>
      </trkpt>
      <trkpt lat="47.30089" lon="-1.49669">
        <ele>54.0031</ele>
        <time>2020-08-09T06:57:28Z</time>
      </trkpt>
      <trkpt lat="47.30093" lon="-1.49663">
        <ele>54.0325</ele>
        <time>2020-08-09T06:57:31Z</time>
      </trkpt>
      <trkpt lat="47.30095" lon="-1.49651">
        <ele>54.0633</ele>
        <time>2020-08-09T06:57:34Z</time>
      </trkpt>
      <trkpt lat="47.30099" lon="-1.49649">
        <ele>54.088</ele>
        <time>2020-08-09T06:57:36Z</time>
      </trkpt>
      <trkpt lat="47.30101" lon="-1.4964">
        <ele>54.1427</ele>
        <time>2020-08-09T06:57:40Z</time>
      </trkpt>
      <trkpt lat="47.30103" lon="-1.49634">
        <ele>54.1665</ele>
        <time>2020-08-09T06:57:42Z</time>
      </trkpt>
      <trkpt lat="47.30107" lon="-1.49632">
        <ele>54.1788</ele>
        <time>2020-08-09T06:57:43Z</time>
      </trkpt>
      <trkpt lat="47.3011" lon="-1.49624">
        <ele>54.2012</ele>
        <time>2020-08-09T06:57:45Z</time>
      </trkpt>
      <trkpt lat="47.30116" lon="-1.49617">
        <ele>54.2236</ele>
        <time>2020-08-09T06:57:48Z</time>
      </trkpt>
      <trkpt lat="47.30118" lon="-1.49614">
        <ele>54.2305</ele>
        <time>2020-08-09T06:57:49Z</time>
      </trkpt>
      <trkpt lat="47.30119" lon="-1.49607">
        <ele>54.2427</ele>
        <time>2020-08-09T06:57:51Z</time>
      </trkpt>
      <trkpt lat="47.30129" lon="-1.49609">
        <ele>54.2514</ele>
        <time>2020-08-09T06:57:53Z</time>
      </trkpt>
      <trkpt lat="47.30136" lon="-1.49608">
        <ele>54.2544</ele>
        <time>2020-08-09T06:57:55Z</time>
      </trkpt>
      <trkpt lat="47.30139" lon="-1.49602">
        <ele>54.2548</ele>
        <time>2020-08-09T06:57:57Z</time>
      </trkpt>
      <trkpt lat="47.3015" lon="-1.49595">
        <ele>54.2514</ele>
        <time>2020-08-09T06:58:00Z</time>
      </trkpt>
      <trkpt lat="47.30157" lon="-1.49596">
        <ele>54.2472</ele>
        <time>2020-08-09T06:58:01Z</time>
      </trkpt>
      <trkpt lat="47.30168" lon="-1.49594">
        <ele>54.2388</ele>
        <time>2020-08-09T06:58:03Z</time>
      </trkpt>
      <trkpt lat="47.30174" lon="-1.49594">
        <ele>54.2337</ele>
        <time>2020-08-09T06:58:04Z</time>
      </trkpt>
      <trkpt lat="47.3018" lon="-1.49596">
        <ele>54.2166</ele>
        <time>2020-08-09T06:58:07Z</time>
      </trkpt>
      <trkpt lat="47.3019" lon="-1.49587">
        <ele>54.201</ele>
        <time>2020-08-09T06:58:10Z</time>
      </trkpt>
      <trkpt lat="47.30193" lon="-1.49581">
        <ele>54.1903</ele>
        <time>2020-08-09T06:58:12Z</time>
      </trkpt>
      <trkpt lat="47.3019" lon="-1.49569">
        <ele>54.1772</ele>
        <time>2020-08-09T06:58:16Z</time>
      </trkpt>
      <trkpt lat="47.30183" lon="-1.49555">
        <ele>54.1775</ele>
        <time>2020-08-09T06:58:17Z</time>
      </trkpt>
      <trkpt lat="47.30181" lon="-1.49549">
        <ele>54.1753</ele>
        <time>2020-08-09T06:58:18Z</time>
      </trkpt>
      <trkpt lat="47.30183" lon="-1.49542">
        <ele>54.1727</ele>
        <time>2020-08-09T06:58:21Z</time>
      </trkpt>
      <trkpt lat="47.3019" lon="-1.49533">
        <ele>54.1683</ele>
        <time>2020-08-09T06:58:23Z</time>
      </trkpt>
      <trkpt lat="47.30194" lon="-1.49529">
        <ele>54.1614</ele>
        <time>2020-08-09T06:58:24Z</time>
      </trkpt>
      <trkpt lat="47.302" lon="-1.49526">
        <ele>54.1565</ele>
        <time>2020-08-09T06:58:25Z</time>
      </trkpt>
      <trkpt lat="47.30201" lon="-1.49511">
        <ele>54.1341</ele>
        <time>2020-08-09T06:58:28Z</time>
      </trkpt>
      <trkpt lat="47.30202" lon="-1.49507">
        <ele>54.1276</ele>
        <time>2020-08-09T06:58:29Z</time>
      </trkpt>
      <trkpt lat="47.30208" lon="-1.49502">
        <ele>54.1155</ele>
        <time>2020-08-09T06:58:31Z</time>
      </trkpt>
      <trkpt lat="47.3021" lon="-1.4949">
        <ele>54.0972</ele>
        <time>2020-08-09T06:58:34Z</time>
      </trkpt>
      <trkpt lat="47.30211" lon="-1.49483">
        <ele>54.0849</ele>
        <time>2020-08-09T06:58:36Z</time>
      </trkpt>
      <trkpt lat="47.3022" lon="-1.49485">
        <ele>54.0797</ele>
        <time>2020-08-09T06:58:37Z</time>
      </trkpt>
      <trkpt lat="47.30223" lon="-1.49477">
        <ele>54.0659</ele>
        <time>2020-08-09T06:58:39Z</time>
      </trkpt>
      <trkpt lat="47.30228" lon="-1.49471">
        <ele>54.0534</ele>
        <time>2020-08-09T06:58:41Z</time>
      </trkpt>
      <trkpt lat="47.30233" lon="-1.49466">
        <ele>54.0379</ele>
        <time>2020-08-09T06:58:44Z</time>
      </trkpt>
      <trkpt lat="47.30241" lon="-1.49459">
        <ele>54.0236</ele>
        <time>2020-08-09T06:58:49Z</time>
      </trkpt>
      <trkpt lat="47.30245" lon="-1.49452">
        <ele>54.0132</ele>
        <time>2020-08-09T06:58:52Z</time>
      </trkpt>
      <trkpt lat="47.30255" lon="-1.49452">
        <ele>54.004</ele>
        <time>2020-08-09T06:58:54Z</time>
      </trkpt>
      <trkpt lat="47.30259" lon="-1.49448">
        <ele>53.9967</ele>
        <time>2020-08-09T06:58:56Z</time>
      </trkpt>
      <trkpt lat="47.30256" lon="-1.49437">
        <ele>53.9893</ele>
        <time>2020-08-09T06:58:58Z</time>
      </trkpt>
      <trkpt lat="47.30253" lon="-1.4943">
        <ele>53.983</ele>
        <time>2020-08-09T06:58:59Z</time>
      </trkpt>
      <trkpt lat="47.30249" lon="-1.4942">
        <ele>53.9607</ele>
        <time>2020-08-09T06:59:01Z</time>
      </trkpt>
      <trkpt lat="47.30252" lon="-1.49413">
        <ele>53.8958</ele>
        <time>2020-08-09T06:59:04Z</time>
      </trkpt>
      <trkpt lat="47.30254" lon="-1.49409">
        <ele>53.8728</ele>
        <time>2020-08-09T06:59:05Z</time>
      </trkpt>
      <trkpt lat="47.30256" lon="-1.49402">
        <ele>53.7951</ele>
        <time>2020-08-09T06:59:08Z</time>
      </trkpt>
      <trkpt lat="47.3026" lon="-1.49396">
        <ele>53.7441</ele>
        <time>2020-08-09T06:59:10Z</time>
      </trkpt>
      <trkpt lat="47.30267" lon="-1.4939">
        <ele>53.6883</ele>
        <time>2020-08-09T06:59:12Z</time>
      </trkpt>
      <trkpt lat="47.30272" lon="-1.49391">
        <ele>53.6588</ele>
        <time>2020-08-09T06:59:13Z</time>
      </trkpt>
      <trkpt lat="47.30276" lon="-1.49392">
        <ele>53.5999</ele>
        <time>2020-08-09T06:59:15Z</time>
      </trkpt>
      <trkpt lat="47.3028" lon="-1.49388">
        <ele>53.5247</ele>
        <time>2020-08-09T06:59:18Z</time>
      </trkpt>
      <trkpt lat="47.30286" lon="-1.4939">
        <ele>53.4724</ele>
        <time>2020-08-09T06:59:20Z</time>
      </trkpt>
      <trkpt lat="47.3029" lon="-1.49387">
        <ele>53.4182</ele>
        <time>2020-08-09T06:59:22Z</time>
      </trkpt>
      <trkpt lat="47.30302" lon="-1.49379">
        <ele>53.3332</ele>
        <time>2020-08-09T06:59:25Z</time>
      </trkpt>
      <trkpt lat="47.30303" lon="-1.49371">
        <ele>53.265</ele>
        <time>2020-08-09T06:59:28Z</time>
      </trkpt>
      <trkpt lat="47.30304" lon="-1.49366">
        <ele>53.2207</ele>
        <time>2020-08-09T06:59:30Z</time>
      </trkpt>
      <trkpt lat="47.3031" lon="-1.49359">
        <ele>53.1482</ele>
        <time>2020-08-09T06:59:33Z</time>
      </trkpt>
      <trkpt lat="47.30313" lon="-1.49354">
        <ele>53.0776</ele>
        <time>2020-08-09T06:59:36Z</time>
      </trkpt>
      <trkpt lat="47.30317" lon="-1.49348">
        <ele>53.0293</ele>
        <time>2020-08-09T06:59:38Z</time>
      </trkpt>
      <trkpt lat="47.30322" lon="-1.49346">
        <ele>53.0066</ele>
        <time>2020-08-09T06:59:39Z</time>
      </trkpt>
      <trkpt lat="47.30328" lon="-1.49347">
        <ele>52.938</ele>
        <time>2020-08-09T06:59:42Z</time>
      </trkpt>
      <trkpt lat="47.30332" lon="-1.49343">
        <ele>52.8366</ele>
        <time>2020-08-09T06:59:46Z</time>
      </trkpt>
      <trkpt lat="47.30335" lon="-1.49342">
        <ele>52.8112</ele>
        <time>2020-08-09T06:59:47Z</time>
      </trkpt>
      <trkpt lat="47.30338" lon="-1.49335">
        <ele>52.7348</ele>
        <time>2020-08-09T06:59:50Z</time>
      </trkpt>
      <trkpt lat="47.30343" lon="-1.4933">
        <ele>52.6875</ele>
        <time>2020-08-09T06:59:52Z</time>
      </trkpt>
      <trkpt lat="47.30348" lon="-1.49327">
        <ele>52.6405</ele>
        <time>2020-08-09T06:59:54Z</time>
      </trkpt>
      <trkpt lat="47.30348" lon="-1.49318">
        <ele>52.525</ele>
        <time>2020-08-09T06:59:59Z</time>
      </trkpt>
      <trkpt lat="47.30353" lon="-1.4931">
        <ele>52.4529</ele>
        <time>2020-08-09T07:00:02Z</time>
      </trkpt>
      <trkpt lat="47.30355" lon="-1.49303">
        <ele>52.4034</ele>
        <time>2020-08-09T07:00:04Z</time>
      </trkpt>
      <trkpt lat="47.30359" lon="-1.49295">
        <ele>52.3572</ele>
        <time>2020-08-09T07:00:06Z</time>
      </trkpt>
      <trkpt lat="47.30361" lon="-1.49287">
        <ele>52.3119</ele>
        <time>2020-08-09T07:00:08Z</time>
      </trkpt>
      <trkpt lat="47.30362" lon="-1.49277">
        <ele>52.2654</ele>
        <time>2020-08-09T07:00:10Z</time>
      </trkpt>
      <trkpt lat="47.30366" lon="-1.49275">
        <ele>52.2398</ele>
        <time>2020-08-09T07:00:11Z</time>
      </trkpt>
      <trkpt lat="47.30375" lon="-1.49271">
        <ele>52.19</ele>
        <time>2020-08-09T07:00:13Z</time>
      </trkpt>
      <trkpt lat="47.30377" lon="-1.49265">
        <ele>52.1412</ele>
        <time>2020-08-09T07:00:15Z</time>
      </trkpt>
      <trkpt lat="47.30376" lon="-1.49256">
        <ele>52.0899</ele>
        <time>2020-08-09T07:00:17Z</time>
      </trkpt>
      <trkpt lat="47.30378" lon="-1.49246">
        <ele>52.0079</ele>
        <time>2020-08-09T07:00:20Z</time>
      </trkpt>
      <trkpt lat="47.30385" lon="-1.49245">
        <ele>51.9813</ele>
        <time>2020-08-09T07:00:21Z</time>
      </trkpt>
      <trkpt lat="47.30387" lon="-1.49238">
        <ele>51.9285</ele>
        <time>2020-08-09T07:00:23Z</time>
      </trkpt>
      <trkpt lat="47.30391" lon="-1.49224">
        <ele>51.8514</ele>
        <time>2020-08-09T07:00:26Z</time>
      </trkpt>
      <trkpt lat="47.30397" lon="-1.4922">
        <ele>51.804</ele>
        <time>2020-08-09T07:00:28Z</time>
      </trkpt>
      <trkpt lat="47.30403" lon="-1.49217">
        <ele>51.784</ele>
        <time>2020-08-09T07:00:29Z</time>
      </trkpt>
      <trkpt lat="47.30406" lon="-1.49215">
        <ele>51.7638</ele>
        <time>2020-08-09T07:00:30Z</time>
      </trkpt>
      <trkpt lat="47.30414" lon="-1.49215">
        <ele>51.7455</ele>
        <time>2020-08-09T07:00:31Z</time>
      </trkpt>
      <trkpt lat="47.30415" lon="-1.49204">
        <ele>51.7119</ele>
        <time>2020-08-09T07:00:33Z</time>
      </trkpt>
      <trkpt lat="47.30426" lon="-1.49203">
        <ele>51.6783</ele>
        <time>2020-08-09T07:00:35Z</time>
      </trkpt>
      <trkpt lat="47.30434" lon="-1.49207">
        <ele>51.6354</ele>
        <time>2020-08-09T07:00:37Z</time>
      </trkpt>
      <trkpt lat="47.30439" lon="-1.49215">
        <ele>51.5746</ele>
        <time>2020-08-09T07:00:39Z</time>
      </trkpt>
      <trkpt lat="47.30444" lon="-1.49218">
        <ele>51.5403</ele>
        <time>2020-08-09T07:00:40Z</time>
      </trkpt>
      <trkpt lat="47.30449" lon="-1.49224">
        <ele>51.4631</ele>
        <time>2020-08-09T07:00:42Z</time>
      </trkpt>
      <trkpt lat="47.30452" lon="-1.49235">
        <ele>51.3443</ele>
        <time>2020-08-09T07:00:45Z</time>
      </trkpt>
      <trkpt lat="47.30463" lon="-1.49236">
        <ele>51.2442</ele>
        <time>2020-08-09T07:00:48Z</time>
      </trkpt>
      <trkpt lat="47.30466" lon="-1.49236">
        <ele>51.185</ele>
        <time>2020-08-09T07:00:50Z</time>
      </trkpt>
      <trkpt lat="47.30468" lon="-1.49226">
        <ele>51.0539</ele>
        <time>2020-08-09T07:00:55Z</time>
      </trkpt>
      <trkpt lat="47.30468" lon="-1.49218">
        <ele>51.0073</ele>
        <time>2020-08-09T07:00:57Z</time>
      </trkpt>
      <trkpt lat="47.30471" lon="-1.49212">
        <ele>50.9571</ele>
        <time>2020-08-09T07:00:59Z</time>
      </trkpt>
      <trkpt lat="47.30472" lon="-1.49204">
        <ele>50.8819</ele>
        <time>2020-08-09T07:01:02Z</time>
      </trkpt>
      <trkpt lat="47.30473" lon="-1.49196">
        <ele>50.8096</ele>
        <time>2020-08-09T07:01:05Z</time>
      </trkpt>
      <trkpt lat="47.30478" lon="-1.4919">
        <ele>50.7375</ele>
        <time>2020-08-09T07:01:08Z</time>
      </trkpt>
      <trkpt lat="47.30482" lon="-1.49188">
        <ele>50.7108</ele>
        <time>2020-08-09T07:01:09Z</time>
      </trkpt>
      <trkpt lat="47.30487" lon="-1.49187">
        <ele>50.6852</ele>
        <time>2020-08-09T07:01:10Z</time>
      </trkpt>
      <trkpt lat="47.30494" lon="-1.49183">
        <ele>50.6374</ele>
        <time>2020-08-09T07:01:12Z</time>
      </trkpt>
      <trkpt lat="47.30503" lon="-1.49175">
        <ele>50.5925</ele>
        <time>2020-08-09T07:01:14Z</time>
      </trkpt>
      <trkpt lat="47.30509" lon="-1.49178">
        <ele>50.5512</ele>
        <time>2020-08-09T07:01:16Z</time>
      </trkpt>
      <trkpt lat="47.30514" lon="-1.49177">
        <ele>50.531</ele>
        <time>2020-08-09T07:01:17Z</time>
      </trkpt>
      <trkpt lat="47.30522" lon="-1.49169">
        <ele>50.4501</ele>
        <time>2020-08-09T07:01:21Z</time>
      </trkpt>
      <trkpt lat="47.3053" lon="-1.49161">
        <ele>50.3902</ele>
        <time>2020-08-09T07:01:24Z</time>
      </trkpt>
      <trkpt lat="47.3053" lon="-1.49154">
        <ele>50.349</ele>
        <time>2020-08-09T07:01:26Z</time>
      </trkpt>
      <trkpt lat="47.30536" lon="-1.49147">
        <ele>50.292</ele>
        <time>2020-08-09T07:01:29Z</time>
      </trkpt>
      <trkpt lat="47.3054" lon="-1.49139">
        <ele>50.2545</ele>
        <time>2020-08-09T07:01:31Z</time>
      </trkpt>
      <trkpt lat="47.30543" lon="-1.49135">
        <ele>50.2357</ele>
        <time>2020-08-09T07:01:32Z</time>
      </trkpt>
      <trkpt lat="47.30553" lon="-1.49132">
        <ele>50.2003</ele>
        <time>2020-08-09T07:01:34Z</time>
      </trkpt>
      <trkpt lat="47.30557" lon="-1.49124">
        <ele>50.1621</ele>
        <time>2020-08-09T07:01:36Z</time>
      </trkpt>
      <trkpt lat="47.30558" lon="-1.49117">
        <ele>50.1231</ele>
        <time>2020-08-09T07:01:38Z</time>
      </trkpt>
      <trkpt lat="47.3056" lon="-1.49103">
        <ele>50.067</ele>
        <time>2020-08-09T07:01:41Z</time>
      </trkpt>
      <trkpt lat="47.30562" lon="-1.49096">
        <ele>50.0489</ele>
        <time>2020-08-09T07:01:42Z</time>
      </trkpt>
      <trkpt lat="47.30562" lon="-1.49092">
        <ele>50.0105</ele>
        <time>2020-08-09T07:01:44Z</time>
      </trkpt>
      <trkpt lat="47.30566" lon="-1.49085">
        <ele>49.9927</ele>
        <time>2020-08-09T07:01:45Z</time>
      </trkpt>
      <trkpt lat="47.3057" lon="-1.49081">
        <ele>49.9751</ele>
        <time>2020-08-09T07:01:46Z</time>
      </trkpt>
      <trkpt lat="47.30574" lon="-1.49078">
        <ele>49.9291</ele>
        <time>2020-08-09T07:01:49Z</time>
      </trkpt>
      <trkpt lat="47.30581" lon="-1.49072">
        <ele>49.9025</ele>
        <time>2020-08-09T07:01:51Z</time>
      </trkpt>
      <trkpt lat="47.30586" lon="-1.4907">
        <ele>49.8764</ele>
        <time>2020-08-09T07:01:53Z</time>
      </trkpt>
      <trkpt lat="47.30588" lon="-1.49063">
        <ele>49.85</ele>
        <time>2020-08-09T07:01:55Z</time>
      </trkpt>
      <trkpt lat="47.30591" lon="-1.49053">
        <ele>49.8102</ele>
        <time>2020-08-09T07:01:58Z</time>
      </trkpt>
      <trkpt lat="47.30594" lon="-1.49047">
        <ele>49.7877</ele>
        <time>2020-08-09T07:02:00Z</time>
      </trkpt>
      <trkpt lat="47.30595" lon="-1.4904">
        <ele>49.7686</ele>
        <time>2020-08-09T07:02:02Z</time>
      </trkpt>
      <trkpt lat="47.30602" lon="-1.49029">
        <ele>49.7361</ele>
        <time>2020-08-09T07:02:06Z</time>
      </trkpt>
      <trkpt lat="47.30605" lon="-1.49017">
        <ele>49.7157</ele>
        <time>2020-08-09T07:02:09Z</time>
      </trkpt>
      <trkpt lat="47.30607" lon="-1.49009">
        <ele>49.7039</ele>
        <time>2020-08-09T07:02:11Z</time>
      </trkpt>
      <trkpt lat="47.30612" lon="-1.49004">
        <ele>49.6891</ele>
        <time>2020-08-09T07:02:13Z</time>
      </trkpt>
      <trkpt lat="47.30613" lon="-1.48996">
        <ele>49.6747</ele>
        <time>2020-08-09T07:02:15Z</time>
      </trkpt>
      <trkpt lat="47.30613" lon="-1.48985">
        <ele>49.6599</ele>
        <time>2020-08-09T07:02:17Z</time>
      </trkpt>
      <trkpt lat="47.30616" lon="-1.48978">
        <ele>49.6409</ele>
        <time>2020-08-09T07:02:20Z</time>
      </trkpt>
      <trkpt lat="47.30619" lon="-1.4897">
        <ele>49.6271</ele>
        <time>2020-08-09T07:02:23Z</time>
      </trkpt>
      <trkpt lat="47.3062" lon="-1.4896">
        <ele>49.6203</ele>
        <time>2020-08-09T07:02:25Z</time>
      </trkpt>
      <trkpt lat="47.30624" lon="-1.48954">
        <ele>49.6182</ele>
        <time>2020-08-09T07:02:27Z</time>
      </trkpt>
      <trkpt lat="47.30629" lon="-1.48944">
        <ele>49.619</ele>
        <time>2020-08-09T07:02:29Z</time>
      </trkpt>
      <trkpt lat="47.30635" lon="-1.48937">
        <ele>49.6197</ele>
        <time>2020-08-09T07:02:31Z</time>
      </trkpt>
      <trkpt lat="47.30638" lon="-1.48925">
        <ele>49.6243</ele>
        <time>2020-08-09T07:02:35Z</time>
      </trkpt>
      <trkpt lat="47.30634" lon="-1.48917">
        <ele>49.6285</ele>
        <time>2020-08-09T07:02:37Z</time>
      </trkpt>
      <trkpt lat="47.30634" lon="-1.4891">
        <ele>49.637</ele>
        <time>2020-08-09T07:02:40Z</time>
      </trkpt>
      <trkpt lat="47.30633" lon="-1.48906">
        <ele>49.6414</ele>
        <time>2020-08-09T07:02:41Z</time>
      </trkpt>
      <trkpt lat="47.3063" lon="-1.489">
        <ele>49.6524</ele>
        <time>2020-08-09T07:02:44Z</time>
      </trkpt>
      <trkpt lat="47.30621" lon="-1.48877">
        <ele>49.6535</ele>
        <time>2020-08-09T07:02:48Z</time>
      </trkpt>
      <trkpt lat="47.30616" lon="-1.48871">
        <ele>49.6525</ele>
        <time>2020-08-09T07:02:50Z</time>
      </trkpt>
      <trkpt lat="47.30614" lon="-1.48868">
        <ele>49.6528</ele>
        <time>2020-08-09T07:02:51Z</time>
      </trkpt>
      <trkpt lat="47.30611" lon="-1.4886">
        <ele>49.6523</ele>
        <time>2020-08-09T07:02:53Z</time>
      </trkpt>
      <trkpt lat="47.30613" lon="-1.48851">
        <ele>49.654</ele>
        <time>2020-08-09T07:02:54Z</time>
      </trkpt>
      <trkpt lat="47.30613" lon="-1.48846">
        <ele>49.6534</ele>
        <time>2020-08-09T07:02:55Z</time>
      </trkpt>
      <trkpt lat="47.30617" lon="-1.48836">
        <ele>49.6418</ele>
        <time>2020-08-09T07:02:58Z</time>
      </trkpt>
      <trkpt lat="47.30619" lon="-1.48833">
        <ele>49.639</ele>
        <time>2020-08-09T07:02:59Z</time>
      </trkpt>
      <trkpt lat="47.30631" lon="-1.48823">
        <ele>49.6354</ele>
        <time>2020-08-09T07:03:04Z</time>
      </trkpt>
      <trkpt lat="47.30631" lon="-1.48823">
        <ele>7.7</ele>
        <time>2020-08-09T07:03:09Z</time>
      </trkpt>
      <trkpt lat="47.30631" lon="-1.48823">
        <ele>7.7</ele>
        <time>2020-08-09T07:04:41Z</time>
      </trkpt>
      <trkpt lat="47.30639" lon="-1.4881">
        <ele>49.9597</ele>
        <time>2020-08-09T07:04:42Z</time>
      </trkpt>
      <trkpt lat="47.3064" lon="-1.488">
        <ele>50.1334</ele>
        <time>2020-08-09T07:04:45Z</time>
      </trkpt>
      <trkpt lat="47.30643" lon="-1.48786">
        <ele>50.2698</ele>
        <time>2020-08-09T07:04:48Z</time>
      </trkpt>
      <trkpt lat="47.30645" lon="-1.48778">
        <ele>50.4013</ele>
        <time>2020-08-09T07:04:51Z</time>
      </trkpt>
      <trkpt lat="47.30644" lon="-1.48771">
        <ele>50.5664</ele>
        <time>2020-08-09T07:04:55Z</time>
      </trkpt>
      <trkpt lat="47.3065" lon="-1.48762">
        <ele>50.7932</ele>
        <time>2020-08-09T07:05:01Z</time>
      </trkpt>
      <trkpt lat="47.30657" lon="-1.48757">
        <ele>50.8639</ele>
        <time>2020-08-09T07:05:03Z</time>
      </trkpt>
      <trkpt lat="47.30657" lon="-1.48745">
        <ele>51.2041</ele>
        <time>2020-08-09T07:05:05Z</time>
      </trkpt>
      <trkpt lat="47.30657" lon="-1.48738">
        <ele>51.4494</ele>
        <time>2020-08-09T07:05:06Z</time>
      </trkpt>
      <trkpt lat="47.30655" lon="-1.48729">
        <ele>51.6544</ele>
        <time>2020-08-09T07:05:08Z</time>
      </trkpt>
      <trkpt lat="47.30654" lon="-1.48718">
        <ele>51.6813</ele>
        <time>2020-08-09T07:05:10Z</time>
      </trkpt>
      <trkpt lat="47.30656" lon="-1.4871">
        <ele>51.7051</ele>
        <time>2020-08-09T07:05:12Z</time>
      </trkpt>
      <trkpt lat="47.30655" lon="-1.48698">
        <ele>51.7278</ele>
        <time>2020-08-09T07:05:14Z</time>
      </trkpt>
      <trkpt lat="47.30653" lon="-1.48692">
        <ele>51.739</ele>
        <time>2020-08-09T07:05:15Z</time>
      </trkpt>
      <trkpt lat="47.30651" lon="-1.48682">
        <ele>51.7624</ele>
        <time>2020-08-09T07:05:17Z</time>
      </trkpt>
      <trkpt lat="47.30648" lon="-1.48677">
        <ele>51.7732</ele>
        <time>2020-08-09T07:05:18Z</time>
      </trkpt>
      <trkpt lat="47.30647" lon="-1.48669">
        <ele>51.8031</ele>
        <time>2020-08-09T07:05:21Z</time>
      </trkpt>
      <trkpt lat="47.30643" lon="-1.4866">
        <ele>51.8243</ele>
        <time>2020-08-09T07:05:23Z</time>
      </trkpt>
      <trkpt lat="47.3064" lon="-1.48651">
        <ele>51.8455</ele>
        <time>2020-08-09T07:05:25Z</time>
      </trkpt>
      <trkpt lat="47.30639" lon="-1.48644">
        <ele>51.8579</ele>
        <time>2020-08-09T07:05:26Z</time>
      </trkpt>
      <trkpt lat="47.30635" lon="-1.48637">
        <ele>51.8842</ele>
        <time>2020-08-09T07:05:28Z</time>
      </trkpt>
      <trkpt lat="47.30634" lon="-1.48633">
        <ele>51.8985</ele>
        <time>2020-08-09T07:05:29Z</time>
      </trkpt>
      <trkpt lat="47.30633" lon="-1.48626">
        <ele>51.9254</ele>
        <time>2020-08-09T07:05:31Z</time>
      </trkpt>
      <trkpt lat="47.3063" lon="-1.48616">
        <ele>51.952</ele>
        <time>2020-08-09T07:05:33Z</time>
      </trkpt>
      <trkpt lat="47.30629" lon="-1.4861">
        <ele>51.9646</ele>
        <time>2020-08-09T07:05:34Z</time>
      </trkpt>
      <trkpt lat="47.30627" lon="-1.48603">
        <ele>51.9868</ele>
        <time>2020-08-09T07:05:36Z</time>
      </trkpt>
      <trkpt lat="47.30626" lon="-1.48599">
        <ele>51.9975</ele>
        <time>2020-08-09T07:05:37Z</time>
      </trkpt>
      <trkpt lat="47.30622" lon="-1.48593">
        <ele>52.02</ele>
        <time>2020-08-09T07:05:39Z</time>
      </trkpt>
      <trkpt lat="47.30619" lon="-1.48586">
        <ele>52.0426</ele>
        <time>2020-08-09T07:05:41Z</time>
      </trkpt>
      <trkpt lat="47.30617" lon="-1.48583">
        <ele>52.0532</ele>
        <time>2020-08-09T07:05:42Z</time>
      </trkpt>
      <trkpt lat="47.30612" lon="-1.48577">
        <ele>52.0833</ele>
        <time>2020-08-09T07:05:45Z</time>
      </trkpt>
      <trkpt lat="47.30608" lon="-1.4857">
        <ele>52.1129</ele>
        <time>2020-08-09T07:05:48Z</time>
      </trkpt>
      <trkpt lat="47.30606" lon="-1.48564">
        <ele>52.1396</ele>
        <time>2020-08-09T07:05:51Z</time>
      </trkpt>
      <trkpt lat="47.30606" lon="-1.48557">
        <ele>52.1664</ele>
        <time>2020-08-09T07:05:54Z</time>
      </trkpt>
      <trkpt lat="47.30603" lon="-1.48544">
        <ele>52.1937</ele>
        <time>2020-08-09T07:05:57Z</time>
      </trkpt>
      <trkpt lat="47.30602" lon="-1.48537">
        <ele>52.2041</ele>
        <time>2020-08-09T07:05:58Z</time>
      </trkpt>
      <trkpt lat="47.30601" lon="-1.48527">
        <ele>52.2422</ele>
        <time>2020-08-09T07:06:02Z</time>
      </trkpt>
      <trkpt lat="47.30599" lon="-1.48517">
        <ele>52.2692</ele>
        <time>2020-08-09T07:06:05Z</time>
      </trkpt>
      <trkpt lat="47.30598" lon="-1.48513">
        <ele>52.2761</ele>
        <time>2020-08-09T07:06:06Z</time>
      </trkpt>
      <trkpt lat="47.30595" lon="-1.48508">
        <ele>52.2828</ele>
        <time>2020-08-09T07:06:07Z</time>
      </trkpt>
      <trkpt lat="47.3059" lon="-1.48503">
        <ele>52.2925</ele>
        <time>2020-08-09T07:06:09Z</time>
      </trkpt>
      <trkpt lat="47.30585" lon="-1.48493">
        <ele>52.3016</ele>
        <time>2020-08-09T07:06:11Z</time>
      </trkpt>
      <trkpt lat="47.30583" lon="-1.48489">
        <ele>52.3057</ele>
        <time>2020-08-09T07:06:12Z</time>
      </trkpt>
      <trkpt lat="47.30579" lon="-1.48484">
        <ele>52.3128</ele>
        <time>2020-08-09T07:06:14Z</time>
      </trkpt>
      <trkpt lat="47.3057" lon="-1.48481">
        <ele>52.3221</ele>
        <time>2020-08-09T07:06:17Z</time>
      </trkpt>
      <trkpt lat="47.30565" lon="-1.48474">
        <ele>52.3271</ele>
        <time>2020-08-09T07:06:19Z</time>
      </trkpt>
      <trkpt lat="47.30562" lon="-1.48466">
        <ele>52.3364</ele>
        <time>2020-08-09T07:06:21Z</time>
      </trkpt>
      <trkpt lat="47.30557" lon="-1.48461">
        <ele>52.3488</ele>
        <time>2020-08-09T07:06:23Z</time>
      </trkpt>
      <trkpt lat="47.30552" lon="-1.48462">
        <ele>52.3624</ele>
        <time>2020-08-09T07:06:25Z</time>
      </trkpt>
      <trkpt lat="47.30546" lon="-1.4846">
        <ele>52.3744</ele>
        <time>2020-08-09T07:06:27Z</time>
      </trkpt>
      <trkpt lat="47.30541" lon="-1.48457">
        <ele>52.3879</ele>
        <time>2020-08-09T07:06:29Z</time>
      </trkpt>
      <trkpt lat="47.30537" lon="-1.48451">
        <ele>52.4051</ele>
        <time>2020-08-09T07:06:31Z</time>
      </trkpt>
      <trkpt lat="47.30535" lon="-1.48444">
        <ele>52.424</ele>
        <time>2020-08-09T07:06:33Z</time>
      </trkpt>
      <trkpt lat="47.30532" lon="-1.48439">
        <ele>52.4442</ele>
        <time>2020-08-09T07:06:35Z</time>
      </trkpt>
      <trkpt lat="47.30527" lon="-1.48438">
        <ele>52.4697</ele>
        <time>2020-08-09T07:06:38Z</time>
      </trkpt>
      <trkpt lat="47.30523" lon="-1.4843">
        <ele>52.4917</ele>
        <time>2020-08-09T07:06:41Z</time>
      </trkpt>
      <trkpt lat="47.30522" lon="-1.48422">
        <ele>52.5106</ele>
        <time>2020-08-09T07:06:44Z</time>
      </trkpt>
      <trkpt lat="47.30521" lon="-1.48412">
        <ele>52.5352</ele>
        <time>2020-08-09T07:06:48Z</time>
      </trkpt>
      <trkpt lat="47.30517" lon="-1.48406">
        <ele>52.5458</ele>
        <time>2020-08-09T07:06:50Z</time>
      </trkpt>
      <trkpt lat="47.30512" lon="-1.48394">
        <ele>52.572</ele>
        <time>2020-08-09T07:06:54Z</time>
      </trkpt>
      <trkpt lat="47.30512" lon="-1.48387">
        <ele>52.5799</ele>
        <time>2020-08-09T07:06:55Z</time>
      </trkpt>
      <trkpt lat="47.30508" lon="-1.4838">
        <ele>52.5985</ele>
        <time>2020-08-09T07:06:57Z</time>
      </trkpt>
      <trkpt lat="47.30503" lon="-1.4837">
        <ele>52.639</ele>
        <time>2020-08-09T07:07:00Z</time>
      </trkpt>
      <trkpt lat="47.30501" lon="-1.48365">
        <ele>52.671</ele>
        <time>2020-08-09T07:07:02Z</time>
      </trkpt>
      <trkpt lat="47.30498" lon="-1.48359">
        <ele>52.7164</ele>
        <time>2020-08-09T07:07:05Z</time>
      </trkpt>
      <trkpt lat="47.30499" lon="-1.48349">
        <ele>52.7625</ele>
        <time>2020-08-09T07:07:08Z</time>
      </trkpt>
      <trkpt lat="47.30499" lon="-1.48344">
        <ele>52.7798</ele>
        <time>2020-08-09T07:07:09Z</time>
      </trkpt>
      <trkpt lat="47.30503" lon="-1.48338">
        <ele>52.8142</ele>
        <time>2020-08-09T07:07:11Z</time>
      </trkpt>
      <trkpt lat="47.30503" lon="-1.48329">
        <ele>52.862</ele>
        <time>2020-08-09T07:07:14Z</time>
      </trkpt>
      <trkpt lat="47.30502" lon="-1.48318">
        <ele>52.8931</ele>
        <time>2020-08-09T07:07:16Z</time>
      </trkpt>
      <trkpt lat="47.30499" lon="-1.4831">
        <ele>52.9221</ele>
        <time>2020-08-09T07:07:18Z</time>
      </trkpt>
      <trkpt lat="47.30495" lon="-1.48306">
        <ele>52.9508</ele>
        <time>2020-08-09T07:07:20Z</time>
      </trkpt>
      <trkpt lat="47.30498" lon="-1.48297">
        <ele>53.0104</ele>
        <time>2020-08-09T07:07:25Z</time>
      </trkpt>
      <trkpt lat="47.30496" lon="-1.48286">
        <ele>53.019</ele>
        <time>2020-08-09T07:07:26Z</time>
      </trkpt>
      <trkpt lat="47.30492" lon="-1.4828">
        <ele>53.0354</ele>
        <time>2020-08-09T07:07:28Z</time>
      </trkpt>
      <trkpt lat="47.30496" lon="-1.4827">
        <ele>53.0589</ele>
        <time>2020-08-09T07:07:31Z</time>
      </trkpt>
      <trkpt lat="47.30498" lon="-1.48259">
        <ele>53.0804</ele>
        <time>2020-08-09T07:07:34Z</time>
      </trkpt>
      <trkpt lat="47.30496" lon="-1.48252">
        <ele>53.1005</ele>
        <time>2020-08-09T07:07:37Z</time>
      </trkpt>
      <trkpt lat="47.30501" lon="-1.48242">
        <ele>53.1227</ele>
        <time>2020-08-09T07:07:41Z</time>
      </trkpt>
      <trkpt lat="47.30502" lon="-1.48228">
        <ele>53.1352</ele>
        <time>2020-08-09T07:07:43Z</time>
      </trkpt>
      <trkpt lat="47.30505" lon="-1.48221">
        <ele>53.1469</ele>
        <time>2020-08-09T07:07:45Z</time>
      </trkpt>
      <trkpt lat="47.30507" lon="-1.48214">
        <ele>53.161</ele>
        <time>2020-08-09T07:07:48Z</time>
      </trkpt>
      <trkpt lat="47.30513" lon="-1.4821">
        <ele>53.1735</ele>
        <time>2020-08-09T07:07:51Z</time>
      </trkpt>
      <trkpt lat="47.30518" lon="-1.48212">
        <ele>53.1935</ele>
        <time>2020-08-09T07:07:55Z</time>
      </trkpt>
      <trkpt lat="47.30524" lon="-1.48212">
        <ele>53.2287</ele>
        <time>2020-08-09T07:08:03Z</time>
      </trkpt>
      <trkpt lat="47.3053" lon="-1.48213">
        <ele>53.2582</ele>
        <time>2020-08-09T07:08:10Z</time>
      </trkpt>
      <trkpt lat="47.30536" lon="-1.48211">
        <ele>53.2692</ele>
        <time>2020-08-09T07:08:12Z</time>
      </trkpt>
      <trkpt lat="47.3054" lon="-1.48206">
        <ele>53.2816</ele>
        <time>2020-08-09T07:08:14Z</time>
      </trkpt>
      <trkpt lat="47.30542" lon="-1.48202">
        <ele>53.2933</ele>
        <time>2020-08-09T07:08:16Z</time>
      </trkpt>
      <trkpt lat="47.30549" lon="-1.48193">
        <ele>53.3075</ele>
        <time>2020-08-09T07:08:19Z</time>
      </trkpt>
      <trkpt lat="47.30549" lon="-1.48186">
        <ele>53.3161</ele>
        <time>2020-08-09T07:08:21Z</time>
      </trkpt>
      <trkpt lat="47.30548" lon="-1.48179">
        <ele>53.3233</ele>
        <time>2020-08-09T07:08:23Z</time>
      </trkpt>
      <trkpt lat="47.30553" lon="-1.48172">
        <ele>53.3281</ele>
        <time>2020-08-09T07:08:25Z</time>
      </trkpt>
      <trkpt lat="47.30554" lon="-1.48165">
        <ele>53.3335</ele>
        <time>2020-08-09T07:08:28Z</time>
      </trkpt>
      <trkpt lat="47.30558" lon="-1.48152">
        <ele>53.338</ele>
        <time>2020-08-09T07:08:30Z</time>
      </trkpt>
      <trkpt lat="47.30557" lon="-1.48145">
        <ele>53.3419</ele>
        <time>2020-08-09T07:08:34Z</time>
      </trkpt>
      <trkpt lat="47.30563" lon="-1.48137">
        <ele>53.3401</ele>
        <time>2020-08-09T07:08:37Z</time>
      </trkpt>
      <trkpt lat="47.30567" lon="-1.48129">
        <ele>53.3383</ele>
        <time>2020-08-09T07:08:39Z</time>
      </trkpt>
      <trkpt lat="47.30567" lon="-1.48121">
        <ele>53.3329</ele>
        <time>2020-08-09T07:08:42Z</time>
      </trkpt>
      <trkpt lat="47.30571" lon="-1.48105">
        <ele>53.3244</ele>
        <time>2020-08-09T07:08:45Z</time>
      </trkpt>
      <trkpt lat="47.30574" lon="-1.48099">
        <ele>53.3118</ele>
        <time>2020-08-09T07:08:48Z</time>
      </trkpt>
      <trkpt lat="47.30592" lon="-1.4809">
        <ele>53.2853</ele>
        <time>2020-08-09T07:08:53Z</time>
      </trkpt>
      <trkpt lat="47.30598" lon="-1.48086">
        <ele>53.2661</ele>
        <time>2020-08-09T07:08:56Z</time>
      </trkpt>
      <trkpt lat="47.30604" lon="-1.48081">
        <ele>53.2533</ele>
        <time>2020-08-09T07:08:58Z</time>
      </trkpt>
      <trkpt lat="47.3061" lon="-1.48081">
        <ele>53.2468</ele>
        <time>2020-08-09T07:08:59Z</time>
      </trkpt>
      <trkpt lat="47.30617" lon="-1.48084">
        <ele>53.2349</ele>
        <time>2020-08-09T07:09:01Z</time>
      </trkpt>
      <trkpt lat="47.30622" lon="-1.48087">
        <ele>53.2224</ele>
        <time>2020-08-09T07:09:03Z</time>
      </trkpt>
      <trkpt lat="47.3063" lon="-1.48087">
        <ele>53.2101</ele>
        <time>2020-08-09T07:09:05Z</time>
      </trkpt>
      <trkpt lat="47.30636" lon="-1.48085">
        <ele>53.2044</ele>
        <time>2020-08-09T07:09:06Z</time>
      </trkpt>
      <trkpt lat="47.30641" lon="-1.48086">
        <ele>53.1987</ele>
        <time>2020-08-09T07:09:07Z</time>
      </trkpt>
      <trkpt lat="47.30646" lon="-1.48094">
        <ele>53.19</ele>
        <time>2020-08-09T07:09:09Z</time>
      </trkpt>
      <trkpt lat="47.3065" lon="-1.48098">
        <ele>53.1854</ele>
        <time>2020-08-09T07:09:11Z</time>
      </trkpt>
      <trkpt lat="47.30653" lon="-1.48101">
        <ele>53.1838</ele>
        <time>2020-08-09T07:09:12Z</time>
      </trkpt>
      <trkpt lat="47.30655" lon="-1.48104">
        <ele>53.1821</ele>
        <time>2020-08-09T07:09:13Z</time>
      </trkpt>
      <trkpt lat="47.3066" lon="-1.48107">
        <ele>53.181</ele>
        <time>2020-08-09T07:09:15Z</time>
      </trkpt>
      <trkpt lat="47.30662" lon="-1.48108">
        <ele>53.1818</ele>
        <time>2020-08-09T07:09:16Z</time>
      </trkpt>
      <trkpt lat="47.30664" lon="-1.4811">
        <ele>53.1828</ele>
        <time>2020-08-09T07:09:17Z</time>
      </trkpt>
      <trkpt lat="47.30669" lon="-1.48114">
        <ele>53.1858</ele>
        <time>2020-08-09T07:09:20Z</time>
      </trkpt>
      <trkpt lat="47.30673" lon="-1.48119">
        <ele>53.1886</ele>
        <time>2020-08-09T07:09:22Z</time>
      </trkpt>
      <trkpt lat="47.30677" lon="-1.48124">
        <ele>53.1927</ele>
        <time>2020-08-09T07:09:24Z</time>
      </trkpt>
      <trkpt lat="47.30682" lon="-1.48132">
        <ele>53.2011</ele>
        <time>2020-08-09T07:09:27Z</time>
      </trkpt>
      <trkpt lat="47.30686" lon="-1.48135">
        <ele>53.207</ele>
        <time>2020-08-09T07:09:29Z</time>
      </trkpt>
      <trkpt lat="47.30691" lon="-1.48138">
        <ele>53.2167</ele>
        <time>2020-08-09T07:09:31Z</time>
      </trkpt>
      <trkpt lat="47.30697" lon="-1.48143">
        <ele>53.2311</ele>
        <time>2020-08-09T07:09:34Z</time>
      </trkpt>
      <trkpt lat="47.30701" lon="-1.48148">
        <ele>53.2404</ele>
        <time>2020-08-09T07:09:36Z</time>
      </trkpt>
      <trkpt lat="47.30705" lon="-1.48154">
        <ele>53.2496</ele>
        <time>2020-08-09T07:09:38Z</time>
      </trkpt>
      <trkpt lat="47.30709" lon="-1.48161">
        <ele>53.2649</ele>
        <time>2020-08-09T07:09:41Z</time>
      </trkpt>
      <trkpt lat="47.30713" lon="-1.48172">
        <ele>53.2772</ele>
        <time>2020-08-09T07:09:44Z</time>
      </trkpt>
      <trkpt lat="47.30714" lon="-1.48185">
        <ele>53.2865</ele>
        <time>2020-08-09T07:09:47Z</time>
      </trkpt>
      <trkpt lat="47.30716" lon="-1.48192">
        <ele>53.2918</ele>
        <time>2020-08-09T07:09:49Z</time>
      </trkpt>
      <trkpt lat="47.30717" lon="-1.48198">
        <ele>53.294</ele>
        <time>2020-08-09T07:09:50Z</time>
      </trkpt>
      <trkpt lat="47.3072" lon="-1.48205">
        <ele>53.3004</ele>
        <time>2020-08-09T07:09:52Z</time>
      </trkpt>
      <trkpt lat="47.30725" lon="-1.48209">
        <ele>53.3085</ele>
        <time>2020-08-09T07:09:54Z</time>
      </trkpt>
      <trkpt lat="47.3073" lon="-1.48208">
        <ele>53.3233</ele>
        <time>2020-08-09T07:09:57Z</time>
      </trkpt>
      <trkpt lat="47.30738" lon="-1.48199">
        <ele>53.3534</ele>
        <time>2020-08-09T07:10:02Z</time>
      </trkpt>
      <trkpt lat="47.30743" lon="-1.48194">
        <ele>53.3702</ele>
        <time>2020-08-09T07:10:05Z</time>
      </trkpt>
      <trkpt lat="47.30745" lon="-1.48186">
        <ele>53.3799</ele>
        <time>2020-08-09T07:10:07Z</time>
      </trkpt>
      <trkpt lat="47.30746" lon="-1.48182">
        <ele>53.3834</ele>
        <time>2020-08-09T07:10:08Z</time>
      </trkpt>
      <trkpt lat="47.30744" lon="-1.4817">
        <ele>53.3918</ele>
        <time>2020-08-09T07:10:11Z</time>
      </trkpt>
      <trkpt lat="47.3074" lon="-1.48163">
        <ele>53.4031</ele>
        <time>2020-08-09T07:10:15Z</time>
      </trkpt>
      <trkpt lat="47.30738" lon="-1.4816">
        <ele>53.4132</ele>
        <time>2020-08-09T07:10:17Z</time>
      </trkpt>
      <trkpt lat="47.30734" lon="-1.48156">
        <ele>53.4326</ele>
        <time>2020-08-09T07:10:20Z</time>
      </trkpt>
      <trkpt lat="47.30728" lon="-1.48158">
        <ele>53.4678</ele>
        <time>2020-08-09T07:10:24Z</time>
      </trkpt>
      <trkpt lat="47.30736" lon="-1.48173">
        <ele>53.5283</ele>
        <time>2020-08-09T07:10:30Z</time>
      </trkpt>
      <trkpt lat="47.30741" lon="-1.4818">
        <ele>53.5579</ele>
        <time>2020-08-09T07:10:33Z</time>
      </trkpt>
      <trkpt lat="47.30743" lon="-1.48187">
        <ele>53.5762</ele>
        <time>2020-08-09T07:10:35Z</time>
      </trkpt>
      <trkpt lat="47.30746" lon="-1.48192">
        <ele>53.5967</ele>
        <time>2020-08-09T07:10:37Z</time>
      </trkpt>
      <trkpt lat="47.3075" lon="-1.48201">
        <ele>53.6279</ele>
        <time>2020-08-09T07:10:40Z</time>
      </trkpt>
      <trkpt lat="47.30753" lon="-1.48205">
        <ele>53.6507</ele>
        <time>2020-08-09T07:10:42Z</time>
      </trkpt>
      <trkpt lat="47.30758" lon="-1.48208">
        <ele>53.6748</ele>
        <time>2020-08-09T07:10:44Z</time>
      </trkpt>
      <trkpt lat="47.30762" lon="-1.48204">
        <ele>53.7126</ele>
        <time>2020-08-09T07:10:47Z</time>
      </trkpt>
      <trkpt lat="47.30766" lon="-1.48198">
        <ele>53.7375</ele>
        <time>2020-08-09T07:10:49Z</time>
      </trkpt>
      <trkpt lat="47.30768" lon="-1.48192">
        <ele>53.765</ele>
        <time>2020-08-09T07:10:51Z</time>
      </trkpt>
      <trkpt lat="47.30771" lon="-1.48184">
        <ele>53.7925</ele>
        <time>2020-08-09T07:10:53Z</time>
      </trkpt>
      <trkpt lat="47.30772" lon="-1.48177">
        <ele>53.8211</ele>
        <time>2020-08-09T07:10:55Z</time>
      </trkpt>
      <trkpt lat="47.30774" lon="-1.48167">
        <ele>53.8619</ele>
        <time>2020-08-09T07:10:58Z</time>
      </trkpt>
      <trkpt lat="47.30775" lon="-1.48163">
        <ele>53.8752</ele>
        <time>2020-08-09T07:10:59Z</time>
      </trkpt>
      <trkpt lat="47.30776" lon="-1.48159">
        <ele>53.8884</ele>
        <time>2020-08-09T07:11:00Z</time>
      </trkpt>
      <trkpt lat="47.30777" lon="-1.48154">
        <ele>53.9019</ele>
        <time>2020-08-09T07:11:01Z</time>
      </trkpt>
      <trkpt lat="47.30778" lon="-1.4815">
        <ele>53.9156</ele>
        <time>2020-08-09T07:11:02Z</time>
      </trkpt>
      <trkpt lat="47.30779" lon="-1.48143">
        <ele>53.9435</ele>
        <time>2020-08-09T07:11:04Z</time>
      </trkpt>
      <trkpt lat="47.30781" lon="-1.48134">
        <ele>53.9723</ele>
        <time>2020-08-09T07:11:06Z</time>
      </trkpt>
      <trkpt lat="47.30782" lon="-1.48129">
        <ele>53.9869</ele>
        <time>2020-08-09T07:11:07Z</time>
      </trkpt>
      <trkpt lat="47.30783" lon="-1.48125">
        <ele>54.0013</ele>
        <time>2020-08-09T07:11:08Z</time>
      </trkpt>
      <trkpt lat="47.30786" lon="-1.48117">
        <ele>54.0291</ele>
        <time>2020-08-09T07:11:10Z</time>
      </trkpt>
      <trkpt lat="47.30788" lon="-1.4811">
        <ele>54.0568</ele>
        <time>2020-08-09T07:11:12Z</time>
      </trkpt>
      <trkpt lat="47.30789" lon="-1.48105">
        <ele>54.0844</ele>
        <time>2020-08-09T07:11:14Z</time>
      </trkpt>
      <trkpt lat="47.30791" lon="-1.48099">
        <ele>54.1118</ele>
        <time>2020-08-09T07:11:16Z</time>
      </trkpt>
      <trkpt lat="47.30792" lon="-1.48095">
        <ele>54.126</ele>
        <time>2020-08-09T07:11:17Z</time>
      </trkpt>
      <trkpt lat="47.30793" lon="-1.48088">
        <ele>54.1531</ele>
        <time>2020-08-09T07:11:19Z</time>
      </trkpt>
      <trkpt lat="47.30794" lon="-1.48085">
        <ele>54.1672</ele>
        <time>2020-08-09T07:11:20Z</time>
      </trkpt>
      <trkpt lat="47.30795" lon="-1.48081">
        <ele>54.1812</ele>
        <time>2020-08-09T07:11:21Z</time>
      </trkpt>
      <trkpt lat="47.30796" lon="-1.48077">
        <ele>54.196</ele>
        <time>2020-08-09T07:11:22Z</time>
      </trkpt>
      <trkpt lat="47.30797" lon="-1.48069">
        <ele>54.227</ele>
        <time>2020-08-09T07:11:24Z</time>
      </trkpt>
      <trkpt lat="47.30798" lon="-1.48061">
        <ele>54.2602</ele>
        <time>2020-08-09T07:11:26Z</time>
      </trkpt>
      <trkpt lat="47.30796" lon="-1.48054">
        <ele>54.2946</ele>
        <time>2020-08-09T07:11:28Z</time>
      </trkpt>
      <trkpt lat="47.30795" lon="-1.48051">
        <ele>54.3118</ele>
        <time>2020-08-09T07:11:29Z</time>
      </trkpt>
      <trkpt lat="47.30792" lon="-1.48044">
        <ele>54.3461</ele>
        <time>2020-08-09T07:11:31Z</time>
      </trkpt>
      <trkpt lat="47.3079" lon="-1.48041">
        <ele>54.3634</ele>
        <time>2020-08-09T07:11:32Z</time>
      </trkpt>
      <trkpt lat="47.30789" lon="-1.48038">
        <ele>54.3807</ele>
        <time>2020-08-09T07:11:33Z</time>
      </trkpt>
      <trkpt lat="47.3078" lon="-1.4804">
        <ele>54.463</ele>
        <time>2020-08-09T07:11:38Z</time>
      </trkpt>
      <trkpt lat="47.30781" lon="-1.48052">
        <ele>54.5045</ele>
        <time>2020-08-09T07:11:41Z</time>
      </trkpt>
      <trkpt lat="47.30781" lon="-1.48056">
        <ele>54.5172</ele>
        <time>2020-08-09T07:11:42Z</time>
      </trkpt>
      <trkpt lat="47.30781" lon="-1.48063">
        <ele>54.542</ele>
        <time>2020-08-09T07:11:44Z</time>
      </trkpt>
      <trkpt lat="47.30781" lon="-1.48068">
        <ele>54.554</ele>
        <time>2020-08-09T07:11:45Z</time>
      </trkpt>
      <trkpt lat="47.30781" lon="-1.48071">
        <ele>54.5663</ele>
        <time>2020-08-09T07:11:46Z</time>
      </trkpt>
      <trkpt lat="47.30779" lon="-1.48079">
        <ele>54.5895</ele>
        <time>2020-08-09T07:11:48Z</time>
      </trkpt>
      <trkpt lat="47.30776" lon="-1.48087">
        <ele>54.6179</ele>
        <time>2020-08-09T07:11:51Z</time>
      </trkpt>
      <trkpt lat="47.3077" lon="-1.48085">
        <ele>54.6416</ele>
        <time>2020-08-09T07:11:54Z</time>
      </trkpt>
      <trkpt lat="47.30766" lon="-1.48076">
        <ele>54.666</ele>
        <time>2020-08-09T07:11:57Z</time>
      </trkpt>
      <trkpt lat="47.30766" lon="-1.48066">
        <ele>54.693</ele>
        <time>2020-08-09T07:12:00Z</time>
      </trkpt>
      <trkpt lat="47.30766" lon="-1.48062">
        <ele>54.7022</ele>
        <time>2020-08-09T07:12:01Z</time>
      </trkpt>
      <trkpt lat="47.30766" lon="-1.48054">
        <ele>54.721</ele>
        <time>2020-08-09T07:12:03Z</time>
      </trkpt>
      <trkpt lat="47.30766" lon="-1.48049">
        <ele>54.7309</ele>
        <time>2020-08-09T07:12:04Z</time>
      </trkpt>
      <trkpt lat="47.30768" lon="-1.48039">
        <ele>54.7585</ele>
        <time>2020-08-09T07:12:07Z</time>
      </trkpt>
      <trkpt lat="47.30769" lon="-1.48035">
        <ele>54.7684</ele>
        <time>2020-08-09T07:12:08Z</time>
      </trkpt>
      <trkpt lat="47.30773" lon="-1.48022">
        <ele>54.7959</ele>
        <time>2020-08-09T07:12:11Z</time>
      </trkpt>
      <trkpt lat="47.30776" lon="-1.48014">
        <ele>54.8217</ele>
        <time>2020-08-09T07:12:14Z</time>
      </trkpt>
      <trkpt lat="47.3078" lon="-1.48006">
        <ele>54.8484</ele>
        <time>2020-08-09T07:12:17Z</time>
      </trkpt>
      <trkpt lat="47.30784" lon="-1.48">
        <ele>54.8671</ele>
        <time>2020-08-09T07:12:19Z</time>
      </trkpt>
      <trkpt lat="47.30803" lon="-1.47968">
        <ele>55.2614</ele>
        <time>2020-08-09T07:12:33Z</time>
      </trkpt>
      <trkpt lat="47.30795" lon="-1.47962">
        <ele>55.2639</ele>
        <time>2020-08-09T07:12:36Z</time>
      </trkpt>
      <trkpt lat="47.30791" lon="-1.47958">
        <ele>55.2629</ele>
        <time>2020-08-09T07:12:37Z</time>
      </trkpt>
      <trkpt lat="47.30785" lon="-1.47952">
        <ele>55.2592</ele>
        <time>2020-08-09T07:12:39Z</time>
      </trkpt>
      <trkpt lat="47.30778" lon="-1.47947">
        <ele>55.2544</ele>
        <time>2020-08-09T07:12:41Z</time>
      </trkpt>
      <trkpt lat="47.30772" lon="-1.47948">
        <ele>55.2493</ele>
        <time>2020-08-09T07:12:43Z</time>
      </trkpt>
      <trkpt lat="47.30761" lon="-1.47946">
        <ele>55.241</ele>
        <time>2020-08-09T07:12:46Z</time>
      </trkpt>
      <trkpt lat="47.30754" lon="-1.47947">
        <ele>55.2353</ele>
        <time>2020-08-09T07:12:48Z</time>
      </trkpt>
      <trkpt lat="47.30749" lon="-1.4795">
        <ele>55.2292</ele>
        <time>2020-08-09T07:12:50Z</time>
      </trkpt>
      <trkpt lat="47.30744" lon="-1.47952">
        <ele>55.2238</ele>
        <time>2020-08-09T07:12:52Z</time>
      </trkpt>
      <trkpt lat="47.30739" lon="-1.47953">
        <ele>55.2207</ele>
        <time>2020-08-09T07:12:54Z</time>
      </trkpt>
      <trkpt lat="47.3073" lon="-1.47954">
        <ele>55.2195</ele>
        <time>2020-08-09T07:12:57Z</time>
      </trkpt>
      <trkpt lat="47.30727" lon="-1.47955">
        <ele>55.2191</ele>
        <time>2020-08-09T07:12:58Z</time>
      </trkpt>
      <trkpt lat="47.30723" lon="-1.47955">
        <ele>55.2188</ele>
        <time>2020-08-09T07:13:00Z</time>
      </trkpt>
      <trkpt lat="47.30721" lon="-1.47955">
        <ele>55.219</ele>
        <time>2020-08-09T07:13:01Z</time>
      </trkpt>
      <trkpt lat="47.30716" lon="-1.47953">
        <ele>55.2201</ele>
        <time>2020-08-09T07:13:03Z</time>
      </trkpt>
      <trkpt lat="47.30714" lon="-1.47952">
        <ele>55.2212</ele>
        <time>2020-08-09T07:13:04Z</time>
      </trkpt>
      <trkpt lat="47.30711" lon="-1.47946">
        <ele>55.2242</ele>
        <time>2020-08-09T07:13:06Z</time>
      </trkpt>
      <trkpt lat="47.30712" lon="-1.47935">
        <ele>55.2286</ele>
        <time>2020-08-09T07:13:09Z</time>
      </trkpt>
      <trkpt lat="47.30712" lon="-1.47926">
        <ele>55.2308</ele>
        <time>2020-08-09T07:13:12Z</time>
      </trkpt>
      <trkpt lat="47.30713" lon="-1.47918">
        <ele>55.2361</ele>
        <time>2020-08-09T07:13:16Z</time>
      </trkpt>
      <trkpt lat="47.30714" lon="-1.47913">
        <ele>55.2402</ele>
        <time>2020-08-09T07:13:19Z</time>
      </trkpt>
      <trkpt lat="47.3072" lon="-1.47895">
        <ele>55.2372</ele>
        <time>2020-08-09T07:13:23Z</time>
      </trkpt>
      <trkpt lat="47.30721" lon="-1.47887">
        <ele>55.2208</ele>
        <time>2020-08-09T07:13:26Z</time>
      </trkpt>
      <trkpt lat="47.30727" lon="-1.4788">
        <ele>55.2049</ele>
        <time>2020-08-09T07:13:28Z</time>
      </trkpt>
      <trkpt lat="47.30733" lon="-1.47873">
        <ele>55.184</ele>
        <time>2020-08-09T07:13:30Z</time>
      </trkpt>
      <trkpt lat="47.30735" lon="-1.47871">
        <ele>55.1731</ele>
        <time>2020-08-09T07:13:31Z</time>
      </trkpt>
      <trkpt lat="47.30737" lon="-1.47869">
        <ele>55.1624</ele>
        <time>2020-08-09T07:13:32Z</time>
      </trkpt>
      <trkpt lat="47.30741" lon="-1.47864">
        <ele>55.1405</ele>
        <time>2020-08-09T07:13:34Z</time>
      </trkpt>
      <trkpt lat="47.30743" lon="-1.47858">
        <ele>55.1148</ele>
        <time>2020-08-09T07:13:36Z</time>
      </trkpt>
      <trkpt lat="47.30752" lon="-1.4785">
        <ele>55.0901</ele>
        <time>2020-08-09T07:13:39Z</time>
      </trkpt>
      <trkpt lat="47.30755" lon="-1.47847">
        <ele>55.0869</ele>
        <time>2020-08-09T07:13:40Z</time>
      </trkpt>
      <trkpt lat="47.3076" lon="-1.4784">
        <ele>55.0851</ele>
        <time>2020-08-09T07:13:42Z</time>
      </trkpt>
      <trkpt lat="47.30761" lon="-1.47837">
        <ele>55.0853</ele>
        <time>2020-08-09T07:13:43Z</time>
      </trkpt>
      <trkpt lat="47.30765" lon="-1.47831">
        <ele>55.0895</ele>
        <time>2020-08-09T07:13:45Z</time>
      </trkpt>
      <trkpt lat="47.3077" lon="-1.47823">
        <ele>55.1007</ele>
        <time>2020-08-09T07:13:48Z</time>
      </trkpt>
      <trkpt lat="47.30774" lon="-1.47819">
        <ele>55.1115</ele>
        <time>2020-08-09T07:13:50Z</time>
      </trkpt>
      <trkpt lat="47.30779" lon="-1.47813">
        <ele>55.1253</ele>
        <time>2020-08-09T07:13:52Z</time>
      </trkpt>
      <trkpt lat="47.30784" lon="-1.47807">
        <ele>55.1408</ele>
        <time>2020-08-09T07:13:54Z</time>
      </trkpt>
      <trkpt lat="47.30787" lon="-1.47804">
        <ele>55.1563</ele>
        <time>2020-08-09T07:13:56Z</time>
      </trkpt>
      <trkpt lat="47.30791" lon="-1.47797">
        <ele>55.1737</ele>
        <time>2020-08-09T07:13:58Z</time>
      </trkpt>
      <trkpt lat="47.30796" lon="-1.47787">
        <ele>55.2178</ele>
        <time>2020-08-09T07:14:02Z</time>
      </trkpt>
      <trkpt lat="47.30799" lon="-1.47781">
        <ele>55.2422</ele>
        <time>2020-08-09T07:14:04Z</time>
      </trkpt>
      <trkpt lat="47.30803" lon="-1.47774">
        <ele>55.2675</ele>
        <time>2020-08-09T07:14:06Z</time>
      </trkpt>
      <trkpt lat="47.30807" lon="-1.47767">
        <ele>55.2919</ele>
        <time>2020-08-09T07:14:08Z</time>
      </trkpt>
      <trkpt lat="47.30812" lon="-1.47757">
        <ele>55.3253</ele>
        <time>2020-08-09T07:14:11Z</time>
      </trkpt>
      <trkpt lat="47.30817" lon="-1.47746">
        <ele>55.356</ele>
        <time>2020-08-09T07:14:14Z</time>
      </trkpt>
      <trkpt lat="47.30821" lon="-1.4774">
        <ele>55.3845</ele>
        <time>2020-08-09T07:14:17Z</time>
      </trkpt>
      <trkpt lat="47.30823" lon="-1.47737">
        <ele>55.3937</ele>
        <time>2020-08-09T07:14:18Z</time>
      </trkpt>
      <trkpt lat="47.30827" lon="-1.47729">
        <ele>55.4117</ele>
        <time>2020-08-09T07:14:20Z</time>
      </trkpt>
      <trkpt lat="47.3083" lon="-1.47722">
        <ele>55.4414</ele>
        <time>2020-08-09T07:14:23Z</time>
      </trkpt>
      <trkpt lat="47.30832" lon="-1.47719">
        <ele>55.4612</ele>
        <time>2020-08-09T07:14:25Z</time>
      </trkpt>
      <trkpt lat="47.30834" lon="-1.47713">
        <ele>55.4931</ele>
        <time>2020-08-09T07:14:28Z</time>
      </trkpt>
      <trkpt lat="47.30837" lon="-1.47707">
        <ele>55.5148</ele>
        <time>2020-08-09T07:14:30Z</time>
      </trkpt>
      <trkpt lat="47.30839" lon="-1.477">
        <ele>55.5495</ele>
        <time>2020-08-09T07:14:34Z</time>
      </trkpt>
      <trkpt lat="47.30845" lon="-1.47691">
        <ele>55.5656</ele>
        <time>2020-08-09T07:14:36Z</time>
      </trkpt>
      <trkpt lat="47.30853" lon="-1.47678">
        <ele>55.5934</ele>
        <time>2020-08-09T07:14:40Z</time>
      </trkpt>
      <trkpt lat="47.30856" lon="-1.47672">
        <ele>55.6046</ele>
        <time>2020-08-09T07:14:43Z</time>
      </trkpt>
      <trkpt lat="47.30856" lon="-1.47672">
        <ele>55.6046</ele>
        <time>2020-08-09T07:14:50Z</time>
      </trkpt>
      <trkpt lat="47.30868" lon="-1.47624">
        <ele>55.6115</ele>
        <time>2020-08-09T07:14:56Z</time>
      </trkpt>
      <trkpt lat="47.30867" lon="-1.47617">
        <ele>55.6088</ele>
        <time>2020-08-09T07:14:57Z</time>
      </trkpt>
      <trkpt lat="47.3087" lon="-1.4761">
        <ele>55.6035</ele>
        <time>2020-08-09T07:14:59Z</time>
      </trkpt>
      <trkpt lat="47.30872" lon="-1.476">
        <ele>55.5842</ele>
        <time>2020-08-09T07:15:05Z</time>
      </trkpt>
      <trkpt lat="47.30869" lon="-1.47591">
        <ele>55.5808</ele>
        <time>2020-08-09T07:15:06Z</time>
      </trkpt>
      <trkpt lat="47.30878" lon="-1.47572">
        <ele>55.5636</ele>
        <time>2020-08-09T07:15:11Z</time>
      </trkpt>
      <trkpt lat="47.30888" lon="-1.47573">
        <ele>55.5496</ele>
        <time>2020-08-09T07:15:14Z</time>
      </trkpt>
      <trkpt lat="47.30927" lon="-1.47554">
        <ele>55.5196</ele>
        <time>2020-08-09T07:15:19Z</time>
      </trkpt>
      <trkpt lat="47.30932" lon="-1.47554">
        <ele>55.4996</ele>
        <time>2020-08-09T07:15:23Z</time>
      </trkpt>
      <trkpt lat="47.30934" lon="-1.47543">
        <ele>55.4889</ele>
        <time>2020-08-09T07:15:26Z</time>
      </trkpt>
      <trkpt lat="47.30936" lon="-1.47534">
        <ele>55.4826</ele>
        <time>2020-08-09T07:15:28Z</time>
      </trkpt>
      <trkpt lat="47.30934" lon="-1.47518">
        <ele>55.4789</ele>
        <time>2020-08-09T07:15:30Z</time>
      </trkpt>
      <trkpt lat="47.30927" lon="-1.47511">
        <ele>55.4759</ele>
        <time>2020-08-09T07:15:32Z</time>
      </trkpt>
      <trkpt lat="47.30926" lon="-1.47503">
        <ele>55.4736</ele>
        <time>2020-08-09T07:15:34Z</time>
      </trkpt>
      <trkpt lat="47.30931" lon="-1.47498">
        <ele>55.4744</ele>
        <time>2020-08-09T07:15:36Z</time>
      </trkpt>
      <trkpt lat="47.30927" lon="-1.47489">
        <ele>55.4749</ele>
        <time>2020-08-09T07:15:40Z</time>
      </trkpt>
      <trkpt lat="47.30943" lon="-1.47481">
        <ele>55.4598</ele>
        <time>2020-08-09T07:15:47Z</time>
      </trkpt>
      <trkpt lat="47.30944" lon="-1.47474">
        <ele>55.4567</ele>
        <time>2020-08-09T07:15:48Z</time>
      </trkpt>
      <trkpt lat="47.30941" lon="-1.47463">
        <ele>55.4487</ele>
        <time>2020-08-09T07:15:50Z</time>
      </trkpt>
      <trkpt lat="47.30941" lon="-1.47457">
        <ele>55.4442</ele>
        <time>2020-08-09T07:15:51Z</time>
      </trkpt>
      <trkpt lat="47.30951" lon="-1.47457">
        <ele>55.4318</ele>
        <time>2020-08-09T07:15:53Z</time>
      </trkpt>
      <trkpt lat="47.30964" lon="-1.47443">
        <ele>55.414</ele>
        <time>2020-08-09T07:15:55Z</time>
      </trkpt>
      <trkpt lat="47.30969" lon="-1.47439">
        <ele>55.4036</ele>
        <time>2020-08-09T07:15:56Z</time>
      </trkpt>
      <trkpt lat="47.30975" lon="-1.47436">
        <ele>55.3928</ele>
        <time>2020-08-09T07:15:57Z</time>
      </trkpt>
      <trkpt lat="47.30982" lon="-1.47431">
        <ele>55.3727</ele>
        <time>2020-08-09T07:15:59Z</time>
      </trkpt>
      <trkpt lat="47.30997" lon="-1.47427">
        <ele>55.3545</ele>
        <time>2020-08-09T07:16:01Z</time>
      </trkpt>
      <trkpt lat="47.31001" lon="-1.47426">
        <ele>55.347</ele>
        <time>2020-08-09T07:16:02Z</time>
      </trkpt>
      <trkpt lat="47.31005" lon="-1.47422">
        <ele>55.326</ele>
        <time>2020-08-09T07:16:05Z</time>
      </trkpt>
      <trkpt lat="47.31009" lon="-1.47417">
        <ele>55.3158</ele>
        <time>2020-08-09T07:16:07Z</time>
      </trkpt>
      <trkpt lat="47.31015" lon="-1.47409">
        <ele>55.3066</ele>
        <time>2020-08-09T07:16:10Z</time>
      </trkpt>
      <trkpt lat="47.31017" lon="-1.474">
        <ele>55.3001</ele>
        <time>2020-08-09T07:16:13Z</time>
      </trkpt>
      <trkpt lat="47.31018" lon="-1.4739">
        <ele>55.2917</ele>
        <time>2020-08-09T07:16:17Z</time>
      </trkpt>
      <trkpt lat="47.31021" lon="-1.47382">
        <ele>55.2857</ele>
        <time>2020-08-09T07:16:21Z</time>
      </trkpt>
      <trkpt lat="47.31015" lon="-1.47371">
        <ele>55.2756</ele>
        <time>2020-08-09T07:16:27Z</time>
      </trkpt>
      <trkpt lat="47.31015" lon="-1.47365">
        <ele>55.2733</ele>
        <time>2020-08-09T07:16:28Z</time>
      </trkpt>
      <trkpt lat="47.31007" lon="-1.47357">
        <ele>55.2646</ele>
        <time>2020-08-09T07:16:31Z</time>
      </trkpt>
      <trkpt lat="47.31016" lon="-1.47341">
        <ele>55.2526</ele>
        <time>2020-08-09T07:16:34Z</time>
      </trkpt>
      <trkpt lat="47.31018" lon="-1.47335">
        <ele>55.246</ele>
        <time>2020-08-09T07:16:35Z</time>
      </trkpt>
      <trkpt lat="47.3102" lon="-1.47323">
        <ele>55.231</ele>
        <time>2020-08-09T07:16:37Z</time>
      </trkpt>
      <trkpt lat="47.31026" lon="-1.47321">
        <ele>55.222</ele>
        <time>2020-08-09T07:16:38Z</time>
      </trkpt>
      <trkpt lat="47.31036" lon="-1.47308">
        <ele>55.1899</ele>
        <time>2020-08-09T07:16:41Z</time>
      </trkpt>
      <trkpt lat="47.31044" lon="-1.47305">
        <ele>55.1786</ele>
        <time>2020-08-09T07:16:42Z</time>
      </trkpt>
      <trkpt lat="47.3105" lon="-1.47304">
        <ele>55.1665</ele>
        <time>2020-08-09T07:16:43Z</time>
      </trkpt>
      <trkpt lat="47.31053" lon="-1.47297">
        <ele>55.1402</ele>
        <time>2020-08-09T07:16:45Z</time>
      </trkpt>
      <trkpt lat="47.31052" lon="-1.47289">
        <ele>55.1262</ele>
        <time>2020-08-09T07:16:46Z</time>
      </trkpt>
      <trkpt lat="47.31062" lon="-1.47285">
        <ele>55.0967</ele>
        <time>2020-08-09T07:16:48Z</time>
      </trkpt>
      <trkpt lat="47.31062" lon="-1.47274">
        <ele>55.0498</ele>
        <time>2020-08-09T07:16:51Z</time>
      </trkpt>
      <trkpt lat="47.31071" lon="-1.47269">
        <ele>55.0147</ele>
        <time>2020-08-09T07:16:53Z</time>
      </trkpt>
      <trkpt lat="47.31078" lon="-1.47267">
        <ele>54.9763</ele>
        <time>2020-08-09T07:16:55Z</time>
      </trkpt>
      <trkpt lat="47.31081" lon="-1.4726">
        <ele>54.9566</ele>
        <time>2020-08-09T07:16:56Z</time>
      </trkpt>
      <trkpt lat="47.31091" lon="-1.47252">
        <ele>54.9169</ele>
        <time>2020-08-09T07:16:58Z</time>
      </trkpt>
      <trkpt lat="47.31098" lon="-1.47242">
        <ele>54.8785</ele>
        <time>2020-08-09T07:17:00Z</time>
      </trkpt>
      <trkpt lat="47.311" lon="-1.47238">
        <ele>54.8595</ele>
        <time>2020-08-09T07:17:01Z</time>
      </trkpt>
      <trkpt lat="47.31104" lon="-1.47236">
        <ele>54.8398</ele>
        <time>2020-08-09T07:17:02Z</time>
      </trkpt>
      <trkpt lat="47.31113" lon="-1.47231">
        <ele>54.8011</ele>
        <time>2020-08-09T07:17:04Z</time>
      </trkpt>
      <trkpt lat="47.31116" lon="-1.47224">
        <ele>54.7637</ele>
        <time>2020-08-09T07:17:06Z</time>
      </trkpt>
      <trkpt lat="47.3112" lon="-1.47215">
        <ele>54.7269</ele>
        <time>2020-08-09T07:17:08Z</time>
      </trkpt>
      <trkpt lat="47.31127" lon="-1.47211">
        <ele>54.6712</ele>
        <time>2020-08-09T07:17:11Z</time>
      </trkpt>
      <trkpt lat="47.31131" lon="-1.472">
        <ele>54.6157</ele>
        <time>2020-08-09T07:17:14Z</time>
      </trkpt>
      <trkpt lat="47.31134" lon="-1.47191">
        <ele>54.5653</ele>
        <time>2020-08-09T07:17:17Z</time>
      </trkpt>
      <trkpt lat="47.3114" lon="-1.47179">
        <ele>54.5151</ele>
        <time>2020-08-09T07:17:20Z</time>
      </trkpt>
      <trkpt lat="47.31142" lon="-1.47177">
        <ele>54.4978</ele>
        <time>2020-08-09T07:17:21Z</time>
      </trkpt>
      <trkpt lat="47.31148" lon="-1.47173">
        <ele>54.4644</ele>
        <time>2020-08-09T07:17:23Z</time>
      </trkpt>
      <trkpt lat="47.3115" lon="-1.47162">
        <ele>54.4318</ele>
        <time>2020-08-09T07:17:25Z</time>
      </trkpt>
      <trkpt lat="47.31154" lon="-1.47153">
        <ele>54.402</ele>
        <time>2020-08-09T07:17:27Z</time>
      </trkpt>
      <trkpt lat="47.31159" lon="-1.47148">
        <ele>54.3727</ele>
        <time>2020-08-09T07:17:29Z</time>
      </trkpt>
      <trkpt lat="47.31164" lon="-1.47145">
        <ele>54.3427</ele>
        <time>2020-08-09T07:17:31Z</time>
      </trkpt>
      <trkpt lat="47.31164" lon="-1.47138">
        <ele>54.3126</ele>
        <time>2020-08-09T07:17:33Z</time>
      </trkpt>
      <trkpt lat="47.3117" lon="-1.47128">
        <ele>54.2855</ele>
        <time>2020-08-09T07:17:35Z</time>
      </trkpt>
      <trkpt lat="47.31173" lon="-1.47123">
        <ele>54.273</ele>
        <time>2020-08-09T07:17:36Z</time>
      </trkpt>
      <trkpt lat="47.31175" lon="-1.47118">
        <ele>54.2593</ele>
        <time>2020-08-09T07:17:37Z</time>
      </trkpt>
      <trkpt lat="47.31181" lon="-1.47114">
        <ele>54.2346</ele>
        <time>2020-08-09T07:17:39Z</time>
      </trkpt>
      <trkpt lat="47.31182" lon="-1.47107">
        <ele>54.1962</ele>
        <time>2020-08-09T07:17:42Z</time>
      </trkpt>
      <trkpt lat="47.31182" lon="-1.47097">
        <ele>54.1542</ele>
        <time>2020-08-09T07:17:45Z</time>
      </trkpt>
      <trkpt lat="47.31183" lon="-1.4709">
        <ele>54.0963</ele>
        <time>2020-08-09T07:17:49Z</time>
      </trkpt>
      <trkpt lat="47.31185" lon="-1.47084">
        <ele>54.0814</ele>
        <time>2020-08-09T07:17:50Z</time>
      </trkpt>
      <trkpt lat="47.31187" lon="-1.47073">
        <ele>54.0334</ele>
        <time>2020-08-09T07:17:53Z</time>
      </trkpt>
      <trkpt lat="47.31192" lon="-1.47067">
        <ele>53.997</ele>
        <time>2020-08-09T07:17:55Z</time>
      </trkpt>
      <trkpt lat="47.31189" lon="-1.47056">
        <ele>53.9584</ele>
        <time>2020-08-09T07:17:57Z</time>
      </trkpt>
      <trkpt lat="47.31198" lon="-1.4705">
        <ele>53.8981</ele>
        <time>2020-08-09T07:18:00Z</time>
      </trkpt>
      <trkpt lat="47.31204" lon="-1.47045">
        <ele>53.8294</ele>
        <time>2020-08-09T07:18:03Z</time>
      </trkpt>
      <trkpt lat="47.31205" lon="-1.47029">
        <ele>53.7538</ele>
        <time>2020-08-09T07:18:07Z</time>
      </trkpt>
      <trkpt lat="47.31205" lon="-1.4702">
        <ele>53.704</ele>
        <time>2020-08-09T07:18:09Z</time>
      </trkpt>
      <trkpt lat="47.31217" lon="-1.47004">
        <ele>53.5746</ele>
        <time>2020-08-09T07:18:14Z</time>
      </trkpt>
      <trkpt lat="47.31226" lon="-1.47002">
        <ele>53.4883</ele>
        <time>2020-08-09T07:18:17Z</time>
      </trkpt>
      <trkpt lat="47.31234" lon="-1.46993">
        <ele>53.38</ele>
        <time>2020-08-09T07:18:20Z</time>
      </trkpt>
      <trkpt lat="47.31244" lon="-1.46987">
        <ele>53.3039</ele>
        <time>2020-08-09T07:18:22Z</time>
      </trkpt>
      <trkpt lat="47.31252" lon="-1.46986">
        <ele>53.2651</ele>
        <time>2020-08-09T07:18:23Z</time>
      </trkpt>
      <trkpt lat="47.31259" lon="-1.46977">
        <ele>53.2287</ele>
        <time>2020-08-09T07:18:24Z</time>
      </trkpt>
      <trkpt lat="47.31264" lon="-1.46971">
        <ele>53.1912</ele>
        <time>2020-08-09T07:18:26Z</time>
      </trkpt>
      <trkpt lat="47.31268" lon="-1.4697">
        <ele>53.13</ele>
        <time>2020-08-09T07:18:28Z</time>
      </trkpt>
      <trkpt lat="47.31273" lon="-1.46962">
        <ele>53.0716</ele>
        <time>2020-08-09T07:18:30Z</time>
      </trkpt>
      <trkpt lat="47.31275" lon="-1.46957">
        <ele>52.987</ele>
        <time>2020-08-09T07:18:33Z</time>
      </trkpt>
      <trkpt lat="47.31271" lon="-1.46946">
        <ele>52.9069</ele>
        <time>2020-08-09T07:18:36Z</time>
      </trkpt>
      <trkpt lat="47.31267" lon="-1.46938">
        <ele>52.8752</ele>
        <time>2020-08-09T07:18:41Z</time>
      </trkpt>
      <trkpt lat="47.31261" lon="-1.46912">
        <ele>52.7537</ele>
        <time>2020-08-09T07:18:47Z</time>
      </trkpt>
      <trkpt lat="47.31256" lon="-1.46908">
        <ele>52.7341</ele>
        <time>2020-08-09T07:18:48Z</time>
      </trkpt>
      <trkpt lat="47.31253" lon="-1.46902">
        <ele>52.7139</ele>
        <time>2020-08-09T07:18:49Z</time>
      </trkpt>
      <trkpt lat="47.31254" lon="-1.46895">
        <ele>52.6933</ele>
        <time>2020-08-09T07:18:50Z</time>
      </trkpt>
      <trkpt lat="47.31259" lon="-1.46886">
        <ele>52.6739</ele>
        <time>2020-08-09T07:18:51Z</time>
      </trkpt>
      <trkpt lat="47.31266" lon="-1.46879">
        <ele>52.5441</ele>
        <time>2020-08-09T07:18:57Z</time>
      </trkpt>
      <trkpt lat="47.31273" lon="-1.46875">
        <ele>52.5183</ele>
        <time>2020-08-09T07:18:58Z</time>
      </trkpt>
      <trkpt lat="47.31288" lon="-1.46862">
        <ele>52.446</ele>
        <time>2020-08-09T07:19:01Z</time>
      </trkpt>
      <trkpt lat="47.31293" lon="-1.46857">
        <ele>52.423</ele>
        <time>2020-08-09T07:19:02Z</time>
      </trkpt>
      <trkpt lat="47.31319" lon="-1.46851">
        <ele>52.356</ele>
        <time>2020-08-09T07:19:05Z</time>
      </trkpt>
      <trkpt lat="47.31328" lon="-1.46844">
        <ele>52.3363</ele>
        <time>2020-08-09T07:19:06Z</time>
      </trkpt>
      <trkpt lat="47.31328" lon="-1.46835">
        <ele>52.2652</ele>
        <time>2020-08-09T07:19:10Z</time>
      </trkpt>
      <trkpt lat="47.31333" lon="-1.46821">
        <ele>52.2079</ele>
        <time>2020-08-09T07:19:13Z</time>
      </trkpt>
      <trkpt lat="47.31336" lon="-1.46814">
        <ele>52.1456</ele>
        <time>2020-08-09T07:19:16Z</time>
      </trkpt>
      <trkpt lat="47.31345" lon="-1.46802">
        <ele>52.1256</ele>
        <time>2020-08-09T07:19:17Z</time>
      </trkpt>
      <trkpt lat="47.31353" lon="-1.46796">
        <ele>52.1061</ele>
        <time>2020-08-09T07:19:18Z</time>
      </trkpt>
      <trkpt lat="47.31362" lon="-1.468">
        <ele>52.0639</ele>
        <time>2020-08-09T07:19:20Z</time>
      </trkpt>
      <trkpt lat="47.31367" lon="-1.46783">
        <ele>51.9984</ele>
        <time>2020-08-09T07:19:23Z</time>
      </trkpt>
      <trkpt lat="47.31376" lon="-1.46774">
        <ele>51.9111</ele>
        <time>2020-08-09T07:19:27Z</time>
      </trkpt>
      <trkpt lat="47.31379" lon="-1.46767">
        <ele>51.8308</ele>
        <time>2020-08-09T07:19:31Z</time>
      </trkpt>
      <trkpt lat="47.31381" lon="-1.46761">
        <ele>51.7929</ele>
        <time>2020-08-09T07:19:33Z</time>
      </trkpt>
      <trkpt lat="47.31385" lon="-1.46757">
        <ele>51.7558</ele>
        <time>2020-08-09T07:19:35Z</time>
      </trkpt>
      <trkpt lat="47.31388" lon="-1.46748">
        <ele>51.7166</ele>
        <time>2020-08-09T07:19:37Z</time>
      </trkpt>
      <trkpt lat="47.3139" lon="-1.4674">
        <ele>51.6968</ele>
        <time>2020-08-09T07:19:38Z</time>
      </trkpt>
      <trkpt lat="47.31392" lon="-1.46734">
        <ele>51.6384</ele>
        <time>2020-08-09T07:19:41Z</time>
      </trkpt>
      <trkpt lat="47.31395" lon="-1.46728">
        <ele>51.5843</ele>
        <time>2020-08-09T07:19:44Z</time>
      </trkpt>
      <trkpt lat="47.31398" lon="-1.46722">
        <ele>51.5175</ele>
        <time>2020-08-09T07:19:48Z</time>
      </trkpt>
      <trkpt lat="47.31403" lon="-1.46717">
        <ele>51.5007</ele>
        <time>2020-08-09T07:19:49Z</time>
      </trkpt>
      <trkpt lat="47.31404" lon="-1.46707">
        <ele>51.4853</ele>
        <time>2020-08-09T07:19:50Z</time>
      </trkpt>
      <trkpt lat="47.31402" lon="-1.46696">
        <ele>51.4178</ele>
        <time>2020-08-09T07:19:54Z</time>
      </trkpt>
      <trkpt lat="47.31408" lon="-1.46689">
        <ele>51.362</ele>
        <time>2020-08-09T07:19:57Z</time>
      </trkpt>
      <trkpt lat="47.31411" lon="-1.46684">
        <ele>51.3431</ele>
        <time>2020-08-09T07:19:58Z</time>
      </trkpt>
      <trkpt lat="47.31417" lon="-1.46678">
        <ele>51.2803</ele>
        <time>2020-08-09T07:20:01Z</time>
      </trkpt>
      <trkpt lat="47.3142" lon="-1.46675">
        <ele>51.2571</ele>
        <time>2020-08-09T07:20:02Z</time>
      </trkpt>
      <trkpt lat="47.31423" lon="-1.46673">
        <ele>51.2338</ele>
        <time>2020-08-09T07:20:03Z</time>
      </trkpt>
      <trkpt lat="47.31426" lon="-1.46665">
        <ele>51.1879</ele>
        <time>2020-08-09T07:20:05Z</time>
      </trkpt>
      <trkpt lat="47.31432" lon="-1.46661">
        <ele>51.1403</ele>
        <time>2020-08-09T07:20:07Z</time>
      </trkpt>
      <trkpt lat="47.31436" lon="-1.46655">
        <ele>51.1145</ele>
        <time>2020-08-09T07:20:08Z</time>
      </trkpt>
      <trkpt lat="47.31437" lon="-1.46647">
        <ele>51.0884</ele>
        <time>2020-08-09T07:20:09Z</time>
      </trkpt>
      <trkpt lat="47.31452" lon="-1.46641">
        <ele>51.0044</ele>
        <time>2020-08-09T07:20:12Z</time>
      </trkpt>
      <trkpt lat="47.31462" lon="-1.46639">
        <ele>50.9727</ele>
        <time>2020-08-09T07:20:13Z</time>
      </trkpt>
      <trkpt lat="47.31465" lon="-1.46631">
        <ele>50.9103</ele>
        <time>2020-08-09T07:20:15Z</time>
      </trkpt>
      <trkpt lat="47.31481" lon="-1.4662">
        <ele>50.7963</ele>
        <time>2020-08-09T07:20:19Z</time>
      </trkpt>
      <trkpt lat="47.31486" lon="-1.46613">
        <ele>50.7481</ele>
        <time>2020-08-09T07:20:21Z</time>
      </trkpt>
      <trkpt lat="47.31488" lon="-1.46606">
        <ele>50.6744</ele>
        <time>2020-08-09T07:20:24Z</time>
      </trkpt>
      <trkpt lat="47.31489" lon="-1.46603">
        <ele>50.6506</ele>
        <time>2020-08-09T07:20:25Z</time>
      </trkpt>
      <trkpt lat="47.31491" lon="-1.46599">
        <ele>50.6274</ele>
        <time>2020-08-09T07:20:26Z</time>
      </trkpt>
      <trkpt lat="47.31493" lon="-1.46586">
        <ele>50.5633</ele>
        <time>2020-08-09T07:20:29Z</time>
      </trkpt>
      <trkpt lat="47.31493" lon="-1.46579">
        <ele>50.5231</ele>
        <time>2020-08-09T07:20:31Z</time>
      </trkpt>
      <trkpt lat="47.31499" lon="-1.46576">
        <ele>50.447</ele>
        <time>2020-08-09T07:20:35Z</time>
      </trkpt>
      <trkpt lat="47.315" lon="-1.46566">
        <ele>50.3945</ele>
        <time>2020-08-09T07:20:38Z</time>
      </trkpt>
      <trkpt lat="47.31497" lon="-1.46557">
        <ele>50.3429</ele>
        <time>2020-08-09T07:20:41Z</time>
      </trkpt>
      <trkpt lat="47.31495" lon="-1.46552">
        <ele>50.3256</ele>
        <time>2020-08-09T07:20:42Z</time>
      </trkpt>
      <trkpt lat="47.31499" lon="-1.46542">
        <ele>50.2736</ele>
        <time>2020-08-09T07:20:45Z</time>
      </trkpt>
      <trkpt lat="47.31504" lon="-1.46535">
        <ele>50.2386</ele>
        <time>2020-08-09T07:20:47Z</time>
      </trkpt>
      <trkpt lat="47.31508" lon="-1.46531">
        <ele>50.2033</ele>
        <time>2020-08-09T07:20:49Z</time>
      </trkpt>
      <trkpt lat="47.3151" lon="-1.46522">
        <ele>50.1681</ele>
        <time>2020-08-09T07:20:51Z</time>
      </trkpt>
      <trkpt lat="47.31513" lon="-1.46513">
        <ele>50.1331</ele>
        <time>2020-08-09T07:20:53Z</time>
      </trkpt>
      <trkpt lat="47.31517" lon="-1.46512">
        <ele>50.1155</ele>
        <time>2020-08-09T07:20:54Z</time>
      </trkpt>
      <trkpt lat="47.31526" lon="-1.46497">
        <ele>50.0627</ele>
        <time>2020-08-09T07:20:57Z</time>
      </trkpt>
      <trkpt lat="47.31534" lon="-1.46488">
        <ele>50.0277</ele>
        <time>2020-08-09T07:20:59Z</time>
      </trkpt>
      <trkpt lat="47.31539" lon="-1.46481">
        <ele>50.0114</ele>
        <time>2020-08-09T07:21:00Z</time>
      </trkpt>
      <trkpt lat="47.31543" lon="-1.46476">
        <ele>49.9804</ele>
        <time>2020-08-09T07:21:02Z</time>
      </trkpt>
      <trkpt lat="47.31548" lon="-1.46472">
        <ele>49.9511</ele>
        <time>2020-08-09T07:21:04Z</time>
      </trkpt>
      <trkpt lat="47.31555" lon="-1.46467">
        <ele>49.9235</ele>
        <time>2020-08-09T07:21:06Z</time>
      </trkpt>
      <trkpt lat="47.31559" lon="-1.46463">
        <ele>49.8981</ele>
        <time>2020-08-09T07:21:08Z</time>
      </trkpt>
      <trkpt lat="47.31564" lon="-1.46457">
        <ele>49.8747</ele>
        <time>2020-08-09T07:21:10Z</time>
      </trkpt>
      <trkpt lat="47.31564" lon="-1.4645">
        <ele>49.8516</ele>
        <time>2020-08-09T07:21:12Z</time>
      </trkpt>
      <trkpt lat="47.31567" lon="-1.46443">
        <ele>49.8295</ele>
        <time>2020-08-09T07:21:14Z</time>
      </trkpt>
      <trkpt lat="47.31568" lon="-1.46435">
        <ele>49.812</ele>
        <time>2020-08-09T07:21:16Z</time>
      </trkpt>
      <trkpt lat="47.31571" lon="-1.4643">
        <ele>49.7969</ele>
        <time>2020-08-09T07:21:18Z</time>
      </trkpt>
      <trkpt lat="47.31577" lon="-1.46425">
        <ele>49.7826</ele>
        <time>2020-08-09T07:21:20Z</time>
      </trkpt>
      <trkpt lat="47.31582" lon="-1.46414">
        <ele>49.7572</ele>
        <time>2020-08-09T07:21:23Z</time>
      </trkpt>
      <trkpt lat="47.31587" lon="-1.46414">
        <ele>49.7387</ele>
        <time>2020-08-09T07:21:25Z</time>
      </trkpt>
      <trkpt lat="47.31591" lon="-1.46408">
        <ele>49.721</ele>
        <time>2020-08-09T07:21:27Z</time>
      </trkpt>
      <trkpt lat="47.31593" lon="-1.46405">
        <ele>49.7112</ele>
        <time>2020-08-09T07:21:28Z</time>
      </trkpt>
      <trkpt lat="47.316" lon="-1.46399">
        <ele>49.6913</ele>
        <time>2020-08-09T07:21:30Z</time>
      </trkpt>
      <trkpt lat="47.31603" lon="-1.46393">
        <ele>49.6704</ele>
        <time>2020-08-09T07:21:32Z</time>
      </trkpt>
      <trkpt lat="47.31607" lon="-1.46386">
        <ele>49.6399</ele>
        <time>2020-08-09T07:21:35Z</time>
      </trkpt>
      <trkpt lat="47.31614" lon="-1.4638">
        <ele>49.6108</ele>
        <time>2020-08-09T07:21:38Z</time>
      </trkpt>
      <trkpt lat="47.31621" lon="-1.46378">
        <ele>49.6029</ele>
        <time>2020-08-09T07:21:39Z</time>
      </trkpt>
      <trkpt lat="47.31625" lon="-1.46371">
        <ele>49.5869</ele>
        <time>2020-08-09T07:21:41Z</time>
      </trkpt>
      <trkpt lat="47.31628" lon="-1.46366">
        <ele>49.5794</ele>
        <time>2020-08-09T07:21:42Z</time>
      </trkpt>
      <trkpt lat="47.31627" lon="-1.46356">
        <ele>49.5566</ele>
        <time>2020-08-09T07:21:45Z</time>
      </trkpt>
      <trkpt lat="47.31628" lon="-1.46348">
        <ele>49.5404</ele>
        <time>2020-08-09T07:21:47Z</time>
      </trkpt>
      <trkpt lat="47.31634" lon="-1.46345">
        <ele>49.5306</ele>
        <time>2020-08-09T07:21:48Z</time>
      </trkpt>
      <trkpt lat="47.31642" lon="-1.46346">
        <ele>49.5212</ele>
        <time>2020-08-09T07:21:49Z</time>
      </trkpt>
      <trkpt lat="47.31647" lon="-1.46342">
        <ele>49.5128</ele>
        <time>2020-08-09T07:21:50Z</time>
      </trkpt>
      <trkpt lat="47.31653" lon="-1.46338">
        <ele>49.4814</ele>
        <time>2020-08-09T07:21:54Z</time>
      </trkpt>
      <trkpt lat="47.31654" lon="-1.46329">
        <ele>49.4657</ele>
        <time>2020-08-09T07:21:56Z</time>
      </trkpt>
      <trkpt lat="47.31656" lon="-1.46324">
        <ele>49.45</ele>
        <time>2020-08-09T07:21:58Z</time>
      </trkpt>
      <trkpt lat="47.31662" lon="-1.46319">
        <ele>49.4331</ele>
        <time>2020-08-09T07:22:00Z</time>
      </trkpt>
      <trkpt lat="47.31667" lon="-1.46315">
        <ele>49.4154</ele>
        <time>2020-08-09T07:22:02Z</time>
      </trkpt>
      <trkpt lat="47.31679" lon="-1.46303">
        <ele>49.3884</ele>
        <time>2020-08-09T07:22:05Z</time>
      </trkpt>
      <trkpt lat="47.3168" lon="-1.46296">
        <ele>49.3539</ele>
        <time>2020-08-09T07:22:09Z</time>
      </trkpt>
      <trkpt lat="47.31688" lon="-1.46292">
        <ele>49.3211</ele>
        <time>2020-08-09T07:22:13Z</time>
      </trkpt>
      <trkpt lat="47.31699" lon="-1.46276">
        <ele>49.3008</ele>
        <time>2020-08-09T07:22:16Z</time>
      </trkpt>
      <trkpt lat="47.31706" lon="-1.46274">
        <ele>49.2889</ele>
        <time>2020-08-09T07:22:18Z</time>
      </trkpt>
      <trkpt lat="47.31709" lon="-1.46273">
        <ele>49.277</ele>
        <time>2020-08-09T07:22:20Z</time>
      </trkpt>
      <trkpt lat="47.3172" lon="-1.46269">
        <ele>49.2577</ele>
        <time>2020-08-09T07:22:23Z</time>
      </trkpt>
      <trkpt lat="47.31724" lon="-1.46261">
        <ele>49.2283</ele>
        <time>2020-08-09T07:22:27Z</time>
      </trkpt>
      <trkpt lat="47.31731" lon="-1.46262">
        <ele>49.2098</ele>
        <time>2020-08-09T07:22:29Z</time>
      </trkpt>
      <trkpt lat="47.31735" lon="-1.46256">
        <ele>49.1914</ele>
        <time>2020-08-09T07:22:31Z</time>
      </trkpt>
      <trkpt lat="47.3174" lon="-1.4625">
        <ele>49.142</ele>
        <time>2020-08-09T07:22:36Z</time>
      </trkpt>
      <trkpt lat="47.31745" lon="-1.46246">
        <ele>49.1307</ele>
        <time>2020-08-09T07:22:37Z</time>
      </trkpt>
      <trkpt lat="47.31757" lon="-1.46241">
        <ele>49.1211</ele>
        <time>2020-08-09T07:22:38Z</time>
      </trkpt>
      <trkpt lat="47.3176" lon="-1.46235">
        <ele>49.0908</ele>
        <time>2020-08-09T07:22:41Z</time>
      </trkpt>
      <trkpt lat="47.31767" lon="-1.46233">
        <ele>49.0559</ele>
        <time>2020-08-09T07:22:44Z</time>
      </trkpt>
      <trkpt lat="47.31772" lon="-1.46234">
        <ele>49.0322</ele>
        <time>2020-08-09T07:22:46Z</time>
      </trkpt>
      <trkpt lat="47.31778" lon="-1.46229">
        <ele>49.0086</ele>
        <time>2020-08-09T07:22:48Z</time>
      </trkpt>
      <trkpt lat="47.31784" lon="-1.46224">
        <ele>48.9857</ele>
        <time>2020-08-09T07:22:50Z</time>
      </trkpt>
      <trkpt lat="47.3179" lon="-1.46219">
        <ele>48.9758</ele>
        <time>2020-08-09T07:22:51Z</time>
      </trkpt>
      <trkpt lat="47.31796" lon="-1.46217">
        <ele>48.9671</ele>
        <time>2020-08-09T07:22:52Z</time>
      </trkpt>
      <trkpt lat="47.31808" lon="-1.46214">
        <ele>48.939</ele>
        <time>2020-08-09T07:22:55Z</time>
      </trkpt>
      <trkpt lat="47.31816" lon="-1.46211">
        <ele>48.9303</ele>
        <time>2020-08-09T07:22:56Z</time>
      </trkpt>
      <trkpt lat="47.3182" lon="-1.46214">
        <ele>48.9066</ele>
        <time>2020-08-09T07:22:59Z</time>
      </trkpt>
      <trkpt lat="47.31825" lon="-1.4621">
        <ele>48.8848</ele>
        <time>2020-08-09T07:23:02Z</time>
      </trkpt>
      <trkpt lat="47.31836" lon="-1.46205">
        <ele>48.8511</ele>
        <time>2020-08-09T07:23:07Z</time>
      </trkpt>
      <trkpt lat="47.3184" lon="-1.462">
        <ele>48.8369</ele>
        <time>2020-08-09T07:23:09Z</time>
      </trkpt>
      <trkpt lat="47.31849" lon="-1.46199">
        <ele>48.8199</ele>
        <time>2020-08-09T07:23:11Z</time>
      </trkpt>
      <trkpt lat="47.31852" lon="-1.46195">
        <ele>48.8112</ele>
        <time>2020-08-09T07:23:12Z</time>
      </trkpt>
      <trkpt lat="47.31859" lon="-1.46192">
        <ele>48.7873</ele>
        <time>2020-08-09T07:23:15Z</time>
      </trkpt>
      <trkpt lat="47.31865" lon="-1.46189">
        <ele>48.7731</ele>
        <time>2020-08-09T07:23:17Z</time>
      </trkpt>
      <trkpt lat="47.31868" lon="-1.46188">
        <ele>48.7653</ele>
        <time>2020-08-09T07:23:18Z</time>
      </trkpt>
      <trkpt lat="47.31873" lon="-1.46189">
        <ele>48.7573</ele>
        <time>2020-08-09T07:23:19Z</time>
      </trkpt>
      <trkpt lat="47.31878" lon="-1.46186">
        <ele>48.7411</ele>
        <time>2020-08-09T07:23:21Z</time>
      </trkpt>
      <trkpt lat="47.31884" lon="-1.46184">
        <ele>48.7183</ele>
        <time>2020-08-09T07:23:24Z</time>
      </trkpt>
      <trkpt lat="47.31891" lon="-1.46177">
        <ele>48.7042</ele>
        <time>2020-08-09T07:23:26Z</time>
      </trkpt>
      <trkpt lat="47.31898" lon="-1.46178">
        <ele>48.6907</ele>
        <time>2020-08-09T07:23:28Z</time>
      </trkpt>
      <trkpt lat="47.31903" lon="-1.46174">
        <ele>48.6769</ele>
        <time>2020-08-09T07:23:30Z</time>
      </trkpt>
      <trkpt lat="47.31911" lon="-1.46176">
        <ele>48.6553</ele>
        <time>2020-08-09T07:23:33Z</time>
      </trkpt>
      <trkpt lat="47.31917" lon="-1.46177">
        <ele>48.6434</ele>
        <time>2020-08-09T07:23:35Z</time>
      </trkpt>
      <trkpt lat="47.31922" lon="-1.46175">
        <ele>48.638</ele>
        <time>2020-08-09T07:23:36Z</time>
      </trkpt>
      <trkpt lat="47.31929" lon="-1.4617">
        <ele>48.6295</ele>
        <time>2020-08-09T07:23:38Z</time>
      </trkpt>
      <trkpt lat="47.31934" lon="-1.46168">
        <ele>48.6288</ele>
        <time>2020-08-09T07:23:39Z</time>
      </trkpt>
      <trkpt lat="47.31938" lon="-1.46166">
        <ele>48.6314</ele>
        <time>2020-08-09T07:23:40Z</time>
      </trkpt>
      <trkpt lat="47.31941" lon="-1.46165">
        <ele>48.6352</ele>
        <time>2020-08-09T07:23:41Z</time>
      </trkpt>
      <trkpt lat="47.31944" lon="-1.46164">
        <ele>48.6401</ele>
        <time>2020-08-09T07:23:42Z</time>
      </trkpt>
      <trkpt lat="47.31951" lon="-1.46165">
        <ele>48.6542</ele>
        <time>2020-08-09T07:23:44Z</time>
      </trkpt>
      <trkpt lat="47.31955" lon="-1.46167">
        <ele>48.6635</ele>
        <time>2020-08-09T07:23:46Z</time>
      </trkpt>
      <trkpt lat="47.31964" lon="-1.46161">
        <ele>48.6823</ele>
        <time>2020-08-09T07:23:49Z</time>
      </trkpt>
      <trkpt lat="47.31976" lon="-1.46162">
        <ele>48.7086</ele>
        <time>2020-08-09T07:23:50Z</time>
      </trkpt>
      <trkpt lat="47.31979" lon="-1.46162">
        <ele>48.7369</ele>
        <time>2020-08-09T07:23:51Z</time>
      </trkpt>
      <trkpt lat="47.31976" lon="-1.46162">
        <ele>48.7086</ele>
        <time>2020-08-09T07:23:57Z</time>
      </trkpt>
      <trkpt lat="47.3197" lon="-1.46161">
        <ele>49.1176</ele>
        <time>2020-08-09T07:23:59Z</time>
      </trkpt>
      <trkpt lat="47.31964" lon="-1.46166">
        <ele>49.2331</ele>
        <time>2020-08-09T07:24:01Z</time>
      </trkpt>
      <trkpt lat="47.31958" lon="-1.46169">
        <ele>49.3484</ele>
        <time>2020-08-09T07:24:03Z</time>
      </trkpt>
      <trkpt lat="47.31954" lon="-1.46171">
        <ele>49.9111</ele>
        <time>2020-08-09T07:24:04Z</time>
      </trkpt>
      <trkpt lat="47.31948" lon="-1.46172">
        <ele>50.0023</ele>
        <time>2020-08-09T07:24:06Z</time>
      </trkpt>
      <trkpt lat="47.31946" lon="-1.46172">
        <ele>50.0474</ele>
        <time>2020-08-09T07:24:07Z</time>
      </trkpt>
      <trkpt lat="47.31941" lon="-1.46174">
        <ele>50.1368</ele>
        <time>2020-08-09T07:24:09Z</time>
      </trkpt>
      <trkpt lat="47.31933" lon="-1.46175">
        <ele>50.2677</ele>
        <time>2020-08-09T07:24:12Z</time>
      </trkpt>
      <trkpt lat="47.31926" lon="-1.46179">
        <ele>50.7337</ele>
        <time>2020-08-09T07:24:14Z</time>
      </trkpt>
      <trkpt lat="47.31923" lon="-1.4618">
        <ele>50.7702</ele>
        <time>2020-08-09T07:24:15Z</time>
      </trkpt>
      <trkpt lat="47.31917" lon="-1.46183">
        <ele>50.8427</ele>
        <time>2020-08-09T07:24:17Z</time>
      </trkpt>
      <trkpt lat="47.31911" lon="-1.46185">
        <ele>50.9153</ele>
        <time>2020-08-09T07:24:19Z</time>
      </trkpt>
      <trkpt lat="47.31905" lon="-1.46187">
        <ele>50.9903</ele>
        <time>2020-08-09T07:24:21Z</time>
      </trkpt>
      <trkpt lat="47.319" lon="-1.46189">
        <ele>51.0667</ele>
        <time>2020-08-09T07:24:23Z</time>
      </trkpt>
      <trkpt lat="47.31895" lon="-1.46192">
        <ele>51.145</ele>
        <time>2020-08-09T07:24:25Z</time>
      </trkpt>
      <trkpt lat="47.31886" lon="-1.46197">
        <ele>51.6119</ele>
        <time>2020-08-09T07:24:28Z</time>
      </trkpt>
      <trkpt lat="47.31882" lon="-1.46199">
        <ele>51.6435</ele>
        <time>2020-08-09T07:24:29Z</time>
      </trkpt>
      <trkpt lat="47.31879" lon="-1.46201">
        <ele>51.6749</ele>
        <time>2020-08-09T07:24:30Z</time>
      </trkpt>
      <trkpt lat="47.31876" lon="-1.46203">
        <ele>51.7062</ele>
        <time>2020-08-09T07:24:31Z</time>
      </trkpt>
      <trkpt lat="47.3187" lon="-1.46206">
        <ele>51.7681</ele>
        <time>2020-08-09T07:24:33Z</time>
      </trkpt>
      <trkpt lat="47.31867" lon="-1.46207">
        <ele>51.7995</ele>
        <time>2020-08-09T07:24:34Z</time>
      </trkpt>
      <trkpt lat="47.31864" lon="-1.46208">
        <ele>51.8301</ele>
        <time>2020-08-09T07:24:35Z</time>
      </trkpt>
      <trkpt lat="47.3186" lon="-1.46209">
        <ele>51.8614</ele>
        <time>2020-08-09T07:24:36Z</time>
      </trkpt>
      <trkpt lat="47.31857" lon="-1.4621">
        <ele>51.8926</ele>
        <time>2020-08-09T07:24:37Z</time>
      </trkpt>
      <trkpt lat="47.31851" lon="-1.46214">
        <ele>51.9513</ele>
        <time>2020-08-09T07:24:39Z</time>
      </trkpt>
      <trkpt lat="47.31845" lon="-1.46216">
        <ele>52.0072</ele>
        <time>2020-08-09T07:24:41Z</time>
      </trkpt>
      <trkpt lat="47.31835" lon="-1.46223">
        <ele>52.085</ele>
        <time>2020-08-09T07:24:44Z</time>
      </trkpt>
      <trkpt lat="47.31829" lon="-1.46227">
        <ele>52.1336</ele>
        <time>2020-08-09T07:24:46Z</time>
      </trkpt>
      <trkpt lat="47.31826" lon="-1.46229">
        <ele>52.1573</ele>
        <time>2020-08-09T07:24:47Z</time>
      </trkpt>
      <trkpt lat="47.31822" lon="-1.46231">
        <ele>52.1817</ele>
        <time>2020-08-09T07:24:48Z</time>
      </trkpt>
      <trkpt lat="47.3182" lon="-1.46232">
        <ele>52.2057</ele>
        <time>2020-08-09T07:24:49Z</time>
      </trkpt>
      <trkpt lat="47.31813" lon="-1.46235">
        <ele>52.2554</ele>
        <time>2020-08-09T07:24:51Z</time>
      </trkpt>
      <trkpt lat="47.31806" lon="-1.4624">
        <ele>52.33</ele>
        <time>2020-08-09T07:24:54Z</time>
      </trkpt>
      <trkpt lat="47.318" lon="-1.46244">
        <ele>52.3804</ele>
        <time>2020-08-09T07:24:56Z</time>
      </trkpt>
      <trkpt lat="47.31786" lon="-1.46254">
        <ele>52.4798</ele>
        <time>2020-08-09T07:25:00Z</time>
      </trkpt>
      <trkpt lat="47.31783" lon="-1.46256">
        <ele>52.5029</ele>
        <time>2020-08-09T07:25:01Z</time>
      </trkpt>
      <trkpt lat="47.31776" lon="-1.4626">
        <ele>52.5513</ele>
        <time>2020-08-09T07:25:03Z</time>
      </trkpt>
      <trkpt lat="47.31769" lon="-1.46264">
        <ele>52.602</ele>
        <time>2020-08-09T07:25:05Z</time>
      </trkpt>
      <trkpt lat="47.31766" lon="-1.46266">
        <ele>52.6281</ele>
        <time>2020-08-09T07:25:06Z</time>
      </trkpt>
      <trkpt lat="47.3176" lon="-1.4627">
        <ele>52.6842</ele>
        <time>2020-08-09T07:25:08Z</time>
      </trkpt>
      <trkpt lat="47.31757" lon="-1.46272">
        <ele>52.7139</ele>
        <time>2020-08-09T07:25:09Z</time>
      </trkpt>
      <trkpt lat="47.31754" lon="-1.46274">
        <ele>52.7454</ele>
        <time>2020-08-09T07:25:10Z</time>
      </trkpt>
      <trkpt lat="47.31747" lon="-1.46281">
        <ele>52.8097</ele>
        <time>2020-08-09T07:25:12Z</time>
      </trkpt>
      <trkpt lat="47.31744" lon="-1.46284">
        <ele>52.8422</ele>
        <time>2020-08-09T07:25:13Z</time>
      </trkpt>
      <trkpt lat="47.31738" lon="-1.46288">
        <ele>52.9105</ele>
        <time>2020-08-09T07:25:15Z</time>
      </trkpt>
      <trkpt lat="47.31732" lon="-1.46294">
        <ele>52.9793</ele>
        <time>2020-08-09T07:25:17Z</time>
      </trkpt>
      <trkpt lat="47.31726" lon="-1.463">
        <ele>53.0505</ele>
        <time>2020-08-09T07:25:19Z</time>
      </trkpt>
      <trkpt lat="47.31722" lon="-1.46303">
        <ele>53.0896</ele>
        <time>2020-08-09T07:25:20Z</time>
      </trkpt>
      <trkpt lat="47.31716" lon="-1.46309">
        <ele>53.1682</ele>
        <time>2020-08-09T07:25:22Z</time>
      </trkpt>
      <trkpt lat="47.31709" lon="-1.46315">
        <ele>53.2513</ele>
        <time>2020-08-09T07:25:24Z</time>
      </trkpt>
      <trkpt lat="47.31697" lon="-1.4632">
        <ele>53.3789</ele>
        <time>2020-08-09T07:25:27Z</time>
      </trkpt>
      <trkpt lat="47.31692" lon="-1.46325">
        <ele>53.4662</ele>
        <time>2020-08-09T07:25:29Z</time>
      </trkpt>
      <trkpt lat="47.31689" lon="-1.46328">
        <ele>53.509</ele>
        <time>2020-08-09T07:25:30Z</time>
      </trkpt>
      <trkpt lat="47.31686" lon="-1.46332">
        <ele>53.5521</ele>
        <time>2020-08-09T07:25:31Z</time>
      </trkpt>
      <trkpt lat="47.31683" lon="-1.46336">
        <ele>53.5947</ele>
        <time>2020-08-09T07:25:32Z</time>
      </trkpt>
      <trkpt lat="47.31681" lon="-1.46339">
        <ele>53.6372</ele>
        <time>2020-08-09T07:25:33Z</time>
      </trkpt>
      <trkpt lat="47.31676" lon="-1.46343">
        <ele>53.7217</ele>
        <time>2020-08-09T07:25:35Z</time>
      </trkpt>
      <trkpt lat="47.31671" lon="-1.46348">
        <ele>53.8081</ele>
        <time>2020-08-09T07:25:37Z</time>
      </trkpt>
      <trkpt lat="47.31668" lon="-1.46352">
        <ele>53.8509</ele>
        <time>2020-08-09T07:25:38Z</time>
      </trkpt>
      <trkpt lat="47.31665" lon="-1.46355">
        <ele>53.8935</ele>
        <time>2020-08-09T07:25:39Z</time>
      </trkpt>
      <trkpt lat="47.31662" lon="-1.46358">
        <ele>53.9351</ele>
        <time>2020-08-09T07:25:40Z</time>
      </trkpt>
      <trkpt lat="47.31659" lon="-1.46361">
        <ele>53.9756</ele>
        <time>2020-08-09T07:25:41Z</time>
      </trkpt>
      <trkpt lat="47.31657" lon="-1.46364">
        <ele>54.0165</ele>
        <time>2020-08-09T07:25:42Z</time>
      </trkpt>
      <trkpt lat="47.31654" lon="-1.46367">
        <ele>54.0567</ele>
        <time>2020-08-09T07:25:43Z</time>
      </trkpt>
      <trkpt lat="47.3165" lon="-1.46374">
        <ele>54.1351</ele>
        <time>2020-08-09T07:25:45Z</time>
      </trkpt>
      <trkpt lat="47.31644" lon="-1.4638">
        <ele>54.2156</ele>
        <time>2020-08-09T07:25:47Z</time>
      </trkpt>
      <trkpt lat="47.3164" lon="-1.46387">
        <ele>54.2977</ele>
        <time>2020-08-09T07:25:49Z</time>
      </trkpt>
      <trkpt lat="47.31633" lon="-1.46395">
        <ele>54.4185</ele>
        <time>2020-08-09T07:25:52Z</time>
      </trkpt>
      <trkpt lat="47.31624" lon="-1.46403">
        <ele>54.5458</ele>
        <time>2020-08-09T07:25:55Z</time>
      </trkpt>
      <trkpt lat="47.3162" lon="-1.46411">
        <ele>54.6269</ele>
        <time>2020-08-09T07:25:57Z</time>
      </trkpt>
      <trkpt lat="47.31615" lon="-1.46418">
        <ele>54.7058</ele>
        <time>2020-08-09T07:25:59Z</time>
      </trkpt>
      <trkpt lat="47.31609" lon="-1.46424">
        <ele>54.7849</ele>
        <time>2020-08-09T07:26:01Z</time>
      </trkpt>
      <trkpt lat="47.31602" lon="-1.46435">
        <ele>54.8989</ele>
        <time>2020-08-09T07:26:04Z</time>
      </trkpt>
      <trkpt lat="47.31599" lon="-1.46439">
        <ele>54.9364</ele>
        <time>2020-08-09T07:26:05Z</time>
      </trkpt>
      <trkpt lat="47.31597" lon="-1.46443">
        <ele>54.9746</ele>
        <time>2020-08-09T07:26:06Z</time>
      </trkpt>
      <trkpt lat="47.31595" lon="-1.46447">
        <ele>55.0129</ele>
        <time>2020-08-09T07:26:07Z</time>
      </trkpt>
      <trkpt lat="47.31592" lon="-1.46454">
        <ele>55.0886</ele>
        <time>2020-08-09T07:26:09Z</time>
      </trkpt>
      <trkpt lat="47.31588" lon="-1.46461">
        <ele>55.1628</ele>
        <time>2020-08-09T07:26:11Z</time>
      </trkpt>
      <trkpt lat="47.31586" lon="-1.46464">
        <ele>55.1995</ele>
        <time>2020-08-09T07:26:12Z</time>
      </trkpt>
      <trkpt lat="47.31582" lon="-1.46469">
        <ele>55.2735</ele>
        <time>2020-08-09T07:26:14Z</time>
      </trkpt>
      <trkpt lat="47.31576" lon="-1.46484">
        <ele>55.4547</ele>
        <time>2020-08-09T07:26:19Z</time>
      </trkpt>
      <trkpt lat="47.31569" lon="-1.46492">
        <ele>55.5232</ele>
        <time>2020-08-09T07:26:21Z</time>
      </trkpt>
      <trkpt lat="47.31566" lon="-1.46496">
        <ele>55.5568</ele>
        <time>2020-08-09T07:26:22Z</time>
      </trkpt>
      <trkpt lat="47.31563" lon="-1.46501">
        <ele>55.5914</ele>
        <time>2020-08-09T07:26:23Z</time>
      </trkpt>
      <trkpt lat="47.31559" lon="-1.46508">
        <ele>55.6254</ele>
        <time>2020-08-09T07:26:24Z</time>
      </trkpt>
      <trkpt lat="47.31557" lon="-1.46514">
        <ele>55.659</ele>
        <time>2020-08-09T07:26:25Z</time>
      </trkpt>
      <trkpt lat="47.31552" lon="-1.46523">
        <ele>55.7247</ele>
        <time>2020-08-09T07:26:27Z</time>
      </trkpt>
      <trkpt lat="47.31549" lon="-1.46527">
        <ele>55.757</ele>
        <time>2020-08-09T07:26:28Z</time>
      </trkpt>
      <trkpt lat="47.31546" lon="-1.46533">
        <ele>55.8214</ele>
        <time>2020-08-09T07:26:30Z</time>
      </trkpt>
      <trkpt lat="47.31545" lon="-1.46536">
        <ele>55.8535</ele>
        <time>2020-08-09T07:26:31Z</time>
      </trkpt>
      <trkpt lat="47.31543" lon="-1.4654">
        <ele>55.8848</ele>
        <time>2020-08-09T07:26:32Z</time>
      </trkpt>
      <trkpt lat="47.31542" lon="-1.46543">
        <ele>55.9156</ele>
        <time>2020-08-09T07:26:33Z</time>
      </trkpt>
      <trkpt lat="47.31539" lon="-1.46549">
        <ele>55.9743</ele>
        <time>2020-08-09T07:26:35Z</time>
      </trkpt>
      <trkpt lat="47.31537" lon="-1.46553">
        <ele>56.0025</ele>
        <time>2020-08-09T07:26:36Z</time>
      </trkpt>
      <trkpt lat="47.31532" lon="-1.46561">
        <ele>56.0572</ele>
        <time>2020-08-09T07:26:38Z</time>
      </trkpt>
      <trkpt lat="47.3153" lon="-1.46565">
        <ele>56.0841</ele>
        <time>2020-08-09T07:26:39Z</time>
      </trkpt>
      <trkpt lat="47.31527" lon="-1.46572">
        <ele>56.1371</ele>
        <time>2020-08-09T07:26:41Z</time>
      </trkpt>
      <trkpt lat="47.31523" lon="-1.4658">
        <ele>56.189</ele>
        <time>2020-08-09T07:26:43Z</time>
      </trkpt>
      <trkpt lat="47.31521" lon="-1.46584">
        <ele>56.2142</ele>
        <time>2020-08-09T07:26:44Z</time>
      </trkpt>
      <trkpt lat="47.31516" lon="-1.4659">
        <ele>56.264</ele>
        <time>2020-08-09T07:26:46Z</time>
      </trkpt>
      <trkpt lat="47.31514" lon="-1.46594">
        <ele>56.2885</ele>
        <time>2020-08-09T07:26:47Z</time>
      </trkpt>
      <trkpt lat="47.31511" lon="-1.46597">
        <ele>56.3127</ele>
        <time>2020-08-09T07:26:48Z</time>
      </trkpt>
      <trkpt lat="47.31509" lon="-1.466">
        <ele>56.3367</ele>
        <time>2020-08-09T07:26:49Z</time>
      </trkpt>
      <trkpt lat="47.31505" lon="-1.46606">
        <ele>56.3845</ele>
        <time>2020-08-09T07:26:51Z</time>
      </trkpt>
      <trkpt lat="47.31503" lon="-1.46608">
        <ele>56.4087</ele>
        <time>2020-08-09T07:26:52Z</time>
      </trkpt>
      <trkpt lat="47.315" lon="-1.46614">
        <ele>56.4575</ele>
        <time>2020-08-09T07:26:54Z</time>
      </trkpt>
      <trkpt lat="47.31496" lon="-1.4662">
        <ele>56.5057</ele>
        <time>2020-08-09T07:26:57Z</time>
      </trkpt>
      <trkpt lat="47.31492" lon="-1.46625">
        <ele>56.5529</ele>
        <time>2020-08-09T07:26:58Z</time>
      </trkpt>
      <trkpt lat="47.31488" lon="-1.46631">
        <ele>56.6</ele>
        <time>2020-08-09T07:27:00Z</time>
      </trkpt>
      <trkpt lat="47.31486" lon="-1.46634">
        <ele>56.6233</ele>
        <time>2020-08-09T07:27:01Z</time>
      </trkpt>
      <trkpt lat="47.31482" lon="-1.46641">
        <ele>56.6695</ele>
        <time>2020-08-09T07:27:03Z</time>
      </trkpt>
      <trkpt lat="47.3148" lon="-1.46645">
        <ele>56.6925</ele>
        <time>2020-08-09T07:27:04Z</time>
      </trkpt>
      <trkpt lat="47.31476" lon="-1.46652">
        <ele>56.7389</ele>
        <time>2020-08-09T07:27:06Z</time>
      </trkpt>
      <trkpt lat="47.3147" lon="-1.46657">
        <ele>56.8065</ele>
        <time>2020-08-09T07:27:09Z</time>
      </trkpt>
      <trkpt lat="47.31466" lon="-1.46665">
        <ele>56.8524</ele>
        <time>2020-08-09T07:27:11Z</time>
      </trkpt>
      <trkpt lat="47.3146" lon="-1.46673">
        <ele>56.8964</ele>
        <time>2020-08-09T07:27:13Z</time>
      </trkpt>
      <trkpt lat="47.31459" lon="-1.46676">
        <ele>56.919</ele>
        <time>2020-08-09T07:27:14Z</time>
      </trkpt>
      <trkpt lat="47.31456" lon="-1.46681">
        <ele>56.9422</ele>
        <time>2020-08-09T07:27:15Z</time>
      </trkpt>
      <trkpt lat="47.31454" lon="-1.46685">
        <ele>56.9646</ele>
        <time>2020-08-09T07:27:16Z</time>
      </trkpt>
      <trkpt lat="47.31452" lon="-1.46689">
        <ele>56.9859</ele>
        <time>2020-08-09T07:27:17Z</time>
      </trkpt>
      <trkpt lat="47.31446" lon="-1.46698">
        <ele>57.0272</ele>
        <time>2020-08-09T07:27:19Z</time>
      </trkpt>
      <trkpt lat="47.3144" lon="-1.46704">
        <ele>57.0709</ele>
        <time>2020-08-09T07:27:21Z</time>
      </trkpt>
      <trkpt lat="47.31437" lon="-1.4671">
        <ele>57.1171</ele>
        <time>2020-08-09T07:27:23Z</time>
      </trkpt>
      <trkpt lat="47.31432" lon="-1.46717">
        <ele>57.1647</ele>
        <time>2020-08-09T07:27:25Z</time>
      </trkpt>
      <trkpt lat="47.31426" lon="-1.46724">
        <ele>57.21</ele>
        <time>2020-08-09T07:27:27Z</time>
      </trkpt>
      <trkpt lat="47.31423" lon="-1.46727">
        <ele>57.2322</ele>
        <time>2020-08-09T07:27:28Z</time>
      </trkpt>
      <trkpt lat="47.31419" lon="-1.46733">
        <ele>57.2754</ele>
        <time>2020-08-09T07:27:30Z</time>
      </trkpt>
      <trkpt lat="47.31413" lon="-1.46739">
        <ele>57.3218</ele>
        <time>2020-08-09T07:27:32Z</time>
      </trkpt>
      <trkpt lat="47.3141" lon="-1.46745">
        <ele>57.3698</ele>
        <time>2020-08-09T07:27:34Z</time>
      </trkpt>
      <trkpt lat="47.31407" lon="-1.46749">
        <ele>57.3935</ele>
        <time>2020-08-09T07:27:35Z</time>
      </trkpt>
      <trkpt lat="47.31403" lon="-1.46758">
        <ele>57.4377</ele>
        <time>2020-08-09T07:27:37Z</time>
      </trkpt>
      <trkpt lat="47.31398" lon="-1.46767">
        <ele>57.4807</ele>
        <time>2020-08-09T07:27:39Z</time>
      </trkpt>
      <trkpt lat="47.31395" lon="-1.46771">
        <ele>57.5016</ele>
        <time>2020-08-09T07:27:40Z</time>
      </trkpt>
      <trkpt lat="47.31392" lon="-1.46776">
        <ele>57.522</ele>
        <time>2020-08-09T07:27:41Z</time>
      </trkpt>
      <trkpt lat="47.31389" lon="-1.46785">
        <ele>57.5621</ele>
        <time>2020-08-09T07:27:43Z</time>
      </trkpt>
      <trkpt lat="47.31381" lon="-1.46799">
        <ele>57.6361</ele>
        <time>2020-08-09T07:27:47Z</time>
      </trkpt>
      <trkpt lat="47.31375" lon="-1.46806">
        <ele>57.6736</ele>
        <time>2020-08-09T07:27:49Z</time>
      </trkpt>
      <trkpt lat="47.31371" lon="-1.46815">
        <ele>57.7107</ele>
        <time>2020-08-09T07:27:51Z</time>
      </trkpt>
      <trkpt lat="47.31366" lon="-1.46823">
        <ele>57.7492</ele>
        <time>2020-08-09T07:27:53Z</time>
      </trkpt>
      <trkpt lat="47.31363" lon="-1.46827">
        <ele>57.7683</ele>
        <time>2020-08-09T07:27:54Z</time>
      </trkpt>
      <trkpt lat="47.31359" lon="-1.46834">
        <ele>57.8073</ele>
        <time>2020-08-09T07:27:56Z</time>
      </trkpt>
      <trkpt lat="47.31354" lon="-1.46844">
        <ele>58.0459</ele>
        <time>2020-08-09T07:27:58Z</time>
      </trkpt>
      <trkpt lat="47.31351" lon="-1.46855">
        <ele>58.2479</ele>
        <time>2020-08-09T07:28:00Z</time>
      </trkpt>
      <trkpt lat="47.31346" lon="-1.46862">
        <ele>58.2821</ele>
        <time>2020-08-09T07:28:02Z</time>
      </trkpt>
      <trkpt lat="47.31341" lon="-1.46872">
        <ele>58.3364</ele>
        <time>2020-08-09T07:28:05Z</time>
      </trkpt>
      <trkpt lat="47.31339" lon="-1.46881">
        <ele>58.3733</ele>
        <time>2020-08-09T07:28:07Z</time>
      </trkpt>
      <trkpt lat="47.31336" lon="-1.46888">
        <ele>58.4098</ele>
        <time>2020-08-09T07:28:09Z</time>
      </trkpt>
      <trkpt lat="47.31332" lon="-1.46897">
        <ele>58.446</ele>
        <time>2020-08-09T07:28:11Z</time>
      </trkpt>
      <trkpt lat="47.31328" lon="-1.46903">
        <ele>58.4812</ele>
        <time>2020-08-09T07:28:13Z</time>
      </trkpt>
      <trkpt lat="47.31326" lon="-1.46906">
        <ele>58.4992</ele>
        <time>2020-08-09T07:28:14Z</time>
      </trkpt>
      <trkpt lat="47.31324" lon="-1.4691">
        <ele>58.5171</ele>
        <time>2020-08-09T07:28:15Z</time>
      </trkpt>
      <trkpt lat="47.3132" lon="-1.46915">
        <ele>58.5541</ele>
        <time>2020-08-09T07:28:17Z</time>
      </trkpt>
      <trkpt lat="47.31317" lon="-1.46921">
        <ele>58.5912</ele>
        <time>2020-08-09T07:28:19Z</time>
      </trkpt>
      <trkpt lat="47.31314" lon="-1.46926">
        <ele>58.6291</ele>
        <time>2020-08-09T07:28:21Z</time>
      </trkpt>
      <trkpt lat="47.31308" lon="-1.46936">
        <ele>58.6851</ele>
        <time>2020-08-09T07:28:24Z</time>
      </trkpt>
      <trkpt lat="47.313" lon="-1.46946">
        <ele>58.7395</ele>
        <time>2020-08-09T07:28:27Z</time>
      </trkpt>
      <trkpt lat="47.31297" lon="-1.46949">
        <ele>58.757</ele>
        <time>2020-08-09T07:28:28Z</time>
      </trkpt>
      <trkpt lat="47.31295" lon="-1.46956">
        <ele>58.7903</ele>
        <time>2020-08-09T07:28:30Z</time>
      </trkpt>
      <trkpt lat="47.31292" lon="-1.46962">
        <ele>58.8211</ele>
        <time>2020-08-09T07:28:32Z</time>
      </trkpt>
      <trkpt lat="47.31288" lon="-1.46967">
        <ele>58.8487</ele>
        <time>2020-08-09T07:28:34Z</time>
      </trkpt>
      <trkpt lat="47.31284" lon="-1.46973">
        <ele>58.8741</ele>
        <time>2020-08-09T07:28:36Z</time>
      </trkpt>
      <trkpt lat="47.31283" lon="-1.46976">
        <ele>58.8861</ele>
        <time>2020-08-09T07:28:37Z</time>
      </trkpt>
      <trkpt lat="47.31279" lon="-1.46982">
        <ele>58.9221</ele>
        <time>2020-08-09T07:28:40Z</time>
      </trkpt>
      <trkpt lat="47.31272" lon="-1.46994">
        <ele>58.9705</ele>
        <time>2020-08-09T07:28:44Z</time>
      </trkpt>
      <trkpt lat="47.31265" lon="-1.46999">
        <ele>58.997</ele>
        <time>2020-08-09T07:28:46Z</time>
      </trkpt>
      <trkpt lat="47.31262" lon="-1.47005">
        <ele>59.0243</ele>
        <time>2020-08-09T07:28:48Z</time>
      </trkpt>
      <trkpt lat="47.31259" lon="-1.47011">
        <ele>59.0516</ele>
        <time>2020-08-09T07:28:50Z</time>
      </trkpt>
      <trkpt lat="47.31257" lon="-1.47014">
        <ele>59.0646</ele>
        <time>2020-08-09T07:28:51Z</time>
      </trkpt>
      <trkpt lat="47.3125" lon="-1.47021">
        <ele>59.0903</ele>
        <time>2020-08-09T07:28:53Z</time>
      </trkpt>
      <trkpt lat="47.31246" lon="-1.47028">
        <ele>59.1138</ele>
        <time>2020-08-09T07:28:55Z</time>
      </trkpt>
      <trkpt lat="47.31244" lon="-1.47031">
        <ele>59.1248</ele>
        <time>2020-08-09T07:28:56Z</time>
      </trkpt>
      <trkpt lat="47.31242" lon="-1.47033">
        <ele>59.136</ele>
        <time>2020-08-09T07:28:57Z</time>
      </trkpt>
      <trkpt lat="47.31236" lon="-1.47042">
        <ele>59.1699</ele>
        <time>2020-08-09T07:29:00Z</time>
      </trkpt>
      <trkpt lat="47.31232" lon="-1.47051">
        <ele>59.188</ele>
        <time>2020-08-09T07:29:02Z</time>
      </trkpt>
      <trkpt lat="47.3123" lon="-1.47057">
        <ele>59.2046</ele>
        <time>2020-08-09T07:29:04Z</time>
      </trkpt>
      <trkpt lat="47.31226" lon="-1.47063">
        <ele>59.2298</ele>
        <time>2020-08-09T07:29:07Z</time>
      </trkpt>
      <trkpt lat="47.31223" lon="-1.47066">
        <ele>59.2375</ele>
        <time>2020-08-09T07:29:08Z</time>
      </trkpt>
      <trkpt lat="47.31221" lon="-1.4707">
        <ele>59.2449</ele>
        <time>2020-08-09T07:29:09Z</time>
      </trkpt>
      <trkpt lat="47.31217" lon="-1.47077">
        <ele>59.2578</ele>
        <time>2020-08-09T07:29:11Z</time>
      </trkpt>
      <trkpt lat="47.31216" lon="-1.47081">
        <ele>59.2632</ele>
        <time>2020-08-09T07:29:12Z</time>
      </trkpt>
      <trkpt lat="47.31211" lon="-1.47088">
        <ele>59.2749</ele>
        <time>2020-08-09T07:29:14Z</time>
      </trkpt>
      <trkpt lat="47.31209" lon="-1.47091">
        <ele>59.2807</ele>
        <time>2020-08-09T07:29:15Z</time>
      </trkpt>
      <trkpt lat="47.31204" lon="-1.47098">
        <ele>59.2897</ele>
        <time>2020-08-09T07:29:17Z</time>
      </trkpt>
      <trkpt lat="47.31201" lon="-1.47104">
        <ele>59.2992</ele>
        <time>2020-08-09T07:29:19Z</time>
      </trkpt>
      <trkpt lat="47.31199" lon="-1.47109">
        <ele>59.3038</ele>
        <time>2020-08-09T07:29:20Z</time>
      </trkpt>
      <trkpt lat="47.31194" lon="-1.47116">
        <ele>59.3132</ele>
        <time>2020-08-09T07:29:22Z</time>
      </trkpt>
      <trkpt lat="47.31192" lon="-1.47119">
        <ele>59.3181</ele>
        <time>2020-08-09T07:29:23Z</time>
      </trkpt>
      <trkpt lat="47.31189" lon="-1.47123">
        <ele>59.3219</ele>
        <time>2020-08-09T07:29:24Z</time>
      </trkpt>
      <trkpt lat="47.31181" lon="-1.47137">
        <ele>59.3319</ele>
        <time>2020-08-09T07:29:27Z</time>
      </trkpt>
      <trkpt lat="47.31175" lon="-1.47145">
        <ele>59.3409</ele>
        <time>2020-08-09T07:29:29Z</time>
      </trkpt>
      <trkpt lat="47.31172" lon="-1.47151">
        <ele>59.3451</ele>
        <time>2020-08-09T07:29:30Z</time>
      </trkpt>
      <trkpt lat="47.3117" lon="-1.47156">
        <ele>59.3483</ele>
        <time>2020-08-09T07:29:31Z</time>
      </trkpt>
      <trkpt lat="47.31167" lon="-1.47166">
        <ele>59.3544</ele>
        <time>2020-08-09T07:29:33Z</time>
      </trkpt>
      <trkpt lat="47.31164" lon="-1.47173">
        <ele>59.3593</ele>
        <time>2020-08-09T07:29:35Z</time>
      </trkpt>
      <trkpt lat="47.3116" lon="-1.47182">
        <ele>59.3619</ele>
        <time>2020-08-09T07:29:37Z</time>
      </trkpt>
      <trkpt lat="47.31157" lon="-1.47188">
        <ele>59.3624</ele>
        <time>2020-08-09T07:29:39Z</time>
      </trkpt>
      <trkpt lat="47.31155" lon="-1.47191">
        <ele>59.3625</ele>
        <time>2020-08-09T07:29:40Z</time>
      </trkpt>
      <trkpt lat="47.31153" lon="-1.47194">
        <ele>59.3625</ele>
        <time>2020-08-09T07:29:41Z</time>
      </trkpt>
      <trkpt lat="47.3115" lon="-1.47197">
        <ele>59.3618</ele>
        <time>2020-08-09T07:29:42Z</time>
      </trkpt>
      <trkpt lat="47.31149" lon="-1.472">
        <ele>59.3615</ele>
        <time>2020-08-09T07:29:43Z</time>
      </trkpt>
      <trkpt lat="47.31146" lon="-1.47205">
        <ele>59.3602</ele>
        <time>2020-08-09T07:29:45Z</time>
      </trkpt>
      <trkpt lat="47.31144" lon="-1.47208">
        <ele>59.3589</ele>
        <time>2020-08-09T07:29:46Z</time>
      </trkpt>
      <trkpt lat="47.31139" lon="-1.47213">
        <ele>59.3556</ele>
        <time>2020-08-09T07:29:48Z</time>
      </trkpt>
      <trkpt lat="47.31136" lon="-1.47219">
        <ele>59.3536</ele>
        <time>2020-08-09T07:29:50Z</time>
      </trkpt>
      <trkpt lat="47.31131" lon="-1.47229">
        <ele>59.3476</ele>
        <time>2020-08-09T07:29:53Z</time>
      </trkpt>
      <trkpt lat="47.31126" lon="-1.47234">
        <ele>59.3429</ele>
        <time>2020-08-09T07:29:55Z</time>
      </trkpt>
      <trkpt lat="47.31123" lon="-1.4724">
        <ele>59.3368</ele>
        <time>2020-08-09T07:29:57Z</time>
      </trkpt>
      <trkpt lat="47.31117" lon="-1.47251">
        <ele>59.3244</ele>
        <time>2020-08-09T07:30:00Z</time>
      </trkpt>
      <trkpt lat="47.31116" lon="-1.47254">
        <ele>59.3197</ele>
        <time>2020-08-09T07:30:01Z</time>
      </trkpt>
      <trkpt lat="47.31111" lon="-1.4726">
        <ele>59.3053</ele>
        <time>2020-08-09T07:30:04Z</time>
      </trkpt>
      <trkpt lat="47.31105" lon="-1.47263">
        <ele>59.2948</ele>
        <time>2020-08-09T07:30:06Z</time>
      </trkpt>
      <trkpt lat="47.31102" lon="-1.47264">
        <ele>59.2893</ele>
        <time>2020-08-09T07:30:07Z</time>
      </trkpt>
      <trkpt lat="47.31098" lon="-1.47266">
        <ele>59.2781</ele>
        <time>2020-08-09T07:30:09Z</time>
      </trkpt>
      <trkpt lat="47.31095" lon="-1.47272">
        <ele>59.2664</ele>
        <time>2020-08-09T07:30:11Z</time>
      </trkpt>
      <trkpt lat="47.31092" lon="-1.47281">
        <ele>59.2534</ele>
        <time>2020-08-09T07:30:13Z</time>
      </trkpt>
      <trkpt lat="47.31088" lon="-1.47288">
        <ele>59.2391</ele>
        <time>2020-08-09T07:30:15Z</time>
      </trkpt>
      <trkpt lat="47.31083" lon="-1.473">
        <ele>59.2174</ele>
        <time>2020-08-09T07:30:18Z</time>
      </trkpt>
      <trkpt lat="47.31079" lon="-1.47306">
        <ele>59.2053</ele>
        <time>2020-08-09T07:30:20Z</time>
      </trkpt>
      <trkpt lat="47.31076" lon="-1.47313">
        <ele>59.195</ele>
        <time>2020-08-09T07:30:22Z</time>
      </trkpt>
      <trkpt lat="47.31071" lon="-1.47326">
        <ele>59.1787</ele>
        <time>2020-08-09T07:30:25Z</time>
      </trkpt>
      <trkpt lat="47.31067" lon="-1.47333">
        <ele>59.1707</ele>
        <time>2020-08-09T07:30:27Z</time>
      </trkpt>
      <trkpt lat="47.31065" lon="-1.47336">
        <ele>59.1677</ele>
        <time>2020-08-09T07:30:28Z</time>
      </trkpt>
      <trkpt lat="47.31063" lon="-1.47339">
        <ele>59.165</ele>
        <time>2020-08-09T07:30:29Z</time>
      </trkpt>
      <trkpt lat="47.31061" lon="-1.47345">
        <ele>59.1596</ele>
        <time>2020-08-09T07:30:31Z</time>
      </trkpt>
      <trkpt lat="47.31057" lon="-1.47352">
        <ele>59.1542</ele>
        <time>2020-08-09T07:30:33Z</time>
      </trkpt>
      <trkpt lat="47.31053" lon="-1.47358">
        <ele>59.149</ele>
        <time>2020-08-09T07:30:35Z</time>
      </trkpt>
      <trkpt lat="47.3105" lon="-1.47363">
        <ele>59.1427</ele>
        <time>2020-08-09T07:30:37Z</time>
      </trkpt>
      <trkpt lat="47.31048" lon="-1.47366">
        <ele>59.14</ele>
        <time>2020-08-09T07:30:38Z</time>
      </trkpt>
      <trkpt lat="47.31044" lon="-1.47372">
        <ele>59.1353</ele>
        <time>2020-08-09T07:30:40Z</time>
      </trkpt>
      <trkpt lat="47.31039" lon="-1.47383">
        <ele>59.1337</ele>
        <time>2020-08-09T07:30:44Z</time>
      </trkpt>
      <trkpt lat="47.31036" lon="-1.47387">
        <ele>59.1356</ele>
        <time>2020-08-09T07:30:46Z</time>
      </trkpt>
      <trkpt lat="47.31034" lon="-1.4739">
        <ele>59.1371</ele>
        <time>2020-08-09T07:30:47Z</time>
      </trkpt>
      <trkpt lat="47.31032" lon="-1.47393">
        <ele>59.1387</ele>
        <time>2020-08-09T07:30:48Z</time>
      </trkpt>
      <trkpt lat="47.31026" lon="-1.47401">
        <ele>59.1429</ele>
        <time>2020-08-09T07:30:51Z</time>
      </trkpt>
      <trkpt lat="47.31022" lon="-1.47406">
        <ele>59.1444</ele>
        <time>2020-08-09T07:30:53Z</time>
      </trkpt>
      <trkpt lat="47.31018" lon="-1.47414">
        <ele>59.1445</ele>
        <time>2020-08-09T07:30:55Z</time>
      </trkpt>
      <trkpt lat="47.31013" lon="-1.47421">
        <ele>59.1471</ele>
        <time>2020-08-09T07:30:58Z</time>
      </trkpt>
      <trkpt lat="47.31008" lon="-1.47429">
        <ele>59.1465</ele>
        <time>2020-08-09T07:31:00Z</time>
      </trkpt>
      <trkpt lat="47.31004" lon="-1.47434">
        <ele>59.1452</ele>
        <time>2020-08-09T07:31:02Z</time>
      </trkpt>
      <trkpt lat="47.31002" lon="-1.47437">
        <ele>59.1447</ele>
        <time>2020-08-09T07:31:03Z</time>
      </trkpt>
      <trkpt lat="47.30999" lon="-1.47444">
        <ele>59.1438</ele>
        <time>2020-08-09T07:31:05Z</time>
      </trkpt>
      <trkpt lat="47.30995" lon="-1.47453">
        <ele>59.1426</ele>
        <time>2020-08-09T07:31:07Z</time>
      </trkpt>
      <trkpt lat="47.30991" lon="-1.47458">
        <ele>59.1421</ele>
        <time>2020-08-09T07:31:09Z</time>
      </trkpt>
      <trkpt lat="47.30987" lon="-1.47465">
        <ele>59.1411</ele>
        <time>2020-08-09T07:31:12Z</time>
      </trkpt>
      <trkpt lat="47.30985" lon="-1.47469">
        <ele>59.1408</ele>
        <time>2020-08-09T07:31:14Z</time>
      </trkpt>
      <trkpt lat="47.3098" lon="-1.47472">
        <ele>59.1401</ele>
        <time>2020-08-09T07:31:16Z</time>
      </trkpt>
      <trkpt lat="47.30978" lon="-1.47474">
        <ele>59.1396</ele>
        <time>2020-08-09T07:31:17Z</time>
      </trkpt>
      <trkpt lat="47.30973" lon="-1.47479">
        <ele>59.139</ele>
        <time>2020-08-09T07:31:19Z</time>
      </trkpt>
      <trkpt lat="47.30969" lon="-1.47484">
        <ele>59.1387</ele>
        <time>2020-08-09T07:31:21Z</time>
      </trkpt>
      <trkpt lat="47.30966" lon="-1.47491">
        <ele>59.1387</ele>
        <time>2020-08-09T07:31:23Z</time>
      </trkpt>
      <trkpt lat="47.30964" lon="-1.47494">
        <ele>59.1388</ele>
        <time>2020-08-09T07:31:24Z</time>
      </trkpt>
      <trkpt lat="47.30963" lon="-1.47497">
        <ele>59.1387</ele>
        <time>2020-08-09T07:31:25Z</time>
      </trkpt>
      <trkpt lat="47.30961" lon="-1.47502">
        <ele>59.1388</ele>
        <time>2020-08-09T07:31:26Z</time>
      </trkpt>
      <trkpt lat="47.3096" lon="-1.47506">
        <ele>59.1387</ele>
        <time>2020-08-09T07:31:27Z</time>
      </trkpt>
      <trkpt lat="47.30957" lon="-1.47513">
        <ele>59.1385</ele>
        <time>2020-08-09T07:31:29Z</time>
      </trkpt>
      <trkpt lat="47.30953" lon="-1.47519">
        <ele>59.1381</ele>
        <time>2020-08-09T07:31:31Z</time>
      </trkpt>
      <trkpt lat="47.30951" lon="-1.47522">
        <ele>59.1378</ele>
        <time>2020-08-09T07:31:32Z</time>
      </trkpt>
      <trkpt lat="47.30948" lon="-1.47528">
        <ele>59.137</ele>
        <time>2020-08-09T07:31:34Z</time>
      </trkpt>
      <trkpt lat="47.30945" lon="-1.47535">
        <ele>59.1357</ele>
        <time>2020-08-09T07:31:38Z</time>
      </trkpt>
      <trkpt lat="47.30941" lon="-1.47543">
        <ele>59.1327</ele>
        <time>2020-08-09T07:31:40Z</time>
      </trkpt>
      <trkpt lat="47.30936" lon="-1.47552">
        <ele>59.1285</ele>
        <time>2020-08-09T07:31:43Z</time>
      </trkpt>
      <trkpt lat="47.3093" lon="-1.47558">
        <ele>59.1267</ele>
        <time>2020-08-09T07:31:45Z</time>
      </trkpt>
      <trkpt lat="47.30926" lon="-1.47565">
        <ele>59.126</ele>
        <time>2020-08-09T07:31:47Z</time>
      </trkpt>
      <trkpt lat="47.30923" lon="-1.47569">
        <ele>59.1255</ele>
        <time>2020-08-09T07:31:48Z</time>
      </trkpt>
      <trkpt lat="47.30919" lon="-1.47576">
        <ele>59.1244</ele>
        <time>2020-08-09T07:31:49Z</time>
      </trkpt>
      <trkpt lat="47.30917" lon="-1.47581">
        <ele>59.1239</ele>
        <time>2020-08-09T07:31:50Z</time>
      </trkpt>
      <trkpt lat="47.30911" lon="-1.47586">
        <ele>59.1251</ele>
        <time>2020-08-09T07:31:53Z</time>
      </trkpt>
      <trkpt lat="47.30908" lon="-1.47593">
        <ele>59.1284</ele>
        <time>2020-08-09T07:31:55Z</time>
      </trkpt>
      <trkpt lat="47.30904" lon="-1.47597">
        <ele>59.1361</ele>
        <time>2020-08-09T07:31:58Z</time>
      </trkpt>
      <trkpt lat="47.30899" lon="-1.47603">
        <ele>59.1429</ele>
        <time>2020-08-09T07:32:00Z</time>
      </trkpt>
      <trkpt lat="47.30896" lon="-1.47608">
        <ele>59.147</ele>
        <time>2020-08-09T07:32:01Z</time>
      </trkpt>
      <trkpt lat="47.30893" lon="-1.47616">
        <ele>59.1575</ele>
        <time>2020-08-09T07:32:03Z</time>
      </trkpt>
      <trkpt lat="47.30887" lon="-1.47624">
        <ele>59.1763</ele>
        <time>2020-08-09T07:32:06Z</time>
      </trkpt>
      <trkpt lat="47.30882" lon="-1.47634">
        <ele>59.1889</ele>
        <time>2020-08-09T07:32:08Z</time>
      </trkpt>
      <trkpt lat="47.30878" lon="-1.47638">
        <ele>59.2018</ele>
        <time>2020-08-09T07:32:10Z</time>
      </trkpt>
      <trkpt lat="47.30875" lon="-1.47645">
        <ele>59.214</ele>
        <time>2020-08-09T07:32:12Z</time>
      </trkpt>
      <trkpt lat="47.30873" lon="-1.47649">
        <ele>59.22</ele>
        <time>2020-08-09T07:32:13Z</time>
      </trkpt>
      <trkpt lat="47.30871" lon="-1.47653">
        <ele>59.226</ele>
        <time>2020-08-09T07:32:14Z</time>
      </trkpt>
      <trkpt lat="47.30869" lon="-1.47656">
        <ele>59.2318</ele>
        <time>2020-08-09T07:32:15Z</time>
      </trkpt>
      <trkpt lat="47.30866" lon="-1.47664">
        <ele>59.2419</ele>
        <time>2020-08-09T07:32:17Z</time>
      </trkpt>
      <trkpt lat="47.30864" lon="-1.47668">
        <ele>59.2458</ele>
        <time>2020-08-09T07:32:18Z</time>
      </trkpt>
      <trkpt lat="47.30862" lon="-1.47672">
        <ele>59.2522</ele>
        <time>2020-08-09T07:32:20Z</time>
      </trkpt>
      <trkpt lat="47.30859" lon="-1.47678">
        <ele>59.2561</ele>
        <time>2020-08-09T07:32:22Z</time>
      </trkpt>
      <trkpt lat="47.30853" lon="-1.47685">
        <ele>59.2601</ele>
        <time>2020-08-09T07:32:25Z</time>
      </trkpt>
      <trkpt lat="47.30851" lon="-1.47687">
        <ele>59.2605</ele>
        <time>2020-08-09T07:32:26Z</time>
      </trkpt>
      <trkpt lat="47.30847" lon="-1.47694">
        <ele>59.2602</ele>
        <time>2020-08-09T07:32:28Z</time>
      </trkpt>
      <trkpt lat="47.30843" lon="-1.47699">
        <ele>59.2612</ele>
        <time>2020-08-09T07:32:30Z</time>
      </trkpt>
      <trkpt lat="47.30841" lon="-1.47702">
        <ele>59.2618</ele>
        <time>2020-08-09T07:32:31Z</time>
      </trkpt>
      <trkpt lat="47.30838" lon="-1.47709">
        <ele>59.2635</ele>
        <time>2020-08-09T07:32:34Z</time>
      </trkpt>
      <trkpt lat="47.30834" lon="-1.47714">
        <ele>59.2649</ele>
        <time>2020-08-09T07:32:36Z</time>
      </trkpt>
      <trkpt lat="47.30831" lon="-1.47719">
        <ele>59.2668</ele>
        <time>2020-08-09T07:32:38Z</time>
      </trkpt>
      <trkpt lat="47.3083" lon="-1.47723">
        <ele>59.2683</ele>
        <time>2020-08-09T07:32:39Z</time>
      </trkpt>
      <trkpt lat="47.30826" lon="-1.47728">
        <ele>59.2716</ele>
        <time>2020-08-09T07:32:41Z</time>
      </trkpt>
      <trkpt lat="47.30822" lon="-1.47734">
        <ele>59.2786</ele>
        <time>2020-08-09T07:32:44Z</time>
      </trkpt>
      <trkpt lat="47.30817" lon="-1.47739">
        <ele>59.2819</ele>
        <time>2020-08-09T07:32:46Z</time>
      </trkpt>
      <trkpt lat="47.30814" lon="-1.47746">
        <ele>59.2841</ele>
        <time>2020-08-09T07:32:48Z</time>
      </trkpt>
      <trkpt lat="47.30813" lon="-1.4775">
        <ele>59.2849</ele>
        <time>2020-08-09T07:32:49Z</time>
      </trkpt>
      <trkpt lat="47.30811" lon="-1.47755">
        <ele>59.2859</ele>
        <time>2020-08-09T07:32:50Z</time>
      </trkpt>
      <trkpt lat="47.30809" lon="-1.47762">
        <ele>59.2868</ele>
        <time>2020-08-09T07:32:51Z</time>
      </trkpt>
      <trkpt lat="47.30806" lon="-1.47768">
        <ele>59.2872</ele>
        <time>2020-08-09T07:32:52Z</time>
      </trkpt>
      <trkpt lat="47.30804" lon="-1.47773">
        <ele>59.2872</ele>
        <time>2020-08-09T07:32:53Z</time>
      </trkpt>
      <trkpt lat="47.308" lon="-1.47784">
        <ele>59.2837</ele>
        <time>2020-08-09T07:32:55Z</time>
      </trkpt>
      <trkpt lat="47.30795" lon="-1.47791">
        <ele>59.2777</ele>
        <time>2020-08-09T07:32:57Z</time>
      </trkpt>
      <trkpt lat="47.30793" lon="-1.47793">
        <ele>59.2742</ele>
        <time>2020-08-09T07:32:58Z</time>
      </trkpt>
      <trkpt lat="47.30788" lon="-1.478">
        <ele>59.2645</ele>
        <time>2020-08-09T07:33:01Z</time>
      </trkpt>
      <trkpt lat="47.30784" lon="-1.47804">
        <ele>59.2588</ele>
        <time>2020-08-09T07:33:03Z</time>
      </trkpt>
      <trkpt lat="47.3078" lon="-1.4781">
        <ele>59.253</ele>
        <time>2020-08-09T07:33:05Z</time>
      </trkpt>
      <trkpt lat="47.30777" lon="-1.47816">
        <ele>59.2486</ele>
        <time>2020-08-09T07:33:07Z</time>
      </trkpt>
      <trkpt lat="47.30775" lon="-1.47818">
        <ele>59.2471</ele>
        <time>2020-08-09T07:33:08Z</time>
      </trkpt>
      <trkpt lat="47.30772" lon="-1.47823">
        <ele>59.2441</ele>
        <time>2020-08-09T07:33:10Z</time>
      </trkpt>
      <trkpt lat="47.30768" lon="-1.47826">
        <ele>59.2422</ele>
        <time>2020-08-09T07:33:12Z</time>
      </trkpt>
      <trkpt lat="47.30764" lon="-1.47832">
        <ele>59.242</ele>
        <time>2020-08-09T07:33:14Z</time>
      </trkpt>
      <trkpt lat="47.30762" lon="-1.47834">
        <ele>59.2423</ele>
        <time>2020-08-09T07:33:15Z</time>
      </trkpt>
      <trkpt lat="47.30758" lon="-1.47841">
        <ele>59.2435</ele>
        <time>2020-08-09T07:33:17Z</time>
      </trkpt>
      <trkpt lat="47.30754" lon="-1.47847">
        <ele>59.2451</ele>
        <time>2020-08-09T07:33:19Z</time>
      </trkpt>
      <trkpt lat="47.3075" lon="-1.47852">
        <ele>59.2474</ele>
        <time>2020-08-09T07:33:22Z</time>
      </trkpt>
      <trkpt lat="47.30747" lon="-1.47859">
        <ele>59.2491</ele>
        <time>2020-08-09T07:33:24Z</time>
      </trkpt>
      <trkpt lat="47.30745" lon="-1.47864">
        <ele>59.2502</ele>
        <time>2020-08-09T07:33:25Z</time>
      </trkpt>
      <trkpt lat="47.30742" lon="-1.47872">
        <ele>59.2519</ele>
        <time>2020-08-09T07:33:27Z</time>
      </trkpt>
      <trkpt lat="47.30738" lon="-1.47878">
        <ele>59.2526</ele>
        <time>2020-08-09T07:33:29Z</time>
      </trkpt>
      <trkpt lat="47.30735" lon="-1.47883">
        <ele>59.253</ele>
        <time>2020-08-09T07:33:31Z</time>
      </trkpt>
      <trkpt lat="47.30732" lon="-1.47888">
        <ele>59.2547</ele>
        <time>2020-08-09T07:33:33Z</time>
      </trkpt>
      <trkpt lat="47.30731" lon="-1.47891">
        <ele>59.2557</ele>
        <time>2020-08-09T07:33:34Z</time>
      </trkpt>
      <trkpt lat="47.30729" lon="-1.47895">
        <ele>59.2566</ele>
        <time>2020-08-09T07:33:35Z</time>
      </trkpt>
      <trkpt lat="47.30726" lon="-1.47903">
        <ele>59.2567</ele>
        <time>2020-08-09T07:33:37Z</time>
      </trkpt>
      <trkpt lat="47.30721" lon="-1.4791">
        <ele>59.2587</ele>
        <time>2020-08-09T07:33:39Z</time>
      </trkpt>
      <trkpt lat="47.30722" lon="-1.47919">
        <ele>59.2548</ele>
        <time>2020-08-09T07:33:42Z</time>
      </trkpt>
      <trkpt lat="47.30731" lon="-1.47918">
        <ele>59.2274</ele>
        <time>2020-08-09T07:33:47Z</time>
      </trkpt>
      <trkpt lat="47.30735" lon="-1.47923">
        <ele>59.1986</ele>
        <time>2020-08-09T07:33:51Z</time>
      </trkpt>
      <trkpt lat="47.30741" lon="-1.47923">
        <ele>59.1846</ele>
        <time>2020-08-09T07:33:53Z</time>
      </trkpt>
      <trkpt lat="47.30745" lon="-1.47922">
        <ele>59.1691</ele>
        <time>2020-08-09T07:33:55Z</time>
      </trkpt>
      <trkpt lat="47.30745" lon="-1.47922">
        <ele>10.2</ele>
        <time>2020-08-09T07:34:00Z</time>
      </trkpt>
      <trkpt lat="47.30745" lon="-1.47922">
        <ele>10.2</ele>
        <time>2020-08-09T07:37:16Z</time>
      </trkpt>
      <trkpt lat="47.30755" lon="-1.47943">
        <ele>57.0551</ele>
        <time>2020-08-09T07:37:16Z</time>
      </trkpt>
      <trkpt lat="47.3076" lon="-1.47942">
        <ele>57.0254</ele>
        <time>2020-08-09T07:37:20Z</time>
      </trkpt>
      <trkpt lat="47.30764" lon="-1.47941">
        <ele>57.006</ele>
        <time>2020-08-09T07:37:23Z</time>
      </trkpt>
      <trkpt lat="47.30778" lon="-1.47941">
        <ele>56.9628</ele>
        <time>2020-08-09T07:37:27Z</time>
      </trkpt>
      <trkpt lat="47.30782" lon="-1.47941">
        <ele>56.954</ele>
        <time>2020-08-09T07:37:29Z</time>
      </trkpt>
      <trkpt lat="47.30787" lon="-1.47941">
        <ele>56.9389</ele>
        <time>2020-08-09T07:37:31Z</time>
      </trkpt>
      <trkpt lat="47.30791" lon="-1.47944">
        <ele>56.9053</ele>
        <time>2020-08-09T07:37:33Z</time>
      </trkpt>
      <trkpt lat="47.30794" lon="-1.47946">
        <ele>56.8839</ele>
        <time>2020-08-09T07:37:34Z</time>
      </trkpt>
      <trkpt lat="47.30796" lon="-1.47948">
        <ele>56.8549</ele>
        <time>2020-08-09T07:37:35Z</time>
      </trkpt>
      <trkpt lat="47.30797" lon="-1.47956">
        <ele>56.7475</ele>
        <time>2020-08-09T07:37:38Z</time>
      </trkpt>
      <trkpt lat="47.30796" lon="-1.47963">
        <ele>56.6765</ele>
        <time>2020-08-09T07:37:40Z</time>
      </trkpt>
      <trkpt lat="47.30783" lon="-1.48003">
        <ele>55.0605</ele>
        <time>2020-08-09T07:37:51Z</time>
      </trkpt>
      <trkpt lat="47.30777" lon="-1.48011">
        <ele>55.0495</ele>
        <time>2020-08-09T07:37:54Z</time>
      </trkpt>
      <trkpt lat="47.30773" lon="-1.48018">
        <ele>55.0476</ele>
        <time>2020-08-09T07:37:56Z</time>
      </trkpt>
      <trkpt lat="47.30771" lon="-1.48024">
        <ele>55.0329</ele>
        <time>2020-08-09T07:37:58Z</time>
      </trkpt>
      <trkpt lat="47.3077" lon="-1.48027">
        <ele>55.0239</ele>
        <time>2020-08-09T07:37:59Z</time>
      </trkpt>
      <trkpt lat="47.30768" lon="-1.4803">
        <ele>55.0113</ele>
        <time>2020-08-09T07:38:00Z</time>
      </trkpt>
      <trkpt lat="47.30767" lon="-1.48033">
        <ele>54.9969</ele>
        <time>2020-08-09T07:38:01Z</time>
      </trkpt>
      <trkpt lat="47.30764" lon="-1.48042">
        <ele>54.9408</ele>
        <time>2020-08-09T07:38:04Z</time>
      </trkpt>
      <trkpt lat="47.30763" lon="-1.48046">
        <ele>54.9206</ele>
        <time>2020-08-09T07:38:05Z</time>
      </trkpt>
      <trkpt lat="47.30762" lon="-1.4805">
        <ele>54.9002</ele>
        <time>2020-08-09T07:38:06Z</time>
      </trkpt>
      <trkpt lat="47.30762" lon="-1.48058">
        <ele>54.8623</ele>
        <time>2020-08-09T07:38:08Z</time>
      </trkpt>
      <trkpt lat="47.30762" lon="-1.48066">
        <ele>54.8229</ele>
        <time>2020-08-09T07:38:10Z</time>
      </trkpt>
      <trkpt lat="47.30762" lon="-1.48074">
        <ele>54.7783</ele>
        <time>2020-08-09T07:38:13Z</time>
      </trkpt>
      <trkpt lat="47.30762" lon="-1.48078">
        <ele>54.7649</ele>
        <time>2020-08-09T07:38:14Z</time>
      </trkpt>
      <trkpt lat="47.30764" lon="-1.48086">
        <ele>54.7425</ele>
        <time>2020-08-09T07:38:16Z</time>
      </trkpt>
      <trkpt lat="47.30767" lon="-1.48091">
        <ele>54.7261</ele>
        <time>2020-08-09T07:38:18Z</time>
      </trkpt>
      <trkpt lat="47.30772" lon="-1.48094">
        <ele>54.7081</ele>
        <time>2020-08-09T07:38:21Z</time>
      </trkpt>
      <trkpt lat="47.30777" lon="-1.48085">
        <ele>54.6996</ele>
        <time>2020-08-09T07:38:24Z</time>
      </trkpt>
      <trkpt lat="47.30779" lon="-1.48079">
        <ele>54.6978</ele>
        <time>2020-08-09T07:38:26Z</time>
      </trkpt>
      <trkpt lat="47.30779" lon="-1.48072">
        <ele>54.6979</ele>
        <time>2020-08-09T07:38:28Z</time>
      </trkpt>
      <trkpt lat="47.30779" lon="-1.48067">
        <ele>54.6973</ele>
        <time>2020-08-09T07:38:29Z</time>
      </trkpt>
      <trkpt lat="47.30779" lon="-1.48062">
        <ele>54.6993</ele>
        <time>2020-08-09T07:38:30Z</time>
      </trkpt>
      <trkpt lat="47.30778" lon="-1.48053">
        <ele>54.713</ele>
        <time>2020-08-09T07:38:32Z</time>
      </trkpt>
      <trkpt lat="47.30778" lon="-1.48044">
        <ele>54.7414</ele>
        <time>2020-08-09T07:38:35Z</time>
      </trkpt>
      <trkpt lat="47.3078" lon="-1.48037">
        <ele>54.7681</ele>
        <time>2020-08-09T07:38:38Z</time>
      </trkpt>
      <trkpt lat="47.30787" lon="-1.48041">
        <ele>54.8368</ele>
        <time>2020-08-09T07:38:43Z</time>
      </trkpt>
      <trkpt lat="47.3079" lon="-1.48047">
        <ele>54.8754</ele>
        <time>2020-08-09T07:38:45Z</time>
      </trkpt>
      <trkpt lat="47.30795" lon="-1.48052">
        <ele>54.9204</ele>
        <time>2020-08-09T07:38:47Z</time>
      </trkpt>
      <trkpt lat="47.30797" lon="-1.4806">
        <ele>54.9682</ele>
        <time>2020-08-09T07:38:49Z</time>
      </trkpt>
      <trkpt lat="47.30797" lon="-1.48067">
        <ele>55.0174</ele>
        <time>2020-08-09T07:38:51Z</time>
      </trkpt>
      <trkpt lat="47.30797" lon="-1.48071">
        <ele>55.0399</ele>
        <time>2020-08-09T07:38:52Z</time>
      </trkpt>
      <trkpt lat="47.30798" lon="-1.48077">
        <ele>55.0809</ele>
        <time>2020-08-09T07:38:54Z</time>
      </trkpt>
      <trkpt lat="47.30796" lon="-1.48087">
        <ele>55.1358</ele>
        <time>2020-08-09T07:38:57Z</time>
      </trkpt>
      <trkpt lat="47.30795" lon="-1.48095">
        <ele>55.1752</ele>
        <time>2020-08-09T07:38:59Z</time>
      </trkpt>
      <trkpt lat="47.30793" lon="-1.48102">
        <ele>55.2197</ele>
        <time>2020-08-09T07:39:01Z</time>
      </trkpt>
      <trkpt lat="47.30792" lon="-1.48109">
        <ele>55.2706</ele>
        <time>2020-08-09T07:39:03Z</time>
      </trkpt>
      <trkpt lat="47.30791" lon="-1.48112">
        <ele>55.2994</ele>
        <time>2020-08-09T07:39:04Z</time>
      </trkpt>
      <trkpt lat="47.30789" lon="-1.48119">
        <ele>55.3603</ele>
        <time>2020-08-09T07:39:06Z</time>
      </trkpt>
      <trkpt lat="47.30787" lon="-1.48127">
        <ele>55.4255</ele>
        <time>2020-08-09T07:39:08Z</time>
      </trkpt>
      <trkpt lat="47.30786" lon="-1.48131">
        <ele>55.4597</ele>
        <time>2020-08-09T07:39:09Z</time>
      </trkpt>
      <trkpt lat="47.30783" lon="-1.48138">
        <ele>55.5352</ele>
        <time>2020-08-09T07:39:11Z</time>
      </trkpt>
      <trkpt lat="47.30782" lon="-1.48145">
        <ele>55.6119</ele>
        <time>2020-08-09T07:39:13Z</time>
      </trkpt>
      <trkpt lat="47.30781" lon="-1.48149">
        <ele>55.6508</ele>
        <time>2020-08-09T07:39:14Z</time>
      </trkpt>
      <trkpt lat="47.3078" lon="-1.48152">
        <ele>55.6894</ele>
        <time>2020-08-09T07:39:15Z</time>
      </trkpt>
      <trkpt lat="47.30779" lon="-1.48155">
        <ele>55.7275</ele>
        <time>2020-08-09T07:39:16Z</time>
      </trkpt>
      <trkpt lat="47.30777" lon="-1.48162">
        <ele>55.8033</ele>
        <time>2020-08-09T07:39:18Z</time>
      </trkpt>
      <trkpt lat="47.30776" lon="-1.48166">
        <ele>55.8404</ele>
        <time>2020-08-09T07:39:19Z</time>
      </trkpt>
      <trkpt lat="47.30774" lon="-1.48173">
        <ele>55.914</ele>
        <time>2020-08-09T07:39:21Z</time>
      </trkpt>
      <trkpt lat="47.30773" lon="-1.48178">
        <ele>55.9505</ele>
        <time>2020-08-09T07:39:22Z</time>
      </trkpt>
      <trkpt lat="47.30772" lon="-1.48185">
        <ele>56.0211</ele>
        <time>2020-08-09T07:39:24Z</time>
      </trkpt>
      <trkpt lat="47.3077" lon="-1.48191">
        <ele>56.0904</ele>
        <time>2020-08-09T07:39:26Z</time>
      </trkpt>
      <trkpt lat="47.30769" lon="-1.48194">
        <ele>56.1246</ele>
        <time>2020-08-09T07:39:27Z</time>
      </trkpt>
      <trkpt lat="47.30767" lon="-1.482">
        <ele>56.1925</ele>
        <time>2020-08-09T07:39:29Z</time>
      </trkpt>
      <trkpt lat="47.30764" lon="-1.48207">
        <ele>56.2894</ele>
        <time>2020-08-09T07:39:32Z</time>
      </trkpt>
      <trkpt lat="47.30759" lon="-1.48208">
        <ele>56.3794</ele>
        <time>2020-08-09T07:39:35Z</time>
      </trkpt>
      <trkpt lat="47.30755" lon="-1.48204">
        <ele>56.4389</ele>
        <time>2020-08-09T07:39:37Z</time>
      </trkpt>
      <trkpt lat="47.30752" lon="-1.48202">
        <ele>56.4972</ele>
        <time>2020-08-09T07:39:39Z</time>
      </trkpt>
      <trkpt lat="47.30748" lon="-1.48194">
        <ele>56.5873</ele>
        <time>2020-08-09T07:39:42Z</time>
      </trkpt>
      <trkpt lat="47.30747" lon="-1.48191">
        <ele>56.6161</ele>
        <time>2020-08-09T07:39:43Z</time>
      </trkpt>
      <trkpt lat="47.30745" lon="-1.48189">
        <ele>56.6435</ele>
        <time>2020-08-09T07:39:44Z</time>
      </trkpt>
      <trkpt lat="47.30743" lon="-1.48182">
        <ele>56.7</ele>
        <time>2020-08-09T07:39:46Z</time>
      </trkpt>
      <trkpt lat="47.30742" lon="-1.48178">
        <ele>56.728</ele>
        <time>2020-08-09T07:39:47Z</time>
      </trkpt>
      <trkpt lat="47.30739" lon="-1.48173">
        <ele>56.7842</ele>
        <time>2020-08-09T07:39:49Z</time>
      </trkpt>
      <trkpt lat="47.30736" lon="-1.48166">
        <ele>56.8415</ele>
        <time>2020-08-09T07:39:51Z</time>
      </trkpt>
      <trkpt lat="47.30734" lon="-1.48163">
        <ele>56.8702</ele>
        <time>2020-08-09T07:39:52Z</time>
      </trkpt>
      <trkpt lat="47.30733" lon="-1.48159">
        <ele>56.9287</ele>
        <time>2020-08-09T07:39:54Z</time>
      </trkpt>
      <trkpt lat="47.30734" lon="-1.48163">
        <ele>56.8702</ele>
        <time>2020-08-09T07:40:01Z</time>
      </trkpt>
      <trkpt lat="47.30749" lon="-1.48165">
        <ele>57.2048</ele>
        <time>2020-08-09T07:40:04Z</time>
      </trkpt>
      <trkpt lat="47.30753" lon="-1.48171">
        <ele>57.2578</ele>
        <time>2020-08-09T07:40:06Z</time>
      </trkpt>
      <trkpt lat="47.30756" lon="-1.48178">
        <ele>57.3322</ele>
        <time>2020-08-09T07:40:09Z</time>
      </trkpt>
      <trkpt lat="47.30754" lon="-1.48187">
        <ele>57.3954</ele>
        <time>2020-08-09T07:40:12Z</time>
      </trkpt>
      <trkpt lat="47.3075" lon="-1.48191">
        <ele>57.4319</ele>
        <time>2020-08-09T07:40:14Z</time>
      </trkpt>
      <trkpt lat="47.30748" lon="-1.48193">
        <ele>57.4499</ele>
        <time>2020-08-09T07:40:15Z</time>
      </trkpt>
      <trkpt lat="47.30743" lon="-1.482">
        <ele>57.502</ele>
        <time>2020-08-09T07:40:18Z</time>
      </trkpt>
      <trkpt lat="47.30737" lon="-1.48205">
        <ele>57.5812</ele>
        <time>2020-08-09T07:40:23Z</time>
      </trkpt>
      <trkpt lat="47.30731" lon="-1.48203">
        <ele>57.6082</ele>
        <time>2020-08-09T07:40:25Z</time>
      </trkpt>
      <trkpt lat="47.30728" lon="-1.48198">
        <ele>57.6324</ele>
        <time>2020-08-09T07:40:27Z</time>
      </trkpt>
      <trkpt lat="47.30723" lon="-1.48192">
        <ele>57.6671</ele>
        <time>2020-08-09T07:40:30Z</time>
      </trkpt>
      <trkpt lat="47.30721" lon="-1.48184">
        <ele>57.7037</ele>
        <time>2020-08-09T07:40:33Z</time>
      </trkpt>
      <trkpt lat="47.30719" lon="-1.48176">
        <ele>57.7415</ele>
        <time>2020-08-09T07:40:36Z</time>
      </trkpt>
      <trkpt lat="47.30715" lon="-1.48166">
        <ele>57.781</ele>
        <time>2020-08-09T07:40:39Z</time>
      </trkpt>
      <trkpt lat="47.30713" lon="-1.48161">
        <ele>57.8104</ele>
        <time>2020-08-09T07:40:41Z</time>
      </trkpt>
      <trkpt lat="47.30711" lon="-1.48155">
        <ele>57.8285</ele>
        <time>2020-08-09T07:40:42Z</time>
      </trkpt>
      <trkpt lat="47.30709" lon="-1.48152">
        <ele>57.8466</ele>
        <time>2020-08-09T07:40:43Z</time>
      </trkpt>
      <trkpt lat="47.30707" lon="-1.48149">
        <ele>57.8649</ele>
        <time>2020-08-09T07:40:44Z</time>
      </trkpt>
      <trkpt lat="47.30703" lon="-1.48144">
        <ele>57.9224</ele>
        <time>2020-08-09T07:40:47Z</time>
      </trkpt>
      <trkpt lat="47.30699" lon="-1.4814">
        <ele>57.9626</ele>
        <time>2020-08-09T07:40:49Z</time>
      </trkpt>
      <trkpt lat="47.30695" lon="-1.48137">
        <ele>58.0048</ele>
        <time>2020-08-09T07:40:51Z</time>
      </trkpt>
      <trkpt lat="47.3069" lon="-1.48131">
        <ele>58.0483</ele>
        <time>2020-08-09T07:40:53Z</time>
      </trkpt>
      <trkpt lat="47.30687" lon="-1.48129">
        <ele>58.0703</ele>
        <time>2020-08-09T07:40:54Z</time>
      </trkpt>
      <trkpt lat="47.30685" lon="-1.48127">
        <ele>58.0921</ele>
        <time>2020-08-09T07:40:55Z</time>
      </trkpt>
      <trkpt lat="47.30682" lon="-1.48125">
        <ele>58.1136</ele>
        <time>2020-08-09T07:40:56Z</time>
      </trkpt>
      <trkpt lat="47.30679" lon="-1.48123">
        <ele>58.1344</ele>
        <time>2020-08-09T07:40:57Z</time>
      </trkpt>
      <trkpt lat="47.30675" lon="-1.48118">
        <ele>58.1773</ele>
        <time>2020-08-09T07:40:59Z</time>
      </trkpt>
      <trkpt lat="47.30669" lon="-1.48112">
        <ele>58.2382</ele>
        <time>2020-08-09T07:41:02Z</time>
      </trkpt>
      <trkpt lat="47.30665" lon="-1.48108">
        <ele>58.2786</ele>
        <time>2020-08-09T07:41:04Z</time>
      </trkpt>
      <trkpt lat="47.30661" lon="-1.48105">
        <ele>58.3175</ele>
        <time>2020-08-09T07:41:06Z</time>
      </trkpt>
      <trkpt lat="47.30654" lon="-1.48101">
        <ele>58.3748</ele>
        <time>2020-08-09T07:41:09Z</time>
      </trkpt>
      <trkpt lat="47.30649" lon="-1.48096">
        <ele>58.4276</ele>
        <time>2020-08-09T07:41:12Z</time>
      </trkpt>
      <trkpt lat="47.30642" lon="-1.48096">
        <ele>58.4767</ele>
        <time>2020-08-09T07:41:15Z</time>
      </trkpt>
      <trkpt lat="47.30637" lon="-1.48095">
        <ele>58.5077</ele>
        <time>2020-08-09T07:41:17Z</time>
      </trkpt>
      <trkpt lat="47.30634" lon="-1.48095">
        <ele>58.5226</ele>
        <time>2020-08-09T07:41:18Z</time>
      </trkpt>
      <trkpt lat="47.3063" lon="-1.48098">
        <ele>58.5628</ele>
        <time>2020-08-09T07:41:21Z</time>
      </trkpt>
      <trkpt lat="47.30628" lon="-1.48101">
        <ele>58.575</ele>
        <time>2020-08-09T07:41:22Z</time>
      </trkpt>
      <trkpt lat="47.30623" lon="-1.48104">
        <ele>58.6072</ele>
        <time>2020-08-09T07:41:25Z</time>
      </trkpt>
      <trkpt lat="47.30618" lon="-1.4811">
        <ele>58.6449</ele>
        <time>2020-08-09T07:41:29Z</time>
      </trkpt>
      <trkpt lat="47.30616" lon="-1.48112">
        <ele>58.6534</ele>
        <time>2020-08-09T07:41:30Z</time>
      </trkpt>
      <trkpt lat="47.30612" lon="-1.48115">
        <ele>58.6691</ele>
        <time>2020-08-09T07:41:32Z</time>
      </trkpt>
      <trkpt lat="47.30608" lon="-1.4812">
        <ele>58.6825</ele>
        <time>2020-08-09T07:41:34Z</time>
      </trkpt>
      <trkpt lat="47.30603" lon="-1.48124">
        <ele>58.6953</ele>
        <time>2020-08-09T07:41:36Z</time>
      </trkpt>
      <trkpt lat="47.306" lon="-1.4813">
        <ele>58.7077</ele>
        <time>2020-08-09T07:41:38Z</time>
      </trkpt>
      <trkpt lat="47.30591" lon="-1.48141">
        <ele>58.7272</ele>
        <time>2020-08-09T07:41:41Z</time>
      </trkpt>
      <trkpt lat="47.30586" lon="-1.48144">
        <ele>58.739</ele>
        <time>2020-08-09T07:41:43Z</time>
      </trkpt>
      <trkpt lat="47.3058" lon="-1.48149">
        <ele>58.7619</ele>
        <time>2020-08-09T07:41:47Z</time>
      </trkpt>
      <trkpt lat="47.30575" lon="-1.48151">
        <ele>58.7783</ele>
        <time>2020-08-09T07:41:50Z</time>
      </trkpt>
      <trkpt lat="47.30569" lon="-1.48155">
        <ele>58.7881</ele>
        <time>2020-08-09T07:41:52Z</time>
      </trkpt>
      <trkpt lat="47.30565" lon="-1.48159">
        <ele>58.8017</ele>
        <time>2020-08-09T07:41:55Z</time>
      </trkpt>
      <trkpt lat="47.30557" lon="-1.48164">
        <ele>58.8145</ele>
        <time>2020-08-09T07:41:58Z</time>
      </trkpt>
      <trkpt lat="47.30555" lon="-1.48181">
        <ele>58.8233</ele>
        <time>2020-08-09T07:42:00Z</time>
      </trkpt>
      <trkpt lat="47.30551" lon="-1.48189">
        <ele>58.8302</ele>
        <time>2020-08-09T07:42:02Z</time>
      </trkpt>
      <trkpt lat="47.30546" lon="-1.4819">
        <ele>58.8362</ele>
        <time>2020-08-09T07:42:04Z</time>
      </trkpt>
      <trkpt lat="47.30543" lon="-1.48196">
        <ele>58.8394</ele>
        <time>2020-08-09T07:42:05Z</time>
      </trkpt>
      <trkpt lat="47.30535" lon="-1.48208">
        <ele>58.8445</ele>
        <time>2020-08-09T07:42:07Z</time>
      </trkpt>
      <trkpt lat="47.3053" lon="-1.48211">
        <ele>58.8484</ele>
        <time>2020-08-09T07:42:09Z</time>
      </trkpt>
      <trkpt lat="47.30526" lon="-1.48214">
        <ele>58.8524</ele>
        <time>2020-08-09T07:42:11Z</time>
      </trkpt>
      <trkpt lat="47.30518" lon="-1.48217">
        <ele>58.857</ele>
        <time>2020-08-09T07:42:13Z</time>
      </trkpt>
      <trkpt lat="47.30513" lon="-1.48212">
        <ele>58.8615</ele>
        <time>2020-08-09T07:42:15Z</time>
      </trkpt>
      <trkpt lat="47.30506" lon="-1.48211">
        <ele>58.865</ele>
        <time>2020-08-09T07:42:17Z</time>
      </trkpt>
      <trkpt lat="47.30501" lon="-1.48212">
        <ele>58.8681</ele>
        <time>2020-08-09T07:42:19Z</time>
      </trkpt>
      <trkpt lat="47.30497" lon="-1.4821">
        <ele>58.8712</ele>
        <time>2020-08-09T07:42:21Z</time>
      </trkpt>
      <trkpt lat="47.30492" lon="-1.48213">
        <ele>58.8712</ele>
        <time>2020-08-09T07:42:24Z</time>
      </trkpt>
      <trkpt lat="47.30486" lon="-1.48217">
        <ele>58.8711</ele>
        <time>2020-08-09T07:42:26Z</time>
      </trkpt>
      <trkpt lat="47.30485" lon="-1.48225">
        <ele>58.8652</ele>
        <time>2020-08-09T07:42:29Z</time>
      </trkpt>
      <trkpt lat="47.30485" lon="-1.48238">
        <ele>58.8534</ele>
        <time>2020-08-09T07:42:32Z</time>
      </trkpt>
      <trkpt lat="47.30484" lon="-1.48244">
        <ele>58.8489</ele>
        <time>2020-08-09T07:42:33Z</time>
      </trkpt>
      <trkpt lat="47.30482" lon="-1.4825">
        <ele>58.8398</ele>
        <time>2020-08-09T07:42:35Z</time>
      </trkpt>
      <trkpt lat="47.30481" lon="-1.48257">
        <ele>58.8303</ele>
        <time>2020-08-09T07:42:37Z</time>
      </trkpt>
      <trkpt lat="47.3048" lon="-1.48264">
        <ele>58.8194</ele>
        <time>2020-08-09T07:42:39Z</time>
      </trkpt>
      <trkpt lat="47.30484" lon="-1.48274">
        <ele>58.8027</ele>
        <time>2020-08-09T07:42:42Z</time>
      </trkpt>
      <trkpt lat="47.30488" lon="-1.48278">
        <ele>58.7879</ele>
        <time>2020-08-09T07:42:45Z</time>
      </trkpt>
      <trkpt lat="47.30491" lon="-1.48285">
        <ele>58.7783</ele>
        <time>2020-08-09T07:42:47Z</time>
      </trkpt>
      <trkpt lat="47.30494" lon="-1.48291">
        <ele>58.7702</ele>
        <time>2020-08-09T07:42:49Z</time>
      </trkpt>
      <trkpt lat="47.30495" lon="-1.483">
        <ele>58.7587</ele>
        <time>2020-08-09T07:42:52Z</time>
      </trkpt>
      <trkpt lat="47.30495" lon="-1.48304">
        <ele>58.7542</ele>
        <time>2020-08-09T07:42:53Z</time>
      </trkpt>
      <trkpt lat="47.30495" lon="-1.48312">
        <ele>58.745</ele>
        <time>2020-08-09T07:42:55Z</time>
      </trkpt>
      <trkpt lat="47.30493" lon="-1.48319">
        <ele>58.7327</ele>
        <time>2020-08-09T07:42:57Z</time>
      </trkpt>
      <trkpt lat="47.30492" lon="-1.48325">
        <ele>58.7259</ele>
        <time>2020-08-09T07:42:58Z</time>
      </trkpt>
      <trkpt lat="47.30492" lon="-1.48331">
        <ele>58.7116</ele>
        <time>2020-08-09T07:43:00Z</time>
      </trkpt>
      <trkpt lat="47.30491" lon="-1.48341">
        <ele>58.6913</ele>
        <time>2020-08-09T07:43:03Z</time>
      </trkpt>
      <trkpt lat="47.30493" lon="-1.48348">
        <ele>58.6772</ele>
        <time>2020-08-09T07:43:05Z</time>
      </trkpt>
      <trkpt lat="47.30494" lon="-1.48352">
        <ele>58.6706</ele>
        <time>2020-08-09T07:43:06Z</time>
      </trkpt>
      <trkpt lat="47.30495" lon="-1.48357">
        <ele>58.6648</ele>
        <time>2020-08-09T07:43:07Z</time>
      </trkpt>
      <trkpt lat="47.30496" lon="-1.48361">
        <ele>58.6591</ele>
        <time>2020-08-09T07:43:08Z</time>
      </trkpt>
      <trkpt lat="47.305" lon="-1.48367">
        <ele>58.6485</ele>
        <time>2020-08-09T07:43:10Z</time>
      </trkpt>
      <trkpt lat="47.30502" lon="-1.48371">
        <ele>58.6387</ele>
        <time>2020-08-09T07:43:12Z</time>
      </trkpt>
      <trkpt lat="47.30505" lon="-1.48379">
        <ele>58.6308</ele>
        <time>2020-08-09T07:43:14Z</time>
      </trkpt>
      <trkpt lat="47.30506" lon="-1.48384">
        <ele>58.6279</ele>
        <time>2020-08-09T07:43:15Z</time>
      </trkpt>
      <trkpt lat="47.30507" lon="-1.4839">
        <ele>58.6224</ele>
        <time>2020-08-09T07:43:17Z</time>
      </trkpt>
      <trkpt lat="47.30512" lon="-1.48398">
        <ele>58.6145</ele>
        <time>2020-08-09T07:43:20Z</time>
      </trkpt>
      <trkpt lat="47.30513" lon="-1.48408">
        <ele>58.6086</ele>
        <time>2020-08-09T07:43:23Z</time>
      </trkpt>
      <trkpt lat="47.30514" lon="-1.48412">
        <ele>58.6074</ele>
        <time>2020-08-09T07:43:24Z</time>
      </trkpt>
      <trkpt lat="47.30514" lon="-1.48416">
        <ele>58.6066</ele>
        <time>2020-08-09T07:43:25Z</time>
      </trkpt>
      <trkpt lat="47.30516" lon="-1.48423">
        <ele>58.6062</ele>
        <time>2020-08-09T07:43:27Z</time>
      </trkpt>
      <trkpt lat="47.30519" lon="-1.48439">
        <ele>58.6085</ele>
        <time>2020-08-09T07:43:30Z</time>
      </trkpt>
      <trkpt lat="47.30522" lon="-1.48445">
        <ele>58.6116</ele>
        <time>2020-08-09T07:43:35Z</time>
      </trkpt>
      <trkpt lat="47.30527" lon="-1.48455">
        <ele>58.6147</ele>
        <time>2020-08-09T07:43:38Z</time>
      </trkpt>
      <trkpt lat="47.30531" lon="-1.4846">
        <ele>58.6195</ele>
        <time>2020-08-09T07:43:40Z</time>
      </trkpt>
      <trkpt lat="47.30534" lon="-1.48466">
        <ele>58.6248</ele>
        <time>2020-08-09T07:43:42Z</time>
      </trkpt>
      <trkpt lat="47.30544" lon="-1.4847">
        <ele>58.6332</ele>
        <time>2020-08-09T07:43:45Z</time>
      </trkpt>
      <trkpt lat="47.30547" lon="-1.48477">
        <ele>58.6371</ele>
        <time>2020-08-09T07:43:47Z</time>
      </trkpt>
      <trkpt lat="47.30549" lon="-1.48483">
        <ele>58.6413</ele>
        <time>2020-08-09T07:43:49Z</time>
      </trkpt>
      <trkpt lat="47.30556" lon="-1.48482">
        <ele>58.6509</ele>
        <time>2020-08-09T07:43:52Z</time>
      </trkpt>
      <trkpt lat="47.30565" lon="-1.48484">
        <ele>58.6601</ele>
        <time>2020-08-09T07:43:54Z</time>
      </trkpt>
      <trkpt lat="47.30571" lon="-1.48487">
        <ele>58.6699</ele>
        <time>2020-08-09T07:43:56Z</time>
      </trkpt>
      <trkpt lat="47.30577" lon="-1.48489">
        <ele>58.6802</ele>
        <time>2020-08-09T07:43:58Z</time>
      </trkpt>
      <trkpt lat="47.30582" lon="-1.48501">
        <ele>58.6956</ele>
        <time>2020-08-09T07:44:01Z</time>
      </trkpt>
      <trkpt lat="47.30583" lon="-1.48504">
        <ele>58.7005</ele>
        <time>2020-08-09T07:44:02Z</time>
      </trkpt>
      <trkpt lat="47.30587" lon="-1.48511">
        <ele>58.7089</ele>
        <time>2020-08-09T07:44:04Z</time>
      </trkpt>
      <trkpt lat="47.30589" lon="-1.48519">
        <ele>58.714</ele>
        <time>2020-08-09T07:44:06Z</time>
      </trkpt>
      <trkpt lat="47.30592" lon="-1.48525">
        <ele>58.718</ele>
        <time>2020-08-09T07:44:08Z</time>
      </trkpt>
      <trkpt lat="47.30594" lon="-1.48529">
        <ele>58.721</ele>
        <time>2020-08-09T07:44:10Z</time>
      </trkpt>
      <trkpt lat="47.30597" lon="-1.48535">
        <ele>58.7256</ele>
        <time>2020-08-09T07:44:13Z</time>
      </trkpt>
      <trkpt lat="47.30601" lon="-1.48547">
        <ele>58.731</ele>
        <time>2020-08-09T07:44:17Z</time>
      </trkpt>
      <trkpt lat="47.30601" lon="-1.48559">
        <ele>58.7316</ele>
        <time>2020-08-09T07:44:18Z</time>
      </trkpt>
      <trkpt lat="47.30604" lon="-1.4857">
        <ele>58.7319</ele>
        <time>2020-08-09T07:44:20Z</time>
      </trkpt>
      <trkpt lat="47.30605" lon="-1.48577">
        <ele>58.7314</ele>
        <time>2020-08-09T07:44:21Z</time>
      </trkpt>
      <trkpt lat="47.30607" lon="-1.48584">
        <ele>58.7308</ele>
        <time>2020-08-09T07:44:22Z</time>
      </trkpt>
      <trkpt lat="47.30608" lon="-1.48589">
        <ele>58.7301</ele>
        <time>2020-08-09T07:44:23Z</time>
      </trkpt>
      <trkpt lat="47.30613" lon="-1.48598">
        <ele>58.7299</ele>
        <time>2020-08-09T07:44:25Z</time>
      </trkpt>
      <trkpt lat="47.30618" lon="-1.48601">
        <ele>58.7288</ele>
        <time>2020-08-09T07:44:28Z</time>
      </trkpt>
      <trkpt lat="47.3062" lon="-1.4861">
        <ele>58.7278</ele>
        <time>2020-08-09T07:44:31Z</time>
      </trkpt>
      <trkpt lat="47.30621" lon="-1.48617">
        <ele>58.7268</ele>
        <time>2020-08-09T07:44:33Z</time>
      </trkpt>
      <trkpt lat="47.30624" lon="-1.48626">
        <ele>58.725</ele>
        <time>2020-08-09T07:44:35Z</time>
      </trkpt>
      <trkpt lat="47.30626" lon="-1.48633">
        <ele>58.7224</ele>
        <time>2020-08-09T07:44:37Z</time>
      </trkpt>
      <trkpt lat="47.30629" lon="-1.48645">
        <ele>58.7151</ele>
        <time>2020-08-09T07:44:40Z</time>
      </trkpt>
      <trkpt lat="47.3063" lon="-1.48649">
        <ele>58.7128</ele>
        <time>2020-08-09T07:44:41Z</time>
      </trkpt>
      <trkpt lat="47.30634" lon="-1.48656">
        <ele>58.7094</ele>
        <time>2020-08-09T07:44:43Z</time>
      </trkpt>
      <trkpt lat="47.30635" lon="-1.48663">
        <ele>58.7065</ele>
        <time>2020-08-09T07:44:45Z</time>
      </trkpt>
      <trkpt lat="47.30636" lon="-1.48667">
        <ele>58.7054</ele>
        <time>2020-08-09T07:44:46Z</time>
      </trkpt>
      <trkpt lat="47.30638" lon="-1.48671">
        <ele>58.705</ele>
        <time>2020-08-09T07:44:47Z</time>
      </trkpt>
      <trkpt lat="47.30639" lon="-1.48675">
        <ele>58.705</ele>
        <time>2020-08-09T07:44:48Z</time>
      </trkpt>
      <trkpt lat="47.3064" lon="-1.48683">
        <ele>58.7057</ele>
        <time>2020-08-09T07:44:50Z</time>
      </trkpt>
      <trkpt lat="47.30642" lon="-1.48695">
        <ele>58.7069</ele>
        <time>2020-08-09T07:44:53Z</time>
      </trkpt>
      <trkpt lat="47.30642" lon="-1.487">
        <ele>58.707</ele>
        <time>2020-08-09T07:44:54Z</time>
      </trkpt>
      <trkpt lat="47.30643" lon="-1.48706">
        <ele>58.7077</ele>
        <time>2020-08-09T07:44:56Z</time>
      </trkpt>
      <trkpt lat="47.30642" lon="-1.48714">
        <ele>58.7079</ele>
        <time>2020-08-09T07:44:58Z</time>
      </trkpt>
      <trkpt lat="47.30643" lon="-1.48727">
        <ele>58.7068</ele>
        <time>2020-08-09T07:45:01Z</time>
      </trkpt>
      <trkpt lat="47.30645" lon="-1.48734">
        <ele>58.7059</ele>
        <time>2020-08-09T07:45:03Z</time>
      </trkpt>
      <trkpt lat="47.30646" lon="-1.48737">
        <ele>58.7057</ele>
        <time>2020-08-09T07:45:04Z</time>
      </trkpt>
      <trkpt lat="47.30645" lon="-1.48751">
        <ele>58.7034</ele>
        <time>2020-08-09T07:45:07Z</time>
      </trkpt>
      <trkpt lat="47.30644" lon="-1.48758">
        <ele>58.7007</ele>
        <time>2020-08-09T07:45:09Z</time>
      </trkpt>
      <trkpt lat="47.30643" lon="-1.48762">
        <ele>58.6989</ele>
        <time>2020-08-09T07:45:10Z</time>
      </trkpt>
      <trkpt lat="47.30644" lon="-1.48778">
        <ele>58.6836</ele>
        <time>2020-08-09T07:45:14Z</time>
      </trkpt>
      <trkpt lat="47.30642" lon="-1.48785">
        <ele>58.6692</ele>
        <time>2020-08-09T07:45:16Z</time>
      </trkpt>
      <trkpt lat="47.30634" lon="-1.48797">
        <ele>58.6334</ele>
        <time>2020-08-09T07:45:20Z</time>
      </trkpt>
      <trkpt lat="47.30634" lon="-1.48806">
        <ele>58.6214</ele>
        <time>2020-08-09T07:45:21Z</time>
      </trkpt>
      <trkpt lat="47.30632" lon="-1.48817">
        <ele>58.5913</ele>
        <time>2020-08-09T07:45:23Z</time>
      </trkpt>
      <trkpt lat="47.3063" lon="-1.48824">
        <ele>58.5534</ele>
        <time>2020-08-09T07:45:25Z</time>
      </trkpt>
      <trkpt lat="47.30626" lon="-1.48829">
        <ele>58.5128</ele>
        <time>2020-08-09T07:45:27Z</time>
      </trkpt>
      <trkpt lat="47.30622" lon="-1.48836">
        <ele>58.4515</ele>
        <time>2020-08-09T07:45:30Z</time>
      </trkpt>
      <trkpt lat="47.3062" lon="-1.48839">
        <ele>58.4121</ele>
        <time>2020-08-09T07:45:32Z</time>
      </trkpt>
      <trkpt lat="47.30618" lon="-1.48842">
        <ele>58.3933</ele>
        <time>2020-08-09T07:45:33Z</time>
      </trkpt>
      <trkpt lat="47.30616" lon="-1.48845">
        <ele>58.3746</ele>
        <time>2020-08-09T07:45:34Z</time>
      </trkpt>
      <trkpt lat="47.30615" lon="-1.48847">
        <ele>58.3562</ele>
        <time>2020-08-09T07:45:35Z</time>
      </trkpt>
      <trkpt lat="47.30611" lon="-1.48852">
        <ele>58.3189</ele>
        <time>2020-08-09T07:45:37Z</time>
      </trkpt>
      <trkpt lat="47.30608" lon="-1.48856">
        <ele>58.2639</ele>
        <time>2020-08-09T07:45:40Z</time>
      </trkpt>
      <trkpt lat="47.30609" lon="-1.48863">
        <ele>58.2258</ele>
        <time>2020-08-09T07:45:42Z</time>
      </trkpt>
      <trkpt lat="47.30612" lon="-1.4887">
        <ele>58.1902</ele>
        <time>2020-08-09T07:45:44Z</time>
      </trkpt>
      <trkpt lat="47.30617" lon="-1.48894">
        <ele>58.1099</ele>
        <time>2020-08-09T07:45:49Z</time>
      </trkpt>
      <trkpt lat="47.30619" lon="-1.48903">
        <ele>58.0658</ele>
        <time>2020-08-09T07:45:52Z</time>
      </trkpt>
      <trkpt lat="47.30623" lon="-1.4891">
        <ele>58.0362</ele>
        <time>2020-08-09T07:45:54Z</time>
      </trkpt>
      <trkpt lat="47.30625" lon="-1.48919">
        <ele>58.0039</ele>
        <time>2020-08-09T07:45:56Z</time>
      </trkpt>
      <trkpt lat="47.30629" lon="-1.48931">
        <ele>57.968</ele>
        <time>2020-08-09T07:45:58Z</time>
      </trkpt>
      <trkpt lat="47.30628" lon="-1.4894">
        <ele>57.9285</ele>
        <time>2020-08-09T07:46:00Z</time>
      </trkpt>
      <trkpt lat="47.30629" lon="-1.48949">
        <ele>57.8851</ele>
        <time>2020-08-09T07:46:02Z</time>
      </trkpt>
      <trkpt lat="47.30628" lon="-1.48955">
        <ele>57.8403</ele>
        <time>2020-08-09T07:46:04Z</time>
      </trkpt>
      <trkpt lat="47.30627" lon="-1.48963">
        <ele>57.794</ele>
        <time>2020-08-09T07:46:06Z</time>
      </trkpt>
      <trkpt lat="47.30623" lon="-1.48971">
        <ele>57.7459</ele>
        <time>2020-08-09T07:46:08Z</time>
      </trkpt>
      <trkpt lat="47.30621" lon="-1.48977">
        <ele>57.6972</ele>
        <time>2020-08-09T07:46:10Z</time>
      </trkpt>
      <trkpt lat="47.30617" lon="-1.48987">
        <ele>57.6218</ele>
        <time>2020-08-09T07:46:13Z</time>
      </trkpt>
      <trkpt lat="47.30615" lon="-1.4899">
        <ele>57.5956</ele>
        <time>2020-08-09T07:46:14Z</time>
      </trkpt>
      <trkpt lat="47.30612" lon="-1.48997">
        <ele>57.5405</ele>
        <time>2020-08-09T07:46:16Z</time>
      </trkpt>
      <trkpt lat="47.30611" lon="-1.49001">
        <ele>57.5123</ele>
        <time>2020-08-09T07:46:17Z</time>
      </trkpt>
      <trkpt lat="47.30609" lon="-1.49008">
        <ele>57.4551</ele>
        <time>2020-08-09T07:46:19Z</time>
      </trkpt>
      <trkpt lat="47.30608" lon="-1.49011">
        <ele>57.4266</ele>
        <time>2020-08-09T07:46:20Z</time>
      </trkpt>
      <trkpt lat="47.30607" lon="-1.49014">
        <ele>57.3984</ele>
        <time>2020-08-09T07:46:21Z</time>
      </trkpt>
      <trkpt lat="47.30604" lon="-1.49023">
        <ele>57.3161</ele>
        <time>2020-08-09T07:46:24Z</time>
      </trkpt>
      <trkpt lat="47.30602" lon="-1.49027">
        <ele>57.2902</ele>
        <time>2020-08-09T07:46:25Z</time>
      </trkpt>
      <trkpt lat="47.306" lon="-1.49033">
        <ele>57.2404</ele>
        <time>2020-08-09T07:46:27Z</time>
      </trkpt>
      <trkpt lat="47.30597" lon="-1.49039">
        <ele>57.1707</ele>
        <time>2020-08-09T07:46:30Z</time>
      </trkpt>
      <trkpt lat="47.30595" lon="-1.49042">
        <ele>57.1488</ele>
        <time>2020-08-09T07:46:31Z</time>
      </trkpt>
      <trkpt lat="47.30593" lon="-1.49045">
        <ele>57.1273</ele>
        <time>2020-08-09T07:46:32Z</time>
      </trkpt>
      <trkpt lat="47.30591" lon="-1.49049">
        <ele>57.084</ele>
        <time>2020-08-09T07:46:34Z</time>
      </trkpt>
      <trkpt lat="47.30589" lon="-1.49052">
        <ele>57.0625</ele>
        <time>2020-08-09T07:46:35Z</time>
      </trkpt>
      <trkpt lat="47.30587" lon="-1.49057">
        <ele>57.0415</ele>
        <time>2020-08-09T07:46:36Z</time>
      </trkpt>
      <trkpt lat="47.30586" lon="-1.4906">
        <ele>57.0205</ele>
        <time>2020-08-09T07:46:37Z</time>
      </trkpt>
      <trkpt lat="47.30582" lon="-1.49069">
        <ele>56.9801</ele>
        <time>2020-08-09T07:46:39Z</time>
      </trkpt>
      <trkpt lat="47.30579" lon="-1.49075">
        <ele>56.9409</ele>
        <time>2020-08-09T07:46:41Z</time>
      </trkpt>
      <trkpt lat="47.30578" lon="-1.49079">
        <ele>56.9218</ele>
        <time>2020-08-09T07:46:42Z</time>
      </trkpt>
      <trkpt lat="47.30576" lon="-1.49082">
        <ele>56.903</ele>
        <time>2020-08-09T07:46:43Z</time>
      </trkpt>
      <trkpt lat="47.30575" lon="-1.49085">
        <ele>56.8841</ele>
        <time>2020-08-09T07:46:44Z</time>
      </trkpt>
      <trkpt lat="47.30574" lon="-1.49089">
        <ele>56.8655</ele>
        <time>2020-08-09T07:46:45Z</time>
      </trkpt>
      <trkpt lat="47.30573" lon="-1.49096">
        <ele>56.8298</ele>
        <time>2020-08-09T07:46:47Z</time>
      </trkpt>
      <trkpt lat="47.30571" lon="-1.49103">
        <ele>56.7953</ele>
        <time>2020-08-09T07:46:49Z</time>
      </trkpt>
      <trkpt lat="47.30569" lon="-1.49111">
        <ele>56.7622</ele>
        <time>2020-08-09T07:46:51Z</time>
      </trkpt>
      <trkpt lat="47.30567" lon="-1.49119">
        <ele>56.7298</ele>
        <time>2020-08-09T07:46:53Z</time>
      </trkpt>
      <trkpt lat="47.30565" lon="-1.49122">
        <ele>56.7143</ele>
        <time>2020-08-09T07:46:54Z</time>
      </trkpt>
      <trkpt lat="47.30564" lon="-1.49126">
        <ele>56.699</ele>
        <time>2020-08-09T07:46:55Z</time>
      </trkpt>
      <trkpt lat="47.3056" lon="-1.49136">
        <ele>56.6562</ele>
        <time>2020-08-09T07:46:58Z</time>
      </trkpt>
      <trkpt lat="47.30559" lon="-1.49139">
        <ele>56.6423</ele>
        <time>2020-08-09T07:46:59Z</time>
      </trkpt>
      <trkpt lat="47.30557" lon="-1.49143">
        <ele>56.6281</ele>
        <time>2020-08-09T07:47:00Z</time>
      </trkpt>
      <trkpt lat="47.30553" lon="-1.49149">
        <ele>56.6002</ele>
        <time>2020-08-09T07:47:02Z</time>
      </trkpt>
      <trkpt lat="47.30551" lon="-1.49153">
        <ele>56.5865</ele>
        <time>2020-08-09T07:47:03Z</time>
      </trkpt>
      <trkpt lat="47.30549" lon="-1.49156">
        <ele>56.5737</ele>
        <time>2020-08-09T07:47:04Z</time>
      </trkpt>
      <trkpt lat="47.30547" lon="-1.49159">
        <ele>56.5607</ele>
        <time>2020-08-09T07:47:05Z</time>
      </trkpt>
      <trkpt lat="47.30544" lon="-1.49163">
        <ele>56.5353</ele>
        <time>2020-08-09T07:47:07Z</time>
      </trkpt>
      <trkpt lat="47.30538" lon="-1.4917">
        <ele>56.4982</ele>
        <time>2020-08-09T07:47:10Z</time>
      </trkpt>
      <trkpt lat="47.30534" lon="-1.49173">
        <ele>56.475</ele>
        <time>2020-08-09T07:47:12Z</time>
      </trkpt>
      <trkpt lat="47.30529" lon="-1.49176">
        <ele>56.4513</ele>
        <time>2020-08-09T07:47:14Z</time>
      </trkpt>
      <trkpt lat="47.30526" lon="-1.49177">
        <ele>56.4395</ele>
        <time>2020-08-09T07:47:15Z</time>
      </trkpt>
      <trkpt lat="47.30519" lon="-1.49179">
        <ele>56.4049</ele>
        <time>2020-08-09T07:47:18Z</time>
      </trkpt>
      <trkpt lat="47.3051" lon="-1.49184">
        <ele>56.3707</ele>
        <time>2020-08-09T07:47:21Z</time>
      </trkpt>
      <trkpt lat="47.30505" lon="-1.49187">
        <ele>56.3477</ele>
        <time>2020-08-09T07:47:23Z</time>
      </trkpt>
      <trkpt lat="47.30503" lon="-1.49188">
        <ele>56.3364</ele>
        <time>2020-08-09T07:47:24Z</time>
      </trkpt>
      <trkpt lat="47.30498" lon="-1.49192">
        <ele>56.3141</ele>
        <time>2020-08-09T07:47:26Z</time>
      </trkpt>
      <trkpt lat="47.30495" lon="-1.49195">
        <ele>56.3033</ele>
        <time>2020-08-09T07:47:27Z</time>
      </trkpt>
      <trkpt lat="47.3049" lon="-1.49198">
        <ele>56.2821</ele>
        <time>2020-08-09T07:47:29Z</time>
      </trkpt>
      <trkpt lat="47.30484" lon="-1.49204">
        <ele>56.2504</ele>
        <time>2020-08-09T07:47:32Z</time>
      </trkpt>
      <trkpt lat="47.30481" lon="-1.49209">
        <ele>56.2302</ele>
        <time>2020-08-09T07:47:34Z</time>
      </trkpt>
      <trkpt lat="47.30479" lon="-1.49218">
        <ele>56.209</ele>
        <time>2020-08-09T07:47:36Z</time>
      </trkpt>
      <trkpt lat="47.30475" lon="-1.49223">
        <ele>56.188</ele>
        <time>2020-08-09T07:47:38Z</time>
      </trkpt>
      <trkpt lat="47.30473" lon="-1.49229">
        <ele>56.1475</ele>
        <time>2020-08-09T07:47:42Z</time>
      </trkpt>
      <trkpt lat="47.30468" lon="-1.49235">
        <ele>56.1185</ele>
        <time>2020-08-09T07:47:45Z</time>
      </trkpt>
      <trkpt lat="47.30463" lon="-1.49236">
        <ele>56.0992</ele>
        <time>2020-08-09T07:47:47Z</time>
      </trkpt>
      <trkpt lat="47.30456" lon="-1.49236">
        <ele>56.0798</ele>
        <time>2020-08-09T07:47:49Z</time>
      </trkpt>
      <trkpt lat="47.30453" lon="-1.49237">
        <ele>56.0702</ele>
        <time>2020-08-09T07:47:50Z</time>
      </trkpt>
      <trkpt lat="47.30449" lon="-1.49237">
        <ele>56.0606</ele>
        <time>2020-08-09T07:47:51Z</time>
      </trkpt>
      <trkpt lat="47.30441" lon="-1.49237">
        <ele>56.041</ele>
        <time>2020-08-09T07:47:53Z</time>
      </trkpt>
      <trkpt lat="47.30437" lon="-1.49238">
        <ele>56.0314</ele>
        <time>2020-08-09T07:47:54Z</time>
      </trkpt>
      <trkpt lat="47.30434" lon="-1.4924">
        <ele>56.022</ele>
        <time>2020-08-09T07:47:55Z</time>
      </trkpt>
      <trkpt lat="47.30429" lon="-1.49241">
        <ele>56.0035</ele>
        <time>2020-08-09T07:47:57Z</time>
      </trkpt>
      <trkpt lat="47.30425" lon="-1.49242">
        <ele>55.9945</ele>
        <time>2020-08-09T07:47:58Z</time>
      </trkpt>
      <trkpt lat="47.30419" lon="-1.49244">
        <ele>55.9698</ele>
        <time>2020-08-09T07:48:01Z</time>
      </trkpt>
      <trkpt lat="47.30415" lon="-1.49243">
        <ele>55.9548</ele>
        <time>2020-08-09T07:48:03Z</time>
      </trkpt>
      <trkpt lat="47.30409" lon="-1.49249">
        <ele>55.9318</ele>
        <time>2020-08-09T07:48:06Z</time>
      </trkpt>
      <trkpt lat="47.30405" lon="-1.49255">
        <ele>55.9162</ele>
        <time>2020-08-09T07:48:08Z</time>
      </trkpt>
      <trkpt lat="47.30402" lon="-1.4926">
        <ele>55.9003</ele>
        <time>2020-08-09T07:48:10Z</time>
      </trkpt>
      <trkpt lat="47.304" lon="-1.49263">
        <ele>55.8924</ele>
        <time>2020-08-09T07:48:11Z</time>
      </trkpt>
      <trkpt lat="47.30395" lon="-1.49268">
        <ele>55.8788</ele>
        <time>2020-08-09T07:48:13Z</time>
      </trkpt>
      <trkpt lat="47.30392" lon="-1.49275">
        <ele>55.8661</ele>
        <time>2020-08-09T07:48:15Z</time>
      </trkpt>
      <trkpt lat="47.30391" lon="-1.49278">
        <ele>55.8596</ele>
        <time>2020-08-09T07:48:16Z</time>
      </trkpt>
      <trkpt lat="47.30389" lon="-1.49282">
        <ele>55.8531</ele>
        <time>2020-08-09T07:48:17Z</time>
      </trkpt>
      <trkpt lat="47.30387" lon="-1.49286">
        <ele>55.8465</ele>
        <time>2020-08-09T07:48:18Z</time>
      </trkpt>
      <trkpt lat="47.30384" lon="-1.49295">
        <ele>55.8257</ele>
        <time>2020-08-09T07:48:21Z</time>
      </trkpt>
      <trkpt lat="47.3038" lon="-1.493">
        <ele>55.8117</ele>
        <time>2020-08-09T07:48:23Z</time>
      </trkpt>
      <trkpt lat="47.30376" lon="-1.49307">
        <ele>55.7835</ele>
        <time>2020-08-09T07:48:27Z</time>
      </trkpt>
      <trkpt lat="47.30372" lon="-1.49315">
        <ele>55.7616</ele>
        <time>2020-08-09T07:48:30Z</time>
      </trkpt>
      <trkpt lat="47.30363" lon="-1.49328">
        <ele>55.7351</ele>
        <time>2020-08-09T07:48:34Z</time>
      </trkpt>
      <trkpt lat="47.30361" lon="-1.49331">
        <ele>55.7286</ele>
        <time>2020-08-09T07:48:35Z</time>
      </trkpt>
      <trkpt lat="47.30357" lon="-1.49336">
        <ele>55.7159</ele>
        <time>2020-08-09T07:48:37Z</time>
      </trkpt>
      <trkpt lat="47.30348" lon="-1.49343">
        <ele>55.6987</ele>
        <time>2020-08-09T07:48:40Z</time>
      </trkpt>
      <trkpt lat="47.30342" lon="-1.49346">
        <ele>55.6874</ele>
        <time>2020-08-09T07:48:42Z</time>
      </trkpt>
      <trkpt lat="47.30337" lon="-1.49349">
        <ele>55.6765</ele>
        <time>2020-08-09T07:48:44Z</time>
      </trkpt>
      <trkpt lat="47.30332" lon="-1.49352">
        <ele>55.6662</ele>
        <time>2020-08-09T07:48:46Z</time>
      </trkpt>
      <trkpt lat="47.30325" lon="-1.49357">
        <ele>55.6493</ele>
        <time>2020-08-09T07:48:49Z</time>
      </trkpt>
      <trkpt lat="47.3032" lon="-1.49359">
        <ele>55.6388</ele>
        <time>2020-08-09T07:48:51Z</time>
      </trkpt>
      <trkpt lat="47.30317" lon="-1.4936">
        <ele>55.6335</ele>
        <time>2020-08-09T07:48:52Z</time>
      </trkpt>
      <trkpt lat="47.30313" lon="-1.49363">
        <ele>55.6225</ele>
        <time>2020-08-09T07:48:54Z</time>
      </trkpt>
      <trkpt lat="47.30309" lon="-1.49368">
        <ele>55.6109</ele>
        <time>2020-08-09T07:48:56Z</time>
      </trkpt>
      <trkpt lat="47.30305" lon="-1.49372">
        <ele>55.5993</ele>
        <time>2020-08-09T07:48:58Z</time>
      </trkpt>
      <trkpt lat="47.30303" lon="-1.49374">
        <ele>55.5934</ele>
        <time>2020-08-09T07:48:59Z</time>
      </trkpt>
      <trkpt lat="47.30296" lon="-1.4938">
        <ele>55.5756</ele>
        <time>2020-08-09T07:49:02Z</time>
      </trkpt>
      <trkpt lat="47.30291" lon="-1.49382">
        <ele>55.5649</ele>
        <time>2020-08-09T07:49:04Z</time>
      </trkpt>
      <trkpt lat="47.30285" lon="-1.49384">
        <ele>55.5549</ele>
        <time>2020-08-09T07:49:06Z</time>
      </trkpt>
      <trkpt lat="47.30281" lon="-1.49385">
        <ele>55.5438</ele>
        <time>2020-08-09T07:49:08Z</time>
      </trkpt>
      <trkpt lat="47.30276" lon="-1.49386">
        <ele>55.5324</ele>
        <time>2020-08-09T07:49:10Z</time>
      </trkpt>
      <trkpt lat="47.30271" lon="-1.49388">
        <ele>55.5204</ele>
        <time>2020-08-09T07:49:12Z</time>
      </trkpt>
      <trkpt lat="47.30269" lon="-1.49389">
        <ele>55.5145</ele>
        <time>2020-08-09T07:49:13Z</time>
      </trkpt>
      <trkpt lat="47.30263" lon="-1.4939">
        <ele>55.5028</ele>
        <time>2020-08-09T07:49:15Z</time>
      </trkpt>
      <trkpt lat="47.3026" lon="-1.4939">
        <ele>55.4973</ele>
        <time>2020-08-09T07:49:16Z</time>
      </trkpt>
      <trkpt lat="47.30255" lon="-1.4939">
        <ele>55.4861</ele>
        <time>2020-08-09T07:49:18Z</time>
      </trkpt>
      <trkpt lat="47.30244" lon="-1.49389">
        <ele>55.4653</ele>
        <time>2020-08-09T07:49:22Z</time>
      </trkpt>
      <trkpt lat="47.30242" lon="-1.49396">
        <ele>55.4428</ele>
        <time>2020-08-09T07:49:26Z</time>
      </trkpt>
      <trkpt lat="47.30242" lon="-1.49407">
        <ele>55.4236</ele>
        <time>2020-08-09T07:49:30Z</time>
      </trkpt>
      <trkpt lat="47.30238" lon="-1.49416">
        <ele>55.4092</ele>
        <time>2020-08-09T07:49:33Z</time>
      </trkpt>
      <trkpt lat="47.30236" lon="-1.49423">
        <ele>55.3999</ele>
        <time>2020-08-09T07:49:35Z</time>
      </trkpt>
      <trkpt lat="47.30232" lon="-1.4943">
        <ele>55.3867</ele>
        <time>2020-08-09T07:49:38Z</time>
      </trkpt>
      <trkpt lat="47.30227" lon="-1.49435">
        <ele>55.3779</ele>
        <time>2020-08-09T07:49:40Z</time>
      </trkpt>
      <trkpt lat="47.3022" lon="-1.49443">
        <ele>55.3647</ele>
        <time>2020-08-09T07:49:43Z</time>
      </trkpt>
      <trkpt lat="47.30214" lon="-1.49447">
        <ele>55.3562</ele>
        <time>2020-08-09T07:49:45Z</time>
      </trkpt>
      <trkpt lat="47.30209" lon="-1.49449">
        <ele>55.3487</ele>
        <time>2020-08-09T07:49:47Z</time>
      </trkpt>
      <trkpt lat="47.30203" lon="-1.4945">
        <ele>55.3413</ele>
        <time>2020-08-09T07:49:49Z</time>
      </trkpt>
      <trkpt lat="47.30201" lon="-1.4946">
        <ele>55.32</ele>
        <time>2020-08-09T07:49:55Z</time>
      </trkpt>
      <trkpt lat="47.30196" lon="-1.49469">
        <ele>55.3099</ele>
        <time>2020-08-09T07:49:58Z</time>
      </trkpt>
      <trkpt lat="47.30193" lon="-1.49483">
        <ele>55.3011</ele>
        <time>2020-08-09T07:50:01Z</time>
      </trkpt>
      <trkpt lat="47.30192" lon="-1.49487">
        <ele>55.2985</ele>
        <time>2020-08-09T07:50:02Z</time>
      </trkpt>
      <trkpt lat="47.30192" lon="-1.49491">
        <ele>55.2958</ele>
        <time>2020-08-09T07:50:03Z</time>
      </trkpt>
      <trkpt lat="47.30189" lon="-1.495">
        <ele>55.2884</ele>
        <time>2020-08-09T07:50:05Z</time>
      </trkpt>
      <trkpt lat="47.30185" lon="-1.49505">
        <ele>55.2798</ele>
        <time>2020-08-09T07:50:07Z</time>
      </trkpt>
      <trkpt lat="47.3018" lon="-1.49508">
        <ele>55.2732</ele>
        <time>2020-08-09T07:50:09Z</time>
      </trkpt>
      <trkpt lat="47.30174" lon="-1.49511">
        <ele>55.2667</ele>
        <time>2020-08-09T07:50:11Z</time>
      </trkpt>
      <trkpt lat="47.30169" lon="-1.49516">
        <ele>55.2603</ele>
        <time>2020-08-09T07:50:13Z</time>
      </trkpt>
      <trkpt lat="47.30166" lon="-1.49523">
        <ele>55.2552</ele>
        <time>2020-08-09T07:50:15Z</time>
      </trkpt>
      <trkpt lat="47.3016" lon="-1.49533">
        <ele>55.2481</ele>
        <time>2020-08-09T07:50:18Z</time>
      </trkpt>
      <trkpt lat="47.30158" lon="-1.49536">
        <ele>55.2463</ele>
        <time>2020-08-09T07:50:19Z</time>
      </trkpt>
      <trkpt lat="47.30157" lon="-1.49539">
        <ele>55.2445</ele>
        <time>2020-08-09T07:50:20Z</time>
      </trkpt>
      <trkpt lat="47.30155" lon="-1.49548">
        <ele>55.2407</ele>
        <time>2020-08-09T07:50:22Z</time>
      </trkpt>
      <trkpt lat="47.30155" lon="-1.49552">
        <ele>55.2384</ele>
        <time>2020-08-09T07:50:23Z</time>
      </trkpt>
      <trkpt lat="47.30154" lon="-1.49556">
        <ele>55.2354</ele>
        <time>2020-08-09T07:50:24Z</time>
      </trkpt>
      <trkpt lat="47.30153" lon="-1.49562">
        <ele>55.2282</ele>
        <time>2020-08-09T07:50:26Z</time>
      </trkpt>
      <trkpt lat="47.30149" lon="-1.49571">
        <ele>55.2198</ele>
        <time>2020-08-09T07:50:28Z</time>
      </trkpt>
      <trkpt lat="47.30148" lon="-1.49579">
        <ele>55.2094</ele>
        <time>2020-08-09T07:50:30Z</time>
      </trkpt>
      <trkpt lat="47.30146" lon="-1.49587">
        <ele>55.1964</ele>
        <time>2020-08-09T07:50:32Z</time>
      </trkpt>
      <trkpt lat="47.30141" lon="-1.49594">
        <ele>55.176</ele>
        <time>2020-08-09T07:50:35Z</time>
      </trkpt>
      <trkpt lat="47.30139" lon="-1.49597">
        <ele>55.1696</ele>
        <time>2020-08-09T07:50:36Z</time>
      </trkpt>
      <trkpt lat="47.30135" lon="-1.49602">
        <ele>55.1573</ele>
        <time>2020-08-09T07:50:38Z</time>
      </trkpt>
      <trkpt lat="47.30133" lon="-1.49605">
        <ele>55.1517</ele>
        <time>2020-08-09T07:50:39Z</time>
      </trkpt>
      <trkpt lat="47.30129" lon="-1.49612">
        <ele>55.1408</ele>
        <time>2020-08-09T07:50:41Z</time>
      </trkpt>
      <trkpt lat="47.30126" lon="-1.49619">
        <ele>55.1314</ele>
        <time>2020-08-09T07:50:43Z</time>
      </trkpt>
      <trkpt lat="47.30124" lon="-1.49623">
        <ele>55.1268</ele>
        <time>2020-08-09T07:50:44Z</time>
      </trkpt>
      <trkpt lat="47.30122" lon="-1.49627">
        <ele>55.1225</ele>
        <time>2020-08-09T07:50:45Z</time>
      </trkpt>
      <trkpt lat="47.3012" lon="-1.4963">
        <ele>55.118</ele>
        <time>2020-08-09T07:50:46Z</time>
      </trkpt>
      <trkpt lat="47.30116" lon="-1.49638">
        <ele>55.1087</ele>
        <time>2020-08-09T07:50:48Z</time>
      </trkpt>
      <trkpt lat="47.30112" lon="-1.49643">
        <ele>55.1003</ele>
        <time>2020-08-09T07:50:50Z</time>
      </trkpt>
      <trkpt lat="47.30109" lon="-1.49649">
        <ele>55.0925</ele>
        <time>2020-08-09T07:50:52Z</time>
      </trkpt>
      <trkpt lat="47.30105" lon="-1.49656">
        <ele>55.0809</ele>
        <time>2020-08-09T07:50:55Z</time>
      </trkpt>
      <trkpt lat="47.30099" lon="-1.49666">
        <ele>55.067</ele>
        <time>2020-08-09T07:50:58Z</time>
      </trkpt>
      <trkpt lat="47.30097" lon="-1.49669">
        <ele>55.0616</ele>
        <time>2020-08-09T07:50:59Z</time>
      </trkpt>
      <trkpt lat="47.30095" lon="-1.49672">
        <ele>55.0564</ele>
        <time>2020-08-09T07:51:00Z</time>
      </trkpt>
      <trkpt lat="47.30093" lon="-1.49675">
        <ele>55.051</ele>
        <time>2020-08-09T07:51:01Z</time>
      </trkpt>
      <trkpt lat="47.3009" lon="-1.49681">
        <ele>55.0409</ele>
        <time>2020-08-09T07:51:03Z</time>
      </trkpt>
      <trkpt lat="47.30087" lon="-1.49687">
        <ele>55.0301</ele>
        <time>2020-08-09T07:51:05Z</time>
      </trkpt>
      <trkpt lat="47.30085" lon="-1.4969">
        <ele>55.0247</ele>
        <time>2020-08-09T07:51:06Z</time>
      </trkpt>
      <trkpt lat="47.30082" lon="-1.49698">
        <ele>55.0147</ele>
        <time>2020-08-09T07:51:08Z</time>
      </trkpt>
      <trkpt lat="47.3008" lon="-1.49701">
        <ele>55.0099</ele>
        <time>2020-08-09T07:51:09Z</time>
      </trkpt>
      <trkpt lat="47.30077" lon="-1.49708">
        <ele>55.0011</ele>
        <time>2020-08-09T07:51:11Z</time>
      </trkpt>
      <trkpt lat="47.30073" lon="-1.49713">
        <ele>54.992</ele>
        <time>2020-08-09T07:51:13Z</time>
      </trkpt>
      <trkpt lat="47.30072" lon="-1.49716">
        <ele>54.987</ele>
        <time>2020-08-09T07:51:14Z</time>
      </trkpt>
      <trkpt lat="47.30066" lon="-1.4972">
        <ele>54.9766</ele>
        <time>2020-08-09T07:51:16Z</time>
      </trkpt>
      <trkpt lat="47.3006" lon="-1.49722">
        <ele>54.9655</ele>
        <time>2020-08-09T07:51:18Z</time>
      </trkpt>
      <trkpt lat="47.30057" lon="-1.49722">
        <ele>54.9597</ele>
        <time>2020-08-09T07:51:19Z</time>
      </trkpt>
      <trkpt lat="47.30057" lon="-1.49722">
        <ele>6.1</ele>
        <time>2020-08-09T07:51:25Z</time>
      </trkpt>
      <trkpt lat="47.30057" lon="-1.49722">
        <ele>6.1</ele>
        <time>2020-08-09T07:53:51Z</time>
      </trkpt>
      <trkpt lat="47.30043" lon="-1.49709">
        <ele>54.7956</ele>
        <time>2020-08-09T07:53:51Z</time>
      </trkpt>
      <trkpt lat="47.30037" lon="-1.49708">
        <ele>54.8543</ele>
        <time>2020-08-09T07:53:57Z</time>
      </trkpt>
      <trkpt lat="47.30033" lon="-1.49708">
        <ele>54.8956</ele>
        <time>2020-08-09T07:54:01Z</time>
      </trkpt>
      <trkpt lat="47.30028" lon="-1.49709">
        <ele>54.9151</ele>
        <time>2020-08-09T07:54:03Z</time>
      </trkpt>
      <trkpt lat="47.30021" lon="-1.49707">
        <ele>54.943</ele>
        <time>2020-08-09T07:54:06Z</time>
      </trkpt>
      <trkpt lat="47.30015" lon="-1.49705">
        <ele>54.9692</ele>
        <time>2020-08-09T07:54:09Z</time>
      </trkpt>
      <trkpt lat="47.30008" lon="-1.4971">
        <ele>54.9993</ele>
        <time>2020-08-09T07:54:13Z</time>
      </trkpt>
      <trkpt lat="47.30006" lon="-1.49719">
        <ele>55.0157</ele>
        <time>2020-08-09T07:54:16Z</time>
      </trkpt>
      <trkpt lat="47.30005" lon="-1.49726">
        <ele>55.0255</ele>
        <time>2020-08-09T07:54:18Z</time>
      </trkpt>
      <trkpt lat="47.30004" lon="-1.49736">
        <ele>55.038</ele>
        <time>2020-08-09T07:54:21Z</time>
      </trkpt>
      <trkpt lat="47.30002" lon="-1.49744">
        <ele>55.0451</ele>
        <time>2020-08-09T07:54:23Z</time>
      </trkpt>
      <trkpt lat="47.30001" lon="-1.49749">
        <ele>55.0479</ele>
        <time>2020-08-09T07:54:24Z</time>
      </trkpt>
      <trkpt lat="47.29999" lon="-1.49755">
        <ele>55.0503</ele>
        <time>2020-08-09T07:54:25Z</time>
      </trkpt>
      <trkpt lat="47.29998" lon="-1.49763">
        <ele>55.0587</ele>
        <time>2020-08-09T07:54:28Z</time>
      </trkpt>
      <trkpt lat="47.29997" lon="-1.49767">
        <ele>55.0615</ele>
        <time>2020-08-09T07:54:29Z</time>
      </trkpt>
      <trkpt lat="47.29996" lon="-1.49775">
        <ele>55.0672</ele>
        <time>2020-08-09T07:54:31Z</time>
      </trkpt>
      <trkpt lat="47.29993" lon="-1.4978">
        <ele>55.0729</ele>
        <time>2020-08-09T07:54:33Z</time>
      </trkpt>
      <trkpt lat="47.29989" lon="-1.49788">
        <ele>55.0802</ele>
        <time>2020-08-09T07:54:35Z</time>
      </trkpt>
      <trkpt lat="47.29984" lon="-1.49794">
        <ele>55.0889</ele>
        <time>2020-08-09T07:54:37Z</time>
      </trkpt>
      <trkpt lat="47.2998" lon="-1.49798">
        <ele>55.097</ele>
        <time>2020-08-09T07:54:39Z</time>
      </trkpt>
      <trkpt lat="47.29978" lon="-1.49801">
        <ele>55.1007</ele>
        <time>2020-08-09T07:54:40Z</time>
      </trkpt>
      <trkpt lat="47.29976" lon="-1.49803">
        <ele>55.1045</ele>
        <time>2020-08-09T07:54:41Z</time>
      </trkpt>
      <trkpt lat="47.29972" lon="-1.49807">
        <ele>55.111</ele>
        <time>2020-08-09T07:54:43Z</time>
      </trkpt>
      <trkpt lat="47.29968" lon="-1.49809">
        <ele>55.1171</ele>
        <time>2020-08-09T07:54:45Z</time>
      </trkpt>
      <trkpt lat="47.29965" lon="-1.49811">
        <ele>55.1197</ele>
        <time>2020-08-09T07:54:46Z</time>
      </trkpt>
      <trkpt lat="47.29961" lon="-1.49815">
        <ele>55.1246</ele>
        <time>2020-08-09T07:54:48Z</time>
      </trkpt>
      <trkpt lat="47.29956" lon="-1.49818">
        <ele>55.1289</ele>
        <time>2020-08-09T07:54:50Z</time>
      </trkpt>
      <trkpt lat="47.29951" lon="-1.49822">
        <ele>55.1327</ele>
        <time>2020-08-09T07:54:52Z</time>
      </trkpt>
      <trkpt lat="47.29949" lon="-1.49824">
        <ele>55.1344</ele>
        <time>2020-08-09T07:54:53Z</time>
      </trkpt>
      <trkpt lat="47.29946" lon="-1.49827">
        <ele>55.1377</ele>
        <time>2020-08-09T07:54:55Z</time>
      </trkpt>
      <trkpt lat="47.29938" lon="-1.49836">
        <ele>55.1428</ele>
        <time>2020-08-09T07:54:58Z</time>
      </trkpt>
      <trkpt lat="47.29936" lon="-1.49839">
        <ele>55.1444</ele>
        <time>2020-08-09T07:54:59Z</time>
      </trkpt>
      <trkpt lat="47.29934" lon="-1.49842">
        <ele>55.1461</ele>
        <time>2020-08-09T07:55:00Z</time>
      </trkpt>
      <trkpt lat="47.29931" lon="-1.49845">
        <ele>55.1477</ele>
        <time>2020-08-09T07:55:01Z</time>
      </trkpt>
      <trkpt lat="47.29929" lon="-1.49848">
        <ele>55.1494</ele>
        <time>2020-08-09T07:55:02Z</time>
      </trkpt>
      <trkpt lat="47.29927" lon="-1.49851">
        <ele>55.1514</ele>
        <time>2020-08-09T07:55:03Z</time>
      </trkpt>
      <trkpt lat="47.29924" lon="-1.49854">
        <ele>55.1534</ele>
        <time>2020-08-09T07:55:04Z</time>
      </trkpt>
      <trkpt lat="47.29921" lon="-1.49858">
        <ele>55.1577</ele>
        <time>2020-08-09T07:55:06Z</time>
      </trkpt>
      <trkpt lat="47.29928" lon="-1.49867">
        <ele>55.1677</ele>
        <time>2020-08-09T07:55:10Z</time>
      </trkpt>
      <trkpt lat="47.29933" lon="-1.49876">
        <ele>55.1764</ele>
        <time>2020-08-09T07:55:13Z</time>
      </trkpt>
      <trkpt lat="47.29935" lon="-1.49879">
        <ele>55.1794</ele>
        <time>2020-08-09T07:55:14Z</time>
      </trkpt>
      <trkpt lat="47.29937" lon="-1.49886">
        <ele>55.1854</ele>
        <time>2020-08-09T07:55:16Z</time>
      </trkpt>
      <trkpt lat="47.29938" lon="-1.4989">
        <ele>55.1883</ele>
        <time>2020-08-09T07:55:17Z</time>
      </trkpt>
      <trkpt lat="47.2994" lon="-1.49897">
        <ele>55.1944</ele>
        <time>2020-08-09T07:55:19Z</time>
      </trkpt>
      <trkpt lat="47.29941" lon="-1.499">
        <ele>55.197</ele>
        <time>2020-08-09T07:55:20Z</time>
      </trkpt>
      <trkpt lat="47.29942" lon="-1.49903">
        <ele>55.2001</ele>
        <time>2020-08-09T07:55:21Z</time>
      </trkpt>
      <trkpt lat="47.29943" lon="-1.4991">
        <ele>55.2058</ele>
        <time>2020-08-09T07:55:23Z</time>
      </trkpt>
      <trkpt lat="47.29943" lon="-1.49914">
        <ele>55.2083</ele>
        <time>2020-08-09T07:55:24Z</time>
      </trkpt>
      <trkpt lat="47.29944" lon="-1.49919">
        <ele>55.2129</ele>
        <time>2020-08-09T07:55:26Z</time>
      </trkpt>
      <trkpt lat="47.29943" lon="-1.4993">
        <ele>55.2187</ele>
        <time>2020-08-09T07:55:29Z</time>
      </trkpt>
      <trkpt lat="47.29941" lon="-1.49937">
        <ele>55.2221</ele>
        <time>2020-08-09T07:55:31Z</time>
      </trkpt>
      <trkpt lat="47.29941" lon="-1.4994">
        <ele>55.2238</ele>
        <time>2020-08-09T07:55:32Z</time>
      </trkpt>
      <trkpt lat="47.2994" lon="-1.49943">
        <ele>55.2251</ele>
        <time>2020-08-09T07:55:33Z</time>
      </trkpt>
      <trkpt lat="47.29939" lon="-1.49947">
        <ele>55.2259</ele>
        <time>2020-08-09T07:55:34Z</time>
      </trkpt>
      <trkpt lat="47.29936" lon="-1.49954">
        <ele>55.228</ele>
        <time>2020-08-09T07:55:37Z</time>
      </trkpt>
      <trkpt lat="47.29932" lon="-1.49961">
        <ele>55.2292</ele>
        <time>2020-08-09T07:55:39Z</time>
      </trkpt>
      <trkpt lat="47.29931" lon="-1.49964">
        <ele>55.2302</ele>
        <time>2020-08-09T07:55:40Z</time>
      </trkpt>
      <trkpt lat="47.29929" lon="-1.49967">
        <ele>55.2314</ele>
        <time>2020-08-09T07:55:41Z</time>
      </trkpt>
      <trkpt lat="47.29924" lon="-1.4997">
        <ele>55.2346</ele>
        <time>2020-08-09T07:55:43Z</time>
      </trkpt>
      <trkpt lat="47.2992" lon="-1.49974">
        <ele>55.2389</ele>
        <time>2020-08-09T07:55:45Z</time>
      </trkpt>
      <trkpt lat="47.29914" lon="-1.49978">
        <ele>55.2476</ele>
        <time>2020-08-09T07:55:48Z</time>
      </trkpt>
      <trkpt lat="47.2991" lon="-1.49981">
        <ele>55.2528</ele>
        <time>2020-08-09T07:55:50Z</time>
      </trkpt>
      <trkpt lat="47.29908" lon="-1.4999">
        <ele>55.2581</ele>
        <time>2020-08-09T07:55:52Z</time>
      </trkpt>
      <trkpt lat="47.29907" lon="-1.49999">
        <ele>55.2618</ele>
        <time>2020-08-09T07:55:54Z</time>
      </trkpt>
      <trkpt lat="47.29907" lon="-1.50002">
        <ele>55.2636</ele>
        <time>2020-08-09T07:55:55Z</time>
      </trkpt>
      <trkpt lat="47.29908" lon="-1.50009">
        <ele>55.2667</ele>
        <time>2020-08-09T07:55:57Z</time>
      </trkpt>
      <trkpt lat="47.29909" lon="-1.50017">
        <ele>55.27</ele>
        <time>2020-08-09T07:55:59Z</time>
      </trkpt>
      <trkpt lat="47.2991" lon="-1.50024">
        <ele>55.2728</ele>
        <time>2020-08-09T07:56:01Z</time>
      </trkpt>
      <trkpt lat="47.2991" lon="-1.50034">
        <ele>55.2769</ele>
        <time>2020-08-09T07:56:04Z</time>
      </trkpt>
      <trkpt lat="47.2991" lon="-1.50042">
        <ele>55.2808</ele>
        <time>2020-08-09T07:56:06Z</time>
      </trkpt>
      <trkpt lat="47.2991" lon="-1.50046">
        <ele>55.2826</ele>
        <time>2020-08-09T07:56:07Z</time>
      </trkpt>
      <trkpt lat="47.29911" lon="-1.50056">
        <ele>55.2889</ele>
        <time>2020-08-09T07:56:10Z</time>
      </trkpt>
      <trkpt lat="47.29911" lon="-1.50063">
        <ele>55.2932</ele>
        <time>2020-08-09T07:56:12Z</time>
      </trkpt>
      <trkpt lat="47.29911" lon="-1.50068">
        <ele>55.2974</ele>
        <time>2020-08-09T07:56:14Z</time>
      </trkpt>
      <trkpt lat="47.29911" lon="-1.50076">
        <ele>55.3014</ele>
        <time>2020-08-09T07:56:16Z</time>
      </trkpt>
      <trkpt lat="47.29911" lon="-1.50079">
        <ele>55.3037</ele>
        <time>2020-08-09T07:56:17Z</time>
      </trkpt>
      <trkpt lat="47.29912" lon="-1.50084">
        <ele>55.3057</ele>
        <time>2020-08-09T07:56:18Z</time>
      </trkpt>
      <trkpt lat="47.29912" lon="-1.50088">
        <ele>55.3075</ele>
        <time>2020-08-09T07:56:19Z</time>
      </trkpt>
      <trkpt lat="47.29913" lon="-1.50092">
        <ele>55.309</ele>
        <time>2020-08-09T07:56:20Z</time>
      </trkpt>
      <trkpt lat="47.29913" lon="-1.50099">
        <ele>55.3121</ele>
        <time>2020-08-09T07:56:22Z</time>
      </trkpt>
      <trkpt lat="47.29914" lon="-1.50111">
        <ele>55.3201</ele>
        <time>2020-08-09T07:56:26Z</time>
      </trkpt>
      <trkpt lat="47.29916" lon="-1.50121">
        <ele>55.327</ele>
        <time>2020-08-09T07:56:29Z</time>
      </trkpt>
      <trkpt lat="47.29916" lon="-1.50129">
        <ele>55.3311</ele>
        <time>2020-08-09T07:56:31Z</time>
      </trkpt>
      <trkpt lat="47.29916" lon="-1.50136">
        <ele>55.336</ele>
        <time>2020-08-09T07:56:33Z</time>
      </trkpt>
      <trkpt lat="47.29917" lon="-1.5014">
        <ele>55.3386</ele>
        <time>2020-08-09T07:56:34Z</time>
      </trkpt>
      <trkpt lat="47.29918" lon="-1.5015">
        <ele>55.3462</ele>
        <time>2020-08-09T07:56:37Z</time>
      </trkpt>
      <trkpt lat="47.29919" lon="-1.50156">
        <ele>55.3512</ele>
        <time>2020-08-09T07:56:39Z</time>
      </trkpt>
      <trkpt lat="47.2992" lon="-1.50165">
        <ele>55.3589</ele>
        <time>2020-08-09T07:56:42Z</time>
      </trkpt>
      <trkpt lat="47.29921" lon="-1.50172">
        <ele>55.3632</ele>
        <time>2020-08-09T07:56:44Z</time>
      </trkpt>
      <trkpt lat="47.29921" lon="-1.50181">
        <ele>55.3675</ele>
        <time>2020-08-09T07:56:46Z</time>
      </trkpt>
      <trkpt lat="47.29921" lon="-1.5019">
        <ele>55.3719</ele>
        <time>2020-08-09T07:56:48Z</time>
      </trkpt>
      <trkpt lat="47.29922" lon="-1.502">
        <ele>55.3801</ele>
        <time>2020-08-09T07:56:51Z</time>
      </trkpt>
      <trkpt lat="47.29922" lon="-1.50211">
        <ele>55.3893</ele>
        <time>2020-08-09T07:56:54Z</time>
      </trkpt>
      <trkpt lat="47.29922" lon="-1.50215">
        <ele>55.3926</ele>
        <time>2020-08-09T07:56:55Z</time>
      </trkpt>
      <trkpt lat="47.29924" lon="-1.50223">
        <ele>55.3999</ele>
        <time>2020-08-09T07:56:57Z</time>
      </trkpt>
      <trkpt lat="47.29924" lon="-1.50229">
        <ele>55.4074</ele>
        <time>2020-08-09T07:56:59Z</time>
      </trkpt>
      <trkpt lat="47.29924" lon="-1.50234">
        <ele>55.4112</ele>
        <time>2020-08-09T07:57:00Z</time>
      </trkpt>
      <trkpt lat="47.29924" lon="-1.50238">
        <ele>55.4149</ele>
        <time>2020-08-09T07:57:01Z</time>
      </trkpt>
      <trkpt lat="47.29924" lon="-1.50242">
        <ele>55.4186</ele>
        <time>2020-08-09T07:57:02Z</time>
      </trkpt>
      <trkpt lat="47.29924" lon="-1.50251">
        <ele>55.4255</ele>
        <time>2020-08-09T07:57:04Z</time>
      </trkpt>
      <trkpt lat="47.29924" lon="-1.50254">
        <ele>55.4289</ele>
        <time>2020-08-09T07:57:05Z</time>
      </trkpt>
      <trkpt lat="47.29924" lon="-1.50262">
        <ele>55.4362</ele>
        <time>2020-08-09T07:57:07Z</time>
      </trkpt>
      <trkpt lat="47.29924" lon="-1.50266">
        <ele>55.4399</ele>
        <time>2020-08-09T07:57:08Z</time>
      </trkpt>
      <trkpt lat="47.29926" lon="-1.50275">
        <ele>55.4467</ele>
        <time>2020-08-09T07:57:10Z</time>
      </trkpt>
      <trkpt lat="47.29926" lon="-1.50287">
        <ele>55.4566</ele>
        <time>2020-08-09T07:57:13Z</time>
      </trkpt>
      <trkpt lat="47.29927" lon="-1.50292">
        <ele>55.4602</ele>
        <time>2020-08-09T07:57:14Z</time>
      </trkpt>
      <trkpt lat="47.29926" lon="-1.50299">
        <ele>55.467</ele>
        <time>2020-08-09T07:57:16Z</time>
      </trkpt>
      <trkpt lat="47.29928" lon="-1.50308">
        <ele>55.4741</ele>
        <time>2020-08-09T07:57:18Z</time>
      </trkpt>
      <trkpt lat="47.29929" lon="-1.50315">
        <ele>55.4809</ele>
        <time>2020-08-09T07:57:20Z</time>
      </trkpt>
      <trkpt lat="47.29929" lon="-1.50319">
        <ele>55.4844</ele>
        <time>2020-08-09T07:57:21Z</time>
      </trkpt>
      <trkpt lat="47.29929" lon="-1.50322">
        <ele>55.4878</ele>
        <time>2020-08-09T07:57:22Z</time>
      </trkpt>
      <trkpt lat="47.29931" lon="-1.50332">
        <ele>55.498</ele>
        <time>2020-08-09T07:57:25Z</time>
      </trkpt>
      <trkpt lat="47.2993" lon="-1.50339">
        <ele>55.5042</ele>
        <time>2020-08-09T07:57:27Z</time>
      </trkpt>
      <trkpt lat="47.2993" lon="-1.50348">
        <ele>55.51</ele>
        <time>2020-08-09T07:57:29Z</time>
      </trkpt>
      <trkpt lat="47.29931" lon="-1.50358">
        <ele>55.52</ele>
        <time>2020-08-09T07:57:32Z</time>
      </trkpt>
      <trkpt lat="47.29932" lon="-1.50364">
        <ele>55.5275</ele>
        <time>2020-08-09T07:57:34Z</time>
      </trkpt>
      <trkpt lat="47.29932" lon="-1.50371">
        <ele>55.5359</ele>
        <time>2020-08-09T07:57:36Z</time>
      </trkpt>
      <trkpt lat="47.29935" lon="-1.50383">
        <ele>55.5487</ele>
        <time>2020-08-09T07:57:39Z</time>
      </trkpt>
      <trkpt lat="47.29935" lon="-1.50392">
        <ele>55.558</ele>
        <time>2020-08-09T07:57:41Z</time>
      </trkpt>
      <trkpt lat="47.29936" lon="-1.50399">
        <ele>55.5682</ele>
        <time>2020-08-09T07:57:43Z</time>
      </trkpt>
      <trkpt lat="47.29936" lon="-1.50407">
        <ele>55.5795</ele>
        <time>2020-08-09T07:57:45Z</time>
      </trkpt>
      <trkpt lat="47.29936" lon="-1.50415">
        <ele>55.5916</ele>
        <time>2020-08-09T07:57:47Z</time>
      </trkpt>
      <trkpt lat="47.29936" lon="-1.50419">
        <ele>55.5978</ele>
        <time>2020-08-09T07:57:48Z</time>
      </trkpt>
      <trkpt lat="47.29937" lon="-1.50426">
        <ele>55.6114</ele>
        <time>2020-08-09T07:57:50Z</time>
      </trkpt>
      <trkpt lat="47.29937" lon="-1.5043">
        <ele>55.6176</ele>
        <time>2020-08-09T07:57:51Z</time>
      </trkpt>
      <trkpt lat="47.29937" lon="-1.50433">
        <ele>55.6237</ele>
        <time>2020-08-09T07:57:52Z</time>
      </trkpt>
      <trkpt lat="47.29938" lon="-1.50439">
        <ele>55.6357</ele>
        <time>2020-08-09T07:57:54Z</time>
      </trkpt>
      <trkpt lat="47.29937" lon="-1.50446">
        <ele>55.6463</ele>
        <time>2020-08-09T07:57:56Z</time>
      </trkpt>
      <trkpt lat="47.29938" lon="-1.50453">
        <ele>55.6577</ele>
        <time>2020-08-09T07:57:58Z</time>
      </trkpt>
      <trkpt lat="47.29938" lon="-1.50462">
        <ele>55.6685</ele>
        <time>2020-08-09T07:58:00Z</time>
      </trkpt>
      <trkpt lat="47.2994" lon="-1.50479">
        <ele>55.6985</ele>
        <time>2020-08-09T07:58:05Z</time>
      </trkpt>
      <trkpt lat="47.2994" lon="-1.5049">
        <ele>55.7103</ele>
        <time>2020-08-09T07:58:07Z</time>
      </trkpt>
      <trkpt lat="47.29942" lon="-1.50496">
        <ele>55.7214</ele>
        <time>2020-08-09T07:58:09Z</time>
      </trkpt>
      <trkpt lat="47.29942" lon="-1.50503">
        <ele>55.7318</ele>
        <time>2020-08-09T07:58:11Z</time>
      </trkpt>
      <trkpt lat="47.29943" lon="-1.5051">
        <ele>55.7421</ele>
        <time>2020-08-09T07:58:13Z</time>
      </trkpt>
      <trkpt lat="47.29943" lon="-1.50517">
        <ele>55.7574</ele>
        <time>2020-08-09T07:58:16Z</time>
      </trkpt>
      <trkpt lat="47.29944" lon="-1.50524">
        <ele>55.7677</ele>
        <time>2020-08-09T07:58:18Z</time>
      </trkpt>
      <trkpt lat="47.29946" lon="-1.50534">
        <ele>55.7832</ele>
        <time>2020-08-09T07:58:21Z</time>
      </trkpt>
      <trkpt lat="47.29947" lon="-1.50542">
        <ele>55.7939</ele>
        <time>2020-08-09T07:58:23Z</time>
      </trkpt>
      <trkpt lat="47.29948" lon="-1.50548">
        <ele>55.8041</ele>
        <time>2020-08-09T07:58:25Z</time>
      </trkpt>
      <trkpt lat="47.29949" lon="-1.50553">
        <ele>55.8092</ele>
        <time>2020-08-09T07:58:26Z</time>
      </trkpt>
      <trkpt lat="47.29949" lon="-1.50562">
        <ele>55.8194</ele>
        <time>2020-08-09T07:58:28Z</time>
      </trkpt>
      <trkpt lat="47.29949" lon="-1.50578">
        <ele>55.8362</ele>
        <time>2020-08-09T07:58:31Z</time>
      </trkpt>
      <trkpt lat="47.2995" lon="-1.50586">
        <ele>55.8476</ele>
        <time>2020-08-09T07:58:33Z</time>
      </trkpt>
      <trkpt lat="47.2995" lon="-1.50594">
        <ele>55.8588</ele>
        <time>2020-08-09T07:58:35Z</time>
      </trkpt>
      <trkpt lat="47.2995" lon="-1.50607">
        <ele>55.8752</ele>
        <time>2020-08-09T07:58:38Z</time>
      </trkpt>
      <trkpt lat="47.29948" lon="-1.50615">
        <ele>55.8861</ele>
        <time>2020-08-09T07:58:40Z</time>
      </trkpt>
      <trkpt lat="47.29948" lon="-1.50623">
        <ele>55.8967</ele>
        <time>2020-08-09T07:58:42Z</time>
      </trkpt>
      <trkpt lat="47.2995" lon="-1.50629">
        <ele>55.9071</ele>
        <time>2020-08-09T07:58:44Z</time>
      </trkpt>
      <trkpt lat="47.29953" lon="-1.50636">
        <ele>55.9185</ele>
        <time>2020-08-09T07:58:46Z</time>
      </trkpt>
      <trkpt lat="47.29955" lon="-1.50645">
        <ele>55.9365</ele>
        <time>2020-08-09T07:58:49Z</time>
      </trkpt>
      <trkpt lat="47.29956" lon="-1.50656">
        <ele>55.9553</ele>
        <time>2020-08-09T07:58:52Z</time>
      </trkpt>
      <trkpt lat="47.29956" lon="-1.50664">
        <ele>55.969</ele>
        <time>2020-08-09T07:58:54Z</time>
      </trkpt>
      <trkpt lat="47.29957" lon="-1.50672">
        <ele>55.9838</ele>
        <time>2020-08-09T07:58:56Z</time>
      </trkpt>
      <trkpt lat="47.29957" lon="-1.50682">
        <ele>56.0067</ele>
        <time>2020-08-09T07:58:59Z</time>
      </trkpt>
      <trkpt lat="47.29958" lon="-1.50686">
        <ele>56.0146</ele>
        <time>2020-08-09T07:59:00Z</time>
      </trkpt>
      <trkpt lat="47.29958" lon="-1.50691">
        <ele>56.0224</ele>
        <time>2020-08-09T07:59:01Z</time>
      </trkpt>
      <trkpt lat="47.29958" lon="-1.50696">
        <ele>56.0298</ele>
        <time>2020-08-09T07:59:02Z</time>
      </trkpt>
      <trkpt lat="47.29957" lon="-1.50704">
        <ele>56.0515</ele>
        <time>2020-08-09T07:59:05Z</time>
      </trkpt>
      <trkpt lat="47.29959" lon="-1.50715">
        <ele>56.0728</ele>
        <time>2020-08-09T07:59:08Z</time>
      </trkpt>
      <trkpt lat="47.29958" lon="-1.50724">
        <ele>56.0862</ele>
        <time>2020-08-09T07:59:10Z</time>
      </trkpt>
      <trkpt lat="47.2996" lon="-1.50735">
        <ele>56.106</ele>
        <time>2020-08-09T07:59:13Z</time>
      </trkpt>
      <trkpt lat="47.2996" lon="-1.50743">
        <ele>56.1202</ele>
        <time>2020-08-09T07:59:15Z</time>
      </trkpt>
      <trkpt lat="47.29962" lon="-1.50754">
        <ele>56.1449</ele>
        <time>2020-08-09T07:59:18Z</time>
      </trkpt>
      <trkpt lat="47.29962" lon="-1.50759">
        <ele>56.1539</ele>
        <time>2020-08-09T07:59:19Z</time>
      </trkpt>
      <trkpt lat="47.29963" lon="-1.50763">
        <ele>56.1635</ele>
        <time>2020-08-09T07:59:20Z</time>
      </trkpt>
      <trkpt lat="47.29963" lon="-1.50768">
        <ele>56.1734</ele>
        <time>2020-08-09T07:59:21Z</time>
      </trkpt>
      <trkpt lat="47.29963" lon="-1.50776">
        <ele>56.1931</ele>
        <time>2020-08-09T07:59:23Z</time>
      </trkpt>
      <trkpt lat="47.29963" lon="-1.50781">
        <ele>56.2025</ele>
        <time>2020-08-09T07:59:24Z</time>
      </trkpt>
      <trkpt lat="47.29964" lon="-1.50788">
        <ele>56.2207</ele>
        <time>2020-08-09T07:59:26Z</time>
      </trkpt>
      <trkpt lat="47.29965" lon="-1.50792">
        <ele>56.2301</ele>
        <time>2020-08-09T07:59:27Z</time>
      </trkpt>
      <trkpt lat="47.29965" lon="-1.50799">
        <ele>56.2497</ele>
        <time>2020-08-09T07:59:29Z</time>
      </trkpt>
      <trkpt lat="47.29965" lon="-1.50803">
        <ele>56.2601</ele>
        <time>2020-08-09T07:59:30Z</time>
      </trkpt>
      <trkpt lat="47.29968" lon="-1.50812">
        <ele>56.2824</ele>
        <time>2020-08-09T07:59:32Z</time>
      </trkpt>
      <trkpt lat="47.29968" lon="-1.5082">
        <ele>56.3061</ele>
        <time>2020-08-09T07:59:34Z</time>
      </trkpt>
      <trkpt lat="47.29968" lon="-1.50824">
        <ele>56.3178</ele>
        <time>2020-08-09T07:59:35Z</time>
      </trkpt>
      <trkpt lat="47.29969" lon="-1.50833">
        <ele>56.3414</ele>
        <time>2020-08-09T07:59:37Z</time>
      </trkpt>
      <trkpt lat="47.2997" lon="-1.50846">
        <ele>56.3772</ele>
        <time>2020-08-09T07:59:40Z</time>
      </trkpt>
      <trkpt lat="47.29969" lon="-1.50853">
        <ele>56.4019</ele>
        <time>2020-08-09T07:59:42Z</time>
      </trkpt>
      <trkpt lat="47.29968" lon="-1.50862">
        <ele>56.4281</ele>
        <time>2020-08-09T07:59:44Z</time>
      </trkpt>
      <trkpt lat="47.29969" lon="-1.50874">
        <ele>56.4686</ele>
        <time>2020-08-09T07:59:47Z</time>
      </trkpt>
      <trkpt lat="47.29969" lon="-1.50881">
        <ele>56.4965</ele>
        <time>2020-08-09T07:59:49Z</time>
      </trkpt>
      <trkpt lat="47.2997" lon="-1.50888">
        <ele>56.5244</ele>
        <time>2020-08-09T07:59:51Z</time>
      </trkpt>
      <trkpt lat="47.2997" lon="-1.50896">
        <ele>56.5519</ele>
        <time>2020-08-09T07:59:53Z</time>
      </trkpt>
      <trkpt lat="47.29971" lon="-1.50905">
        <ele>56.5796</ele>
        <time>2020-08-09T07:59:55Z</time>
      </trkpt>
      <trkpt lat="47.2997" lon="-1.50916">
        <ele>56.6215</ele>
        <time>2020-08-09T07:59:58Z</time>
      </trkpt>
      <trkpt lat="47.29971" lon="-1.50924">
        <ele>56.6493</ele>
        <time>2020-08-09T08:00:00Z</time>
      </trkpt>
      <trkpt lat="47.29973" lon="-1.50935">
        <ele>56.6916</ele>
        <time>2020-08-09T08:00:03Z</time>
      </trkpt>
      <trkpt lat="47.29973" lon="-1.50943">
        <ele>56.7194</ele>
        <time>2020-08-09T08:00:05Z</time>
      </trkpt>
      <trkpt lat="47.29973" lon="-1.50947">
        <ele>56.7331</ele>
        <time>2020-08-09T08:00:06Z</time>
      </trkpt>
      <trkpt lat="47.29973" lon="-1.50952">
        <ele>56.7469</ele>
        <time>2020-08-09T08:00:07Z</time>
      </trkpt>
      <trkpt lat="47.29973" lon="-1.50956">
        <ele>56.7607</ele>
        <time>2020-08-09T08:00:08Z</time>
      </trkpt>
      <trkpt lat="47.29973" lon="-1.50961">
        <ele>56.7741</ele>
        <time>2020-08-09T08:00:09Z</time>
      </trkpt>
      <trkpt lat="47.29973" lon="-1.50964">
        <ele>56.7873</ele>
        <time>2020-08-09T08:00:10Z</time>
      </trkpt>
      <trkpt lat="47.29973" lon="-1.50968">
        <ele>56.8003</ele>
        <time>2020-08-09T08:00:11Z</time>
      </trkpt>
      <trkpt lat="47.29975" lon="-1.50976">
        <ele>56.827</ele>
        <time>2020-08-09T08:00:13Z</time>
      </trkpt>
      <trkpt lat="47.29975" lon="-1.50984">
        <ele>56.8537</ele>
        <time>2020-08-09T08:00:15Z</time>
      </trkpt>
      <trkpt lat="47.29976" lon="-1.50989">
        <ele>56.8676</ele>
        <time>2020-08-09T08:00:16Z</time>
      </trkpt>
      <trkpt lat="47.29976" lon="-1.50993">
        <ele>56.8813</ele>
        <time>2020-08-09T08:00:17Z</time>
      </trkpt>
      <trkpt lat="47.29977" lon="-1.50996">
        <ele>56.895</ele>
        <time>2020-08-09T08:00:18Z</time>
      </trkpt>
      <trkpt lat="47.29977" lon="-1.51001">
        <ele>56.9089</ele>
        <time>2020-08-09T08:00:19Z</time>
      </trkpt>
      <trkpt lat="47.29977" lon="-1.51005">
        <ele>56.9233</ele>
        <time>2020-08-09T08:00:20Z</time>
      </trkpt>
      <trkpt lat="47.29978" lon="-1.5101">
        <ele>56.9379</ele>
        <time>2020-08-09T08:00:21Z</time>
      </trkpt>
      <trkpt lat="47.29978" lon="-1.51019">
        <ele>56.966</ele>
        <time>2020-08-09T08:00:23Z</time>
      </trkpt>
      <trkpt lat="47.29978" lon="-1.51028">
        <ele>56.9934</ele>
        <time>2020-08-09T08:00:25Z</time>
      </trkpt>
      <trkpt lat="47.29978" lon="-1.51032">
        <ele>57.0067</ele>
        <time>2020-08-09T08:00:26Z</time>
      </trkpt>
      <trkpt lat="47.29978" lon="-1.51036">
        <ele>57.0202</ele>
        <time>2020-08-09T08:00:27Z</time>
      </trkpt>
      <trkpt lat="47.29978" lon="-1.5104">
        <ele>57.0338</ele>
        <time>2020-08-09T08:00:28Z</time>
      </trkpt>
      <trkpt lat="47.29979" lon="-1.51048">
        <ele>57.0618</ele>
        <time>2020-08-09T08:00:30Z</time>
      </trkpt>
      <trkpt lat="47.29978" lon="-1.51057">
        <ele>57.0896</ele>
        <time>2020-08-09T08:00:32Z</time>
      </trkpt>
      <trkpt lat="47.29978" lon="-1.51061">
        <ele>57.1035</ele>
        <time>2020-08-09T08:00:33Z</time>
      </trkpt>
      <trkpt lat="47.29979" lon="-1.51071">
        <ele>57.1317</ele>
        <time>2020-08-09T08:00:35Z</time>
      </trkpt>
      <trkpt lat="47.29979" lon="-1.5108">
        <ele>57.1594</ele>
        <time>2020-08-09T08:00:37Z</time>
      </trkpt>
      <trkpt lat="47.2998" lon="-1.51091">
        <ele>57.2</ele>
        <time>2020-08-09T08:00:40Z</time>
      </trkpt>
      <trkpt lat="47.29983" lon="-1.51098">
        <ele>57.2273</ele>
        <time>2020-08-09T08:00:42Z</time>
      </trkpt>
      <trkpt lat="47.29983" lon="-1.51107">
        <ele>57.2539</ele>
        <time>2020-08-09T08:00:44Z</time>
      </trkpt>
      <trkpt lat="47.29984" lon="-1.51115">
        <ele>57.2794</ele>
        <time>2020-08-09T08:00:46Z</time>
      </trkpt>
      <trkpt lat="47.29983" lon="-1.51123">
        <ele>57.3038</ele>
        <time>2020-08-09T08:00:48Z</time>
      </trkpt>
      <trkpt lat="47.29983" lon="-1.51129">
        <ele>57.3269</ele>
        <time>2020-08-09T08:00:50Z</time>
      </trkpt>
      <trkpt lat="47.29985" lon="-1.51141">
        <ele>57.3596</ele>
        <time>2020-08-09T08:00:53Z</time>
      </trkpt>
      <trkpt lat="47.29987" lon="-1.51149">
        <ele>57.3804</ele>
        <time>2020-08-09T08:00:55Z</time>
      </trkpt>
      <trkpt lat="47.29988" lon="-1.51154">
        <ele>57.3904</ele>
        <time>2020-08-09T08:00:56Z</time>
      </trkpt>
      <trkpt lat="47.29988" lon="-1.51161">
        <ele>57.4096</ele>
        <time>2020-08-09T08:00:58Z</time>
      </trkpt>
      <trkpt lat="47.29988" lon="-1.51165">
        <ele>57.419</ele>
        <time>2020-08-09T08:00:59Z</time>
      </trkpt>
      <trkpt lat="47.29989" lon="-1.51169">
        <ele>57.4285</ele>
        <time>2020-08-09T08:01:00Z</time>
      </trkpt>
      <trkpt lat="47.29991" lon="-1.51177">
        <ele>57.4473</ele>
        <time>2020-08-09T08:01:02Z</time>
      </trkpt>
      <trkpt lat="47.29991" lon="-1.51185">
        <ele>57.4652</ele>
        <time>2020-08-09T08:01:04Z</time>
      </trkpt>
      <trkpt lat="47.29993" lon="-1.51192">
        <ele>57.4834</ele>
        <time>2020-08-09T08:01:06Z</time>
      </trkpt>
      <trkpt lat="47.29994" lon="-1.51196">
        <ele>57.493</ele>
        <time>2020-08-09T08:01:07Z</time>
      </trkpt>
      <trkpt lat="47.29996" lon="-1.51203">
        <ele>57.5134</ele>
        <time>2020-08-09T08:01:09Z</time>
      </trkpt>
      <trkpt lat="47.29998" lon="-1.51212">
        <ele>57.5354</ele>
        <time>2020-08-09T08:01:11Z</time>
      </trkpt>
      <trkpt lat="47.3" lon="-1.51216">
        <ele>57.5471</ele>
        <time>2020-08-09T08:01:12Z</time>
      </trkpt>
      <trkpt lat="47.30001" lon="-1.51224">
        <ele>57.5713</ele>
        <time>2020-08-09T08:01:14Z</time>
      </trkpt>
      <trkpt lat="47.30003" lon="-1.51231">
        <ele>57.5958</ele>
        <time>2020-08-09T08:01:16Z</time>
      </trkpt>
      <trkpt lat="47.30001" lon="-1.51242">
        <ele>57.6315</ele>
        <time>2020-08-09T08:01:19Z</time>
      </trkpt>
      <trkpt lat="47.3" lon="-1.51245">
        <ele>57.6424</ele>
        <time>2020-08-09T08:01:20Z</time>
      </trkpt>
      <trkpt lat="47.3" lon="-1.51249">
        <ele>57.6521</ele>
        <time>2020-08-09T08:01:21Z</time>
      </trkpt>
      <trkpt lat="47.29999" lon="-1.51253">
        <ele>57.6611</ele>
        <time>2020-08-09T08:01:22Z</time>
      </trkpt>
      <trkpt lat="47.29999" lon="-1.51261">
        <ele>57.6797</ele>
        <time>2020-08-09T08:01:24Z</time>
      </trkpt>
      <trkpt lat="47.29998" lon="-1.51268">
        <ele>57.6975</ele>
        <time>2020-08-09T08:01:26Z</time>
      </trkpt>
      <trkpt lat="47.29997" lon="-1.51272">
        <ele>57.7062</ele>
        <time>2020-08-09T08:01:27Z</time>
      </trkpt>
      <trkpt lat="47.29996" lon="-1.51281">
        <ele>57.7284</ele>
        <time>2020-08-09T08:01:29Z</time>
      </trkpt>
      <trkpt lat="47.29996" lon="-1.51285">
        <ele>57.7417</ele>
        <time>2020-08-09T08:01:30Z</time>
      </trkpt>
      <trkpt lat="47.29996" lon="-1.51285">
        <ele>24</ele>
        <time>2020-08-09T08:01:40Z</time>
      </trkpt>
      <trkpt lat="47.29996" lon="-1.51285">
        <ele>24</ele>
        <time>2020-08-09T08:05:20Z</time>
      </trkpt>
      <trkpt lat="47.29991" lon="-1.51309">
        <ele>60.0312</ele>
        <time>2020-08-09T08:05:20Z</time>
      </trkpt>
      <trkpt lat="47.29996" lon="-1.5131">
        <ele>60.0947</ele>
        <time>2020-08-09T08:05:24Z</time>
      </trkpt>
      <trkpt lat="47.30002" lon="-1.51307">
        <ele>60.1692</ele>
        <time>2020-08-09T08:05:29Z</time>
      </trkpt>
      <trkpt lat="47.30006" lon="-1.51309">
        <ele>60.1969</ele>
        <time>2020-08-09T08:05:31Z</time>
      </trkpt>
      <trkpt lat="47.30008" lon="-1.51316">
        <ele>60.223</ele>
        <time>2020-08-09T08:05:33Z</time>
      </trkpt>
      <trkpt lat="47.30006" lon="-1.51326">
        <ele>60.2473</ele>
        <time>2020-08-09T08:05:35Z</time>
      </trkpt>
      <trkpt lat="47.30009" lon="-1.51334">
        <ele>60.2708</ele>
        <time>2020-08-09T08:05:37Z</time>
      </trkpt>
      <trkpt lat="47.3001" lon="-1.51342">
        <ele>60.2933</ele>
        <time>2020-08-09T08:05:39Z</time>
      </trkpt>
      <trkpt lat="47.30012" lon="-1.51352">
        <ele>60.3142</ele>
        <time>2020-08-09T08:05:41Z</time>
      </trkpt>
      <trkpt lat="47.30013" lon="-1.51367">
        <ele>60.3441</ele>
        <time>2020-08-09T08:05:44Z</time>
      </trkpt>
      <trkpt lat="47.30012" lon="-1.51375">
        <ele>60.3632</ele>
        <time>2020-08-09T08:05:46Z</time>
      </trkpt>
      <trkpt lat="47.3001" lon="-1.51384">
        <ele>60.3818</ele>
        <time>2020-08-09T08:05:48Z</time>
      </trkpt>
      <trkpt lat="47.30009" lon="-1.51392">
        <ele>60.3992</ele>
        <time>2020-08-09T08:05:50Z</time>
      </trkpt>
      <trkpt lat="47.3001" lon="-1.51404">
        <ele>60.4236</ele>
        <time>2020-08-09T08:05:53Z</time>
      </trkpt>
      <trkpt lat="47.3001" lon="-1.51409">
        <ele>60.4315</ele>
        <time>2020-08-09T08:05:54Z</time>
      </trkpt>
      <trkpt lat="47.3001" lon="-1.51415">
        <ele>60.439</ele>
        <time>2020-08-09T08:05:55Z</time>
      </trkpt>
      <trkpt lat="47.30012" lon="-1.51423">
        <ele>60.454</ele>
        <time>2020-08-09T08:05:57Z</time>
      </trkpt>
      <trkpt lat="47.30012" lon="-1.5143">
        <ele>60.4687</ele>
        <time>2020-08-09T08:05:59Z</time>
      </trkpt>
      <trkpt lat="47.30013" lon="-1.51439">
        <ele>60.4829</ele>
        <time>2020-08-09T08:06:01Z</time>
      </trkpt>
      <trkpt lat="47.30013" lon="-1.51448">
        <ele>60.4974</ele>
        <time>2020-08-09T08:06:03Z</time>
      </trkpt>
      <trkpt lat="47.30014" lon="-1.51455">
        <ele>60.5114</ele>
        <time>2020-08-09T08:06:05Z</time>
      </trkpt>
      <trkpt lat="47.30013" lon="-1.51464">
        <ele>60.5251</ele>
        <time>2020-08-09T08:06:07Z</time>
      </trkpt>
      <trkpt lat="47.30015" lon="-1.51478">
        <ele>60.5454</ele>
        <time>2020-08-09T08:06:10Z</time>
      </trkpt>
      <trkpt lat="47.30016" lon="-1.51482">
        <ele>60.5521</ele>
        <time>2020-08-09T08:06:11Z</time>
      </trkpt>
      <trkpt lat="47.30016" lon="-1.51491">
        <ele>60.5661</ele>
        <time>2020-08-09T08:06:13Z</time>
      </trkpt>
      <trkpt lat="47.30018" lon="-1.51498">
        <ele>60.581</ele>
        <time>2020-08-09T08:06:15Z</time>
      </trkpt>
      <trkpt lat="47.30018" lon="-1.51503">
        <ele>60.5888</ele>
        <time>2020-08-09T08:06:16Z</time>
      </trkpt>
      <trkpt lat="47.30018" lon="-1.51513">
        <ele>60.6744</ele>
        <time>2020-08-09T08:06:18Z</time>
      </trkpt>
      <trkpt lat="47.30019" lon="-1.5152">
        <ele>60.6863</ele>
        <time>2020-08-09T08:06:20Z</time>
      </trkpt>
      <trkpt lat="47.3002" lon="-1.5153">
        <ele>60.7036</ele>
        <time>2020-08-09T08:06:23Z</time>
      </trkpt>
      <trkpt lat="47.3002" lon="-1.51536">
        <ele>60.7095</ele>
        <time>2020-08-09T08:06:24Z</time>
      </trkpt>
      <trkpt lat="47.30023" lon="-1.51553">
        <ele>60.7315</ele>
        <time>2020-08-09T08:06:28Z</time>
      </trkpt>
      <trkpt lat="47.3003" lon="-1.51565">
        <ele>60.7475</ele>
        <time>2020-08-09T08:06:31Z</time>
      </trkpt>
      <trkpt lat="47.30029" lon="-1.51573">
        <ele>60.7626</ele>
        <time>2020-08-09T08:06:34Z</time>
      </trkpt>
      <trkpt lat="47.30029" lon="-1.51577">
        <ele>60.7675</ele>
        <time>2020-08-09T08:06:35Z</time>
      </trkpt>
      <trkpt lat="47.30029" lon="-1.51582">
        <ele>60.7721</ele>
        <time>2020-08-09T08:06:36Z</time>
      </trkpt>
      <trkpt lat="47.30032" lon="-1.51587">
        <ele>60.7813</ele>
        <time>2020-08-09T08:06:38Z</time>
      </trkpt>
      <trkpt lat="47.30036" lon="-1.51595">
        <ele>60.7906</ele>
        <time>2020-08-09T08:06:40Z</time>
      </trkpt>
      <trkpt lat="47.30039" lon="-1.51603">
        <ele>60.8089</ele>
        <time>2020-08-09T08:06:44Z</time>
      </trkpt>
      <trkpt lat="47.30042" lon="-1.51612">
        <ele>60.8228</ele>
        <time>2020-08-09T08:06:47Z</time>
      </trkpt>
      <trkpt lat="47.30044" lon="-1.5162">
        <ele>60.8314</ele>
        <time>2020-08-09T08:06:49Z</time>
      </trkpt>
      <trkpt lat="47.30046" lon="-1.51626">
        <ele>60.8356</ele>
        <time>2020-08-09T08:06:50Z</time>
      </trkpt>
      <trkpt lat="47.30045" lon="-1.51634">
        <ele>60.8477</ele>
        <time>2020-08-09T08:06:53Z</time>
      </trkpt>
      <trkpt lat="47.30048" lon="-1.5164">
        <ele>60.855</ele>
        <time>2020-08-09T08:06:55Z</time>
      </trkpt>
      <trkpt lat="47.30045" lon="-1.51651">
        <ele>60.8648</ele>
        <time>2020-08-09T08:06:58Z</time>
      </trkpt>
      <trkpt lat="47.30048" lon="-1.51662">
        <ele>60.8711</ele>
        <time>2020-08-09T08:07:00Z</time>
      </trkpt>
      <trkpt lat="47.3005" lon="-1.51672">
        <ele>60.877</ele>
        <time>2020-08-09T08:07:02Z</time>
      </trkpt>
      <trkpt lat="47.3005" lon="-1.5168">
        <ele>60.8863</ele>
        <time>2020-08-09T08:07:05Z</time>
      </trkpt>
      <trkpt lat="47.3005" lon="-1.51684">
        <ele>60.8896</ele>
        <time>2020-08-09T08:07:06Z</time>
      </trkpt>
      <trkpt lat="47.30051" lon="-1.51691">
        <ele>60.8927</ele>
        <time>2020-08-09T08:07:07Z</time>
      </trkpt>
      <trkpt lat="47.30051" lon="-1.51701">
        <ele>60.8991</ele>
        <time>2020-08-09T08:07:09Z</time>
      </trkpt>
      <trkpt lat="47.30048" lon="-1.51708">
        <ele>60.9022</ele>
        <time>2020-08-09T08:07:10Z</time>
      </trkpt>
      <trkpt lat="47.30051" lon="-1.51717">
        <ele>60.9085</ele>
        <time>2020-08-09T08:07:12Z</time>
      </trkpt>
      <trkpt lat="47.30053" lon="-1.51723">
        <ele>60.9144</ele>
        <time>2020-08-09T08:07:14Z</time>
      </trkpt>
      <trkpt lat="47.30056" lon="-1.5173">
        <ele>60.92</ele>
        <time>2020-08-09T08:07:16Z</time>
      </trkpt>
      <trkpt lat="47.30058" lon="-1.51736">
        <ele>60.9263</ele>
        <time>2020-08-09T08:07:18Z</time>
      </trkpt>
      <trkpt lat="47.30063" lon="-1.5174">
        <ele>60.9353</ele>
        <time>2020-08-09T08:07:21Z</time>
      </trkpt>
      <trkpt lat="47.3007" lon="-1.51738">
        <ele>60.9419</ele>
        <time>2020-08-09T08:07:23Z</time>
      </trkpt>
      <trkpt lat="47.30075" lon="-1.51742">
        <ele>60.9519</ele>
        <time>2020-08-09T08:07:26Z</time>
      </trkpt>
      <trkpt lat="47.30078" lon="-1.51748">
        <ele>60.9582</ele>
        <time>2020-08-09T08:07:28Z</time>
      </trkpt>
      <trkpt lat="47.30085" lon="-1.51755">
        <ele>60.9667</ele>
        <time>2020-08-09T08:07:31Z</time>
      </trkpt>
      <trkpt lat="47.3009" lon="-1.51763">
        <ele>60.9717</ele>
        <time>2020-08-09T08:07:33Z</time>
      </trkpt>
      <trkpt lat="47.30092" lon="-1.51769">
        <ele>60.9737</ele>
        <time>2020-08-09T08:07:34Z</time>
      </trkpt>
      <trkpt lat="47.30092" lon="-1.51776">
        <ele>60.9754</ele>
        <time>2020-08-09T08:07:35Z</time>
      </trkpt>
      <trkpt lat="47.30096" lon="-1.51782">
        <ele>60.9767</ele>
        <time>2020-08-09T08:07:36Z</time>
      </trkpt>
      <trkpt lat="47.30097" lon="-1.51792">
        <ele>60.9787</ele>
        <time>2020-08-09T08:07:38Z</time>
      </trkpt>
      <trkpt lat="47.30101" lon="-1.51805">
        <ele>60.9809</ele>
        <time>2020-08-09T08:07:41Z</time>
      </trkpt>
      <trkpt lat="47.30103" lon="-1.51814">
        <ele>60.9832</ele>
        <time>2020-08-09T08:07:43Z</time>
      </trkpt>
      <trkpt lat="47.30104" lon="-1.5182">
        <ele>60.9863</ele>
        <time>2020-08-09T08:07:45Z</time>
      </trkpt>
      <trkpt lat="47.30105" lon="-1.51826">
        <ele>60.9881</ele>
        <time>2020-08-09T08:07:46Z</time>
      </trkpt>
      <trkpt lat="47.30107" lon="-1.51833">
        <ele>60.991</ele>
        <time>2020-08-09T08:07:48Z</time>
      </trkpt>
      <trkpt lat="47.30109" lon="-1.51841">
        <ele>60.9937</ele>
        <time>2020-08-09T08:07:50Z</time>
      </trkpt>
      <trkpt lat="47.30111" lon="-1.51849">
        <ele>60.9961</ele>
        <time>2020-08-09T08:07:52Z</time>
      </trkpt>
      <trkpt lat="47.30113" lon="-1.51857">
        <ele>60.998</ele>
        <time>2020-08-09T08:07:54Z</time>
      </trkpt>
      <trkpt lat="47.30115" lon="-1.51864">
        <ele>61.0001</ele>
        <time>2020-08-09T08:07:56Z</time>
      </trkpt>
      <trkpt lat="47.30116" lon="-1.51873">
        <ele>61.0016</ele>
        <time>2020-08-09T08:07:58Z</time>
      </trkpt>
      <trkpt lat="47.30118" lon="-1.51886">
        <ele>61.005</ele>
        <time>2020-08-09T08:08:01Z</time>
      </trkpt>
      <trkpt lat="47.30121" lon="-1.51892">
        <ele>61.0065</ele>
        <time>2020-08-09T08:08:03Z</time>
      </trkpt>
      <trkpt lat="47.30123" lon="-1.51897">
        <ele>61.0072</ele>
        <time>2020-08-09T08:08:04Z</time>
      </trkpt>
      <trkpt lat="47.30125" lon="-1.51901">
        <ele>61.0079</ele>
        <time>2020-08-09T08:08:05Z</time>
      </trkpt>
      <trkpt lat="47.30129" lon="-1.51907">
        <ele>61.0099</ele>
        <time>2020-08-09T08:08:07Z</time>
      </trkpt>
      <trkpt lat="47.30132" lon="-1.51918">
        <ele>61.0128</ele>
        <time>2020-08-09T08:08:10Z</time>
      </trkpt>
      <trkpt lat="47.30133" lon="-1.51925">
        <ele>61.0149</ele>
        <time>2020-08-09T08:08:12Z</time>
      </trkpt>
      <trkpt lat="47.30133" lon="-1.51929">
        <ele>61.0155</ele>
        <time>2020-08-09T08:08:13Z</time>
      </trkpt>
      <trkpt lat="47.30133" lon="-1.51933">
        <ele>61.016</ele>
        <time>2020-08-09T08:08:14Z</time>
      </trkpt>
      <trkpt lat="47.30135" lon="-1.5194">
        <ele>61.0166</ele>
        <time>2020-08-09T08:08:16Z</time>
      </trkpt>
      <trkpt lat="47.30134" lon="-1.51949">
        <ele>61.0167</ele>
        <time>2020-08-09T08:08:19Z</time>
      </trkpt>
      <trkpt lat="47.30132" lon="-1.51957">
        <ele>61.0164</ele>
        <time>2020-08-09T08:08:21Z</time>
      </trkpt>
      <trkpt lat="47.30126" lon="-1.51967">
        <ele>61.015</ele>
        <time>2020-08-09T08:08:24Z</time>
      </trkpt>
      <trkpt lat="47.30126" lon="-1.51975">
        <ele>61.0117</ele>
        <time>2020-08-09T08:08:27Z</time>
      </trkpt>
      <trkpt lat="47.30129" lon="-1.51983">
        <ele>61.0045</ele>
        <time>2020-08-09T08:08:30Z</time>
      </trkpt>
      <trkpt lat="47.30129" lon="-1.5199">
        <ele>60.9999</ele>
        <time>2020-08-09T08:08:32Z</time>
      </trkpt>
      <trkpt lat="47.30129" lon="-1.51997">
        <ele>60.9929</ele>
        <time>2020-08-09T08:08:35Z</time>
      </trkpt>
      <trkpt lat="47.30125" lon="-1.52006">
        <ele>60.9846</ele>
        <time>2020-08-09T08:08:38Z</time>
      </trkpt>
      <trkpt lat="47.30118" lon="-1.5202">
        <ele>60.9731</ele>
        <time>2020-08-09T08:08:42Z</time>
      </trkpt>
      <trkpt lat="47.30116" lon="-1.52023">
        <ele>60.9706</ele>
        <time>2020-08-09T08:08:43Z</time>
      </trkpt>
      <trkpt lat="47.30114" lon="-1.52025">
        <ele>60.9679</ele>
        <time>2020-08-09T08:08:44Z</time>
      </trkpt>
      <trkpt lat="47.30111" lon="-1.52031">
        <ele>60.9626</ele>
        <time>2020-08-09T08:08:46Z</time>
      </trkpt>
      <trkpt lat="47.3011" lon="-1.52034">
        <ele>60.9599</ele>
        <time>2020-08-09T08:08:47Z</time>
      </trkpt>
      <trkpt lat="47.30104" lon="-1.52045">
        <ele>60.9493</ele>
        <time>2020-08-09T08:08:50Z</time>
      </trkpt>
      <trkpt lat="47.30101" lon="-1.5205">
        <ele>60.9411</ele>
        <time>2020-08-09T08:08:52Z</time>
      </trkpt>
      <trkpt lat="47.30097" lon="-1.52057">
        <ele>60.9331</ele>
        <time>2020-08-09T08:08:54Z</time>
      </trkpt>
      <trkpt lat="47.30096" lon="-1.52059">
        <ele>60.9294</ele>
        <time>2020-08-09T08:08:55Z</time>
      </trkpt>
      <trkpt lat="47.30092" lon="-1.52068">
        <ele>60.919</ele>
        <time>2020-08-09T08:08:58Z</time>
      </trkpt>
      <trkpt lat="47.3009" lon="-1.52079">
        <ele>60.9027</ele>
        <time>2020-08-09T08:09:02Z</time>
      </trkpt>
      <trkpt lat="47.30089" lon="-1.52087">
        <ele>60.8948</ele>
        <time>2020-08-09T08:09:04Z</time>
      </trkpt>
      <trkpt lat="47.30089" lon="-1.5209">
        <ele>60.8908</ele>
        <time>2020-08-09T08:09:05Z</time>
      </trkpt>
      <trkpt lat="47.30092" lon="-1.52096">
        <ele>60.878</ele>
        <time>2020-08-09T08:09:08Z</time>
      </trkpt>
      <trkpt lat="47.3009" lon="-1.52104">
        <ele>60.8682</ele>
        <time>2020-08-09T08:09:10Z</time>
      </trkpt>
      <trkpt lat="47.30088" lon="-1.52116">
        <ele>60.8437</ele>
        <time>2020-08-09T08:09:14Z</time>
      </trkpt>
      <trkpt lat="47.30087" lon="-1.52125">
        <ele>60.8255</ele>
        <time>2020-08-09T08:09:17Z</time>
      </trkpt>
      <trkpt lat="47.30087" lon="-1.52129">
        <ele>60.8198</ele>
        <time>2020-08-09T08:09:18Z</time>
      </trkpt>
      <trkpt lat="47.30086" lon="-1.52135">
        <ele>60.8146</ele>
        <time>2020-08-09T08:09:19Z</time>
      </trkpt>
      <trkpt lat="47.30086" lon="-1.52145">
        <ele>60.8041</ele>
        <time>2020-08-09T08:09:21Z</time>
      </trkpt>
      <trkpt lat="47.30086" lon="-1.52156">
        <ele>60.7934</ele>
        <time>2020-08-09T08:09:23Z</time>
      </trkpt>
      <trkpt lat="47.30084" lon="-1.52164">
        <ele>60.7823</ele>
        <time>2020-08-09T08:09:25Z</time>
      </trkpt>
      <trkpt lat="47.30083" lon="-1.52173">
        <ele>60.7702</ele>
        <time>2020-08-09T08:09:27Z</time>
      </trkpt>
      <trkpt lat="47.3008" lon="-1.5218">
        <ele>60.7638</ele>
        <time>2020-08-09T08:09:28Z</time>
      </trkpt>
      <trkpt lat="47.30079" lon="-1.52188">
        <ele>60.7565</ele>
        <time>2020-08-09T08:09:29Z</time>
      </trkpt>
      <trkpt lat="47.30077" lon="-1.52198">
        <ele>60.7498</ele>
        <time>2020-08-09T08:09:30Z</time>
      </trkpt>
      <trkpt lat="47.30076" lon="-1.52201">
        <ele>60.744</ele>
        <time>2020-08-09T08:09:31Z</time>
      </trkpt>
      <trkpt lat="47.30075" lon="-1.52205">
        <ele>60.7381</ele>
        <time>2020-08-09T08:09:32Z</time>
      </trkpt>
      <trkpt lat="47.30076" lon="-1.52214">
        <ele>60.7268</ele>
        <time>2020-08-09T08:09:34Z</time>
      </trkpt>
      <trkpt lat="47.30075" lon="-1.52222">
        <ele>60.7162</ele>
        <time>2020-08-09T08:09:36Z</time>
      </trkpt>
      <trkpt lat="47.30075" lon="-1.52229">
        <ele>60.7054</ele>
        <time>2020-08-09T08:09:38Z</time>
      </trkpt>
      <trkpt lat="47.30072" lon="-1.52237">
        <ele>60.6895</ele>
        <time>2020-08-09T08:09:41Z</time>
      </trkpt>
      <trkpt lat="47.3007" lon="-1.52241">
        <ele>60.6844</ele>
        <time>2020-08-09T08:09:42Z</time>
      </trkpt>
      <trkpt lat="47.30068" lon="-1.52246">
        <ele>60.6788</ele>
        <time>2020-08-09T08:09:43Z</time>
      </trkpt>
      <trkpt lat="47.30066" lon="-1.52252">
        <ele>60.6668</ele>
        <time>2020-08-09T08:09:45Z</time>
      </trkpt>
      <trkpt lat="47.30062" lon="-1.52259">
        <ele>60.6556</ele>
        <time>2020-08-09T08:09:47Z</time>
      </trkpt>
      <trkpt lat="47.30058" lon="-1.52265">
        <ele>60.6446</ele>
        <time>2020-08-09T08:09:49Z</time>
      </trkpt>
      <trkpt lat="47.30055" lon="-1.52273">
        <ele>60.6285</ele>
        <time>2020-08-09T08:09:52Z</time>
      </trkpt>
      <trkpt lat="47.30053" lon="-1.52277">
        <ele>60.6232</ele>
        <time>2020-08-09T08:09:53Z</time>
      </trkpt>
      <trkpt lat="47.30051" lon="-1.52285">
        <ele>60.6135</ele>
        <time>2020-08-09T08:09:55Z</time>
      </trkpt>
      <trkpt lat="47.3005" lon="-1.5229">
        <ele>60.6079</ele>
        <time>2020-08-09T08:09:56Z</time>
      </trkpt>
      <trkpt lat="47.30049" lon="-1.523">
        <ele>60.5975</ele>
        <time>2020-08-09T08:09:58Z</time>
      </trkpt>
      <trkpt lat="47.30049" lon="-1.52305">
        <ele>60.5915</ele>
        <time>2020-08-09T08:09:59Z</time>
      </trkpt>
      <trkpt lat="47.30048" lon="-1.52312">
        <ele>60.5778</ele>
        <time>2020-08-09T08:10:01Z</time>
      </trkpt>
      <trkpt lat="47.30048" lon="-1.52316">
        <ele>60.5707</ele>
        <time>2020-08-09T08:10:02Z</time>
      </trkpt>
      <trkpt lat="47.3005" lon="-1.52323">
        <ele>60.5558</ele>
        <time>2020-08-09T08:10:04Z</time>
      </trkpt>
      <trkpt lat="47.3005" lon="-1.52327">
        <ele>60.5482</ele>
        <time>2020-08-09T08:10:05Z</time>
      </trkpt>
      <trkpt lat="47.30051" lon="-1.52332">
        <ele>60.5406</ele>
        <time>2020-08-09T08:10:06Z</time>
      </trkpt>
      <trkpt lat="47.30054" lon="-1.52345">
        <ele>60.5174</ele>
        <time>2020-08-09T08:10:09Z</time>
      </trkpt>
      <trkpt lat="47.30054" lon="-1.52353">
        <ele>60.5017</ele>
        <time>2020-08-09T08:10:11Z</time>
      </trkpt>
      <trkpt lat="47.30055" lon="-1.52362">
        <ele>60.4866</ele>
        <time>2020-08-09T08:10:13Z</time>
      </trkpt>
      <trkpt lat="47.30056" lon="-1.52372">
        <ele>60.4644</ele>
        <time>2020-08-09T08:10:16Z</time>
      </trkpt>
      <trkpt lat="47.30057" lon="-1.52378">
        <ele>60.4495</ele>
        <time>2020-08-09T08:10:18Z</time>
      </trkpt>
      <trkpt lat="47.30059" lon="-1.52388">
        <ele>60.4273</ele>
        <time>2020-08-09T08:10:21Z</time>
      </trkpt>
      <trkpt lat="47.3006" lon="-1.52396">
        <ele>60.4133</ele>
        <time>2020-08-09T08:10:23Z</time>
      </trkpt>
      <trkpt lat="47.3006" lon="-1.524">
        <ele>60.4064</ele>
        <time>2020-08-09T08:10:24Z</time>
      </trkpt>
      <trkpt lat="47.3006" lon="-1.52405">
        <ele>60.3996</ele>
        <time>2020-08-09T08:10:25Z</time>
      </trkpt>
      <trkpt lat="47.30061" lon="-1.5241">
        <ele>60.3934</ele>
        <time>2020-08-09T08:10:26Z</time>
      </trkpt>
      <trkpt lat="47.30061" lon="-1.52419">
        <ele>60.3812</ele>
        <time>2020-08-09T08:10:28Z</time>
      </trkpt>
      <trkpt lat="47.30063" lon="-1.52429">
        <ele>60.3654</ele>
        <time>2020-08-09T08:10:31Z</time>
      </trkpt>
      <trkpt lat="47.30063" lon="-1.52438">
        <ele>60.3559</ele>
        <time>2020-08-09T08:10:33Z</time>
      </trkpt>
      <trkpt lat="47.30064" lon="-1.52445">
        <ele>60.3471</ele>
        <time>2020-08-09T08:10:35Z</time>
      </trkpt>
      <trkpt lat="47.30064" lon="-1.52453">
        <ele>60.3333</ele>
        <time>2020-08-09T08:10:38Z</time>
      </trkpt>
      <trkpt lat="47.30066" lon="-1.52461">
        <ele>60.3197</ele>
        <time>2020-08-09T08:10:41Z</time>
      </trkpt>
      <trkpt lat="47.30072" lon="-1.52468">
        <ele>60.3057</ele>
        <time>2020-08-09T08:10:44Z</time>
      </trkpt>
      <trkpt lat="47.30077" lon="-1.52473">
        <ele>60.293</ele>
        <time>2020-08-09T08:10:47Z</time>
      </trkpt>
      <trkpt lat="47.3008" lon="-1.52478">
        <ele>60.2843</ele>
        <time>2020-08-09T08:10:49Z</time>
      </trkpt>
      <trkpt lat="47.30079" lon="-1.52487">
        <ele>60.2708</ele>
        <time>2020-08-09T08:10:52Z</time>
      </trkpt>
      <trkpt lat="47.3008" lon="-1.52497">
        <ele>60.2612</ele>
        <time>2020-08-09T08:10:54Z</time>
      </trkpt>
      <trkpt lat="47.30079" lon="-1.52509">
        <ele>60.2505</ele>
        <time>2020-08-09T08:10:56Z</time>
      </trkpt>
      <trkpt lat="47.30079" lon="-1.5252">
        <ele>60.2399</ele>
        <time>2020-08-09T08:10:58Z</time>
      </trkpt>
      <trkpt lat="47.30078" lon="-1.52525">
        <ele>60.2345</ele>
        <time>2020-08-09T08:10:59Z</time>
      </trkpt>
      <trkpt lat="47.30077" lon="-1.52535">
        <ele>60.2239</ele>
        <time>2020-08-09T08:11:01Z</time>
      </trkpt>
      <trkpt lat="47.30077" lon="-1.52542">
        <ele>60.2133</ele>
        <time>2020-08-09T08:11:03Z</time>
      </trkpt>
      <trkpt lat="47.30076" lon="-1.52548">
        <ele>60.2026</ele>
        <time>2020-08-09T08:11:05Z</time>
      </trkpt>
      <trkpt lat="47.30071" lon="-1.52562">
        <ele>60.1863</ele>
        <time>2020-08-09T08:11:08Z</time>
      </trkpt>
      <trkpt lat="47.30068" lon="-1.5257">
        <ele>60.1703</ele>
        <time>2020-08-09T08:11:11Z</time>
      </trkpt>
      <trkpt lat="47.30065" lon="-1.52578">
        <ele>60.1545</ele>
        <time>2020-08-09T08:11:14Z</time>
      </trkpt>
      <trkpt lat="47.30065" lon="-1.52587">
        <ele>60.1384</ele>
        <time>2020-08-09T08:11:17Z</time>
      </trkpt>
      <trkpt lat="47.30062" lon="-1.52597">
        <ele>60.128</ele>
        <time>2020-08-09T08:11:19Z</time>
      </trkpt>
      <trkpt lat="47.3006" lon="-1.52604">
        <ele>60.1169</ele>
        <time>2020-08-09T08:11:21Z</time>
      </trkpt>
      <trkpt lat="47.30056" lon="-1.52617">
        <ele>60.1064</ele>
        <time>2020-08-09T08:11:23Z</time>
      </trkpt>
      <trkpt lat="47.30055" lon="-1.52625">
        <ele>60.0975</ele>
        <time>2020-08-09T08:11:25Z</time>
      </trkpt>
      <trkpt lat="47.30052" lon="-1.52633">
        <ele>60.0897</ele>
        <time>2020-08-09T08:11:27Z</time>
      </trkpt>
      <trkpt lat="47.3005" lon="-1.52641">
        <ele>60.0751</ele>
        <time>2020-08-09T08:11:30Z</time>
      </trkpt>
      <trkpt lat="47.30053" lon="-1.52647">
        <ele>60.0559</ele>
        <time>2020-08-09T08:11:34Z</time>
      </trkpt>
      <trkpt lat="47.30057" lon="-1.52652">
        <ele>60.0474</ele>
        <time>2020-08-09T08:11:36Z</time>
      </trkpt>
      <trkpt lat="47.3006" lon="-1.52659">
        <ele>60.0357</ele>
        <time>2020-08-09T08:11:39Z</time>
      </trkpt>
      <trkpt lat="47.30063" lon="-1.52663">
        <ele>60.0322</ele>
        <time>2020-08-09T08:11:40Z</time>
      </trkpt>
      <trkpt lat="47.30067" lon="-1.52682">
        <ele>60.018</ele>
        <time>2020-08-09T08:11:44Z</time>
      </trkpt>
      <trkpt lat="47.30066" lon="-1.52692">
        <ele>59.9815</ele>
        <time>2020-08-09T08:11:46Z</time>
      </trkpt>
      <trkpt lat="47.30065" lon="-1.527">
        <ele>59.9552</ele>
        <time>2020-08-09T08:11:47Z</time>
      </trkpt>
      <trkpt lat="47.30065" lon="-1.52713">
        <ele>59.9507</ele>
        <time>2020-08-09T08:11:49Z</time>
      </trkpt>
      <trkpt lat="47.30065" lon="-1.52719">
        <ele>59.9489</ele>
        <time>2020-08-09T08:11:50Z</time>
      </trkpt>
      <trkpt lat="47.30065" lon="-1.52723">
        <ele>59.9474</ele>
        <time>2020-08-09T08:11:51Z</time>
      </trkpt>
      <trkpt lat="47.30065" lon="-1.52731">
        <ele>59.9404</ele>
        <time>2020-08-09T08:11:56Z</time>
      </trkpt>
      <trkpt lat="47.30055" lon="-1.52725">
        <ele>59.935</ele>
        <time>2020-08-09T08:12:01Z</time>
      </trkpt>
      <trkpt lat="47.3005" lon="-1.52718">
        <ele>59.9323</ele>
        <time>2020-08-09T08:12:03Z</time>
      </trkpt>
      <trkpt lat="47.30048" lon="-1.52716">
        <ele>59.9307</ele>
        <time>2020-08-09T08:12:04Z</time>
      </trkpt>
      <trkpt lat="47.30047" lon="-1.52713">
        <ele>59.9291</ele>
        <time>2020-08-09T08:12:05Z</time>
      </trkpt>
      <trkpt lat="47.30044" lon="-1.52707">
        <ele>59.9267</ele>
        <time>2020-08-09T08:12:07Z</time>
      </trkpt>
      <trkpt lat="47.30042" lon="-1.527">
        <ele>59.9242</ele>
        <time>2020-08-09T08:12:09Z</time>
      </trkpt>
      <trkpt lat="47.30043" lon="-1.52692">
        <ele>59.9231</ele>
        <time>2020-08-09T08:12:11Z</time>
      </trkpt>
      <trkpt lat="47.30042" lon="-1.52683">
        <ele>59.9235</ele>
        <time>2020-08-09T08:12:13Z</time>
      </trkpt>
      <trkpt lat="47.30044" lon="-1.52676">
        <ele>59.9261</ele>
        <time>2020-08-09T08:12:15Z</time>
      </trkpt>
      <trkpt lat="47.30044" lon="-1.52666">
        <ele>59.9302</ele>
        <time>2020-08-09T08:12:17Z</time>
      </trkpt>
      <trkpt lat="47.30047" lon="-1.52658">
        <ele>59.9342</ele>
        <time>2020-08-09T08:12:19Z</time>
      </trkpt>
      <trkpt lat="47.30049" lon="-1.52652">
        <ele>59.9387</ele>
        <time>2020-08-09T08:12:21Z</time>
      </trkpt>
      <trkpt lat="47.30051" lon="-1.52647">
        <ele>59.9411</ele>
        <time>2020-08-09T08:12:22Z</time>
      </trkpt>
      <trkpt lat="47.30053" lon="-1.52639">
        <ele>59.9462</ele>
        <time>2020-08-09T08:12:24Z</time>
      </trkpt>
      <trkpt lat="47.30056" lon="-1.52631">
        <ele>59.9695</ele>
        <time>2020-08-09T08:12:26Z</time>
      </trkpt>
      <trkpt lat="47.30058" lon="-1.52625">
        <ele>59.9731</ele>
        <time>2020-08-09T08:12:28Z</time>
      </trkpt>
      <trkpt lat="47.30061" lon="-1.5262">
        <ele>59.9762</ele>
        <time>2020-08-09T08:12:30Z</time>
      </trkpt>
      <trkpt lat="47.30065" lon="-1.52612">
        <ele>59.9815</ele>
        <time>2020-08-09T08:12:33Z</time>
      </trkpt>
      <trkpt lat="47.30067" lon="-1.52604">
        <ele>59.9875</ele>
        <time>2020-08-09T08:12:36Z</time>
      </trkpt>
      <trkpt lat="47.3007" lon="-1.52598">
        <ele>59.9926</ele>
        <time>2020-08-09T08:12:38Z</time>
      </trkpt>
      <trkpt lat="47.30074" lon="-1.52592">
        <ele>59.9982</ele>
        <time>2020-08-09T08:12:40Z</time>
      </trkpt>
      <trkpt lat="47.30076" lon="-1.52586">
        <ele>60.0037</ele>
        <time>2020-08-09T08:12:42Z</time>
      </trkpt>
      <trkpt lat="47.30077" lon="-1.52582">
        <ele>60.006</ele>
        <time>2020-08-09T08:12:43Z</time>
      </trkpt>
      <trkpt lat="47.30079" lon="-1.52577">
        <ele>60.0109</ele>
        <time>2020-08-09T08:12:45Z</time>
      </trkpt>
      <trkpt lat="47.3008" lon="-1.52573">
        <ele>60.0137</ele>
        <time>2020-08-09T08:12:46Z</time>
      </trkpt>
      <trkpt lat="47.30082" lon="-1.52568">
        <ele>60.0167</ele>
        <time>2020-08-09T08:12:47Z</time>
      </trkpt>
      <trkpt lat="47.30086" lon="-1.52563">
        <ele>60.0224</ele>
        <time>2020-08-09T08:12:49Z</time>
      </trkpt>
      <trkpt lat="47.3009" lon="-1.52558">
        <ele>60.0281</ele>
        <time>2020-08-09T08:12:51Z</time>
      </trkpt>
      <trkpt lat="47.30095" lon="-1.52555">
        <ele>60.0338</ele>
        <time>2020-08-09T08:12:53Z</time>
      </trkpt>
      <trkpt lat="47.30096" lon="-1.52547">
        <ele>60.0405</ele>
        <time>2020-08-09T08:12:56Z</time>
      </trkpt>
      <trkpt lat="47.30101" lon="-1.52545">
        <ele>60.0564</ele>
        <time>2020-08-09T08:13:00Z</time>
      </trkpt>
      <trkpt lat="47.30105" lon="-1.52541">
        <ele>60.0672</ele>
        <time>2020-08-09T08:13:03Z</time>
      </trkpt>
      <trkpt lat="47.30112" lon="-1.5254">
        <ele>60.0797</ele>
        <time>2020-08-09T08:13:07Z</time>
      </trkpt>
      <trkpt lat="47.30117" lon="-1.5254">
        <ele>60.0956</ele>
        <time>2020-08-09T08:13:13Z</time>
      </trkpt>
      <trkpt lat="47.30121" lon="-1.52537">
        <ele>60.1054</ele>
        <time>2020-08-09T08:13:19Z</time>
      </trkpt>
      <trkpt lat="47.30126" lon="-1.52539">
        <ele>60.1101</ele>
        <time>2020-08-09T08:13:25Z</time>
      </trkpt>
      <trkpt lat="47.30131" lon="-1.52539">
        <ele>60.1081</ele>
        <time>2020-08-09T08:13:29Z</time>
      </trkpt>
      <trkpt lat="47.30137" lon="-1.52546">
        <ele>60.1035</ele>
        <time>2020-08-09T08:13:34Z</time>
      </trkpt>
      <trkpt lat="47.30145" lon="-1.52545">
        <ele>60.0928</ele>
        <time>2020-08-09T08:13:41Z</time>
      </trkpt>
      <trkpt lat="47.30149" lon="-1.52539">
        <ele>60.0856</ele>
        <time>2020-08-09T08:13:44Z</time>
      </trkpt>
      <trkpt lat="47.3015" lon="-1.52533">
        <ele>60.0829</ele>
        <time>2020-08-09T08:13:45Z</time>
      </trkpt>
      <trkpt lat="47.30149" lon="-1.52526">
        <ele>60.0776</ele>
        <time>2020-08-09T08:13:47Z</time>
      </trkpt>
      <trkpt lat="47.30145" lon="-1.52522">
        <ele>60.0718</ele>
        <time>2020-08-09T08:13:49Z</time>
      </trkpt>
      <trkpt lat="47.3014" lon="-1.52518">
        <ele>60.0574</ele>
        <time>2020-08-09T08:13:53Z</time>
      </trkpt>
      <trkpt lat="47.30159" lon="-1.52499">
        <ele>60.0399</ele>
        <time>2020-08-09T08:13:57Z</time>
      </trkpt>
      <trkpt lat="47.30165" lon="-1.52494">
        <ele>60.0355</ele>
        <time>2020-08-09T08:13:58Z</time>
      </trkpt>
      <trkpt lat="47.30167" lon="-1.52482">
        <ele>60.0257</ele>
        <time>2020-08-09T08:14:00Z</time>
      </trkpt>
      <trkpt lat="47.30169" lon="-1.52475">
        <ele>60.0202</ele>
        <time>2020-08-09T08:14:01Z</time>
      </trkpt>
      <trkpt lat="47.30171" lon="-1.5247">
        <ele>60.0144</ele>
        <time>2020-08-09T08:14:02Z</time>
      </trkpt>
      <trkpt lat="47.30175" lon="-1.52465">
        <ele>60.003</ele>
        <time>2020-08-09T08:14:04Z</time>
      </trkpt>
      <trkpt lat="47.30178" lon="-1.5246">
        <ele>59.9935</ele>
        <time>2020-08-09T08:14:06Z</time>
      </trkpt>
      <trkpt lat="47.30179" lon="-1.52451">
        <ele>59.9792</ele>
        <time>2020-08-09T08:14:09Z</time>
      </trkpt>
      <trkpt lat="47.30183" lon="-1.52443">
        <ele>59.9647</ele>
        <time>2020-08-09T08:14:12Z</time>
      </trkpt>
      <trkpt lat="47.30189" lon="-1.52435">
        <ele>59.9501</ele>
        <time>2020-08-09T08:14:15Z</time>
      </trkpt>
      <trkpt lat="47.30189" lon="-1.52426">
        <ele>59.9365</ele>
        <time>2020-08-09T08:14:18Z</time>
      </trkpt>
      <trkpt lat="47.30189" lon="-1.52422">
        <ele>59.9326</ele>
        <time>2020-08-09T08:14:19Z</time>
      </trkpt>
      <trkpt lat="47.3019" lon="-1.52414">
        <ele>59.9253</ele>
        <time>2020-08-09T08:14:21Z</time>
      </trkpt>
      <trkpt lat="47.30191" lon="-1.52404">
        <ele>59.9111</ele>
        <time>2020-08-09T08:14:25Z</time>
      </trkpt>
      <trkpt lat="47.30192" lon="-1.52397">
        <ele>59.898</ele>
        <time>2020-08-09T08:14:28Z</time>
      </trkpt>
      <trkpt lat="47.30191" lon="-1.52391">
        <ele>59.8838</ele>
        <time>2020-08-09T08:14:31Z</time>
      </trkpt>
      <trkpt lat="47.30194" lon="-1.52385">
        <ele>59.8744</ele>
        <time>2020-08-09T08:14:33Z</time>
      </trkpt>
      <trkpt lat="47.30199" lon="-1.5238">
        <ele>59.8592</ele>
        <time>2020-08-09T08:14:36Z</time>
      </trkpt>
      <trkpt lat="47.30205" lon="-1.52371">
        <ele>59.848</ele>
        <time>2020-08-09T08:14:38Z</time>
      </trkpt>
      <trkpt lat="47.30213" lon="-1.52361">
        <ele>59.8307</ele>
        <time>2020-08-09T08:14:41Z</time>
      </trkpt>
      <trkpt lat="47.30218" lon="-1.52359">
        <ele>59.819</ele>
        <time>2020-08-09T08:14:43Z</time>
      </trkpt>
      <trkpt lat="47.30221" lon="-1.52358">
        <ele>59.8127</ele>
        <time>2020-08-09T08:14:44Z</time>
      </trkpt>
      <trkpt lat="47.30225" lon="-1.52351">
        <ele>59.7999</ele>
        <time>2020-08-09T08:14:46Z</time>
      </trkpt>
      <trkpt lat="47.30227" lon="-1.52342">
        <ele>59.7874</ele>
        <time>2020-08-09T08:14:48Z</time>
      </trkpt>
      <trkpt lat="47.30229" lon="-1.52336">
        <ele>59.7743</ele>
        <time>2020-08-09T08:14:50Z</time>
      </trkpt>
      <trkpt lat="47.30226" lon="-1.5233">
        <ele>59.7541</ele>
        <time>2020-08-09T08:14:53Z</time>
      </trkpt>
      <trkpt lat="47.30225" lon="-1.52323">
        <ele>59.727</ele>
        <time>2020-08-09T08:14:57Z</time>
      </trkpt>
      <trkpt lat="47.30221" lon="-1.52316">
        <ele>59.7016</ele>
        <time>2020-08-09T08:15:01Z</time>
      </trkpt>
      <trkpt lat="47.30216" lon="-1.5231">
        <ele>59.6898</ele>
        <time>2020-08-09T08:15:03Z</time>
      </trkpt>
      <trkpt lat="47.30214" lon="-1.52307">
        <ele>59.6844</ele>
        <time>2020-08-09T08:15:04Z</time>
      </trkpt>
      <trkpt lat="47.30208" lon="-1.52301">
        <ele>59.6698</ele>
        <time>2020-08-09T08:15:07Z</time>
      </trkpt>
      <trkpt lat="47.30205" lon="-1.52298">
        <ele>59.6652</ele>
        <time>2020-08-09T08:15:08Z</time>
      </trkpt>
      <trkpt lat="47.302" lon="-1.52296">
        <ele>59.655</ele>
        <time>2020-08-09T08:15:10Z</time>
      </trkpt>
      <trkpt lat="47.30196" lon="-1.52287">
        <ele>59.6396</ele>
        <time>2020-08-09T08:15:13Z</time>
      </trkpt>
      <trkpt lat="47.30195" lon="-1.52278">
        <ele>59.6295</ele>
        <time>2020-08-09T08:15:15Z</time>
      </trkpt>
      <trkpt lat="47.30194" lon="-1.52272">
        <ele>59.6253</ele>
        <time>2020-08-09T08:15:16Z</time>
      </trkpt>
      <trkpt lat="47.30193" lon="-1.52263">
        <ele>59.6177</ele>
        <time>2020-08-09T08:15:18Z</time>
      </trkpt>
      <trkpt lat="47.3019" lon="-1.52253">
        <ele>59.6071</ele>
        <time>2020-08-09T08:15:21Z</time>
      </trkpt>
      <trkpt lat="47.30188" lon="-1.52247">
        <ele>59.5993</ele>
        <time>2020-08-09T08:15:23Z</time>
      </trkpt>
      <trkpt lat="47.30187" lon="-1.52244">
        <ele>59.5956</ele>
        <time>2020-08-09T08:15:24Z</time>
      </trkpt>
      <trkpt lat="47.30182" lon="-1.52237">
        <ele>59.5839</ele>
        <time>2020-08-09T08:15:27Z</time>
      </trkpt>
      <trkpt lat="47.3018" lon="-1.52228">
        <ele>59.5708</ele>
        <time>2020-08-09T08:15:30Z</time>
      </trkpt>
      <trkpt lat="47.30178" lon="-1.5222">
        <ele>59.5615</ele>
        <time>2020-08-09T08:15:32Z</time>
      </trkpt>
      <trkpt lat="47.30177" lon="-1.52214">
        <ele>59.5515</ele>
        <time>2020-08-09T08:15:34Z</time>
      </trkpt>
      <trkpt lat="47.30176" lon="-1.5221">
        <ele>59.5463</ele>
        <time>2020-08-09T08:15:35Z</time>
      </trkpt>
      <trkpt lat="47.30176" lon="-1.52201">
        <ele>59.536</ele>
        <time>2020-08-09T08:15:37Z</time>
      </trkpt>
      <trkpt lat="47.30176" lon="-1.52197">
        <ele>59.5305</ele>
        <time>2020-08-09T08:15:38Z</time>
      </trkpt>
      <trkpt lat="47.30174" lon="-1.52191">
        <ele>59.5191</ele>
        <time>2020-08-09T08:15:40Z</time>
      </trkpt>
      <trkpt lat="47.30173" lon="-1.52183">
        <ele>59.5076</ele>
        <time>2020-08-09T08:15:42Z</time>
      </trkpt>
      <trkpt lat="47.30173" lon="-1.52176">
        <ele>59.4964</ele>
        <time>2020-08-09T08:15:44Z</time>
      </trkpt>
      <trkpt lat="47.30171" lon="-1.52168">
        <ele>59.4854</ele>
        <time>2020-08-09T08:15:46Z</time>
      </trkpt>
      <trkpt lat="47.30169" lon="-1.52157">
        <ele>59.4684</ele>
        <time>2020-08-09T08:15:49Z</time>
      </trkpt>
      <trkpt lat="47.30166" lon="-1.52143">
        <ele>59.4496</ele>
        <time>2020-08-09T08:15:52Z</time>
      </trkpt>
      <trkpt lat="47.30164" lon="-1.52134">
        <ele>59.438</ele>
        <time>2020-08-09T08:15:54Z</time>
      </trkpt>
      <trkpt lat="47.30162" lon="-1.52122">
        <ele>59.4277</ele>
        <time>2020-08-09T08:15:56Z</time>
      </trkpt>
      <trkpt lat="47.30158" lon="-1.52113">
        <ele>59.412</ele>
        <time>2020-08-09T08:15:59Z</time>
      </trkpt>
      <trkpt lat="47.30157" lon="-1.52109">
        <ele>59.4068</ele>
        <time>2020-08-09T08:16:00Z</time>
      </trkpt>
      <trkpt lat="47.30155" lon="-1.52101">
        <ele>59.3911</ele>
        <time>2020-08-09T08:16:03Z</time>
      </trkpt>
      <trkpt lat="47.30154" lon="-1.52094">
        <ele>59.3791</ele>
        <time>2020-08-09T08:16:05Z</time>
      </trkpt>
      <trkpt lat="47.30152" lon="-1.52087">
        <ele>59.3665</ele>
        <time>2020-08-09T08:16:07Z</time>
      </trkpt>
      <trkpt lat="47.30151" lon="-1.52079">
        <ele>59.3541</ele>
        <time>2020-08-09T08:16:09Z</time>
      </trkpt>
      <trkpt lat="47.3015" lon="-1.52074">
        <ele>59.3479</ele>
        <time>2020-08-09T08:16:10Z</time>
      </trkpt>
      <trkpt lat="47.30148" lon="-1.52067">
        <ele>59.3359</ele>
        <time>2020-08-09T08:16:12Z</time>
      </trkpt>
      <trkpt lat="47.30146" lon="-1.52062">
        <ele>59.3305</ele>
        <time>2020-08-09T08:16:13Z</time>
      </trkpt>
      <trkpt lat="47.30145" lon="-1.52058">
        <ele>59.3193</ele>
        <time>2020-08-09T08:16:15Z</time>
      </trkpt>
      <trkpt lat="47.30144" lon="-1.52052">
        <ele>59.3079</ele>
        <time>2020-08-09T08:16:17Z</time>
      </trkpt>
      <trkpt lat="47.30144" lon="-1.52049">
        <ele>59.3021</ele>
        <time>2020-08-09T08:16:18Z</time>
      </trkpt>
      <trkpt lat="47.30141" lon="-1.52036">
        <ele>59.2856</ele>
        <time>2020-08-09T08:16:21Z</time>
      </trkpt>
      <trkpt lat="47.3014" lon="-1.52031">
        <ele>59.2804</ele>
        <time>2020-08-09T08:16:22Z</time>
      </trkpt>
      <trkpt lat="47.3014" lon="-1.52023">
        <ele>59.2705</ele>
        <time>2020-08-09T08:16:24Z</time>
      </trkpt>
      <trkpt lat="47.3014" lon="-1.52016">
        <ele>59.2525</ele>
        <time>2020-08-09T08:16:28Z</time>
      </trkpt>
      <trkpt lat="47.3014" lon="-1.52012">
        <ele>59.2481</ele>
        <time>2020-08-09T08:16:29Z</time>
      </trkpt>
      <trkpt lat="47.30141" lon="-1.52004">
        <ele>59.2354</ele>
        <time>2020-08-09T08:16:32Z</time>
      </trkpt>
      <trkpt lat="47.30143" lon="-1.51998">
        <ele>59.2266</ele>
        <time>2020-08-09T08:16:34Z</time>
      </trkpt>
      <trkpt lat="47.30147" lon="-1.5199">
        <ele>59.2181</ele>
        <time>2020-08-09T08:16:36Z</time>
      </trkpt>
      <trkpt lat="47.3015" lon="-1.51983">
        <ele>59.2084</ele>
        <time>2020-08-09T08:16:38Z</time>
      </trkpt>
      <trkpt lat="47.30153" lon="-1.51975">
        <ele>59.1974</ele>
        <time>2020-08-09T08:16:40Z</time>
      </trkpt>
      <trkpt lat="47.30155" lon="-1.51969">
        <ele>59.1924</ele>
        <time>2020-08-09T08:16:41Z</time>
      </trkpt>
      <trkpt lat="47.30157" lon="-1.51965">
        <ele>59.1871</ele>
        <time>2020-08-09T08:16:42Z</time>
      </trkpt>
      <trkpt lat="47.30159" lon="-1.51955">
        <ele>59.1771</ele>
        <time>2020-08-09T08:16:44Z</time>
      </trkpt>
      <trkpt lat="47.30163" lon="-1.51947">
        <ele>59.1665</ele>
        <time>2020-08-09T08:16:46Z</time>
      </trkpt>
      <trkpt lat="47.30165" lon="-1.51942">
        <ele>59.1615</ele>
        <time>2020-08-09T08:16:47Z</time>
      </trkpt>
      <trkpt lat="47.30167" lon="-1.51938">
        <ele>59.1567</ele>
        <time>2020-08-09T08:16:48Z</time>
      </trkpt>
      <trkpt lat="47.3017" lon="-1.51928">
        <ele>59.1473</ele>
        <time>2020-08-09T08:16:50Z</time>
      </trkpt>
      <trkpt lat="47.30172" lon="-1.51922">
        <ele>59.1387</ele>
        <time>2020-08-09T08:16:52Z</time>
      </trkpt>
      <trkpt lat="47.30173" lon="-1.51919">
        <ele>59.1345</ele>
        <time>2020-08-09T08:16:53Z</time>
      </trkpt>
      <trkpt lat="47.30175" lon="-1.51913">
        <ele>59.1309</ele>
        <time>2020-08-09T08:16:54Z</time>
      </trkpt>
      <trkpt lat="47.30178" lon="-1.51905">
        <ele>59.1247</ele>
        <time>2020-08-09T08:16:56Z</time>
      </trkpt>
      <trkpt lat="47.30181" lon="-1.51896">
        <ele>59.1195</ele>
        <time>2020-08-09T08:16:58Z</time>
      </trkpt>
      <trkpt lat="47.30184" lon="-1.51891">
        <ele>59.1176</ele>
        <time>2020-08-09T08:16:59Z</time>
      </trkpt>
      <trkpt lat="47.30185" lon="-1.51888">
        <ele>59.1156</ele>
        <time>2020-08-09T08:17:00Z</time>
      </trkpt>
      <trkpt lat="47.30186" lon="-1.5188">
        <ele>59.1092</ele>
        <time>2020-08-09T08:17:03Z</time>
      </trkpt>
      <trkpt lat="47.30188" lon="-1.51874">
        <ele>59.1058</ele>
        <time>2020-08-09T08:17:05Z</time>
      </trkpt>
      <trkpt lat="47.30189" lon="-1.51869">
        <ele>59.1042</ele>
        <time>2020-08-09T08:17:06Z</time>
      </trkpt>
      <trkpt lat="47.30191" lon="-1.5186">
        <ele>59.1011</ele>
        <time>2020-08-09T08:17:08Z</time>
      </trkpt>
      <trkpt lat="47.30193" lon="-1.51854">
        <ele>59.0974</ele>
        <time>2020-08-09T08:17:11Z</time>
      </trkpt>
      <trkpt lat="47.30195" lon="-1.5185">
        <ele>59.0955</ele>
        <time>2020-08-09T08:17:13Z</time>
      </trkpt>
      <trkpt lat="47.30199" lon="-1.51843">
        <ele>59.0934</ele>
        <time>2020-08-09T08:17:16Z</time>
      </trkpt>
      <trkpt lat="47.30201" lon="-1.51839">
        <ele>59.093</ele>
        <time>2020-08-09T08:17:17Z</time>
      </trkpt>
      <trkpt lat="47.30204" lon="-1.51833">
        <ele>59.0931</ele>
        <time>2020-08-09T08:17:18Z</time>
      </trkpt>
      <trkpt lat="47.30207" lon="-1.51823">
        <ele>59.0921</ele>
        <time>2020-08-09T08:17:20Z</time>
      </trkpt>
      <trkpt lat="47.3021" lon="-1.51813">
        <ele>59.0903</ele>
        <time>2020-08-09T08:17:22Z</time>
      </trkpt>
      <trkpt lat="47.3021" lon="-1.51803">
        <ele>59.0887</ele>
        <time>2020-08-09T08:17:24Z</time>
      </trkpt>
      <trkpt lat="47.30208" lon="-1.51796">
        <ele>59.0876</ele>
        <time>2020-08-09T08:17:26Z</time>
      </trkpt>
      <trkpt lat="47.30205" lon="-1.51784">
        <ele>59.086</ele>
        <time>2020-08-09T08:17:29Z</time>
      </trkpt>
      <trkpt lat="47.30204" lon="-1.51779">
        <ele>59.0854</ele>
        <time>2020-08-09T08:17:31Z</time>
      </trkpt>
      <trkpt lat="47.30203" lon="-1.51773">
        <ele>59.0845</ele>
        <time>2020-08-09T08:17:33Z</time>
      </trkpt>
      <trkpt lat="47.30202" lon="-1.51766">
        <ele>59.0828</ele>
        <time>2020-08-09T08:17:35Z</time>
      </trkpt>
      <trkpt lat="47.30201" lon="-1.51759">
        <ele>59.0803</ele>
        <time>2020-08-09T08:17:37Z</time>
      </trkpt>
      <trkpt lat="47.302" lon="-1.51754">
        <ele>59.0794</ele>
        <time>2020-08-09T08:17:38Z</time>
      </trkpt>
      <trkpt lat="47.30199" lon="-1.51745">
        <ele>59.0786</ele>
        <time>2020-08-09T08:17:40Z</time>
      </trkpt>
      <trkpt lat="47.30198" lon="-1.5174">
        <ele>59.0777</ele>
        <time>2020-08-09T08:17:42Z</time>
      </trkpt>
      <trkpt lat="47.30197" lon="-1.5173">
        <ele>59.0768</ele>
        <time>2020-08-09T08:17:46Z</time>
      </trkpt>
      <trkpt lat="47.30197" lon="-1.51726">
        <ele>59.0762</ele>
        <time>2020-08-09T08:17:47Z</time>
      </trkpt>
      <trkpt lat="47.30197" lon="-1.51722">
        <ele>59.0754</ele>
        <time>2020-08-09T08:17:48Z</time>
      </trkpt>
      <trkpt lat="47.30197" lon="-1.51719">
        <ele>59.0745</ele>
        <time>2020-08-09T08:17:49Z</time>
      </trkpt>
      <trkpt lat="47.30197" lon="-1.51715">
        <ele>59.0732</ele>
        <time>2020-08-09T08:17:50Z</time>
      </trkpt>
      <trkpt lat="47.30196" lon="-1.51711">
        <ele>59.0719</ele>
        <time>2020-08-09T08:17:51Z</time>
      </trkpt>
      <trkpt lat="47.30196" lon="-1.51707">
        <ele>59.0705</ele>
        <time>2020-08-09T08:17:52Z</time>
      </trkpt>
      <trkpt lat="47.30195" lon="-1.517">
        <ele>59.0677</ele>
        <time>2020-08-09T08:17:54Z</time>
      </trkpt>
      <trkpt lat="47.30194" lon="-1.5169">
        <ele>59.0655</ele>
        <time>2020-08-09T08:17:56Z</time>
      </trkpt>
      <trkpt lat="47.30195" lon="-1.51673">
        <ele>59.0653</ele>
        <time>2020-08-09T08:17:59Z</time>
      </trkpt>
      <trkpt lat="47.30199" lon="-1.51666">
        <ele>59.0667</ele>
        <time>2020-08-09T08:18:01Z</time>
      </trkpt>
      <trkpt lat="47.30203" lon="-1.51659">
        <ele>59.0685</ele>
        <time>2020-08-09T08:18:03Z</time>
      </trkpt>
      <trkpt lat="47.30205" lon="-1.51645">
        <ele>59.0726</ele>
        <time>2020-08-09T08:18:06Z</time>
      </trkpt>
      <trkpt lat="47.30209" lon="-1.51637">
        <ele>59.0767</ele>
        <time>2020-08-09T08:18:08Z</time>
      </trkpt>
      <trkpt lat="47.3021" lon="-1.51629">
        <ele>59.0792</ele>
        <time>2020-08-09T08:18:09Z</time>
      </trkpt>
      <trkpt lat="47.30209" lon="-1.51622">
        <ele>59.0837</ele>
        <time>2020-08-09T08:18:11Z</time>
      </trkpt>
      <trkpt lat="47.30209" lon="-1.51617">
        <ele>59.086</ele>
        <time>2020-08-09T08:18:12Z</time>
      </trkpt>
      <trkpt lat="47.30209" lon="-1.5161">
        <ele>59.0902</ele>
        <time>2020-08-09T08:18:14Z</time>
      </trkpt>
      <trkpt lat="47.30209" lon="-1.51603">
        <ele>59.0937</ele>
        <time>2020-08-09T08:18:16Z</time>
      </trkpt>
      <trkpt lat="47.30208" lon="-1.51596">
        <ele>59.0968</ele>
        <time>2020-08-09T08:18:18Z</time>
      </trkpt>
      <trkpt lat="47.30208" lon="-1.51586">
        <ele>59.1</ele>
        <time>2020-08-09T08:18:20Z</time>
      </trkpt>
      <trkpt lat="47.3021" lon="-1.51579">
        <ele>59.1038</ele>
        <time>2020-08-09T08:18:22Z</time>
      </trkpt>
      <trkpt lat="47.30212" lon="-1.51571">
        <ele>59.1078</ele>
        <time>2020-08-09T08:18:24Z</time>
      </trkpt>
      <trkpt lat="47.30215" lon="-1.51562">
        <ele>59.1118</ele>
        <time>2020-08-09T08:18:26Z</time>
      </trkpt>
      <trkpt lat="47.30216" lon="-1.51552">
        <ele>59.1161</ele>
        <time>2020-08-09T08:18:28Z</time>
      </trkpt>
      <trkpt lat="47.30219" lon="-1.51545">
        <ele>59.1208</ele>
        <time>2020-08-09T08:18:30Z</time>
      </trkpt>
      <trkpt lat="47.3022" lon="-1.51538">
        <ele>59.1267</ele>
        <time>2020-08-09T08:18:32Z</time>
      </trkpt>
      <trkpt lat="47.30222" lon="-1.51528">
        <ele>59.1336</ele>
        <time>2020-08-09T08:18:34Z</time>
      </trkpt>
      <trkpt lat="47.30225" lon="-1.51521">
        <ele>59.1401</ele>
        <time>2020-08-09T08:18:36Z</time>
      </trkpt>
      <trkpt lat="47.30228" lon="-1.51515">
        <ele>59.1466</ele>
        <time>2020-08-09T08:18:38Z</time>
      </trkpt>
      <trkpt lat="47.30229" lon="-1.51508">
        <ele>59.156</ele>
        <time>2020-08-09T08:18:41Z</time>
      </trkpt>
      <trkpt lat="47.30233" lon="-1.51494">
        <ele>59.1645</ele>
        <time>2020-08-09T08:18:44Z</time>
      </trkpt>
      <trkpt lat="47.30235" lon="-1.51488">
        <ele>59.1675</ele>
        <time>2020-08-09T08:18:45Z</time>
      </trkpt>
      <trkpt lat="47.30237" lon="-1.51481">
        <ele>59.1765</ele>
        <time>2020-08-09T08:18:48Z</time>
      </trkpt>
      <trkpt lat="47.30239" lon="-1.51474">
        <ele>59.1858</ele>
        <time>2020-08-09T08:18:51Z</time>
      </trkpt>
      <trkpt lat="47.3024" lon="-1.5147">
        <ele>59.1886</ele>
        <time>2020-08-09T08:18:52Z</time>
      </trkpt>
      <trkpt lat="47.30241" lon="-1.51465">
        <ele>59.1914</ele>
        <time>2020-08-09T08:18:53Z</time>
      </trkpt>
      <trkpt lat="47.30246" lon="-1.51465">
        <ele>59.197</ele>
        <time>2020-08-09T08:18:55Z</time>
      </trkpt>
      <trkpt lat="47.3025" lon="-1.51465">
        <ele>59.1992</ele>
        <time>2020-08-09T08:18:56Z</time>
      </trkpt>
      <trkpt lat="47.30254" lon="-1.51463">
        <ele>59.2041</ele>
        <time>2020-08-09T08:18:58Z</time>
      </trkpt>
      <trkpt lat="47.30261" lon="-1.51465">
        <ele>59.2116</ele>
        <time>2020-08-09T08:19:01Z</time>
      </trkpt>
      <trkpt lat="47.30264" lon="-1.51466">
        <ele>59.2142</ele>
        <time>2020-08-09T08:19:02Z</time>
      </trkpt>
      <trkpt lat="47.30267" lon="-1.51467">
        <ele>59.2164</ele>
        <time>2020-08-09T08:19:03Z</time>
      </trkpt>
      <trkpt lat="47.30271" lon="-1.51469">
        <ele>59.2183</ele>
        <time>2020-08-09T08:19:04Z</time>
      </trkpt>
      <trkpt lat="47.30277" lon="-1.51474">
        <ele>59.2218</ele>
        <time>2020-08-09T08:19:06Z</time>
      </trkpt>
      <trkpt lat="47.30283" lon="-1.51478">
        <ele>59.2253</ele>
        <time>2020-08-09T08:19:08Z</time>
      </trkpt>
      <trkpt lat="47.30287" lon="-1.51479">
        <ele>59.2269</ele>
        <time>2020-08-09T08:19:09Z</time>
      </trkpt>
      <trkpt lat="47.30289" lon="-1.5148">
        <ele>59.228</ele>
        <time>2020-08-09T08:19:10Z</time>
      </trkpt>
      <trkpt lat="47.30295" lon="-1.51483">
        <ele>59.2309</ele>
        <time>2020-08-09T08:19:12Z</time>
      </trkpt>
      <trkpt lat="47.30298" lon="-1.51484">
        <ele>59.2322</ele>
        <time>2020-08-09T08:19:13Z</time>
      </trkpt>
      <trkpt lat="47.30301" lon="-1.51485">
        <ele>59.2331</ele>
        <time>2020-08-09T08:19:14Z</time>
      </trkpt>
      <trkpt lat="47.30303" lon="-1.51487">
        <ele>59.2339</ele>
        <time>2020-08-09T08:19:15Z</time>
      </trkpt>
      <trkpt lat="47.30308" lon="-1.5149">
        <ele>59.2346</ele>
        <time>2020-08-09T08:19:17Z</time>
      </trkpt>
      <trkpt lat="47.30311" lon="-1.51491">
        <ele>59.2339</ele>
        <time>2020-08-09T08:19:18Z</time>
      </trkpt>
      <trkpt lat="47.30314" lon="-1.51493">
        <ele>59.2331</ele>
        <time>2020-08-09T08:19:19Z</time>
      </trkpt>
      <trkpt lat="47.30317" lon="-1.51494">
        <ele>59.2324</ele>
        <time>2020-08-09T08:19:20Z</time>
      </trkpt>
      <trkpt lat="47.30321" lon="-1.51497">
        <ele>59.2291</ele>
        <time>2020-08-09T08:19:22Z</time>
      </trkpt>
      <trkpt lat="47.30326" lon="-1.51498">
        <ele>59.226</ele>
        <time>2020-08-09T08:19:24Z</time>
      </trkpt>
      <trkpt lat="47.30332" lon="-1.51499">
        <ele>59.2233</ele>
        <time>2020-08-09T08:19:26Z</time>
      </trkpt>
      <trkpt lat="47.30337" lon="-1.51498">
        <ele>59.2221</ele>
        <time>2020-08-09T08:19:28Z</time>
      </trkpt>
      <trkpt lat="47.30339" lon="-1.51497">
        <ele>59.2222</ele>
        <time>2020-08-09T08:19:29Z</time>
      </trkpt>
      <trkpt lat="47.30342" lon="-1.51496">
        <ele>59.2222</ele>
        <time>2020-08-09T08:19:30Z</time>
      </trkpt>
      <trkpt lat="47.30346" lon="-1.51495">
        <ele>59.222</ele>
        <time>2020-08-09T08:19:32Z</time>
      </trkpt>
      <trkpt lat="47.30351" lon="-1.51493">
        <ele>59.2226</ele>
        <time>2020-08-09T08:19:34Z</time>
      </trkpt>
      <trkpt lat="47.30356" lon="-1.51491">
        <ele>59.2221</ele>
        <time>2020-08-09T08:19:36Z</time>
      </trkpt>
      <trkpt lat="47.30362" lon="-1.51488">
        <ele>59.2192</ele>
        <time>2020-08-09T08:19:38Z</time>
      </trkpt>
      <trkpt lat="47.30366" lon="-1.51484">
        <ele>59.217</ele>
        <time>2020-08-09T08:19:40Z</time>
      </trkpt>
      <trkpt lat="47.30369" lon="-1.51482">
        <ele>59.2162</ele>
        <time>2020-08-09T08:19:41Z</time>
      </trkpt>
      <trkpt lat="47.30371" lon="-1.51479">
        <ele>59.2157</ele>
        <time>2020-08-09T08:19:42Z</time>
      </trkpt>
      <trkpt lat="47.30374" lon="-1.51477">
        <ele>59.2155</ele>
        <time>2020-08-09T08:19:43Z</time>
      </trkpt>
      <trkpt lat="47.30379" lon="-1.51473">
        <ele>59.214</ele>
        <time>2020-08-09T08:19:45Z</time>
      </trkpt>
      <trkpt lat="47.30387" lon="-1.51462">
        <ele>59.2073</ele>
        <time>2020-08-09T08:19:49Z</time>
      </trkpt>
      <trkpt lat="47.30392" lon="-1.51456">
        <ele>59.1976</ele>
        <time>2020-08-09T08:19:51Z</time>
      </trkpt>
      <trkpt lat="47.30397" lon="-1.51449">
        <ele>59.1797</ele>
        <time>2020-08-09T08:19:54Z</time>
      </trkpt>
      <trkpt lat="47.30405" lon="-1.51439">
        <ele>59.1402</ele>
        <time>2020-08-09T08:19:59Z</time>
      </trkpt>
      <trkpt lat="47.3041" lon="-1.51437">
        <ele>59.1212</ele>
        <time>2020-08-09T08:20:01Z</time>
      </trkpt>
      <trkpt lat="47.30418" lon="-1.51429">
        <ele>59.0906</ele>
        <time>2020-08-09T08:20:04Z</time>
      </trkpt>
      <trkpt lat="47.30424" lon="-1.51427">
        <ele>59.0683</ele>
        <time>2020-08-09T08:20:06Z</time>
      </trkpt>
      <trkpt lat="47.30427" lon="-1.51426">
        <ele>59.0566</ele>
        <time>2020-08-09T08:20:07Z</time>
      </trkpt>
      <trkpt lat="47.30433" lon="-1.51423">
        <ele>59.032</ele>
        <time>2020-08-09T08:20:09Z</time>
      </trkpt>
      <trkpt lat="47.30437" lon="-1.51421">
        <ele>59.02</ele>
        <time>2020-08-09T08:20:10Z</time>
      </trkpt>
      <trkpt lat="47.30448" lon="-1.51418">
        <ele>58.9843</ele>
        <time>2020-08-09T08:20:13Z</time>
      </trkpt>
      <trkpt lat="47.30451" lon="-1.51417">
        <ele>58.9726</ele>
        <time>2020-08-09T08:20:14Z</time>
      </trkpt>
      <trkpt lat="47.30458" lon="-1.51413">
        <ele>58.9491</ele>
        <time>2020-08-09T08:20:16Z</time>
      </trkpt>
      <trkpt lat="47.30464" lon="-1.51413">
        <ele>58.9253</ele>
        <time>2020-08-09T08:20:18Z</time>
      </trkpt>
      <trkpt lat="47.30467" lon="-1.51413">
        <ele>58.9135</ele>
        <time>2020-08-09T08:20:19Z</time>
      </trkpt>
      <trkpt lat="47.30473" lon="-1.51412">
        <ele>58.8903</ele>
        <time>2020-08-09T08:20:21Z</time>
      </trkpt>
      <trkpt lat="47.30476" lon="-1.51412">
        <ele>58.8787</ele>
        <time>2020-08-09T08:20:22Z</time>
      </trkpt>
      <trkpt lat="47.3048" lon="-1.51411">
        <ele>58.8668</ele>
        <time>2020-08-09T08:20:23Z</time>
      </trkpt>
      <trkpt lat="47.30483" lon="-1.51411">
        <ele>58.855</ele>
        <time>2020-08-09T08:20:24Z</time>
      </trkpt>
      <trkpt lat="47.30486" lon="-1.5141">
        <ele>58.8432</ele>
        <time>2020-08-09T08:20:25Z</time>
      </trkpt>
      <trkpt lat="47.30489" lon="-1.5141">
        <ele>58.8316</ele>
        <time>2020-08-09T08:20:26Z</time>
      </trkpt>
      <trkpt lat="47.30495" lon="-1.5141">
        <ele>58.8078</ele>
        <time>2020-08-09T08:20:28Z</time>
      </trkpt>
      <trkpt lat="47.30498" lon="-1.5141">
        <ele>58.795</ele>
        <time>2020-08-09T08:20:29Z</time>
      </trkpt>
      <trkpt lat="47.3051" lon="-1.51409">
        <ele>58.7563</ele>
        <time>2020-08-09T08:20:32Z</time>
      </trkpt>
      <trkpt lat="47.30516" lon="-1.51407">
        <ele>58.7309</ele>
        <time>2020-08-09T08:20:34Z</time>
      </trkpt>
      <trkpt lat="47.30524" lon="-1.51407">
        <ele>58.7065</ele>
        <time>2020-08-09T08:20:36Z</time>
      </trkpt>
      <trkpt lat="47.30528" lon="-1.51406">
        <ele>58.6949</ele>
        <time>2020-08-09T08:20:37Z</time>
      </trkpt>
      <trkpt lat="47.30531" lon="-1.51405">
        <ele>58.6835</ele>
        <time>2020-08-09T08:20:38Z</time>
      </trkpt>
      <trkpt lat="47.30534" lon="-1.51404">
        <ele>58.6724</ele>
        <time>2020-08-09T08:20:39Z</time>
      </trkpt>
      <trkpt lat="47.3054" lon="-1.51403">
        <ele>58.6503</ele>
        <time>2020-08-09T08:20:41Z</time>
      </trkpt>
      <trkpt lat="47.30543" lon="-1.51402">
        <ele>58.6392</ele>
        <time>2020-08-09T08:20:42Z</time>
      </trkpt>
      <trkpt lat="47.30547" lon="-1.51401">
        <ele>58.6292</ele>
        <time>2020-08-09T08:20:43Z</time>
      </trkpt>
      <trkpt lat="47.30551" lon="-1.51401">
        <ele>58.62</ele>
        <time>2020-08-09T08:20:44Z</time>
      </trkpt>
      <trkpt lat="47.30554" lon="-1.51401">
        <ele>58.6114</ele>
        <time>2020-08-09T08:20:45Z</time>
      </trkpt>
      <trkpt lat="47.30558" lon="-1.514">
        <ele>58.6036</ele>
        <time>2020-08-09T08:20:46Z</time>
      </trkpt>
      <trkpt lat="47.30562" lon="-1.514">
        <ele>58.5966</ele>
        <time>2020-08-09T08:20:47Z</time>
      </trkpt>
      <trkpt lat="47.30568" lon="-1.51401">
        <ele>58.5863</ele>
        <time>2020-08-09T08:20:49Z</time>
      </trkpt>
      <trkpt lat="47.30573" lon="-1.514">
        <ele>58.5781</ele>
        <time>2020-08-09T08:20:51Z</time>
      </trkpt>
      <trkpt lat="47.30577" lon="-1.514">
        <ele>58.5707</ele>
        <time>2020-08-09T08:20:53Z</time>
      </trkpt>
      <trkpt lat="47.30583" lon="-1.514">
        <ele>58.5654</ele>
        <time>2020-08-09T08:20:55Z</time>
      </trkpt>
      <trkpt lat="47.3059" lon="-1.51405">
        <ele>58.5593</ele>
        <time>2020-08-09T08:20:58Z</time>
      </trkpt>
      <trkpt lat="47.30595" lon="-1.51413">
        <ele>58.5544</ele>
        <time>2020-08-09T08:21:00Z</time>
      </trkpt>
      <trkpt lat="47.30597" lon="-1.51417">
        <ele>58.5519</ele>
        <time>2020-08-09T08:21:01Z</time>
      </trkpt>
      <trkpt lat="47.306" lon="-1.51424">
        <ele>58.5474</ele>
        <time>2020-08-09T08:21:03Z</time>
      </trkpt>
      <trkpt lat="47.30604" lon="-1.51431">
        <ele>58.5436</ele>
        <time>2020-08-09T08:21:05Z</time>
      </trkpt>
      <trkpt lat="47.30607" lon="-1.5144">
        <ele>58.5412</ele>
        <time>2020-08-09T08:21:08Z</time>
      </trkpt>
      <trkpt lat="47.30609" lon="-1.51447">
        <ele>58.5408</ele>
        <time>2020-08-09T08:21:10Z</time>
      </trkpt>
      <trkpt lat="47.30609" lon="-1.51451">
        <ele>58.5406</ele>
        <time>2020-08-09T08:21:11Z</time>
      </trkpt>
      <trkpt lat="47.30613" lon="-1.51457">
        <ele>58.5407</ele>
        <time>2020-08-09T08:21:13Z</time>
      </trkpt>
      <trkpt lat="47.30615" lon="-1.51465">
        <ele>58.5427</ele>
        <time>2020-08-09T08:21:15Z</time>
      </trkpt>
      <trkpt lat="47.30617" lon="-1.51469">
        <ele>58.544</ele>
        <time>2020-08-09T08:21:16Z</time>
      </trkpt>
      <trkpt lat="47.30618" lon="-1.51472">
        <ele>58.5461</ele>
        <time>2020-08-09T08:21:17Z</time>
      </trkpt>
      <trkpt lat="47.3062" lon="-1.51476">
        <ele>58.5488</ele>
        <time>2020-08-09T08:21:18Z</time>
      </trkpt>
      <trkpt lat="47.30621" lon="-1.5148">
        <ele>58.5529</ele>
        <time>2020-08-09T08:21:19Z</time>
      </trkpt>
      <trkpt lat="47.30624" lon="-1.51488">
        <ele>58.5619</ele>
        <time>2020-08-09T08:21:21Z</time>
      </trkpt>
      <trkpt lat="47.30626" lon="-1.51491">
        <ele>58.5654</ele>
        <time>2020-08-09T08:21:22Z</time>
      </trkpt>
      <trkpt lat="47.30627" lon="-1.51495">
        <ele>58.5678</ele>
        <time>2020-08-09T08:21:23Z</time>
      </trkpt>
      <trkpt lat="47.3063" lon="-1.51502">
        <ele>58.5714</ele>
        <time>2020-08-09T08:21:25Z</time>
      </trkpt>
      <trkpt lat="47.30633" lon="-1.51506">
        <ele>58.5733</ele>
        <time>2020-08-09T08:21:26Z</time>
      </trkpt>
      <trkpt lat="47.30635" lon="-1.51513">
        <ele>58.5764</ele>
        <time>2020-08-09T08:21:28Z</time>
      </trkpt>
      <trkpt lat="47.30637" lon="-1.51517">
        <ele>58.5772</ele>
        <time>2020-08-09T08:21:29Z</time>
      </trkpt>
      <trkpt lat="47.30638" lon="-1.5152">
        <ele>58.5779</ele>
        <time>2020-08-09T08:21:30Z</time>
      </trkpt>
      <trkpt lat="47.3064" lon="-1.51524">
        <ele>58.5778</ele>
        <time>2020-08-09T08:21:31Z</time>
      </trkpt>
      <trkpt lat="47.30645" lon="-1.51531">
        <ele>58.5767</ele>
        <time>2020-08-09T08:21:33Z</time>
      </trkpt>
      <trkpt lat="47.30648" lon="-1.51539">
        <ele>58.5765</ele>
        <time>2020-08-09T08:21:35Z</time>
      </trkpt>
      <trkpt lat="47.30652" lon="-1.51546">
        <ele>58.5769</ele>
        <time>2020-08-09T08:21:37Z</time>
      </trkpt>
      <trkpt lat="47.30653" lon="-1.51549">
        <ele>58.5765</ele>
        <time>2020-08-09T08:21:38Z</time>
      </trkpt>
      <trkpt lat="47.30655" lon="-1.51552">
        <ele>58.5763</ele>
        <time>2020-08-09T08:21:39Z</time>
      </trkpt>
      <trkpt lat="47.30657" lon="-1.51555">
        <ele>58.5765</ele>
        <time>2020-08-09T08:21:40Z</time>
      </trkpt>
      <trkpt lat="47.3066" lon="-1.51563">
        <ele>58.5778</ele>
        <time>2020-08-09T08:21:42Z</time>
      </trkpt>
      <trkpt lat="47.30661" lon="-1.51566">
        <ele>58.5793</ele>
        <time>2020-08-09T08:21:43Z</time>
      </trkpt>
      <trkpt lat="47.30662" lon="-1.5157">
        <ele>58.5805</ele>
        <time>2020-08-09T08:21:44Z</time>
      </trkpt>
      <trkpt lat="47.30664" lon="-1.51573">
        <ele>58.5825</ele>
        <time>2020-08-09T08:21:45Z</time>
      </trkpt>
      <trkpt lat="47.30665" lon="-1.51577">
        <ele>58.5853</ele>
        <time>2020-08-09T08:21:46Z</time>
      </trkpt>
      <trkpt lat="47.30667" lon="-1.5158">
        <ele>58.5885</ele>
        <time>2020-08-09T08:21:47Z</time>
      </trkpt>
      <trkpt lat="47.30668" lon="-1.51584">
        <ele>58.5924</ele>
        <time>2020-08-09T08:21:48Z</time>
      </trkpt>
      <trkpt lat="47.3067" lon="-1.51588">
        <ele>58.5978</ele>
        <time>2020-08-09T08:21:49Z</time>
      </trkpt>
      <trkpt lat="47.30673" lon="-1.51595">
        <ele>58.609</ele>
        <time>2020-08-09T08:21:51Z</time>
      </trkpt>
      <trkpt lat="47.30674" lon="-1.51598">
        <ele>58.6155</ele>
        <time>2020-08-09T08:21:52Z</time>
      </trkpt>
      <trkpt lat="47.30676" lon="-1.51601">
        <ele>58.6227</ele>
        <time>2020-08-09T08:21:53Z</time>
      </trkpt>
      <trkpt lat="47.30678" lon="-1.51604">
        <ele>58.6288</ele>
        <time>2020-08-09T08:21:54Z</time>
      </trkpt>
      <trkpt lat="47.30679" lon="-1.51608">
        <ele>58.6354</ele>
        <time>2020-08-09T08:21:55Z</time>
      </trkpt>
      <trkpt lat="47.30683" lon="-1.51618">
        <ele>58.6536</ele>
        <time>2020-08-09T08:21:58Z</time>
      </trkpt>
      <trkpt lat="47.30685" lon="-1.51621">
        <ele>58.6597</ele>
        <time>2020-08-09T08:21:59Z</time>
      </trkpt>
      <trkpt lat="47.30686" lon="-1.51624">
        <ele>58.6654</ele>
        <time>2020-08-09T08:22:00Z</time>
      </trkpt>
      <trkpt lat="47.30688" lon="-1.51631">
        <ele>58.6755</ele>
        <time>2020-08-09T08:22:02Z</time>
      </trkpt>
      <trkpt lat="47.30689" lon="-1.51635">
        <ele>58.6797</ele>
        <time>2020-08-09T08:22:03Z</time>
      </trkpt>
      <trkpt lat="47.30692" lon="-1.51644">
        <ele>58.6904</ele>
        <time>2020-08-09T08:22:06Z</time>
      </trkpt>
      <trkpt lat="47.30692" lon="-1.51648">
        <ele>58.6931</ele>
        <time>2020-08-09T08:22:07Z</time>
      </trkpt>
      <trkpt lat="47.30695" lon="-1.51658">
        <ele>58.7</ele>
        <time>2020-08-09T08:22:10Z</time>
      </trkpt>
      <trkpt lat="47.30696" lon="-1.51663">
        <ele>58.7031</ele>
        <time>2020-08-09T08:22:11Z</time>
      </trkpt>
      <trkpt lat="47.30698" lon="-1.51667">
        <ele>58.7056</ele>
        <time>2020-08-09T08:22:12Z</time>
      </trkpt>
      <trkpt lat="47.30699" lon="-1.51675">
        <ele>58.7096</ele>
        <time>2020-08-09T08:22:14Z</time>
      </trkpt>
      <trkpt lat="47.307" lon="-1.5168">
        <ele>58.7113</ele>
        <time>2020-08-09T08:22:15Z</time>
      </trkpt>
      <trkpt lat="47.30701" lon="-1.51683">
        <ele>58.7126</ele>
        <time>2020-08-09T08:22:16Z</time>
      </trkpt>
      <trkpt lat="47.30701" lon="-1.51683">
        <ele>17.1</ele>
        <time>2020-08-09T08:22:17Z</time>
      </trkpt>
      <trkpt lat="47.30701" lon="-1.51683">
        <ele>17.1</ele>
        <time>2020-08-09T08:22:20Z</time>
      </trkpt>
    </trkseg>
  </trk>
</gpx>